<?xml version="1.0" encoding="UTF-8" standalone="no" ?>
<gpx xmlns="http://www.topografix.com/GPX/1/1" xmlns:xsi="http://www.w3.org/2001/XMLSchema-instance" xsi:schemaLocation="http://www.topografix.com/GPX/1/1 http://www.topografix.com/GPX/1/1/gpx.xsd" version="1.1" creator="VisuGPX - https://www.visugpx.com">
  <metadata>
    <name>Sortie vélo le matin</name>
  </metadata>
  <trk>
    <name><![CDATA[Sortie vélo le matin_1]]></name>
    <trkseg>
      <trkpt lat="47.27483" lon="0.43234">
        <ele>76.9</ele>
        <time>2024-04-14T05:57:46Z</time>
      </trkpt>
      <trkpt lat="47.27506" lon="0.4324">
        <ele>78.3</ele>
        <time>2024-04-14T05:57:52Z</time>
      </trkpt>
      <trkpt lat="47.27513" lon="0.43244">
        <ele>78.8</ele>
        <time>2024-04-14T05:57:54Z</time>
      </trkpt>
      <trkpt lat="47.27531" lon="0.43253">
        <ele>79.8</ele>
        <time>2024-04-14T05:57:59Z</time>
      </trkpt>
      <trkpt lat="47.27539" lon="0.43257">
        <ele>80.2</ele>
        <time>2024-04-14T05:58:01Z</time>
      </trkpt>
      <trkpt lat="47.27542" lon="0.43259">
        <ele>80.4</ele>
        <time>2024-04-14T05:58:02Z</time>
      </trkpt>
      <trkpt lat="47.27558" lon="0.43268">
        <ele>81</ele>
        <time>2024-04-14T05:58:06Z</time>
      </trkpt>
      <trkpt lat="47.27575" lon="0.43277">
        <ele>81.6</ele>
        <time>2024-04-14T05:58:10Z</time>
      </trkpt>
      <trkpt lat="47.27603" lon="0.43291">
        <ele>82.6</ele>
        <time>2024-04-14T05:58:17Z</time>
      </trkpt>
      <trkpt lat="47.27607" lon="0.43293">
        <ele>82.7</ele>
        <time>2024-04-14T05:58:18Z</time>
      </trkpt>
      <trkpt lat="47.27625" lon="0.43299">
        <ele>83.2</ele>
        <time>2024-04-14T05:58:22Z</time>
      </trkpt>
      <trkpt lat="47.2763" lon="0.433">
        <ele>83.3</ele>
        <time>2024-04-14T05:58:23Z</time>
      </trkpt>
      <trkpt lat="47.27638" lon="0.43303">
        <ele>83.5</ele>
        <time>2024-04-14T05:58:25Z</time>
      </trkpt>
      <trkpt lat="47.2767" lon="0.43311">
        <ele>84.3</ele>
        <time>2024-04-14T05:58:32Z</time>
      </trkpt>
      <trkpt lat="47.27675" lon="0.43312">
        <ele>84.4</ele>
        <time>2024-04-14T05:58:33Z</time>
      </trkpt>
      <trkpt lat="47.27707" lon="0.43327">
        <ele>85</ele>
        <time>2024-04-14T05:58:40Z</time>
      </trkpt>
      <trkpt lat="47.2773" lon="0.43343">
        <ele>85.4</ele>
        <time>2024-04-14T05:58:45Z</time>
      </trkpt>
      <trkpt lat="47.27739" lon="0.43349">
        <ele>85.5</ele>
        <time>2024-04-14T05:58:47Z</time>
      </trkpt>
      <trkpt lat="47.27756" lon="0.43362">
        <ele>85.9</ele>
        <time>2024-04-14T05:58:51Z</time>
      </trkpt>
      <trkpt lat="47.27765" lon="0.43369">
        <ele>86</ele>
        <time>2024-04-14T05:58:53Z</time>
      </trkpt>
      <trkpt lat="47.27773" lon="0.43377">
        <ele>86.2</ele>
        <time>2024-04-14T05:58:55Z</time>
      </trkpt>
      <trkpt lat="47.27781" lon="0.43385">
        <ele>86.3</ele>
        <time>2024-04-14T05:58:57Z</time>
      </trkpt>
      <trkpt lat="47.27793" lon="0.43399">
        <ele>86.6</ele>
        <time>2024-04-14T05:59:00Z</time>
      </trkpt>
      <trkpt lat="47.27818" lon="0.43437">
        <ele>87.2</ele>
        <time>2024-04-14T05:59:07Z</time>
      </trkpt>
      <trkpt lat="47.27831" lon="0.4346">
        <ele>87.5</ele>
        <time>2024-04-14T05:59:11Z</time>
      </trkpt>
      <trkpt lat="47.27844" lon="0.43483">
        <ele>87.8</ele>
        <time>2024-04-14T05:59:15Z</time>
      </trkpt>
      <trkpt lat="47.2785" lon="0.43492">
        <ele>87.9</ele>
        <time>2024-04-14T05:59:17Z</time>
      </trkpt>
      <trkpt lat="47.27862" lon="0.43505">
        <ele>88.1</ele>
        <time>2024-04-14T05:59:20Z</time>
      </trkpt>
      <trkpt lat="47.27867" lon="0.43508">
        <ele>88.2</ele>
        <time>2024-04-14T05:59:21Z</time>
      </trkpt>
      <trkpt lat="47.279" lon="0.4353">
        <ele>88.5</ele>
        <time>2024-04-14T05:59:27Z</time>
      </trkpt>
      <trkpt lat="47.27915" lon="0.43544">
        <ele>88.7</ele>
        <time>2024-04-14T05:59:30Z</time>
      </trkpt>
      <trkpt lat="47.27942" lon="0.43577">
        <ele>89.1</ele>
        <time>2024-04-14T05:59:36Z</time>
      </trkpt>
      <trkpt lat="47.27951" lon="0.43606">
        <ele>89.4</ele>
        <time>2024-04-14T05:59:40Z</time>
      </trkpt>
      <trkpt lat="47.27953" lon="0.43613">
        <ele>89.5</ele>
        <time>2024-04-14T05:59:41Z</time>
      </trkpt>
      <trkpt lat="47.27958" lon="0.43627">
        <ele>89.6</ele>
        <time>2024-04-14T05:59:43Z</time>
      </trkpt>
      <trkpt lat="47.27966" lon="0.43656">
        <ele>90</ele>
        <time>2024-04-14T05:59:47Z</time>
      </trkpt>
      <trkpt lat="47.27967" lon="0.43664">
        <ele>90.1</ele>
        <time>2024-04-14T05:59:48Z</time>
      </trkpt>
      <trkpt lat="47.27974" lon="0.43705">
        <ele>90.4</ele>
        <time>2024-04-14T05:59:53Z</time>
      </trkpt>
      <trkpt lat="47.27975" lon="0.43714">
        <ele>90.4</ele>
        <time>2024-04-14T05:59:54Z</time>
      </trkpt>
      <trkpt lat="47.27978" lon="0.43771">
        <ele>90.9</ele>
        <time>2024-04-14T06:00:01Z</time>
      </trkpt>
      <trkpt lat="47.27985" lon="0.43837">
        <ele>91.5</ele>
        <time>2024-04-14T06:00:09Z</time>
      </trkpt>
      <trkpt lat="47.27987" lon="0.43845">
        <ele>91.6</ele>
        <time>2024-04-14T06:00:10Z</time>
      </trkpt>
      <trkpt lat="47.27999" lon="0.43873">
        <ele>91.8</ele>
        <time>2024-04-14T06:00:14Z</time>
      </trkpt>
      <trkpt lat="47.28017" lon="0.43907">
        <ele>92.1</ele>
        <time>2024-04-14T06:00:19Z</time>
      </trkpt>
      <trkpt lat="47.28033" lon="0.43941">
        <ele>92.3</ele>
        <time>2024-04-14T06:00:24Z</time>
      </trkpt>
      <trkpt lat="47.28039" lon="0.43955">
        <ele>92.3</ele>
        <time>2024-04-14T06:00:26Z</time>
      </trkpt>
      <trkpt lat="47.28065" lon="0.44012">
        <ele>92.1</ele>
        <time>2024-04-14T06:00:34Z</time>
      </trkpt>
      <trkpt lat="47.28095" lon="0.4408">
        <ele>91.6</ele>
        <time>2024-04-14T06:00:43Z</time>
      </trkpt>
      <trkpt lat="47.28109" lon="0.44116">
        <ele>91.5</ele>
        <time>2024-04-14T06:00:48Z</time>
      </trkpt>
      <trkpt lat="47.28116" lon="0.44137">
        <ele>91.6</ele>
        <time>2024-04-14T06:00:51Z</time>
      </trkpt>
      <trkpt lat="47.28119" lon="0.44151">
        <ele>91.7</ele>
        <time>2024-04-14T06:00:53Z</time>
      </trkpt>
      <trkpt lat="47.2812" lon="0.44172">
        <ele>92</ele>
        <time>2024-04-14T06:00:56Z</time>
      </trkpt>
      <trkpt lat="47.2812" lon="0.4422">
        <ele>92</ele>
        <time>2024-04-14T06:01:02Z</time>
      </trkpt>
      <trkpt lat="47.28125" lon="0.4429">
        <ele>92.6</ele>
        <time>2024-04-14T06:01:10Z</time>
      </trkpt>
      <trkpt lat="47.28137" lon="0.4434">
        <ele>92.9</ele>
        <time>2024-04-14T06:01:16Z</time>
      </trkpt>
      <trkpt lat="47.28162" lon="0.44398">
        <ele>93</ele>
        <time>2024-04-14T06:01:23Z</time>
      </trkpt>
      <trkpt lat="47.2819" lon="0.44441">
        <ele>93</ele>
        <time>2024-04-14T06:01:29Z</time>
      </trkpt>
      <trkpt lat="47.28195" lon="0.44448">
        <ele>93</ele>
        <time>2024-04-14T06:01:30Z</time>
      </trkpt>
      <trkpt lat="47.28233" lon="0.44507">
        <ele>93.2</ele>
        <time>2024-04-14T06:01:38Z</time>
      </trkpt>
      <trkpt lat="47.28268" lon="0.44568">
        <ele>93.5</ele>
        <time>2024-04-14T06:01:46Z</time>
      </trkpt>
      <trkpt lat="47.28277" lon="0.44584">
        <ele>93.6</ele>
        <time>2024-04-14T06:01:48Z</time>
      </trkpt>
      <trkpt lat="47.28314" lon="0.44643">
        <ele>93.8</ele>
        <time>2024-04-14T06:01:56Z</time>
      </trkpt>
      <trkpt lat="47.28323" lon="0.44657">
        <ele>93.8</ele>
        <time>2024-04-14T06:01:58Z</time>
      </trkpt>
      <trkpt lat="47.28327" lon="0.44665">
        <ele>93.7</ele>
        <time>2024-04-14T06:01:59Z</time>
      </trkpt>
      <trkpt lat="47.28359" lon="0.4472">
        <ele>93.7</ele>
        <time>2024-04-14T06:02:06Z</time>
      </trkpt>
      <trkpt lat="47.28392" lon="0.44784">
        <ele>93.6</ele>
        <time>2024-04-14T06:02:14Z</time>
      </trkpt>
      <trkpt lat="47.28396" lon="0.44792">
        <ele>93.6</ele>
        <time>2024-04-14T06:02:15Z</time>
      </trkpt>
      <trkpt lat="47.28427" lon="0.44858">
        <ele>93.8</ele>
        <time>2024-04-14T06:02:23Z</time>
      </trkpt>
      <trkpt lat="47.28437" lon="0.44884">
        <ele>93.9</ele>
        <time>2024-04-14T06:02:26Z</time>
      </trkpt>
      <trkpt lat="47.28459" lon="0.44938">
        <ele>94.3</ele>
        <time>2024-04-14T06:02:33Z</time>
      </trkpt>
      <trkpt lat="47.28481" lon="0.44995">
        <ele>94.7</ele>
        <time>2024-04-14T06:02:40Z</time>
      </trkpt>
      <trkpt lat="47.28484" lon="0.45004">
        <ele>94.8</ele>
        <time>2024-04-14T06:02:41Z</time>
      </trkpt>
      <trkpt lat="47.28498" lon="0.45063">
        <ele>95.1</ele>
        <time>2024-04-14T06:02:48Z</time>
      </trkpt>
      <trkpt lat="47.28501" lon="0.45079">
        <ele>95.2</ele>
        <time>2024-04-14T06:02:50Z</time>
      </trkpt>
      <trkpt lat="47.28501" lon="0.45086">
        <ele>95.2</ele>
        <time>2024-04-14T06:02:51Z</time>
      </trkpt>
      <trkpt lat="47.28501" lon="0.45099">
        <ele>95.1</ele>
        <time>2024-04-14T06:02:53Z</time>
      </trkpt>
      <trkpt lat="47.285" lon="0.45142">
        <ele>94.3</ele>
        <time>2024-04-14T06:02:58Z</time>
      </trkpt>
      <trkpt lat="47.28498" lon="0.45212">
        <ele>93.5</ele>
        <time>2024-04-14T06:03:05Z</time>
      </trkpt>
      <trkpt lat="47.28496" lon="0.45263">
        <ele>93.2</ele>
        <time>2024-04-14T06:03:10Z</time>
      </trkpt>
      <trkpt lat="47.28498" lon="0.45306">
        <ele>93</ele>
        <time>2024-04-14T06:03:14Z</time>
      </trkpt>
      <trkpt lat="47.28507" lon="0.45349">
        <ele>92.8</ele>
        <time>2024-04-14T06:03:18Z</time>
      </trkpt>
      <trkpt lat="47.28509" lon="0.45359">
        <ele>92.7</ele>
        <time>2024-04-14T06:03:19Z</time>
      </trkpt>
      <trkpt lat="47.28532" lon="0.45432">
        <ele>92.2</ele>
        <time>2024-04-14T06:03:26Z</time>
      </trkpt>
      <trkpt lat="47.28551" lon="0.45483">
        <ele>91.5</ele>
        <time>2024-04-14T06:03:31Z</time>
      </trkpt>
      <trkpt lat="47.28555" lon="0.45494">
        <ele>91.3</ele>
        <time>2024-04-14T06:03:32Z</time>
      </trkpt>
      <trkpt lat="47.28566" lon="0.45525">
        <ele>90.8</ele>
        <time>2024-04-14T06:03:35Z</time>
      </trkpt>
      <trkpt lat="47.28576" lon="0.45569">
        <ele>90.1</ele>
        <time>2024-04-14T06:03:39Z</time>
      </trkpt>
      <trkpt lat="47.28578" lon="0.45581">
        <ele>89.9</ele>
        <time>2024-04-14T06:03:40Z</time>
      </trkpt>
      <trkpt lat="47.28586" lon="0.45628">
        <ele>89.2</ele>
        <time>2024-04-14T06:03:44Z</time>
      </trkpt>
      <trkpt lat="47.28596" lon="0.45661">
        <ele>88.8</ele>
        <time>2024-04-14T06:03:47Z</time>
      </trkpt>
      <trkpt lat="47.28603" lon="0.45683">
        <ele>88.5</ele>
        <time>2024-04-14T06:03:49Z</time>
      </trkpt>
      <trkpt lat="47.28628" lon="0.45747">
        <ele>87.7</ele>
        <time>2024-04-14T06:03:55Z</time>
      </trkpt>
      <trkpt lat="47.28635" lon="0.45769">
        <ele>87.6</ele>
        <time>2024-04-14T06:03:57Z</time>
      </trkpt>
      <trkpt lat="47.28646" lon="0.45816">
        <ele>87.3</ele>
        <time>2024-04-14T06:04:01Z</time>
      </trkpt>
      <trkpt lat="47.28667" lon="0.45881">
        <ele>87.1</ele>
        <time>2024-04-14T06:04:07Z</time>
      </trkpt>
      <trkpt lat="47.28687" lon="0.45947">
        <ele>86.8</ele>
        <time>2024-04-14T06:04:13Z</time>
      </trkpt>
      <trkpt lat="47.28689" lon="0.45959">
        <ele>86.7</ele>
        <time>2024-04-14T06:04:14Z</time>
      </trkpt>
      <trkpt lat="47.28702" lon="0.46027">
        <ele>86.1</ele>
        <time>2024-04-14T06:04:20Z</time>
      </trkpt>
      <trkpt lat="47.28717" lon="0.46105">
        <ele>84.8</ele>
        <time>2024-04-14T06:04:27Z</time>
      </trkpt>
      <trkpt lat="47.2872" lon="0.46116">
        <ele>84.5</ele>
        <time>2024-04-14T06:04:28Z</time>
      </trkpt>
      <trkpt lat="47.28722" lon="0.46128">
        <ele>84.3</ele>
        <time>2024-04-14T06:04:29Z</time>
      </trkpt>
      <trkpt lat="47.28732" lon="0.46185">
        <ele>83.1</ele>
        <time>2024-04-14T06:04:34Z</time>
      </trkpt>
      <trkpt lat="47.28741" lon="0.46218">
        <ele>82.3</ele>
        <time>2024-04-14T06:04:37Z</time>
      </trkpt>
      <trkpt lat="47.28748" lon="0.46241">
        <ele>81.7</ele>
        <time>2024-04-14T06:04:39Z</time>
      </trkpt>
      <trkpt lat="47.28757" lon="0.4629">
        <ele>80.4</ele>
        <time>2024-04-14T06:04:43Z</time>
      </trkpt>
      <trkpt lat="47.28758" lon="0.46329">
        <ele>79.2</ele>
        <time>2024-04-14T06:04:46Z</time>
      </trkpt>
      <trkpt lat="47.28757" lon="0.46356">
        <ele>78.3</ele>
        <time>2024-04-14T06:04:48Z</time>
      </trkpt>
      <trkpt lat="47.28755" lon="0.4637">
        <ele>77.8</ele>
        <time>2024-04-14T06:04:49Z</time>
      </trkpt>
      <trkpt lat="47.28749" lon="0.46412">
        <ele>76.2</ele>
        <time>2024-04-14T06:04:52Z</time>
      </trkpt>
      <trkpt lat="47.28747" lon="0.46426">
        <ele>75.7</ele>
        <time>2024-04-14T06:04:53Z</time>
      </trkpt>
      <trkpt lat="47.28744" lon="0.46441">
        <ele>75.3</ele>
        <time>2024-04-14T06:04:54Z</time>
      </trkpt>
      <trkpt lat="47.28742" lon="0.46455">
        <ele>75</ele>
        <time>2024-04-14T06:04:55Z</time>
      </trkpt>
      <trkpt lat="47.28737" lon="0.46485">
        <ele>74.9</ele>
        <time>2024-04-14T06:04:57Z</time>
      </trkpt>
      <trkpt lat="47.28732" lon="0.46498">
        <ele>75</ele>
        <time>2024-04-14T06:04:58Z</time>
      </trkpt>
      <trkpt lat="47.28727" lon="0.46508">
        <ele>75.2</ele>
        <time>2024-04-14T06:04:59Z</time>
      </trkpt>
      <trkpt lat="47.28709" lon="0.46528">
        <ele>76.2</ele>
        <time>2024-04-14T06:05:02Z</time>
      </trkpt>
      <trkpt lat="47.28703" lon="0.46534">
        <ele>76.6</ele>
        <time>2024-04-14T06:05:03Z</time>
      </trkpt>
      <trkpt lat="47.28693" lon="0.46545">
        <ele>77.2</ele>
        <time>2024-04-14T06:05:05Z</time>
      </trkpt>
      <trkpt lat="47.28683" lon="0.46556">
        <ele>77.9</ele>
        <time>2024-04-14T06:05:07Z</time>
      </trkpt>
      <trkpt lat="47.28678" lon="0.46562">
        <ele>78.2</ele>
        <time>2024-04-14T06:05:08Z</time>
      </trkpt>
      <trkpt lat="47.28674" lon="0.46567">
        <ele>78.5</ele>
        <time>2024-04-14T06:05:09Z</time>
      </trkpt>
      <trkpt lat="47.2866" lon="0.46583">
        <ele>79.5</ele>
        <time>2024-04-14T06:05:12Z</time>
      </trkpt>
      <trkpt lat="47.2865" lon="0.46594">
        <ele>80.2</ele>
        <time>2024-04-14T06:05:14Z</time>
      </trkpt>
      <trkpt lat="47.28645" lon="0.46599">
        <ele>80.6</ele>
        <time>2024-04-14T06:05:15Z</time>
      </trkpt>
      <trkpt lat="47.28626" lon="0.46621">
        <ele>81.8</ele>
        <time>2024-04-14T06:05:19Z</time>
      </trkpt>
      <trkpt lat="47.28622" lon="0.46628">
        <ele>82.1</ele>
        <time>2024-04-14T06:05:20Z</time>
      </trkpt>
      <trkpt lat="47.28609" lon="0.46647">
        <ele>83</ele>
        <time>2024-04-14T06:05:23Z</time>
      </trkpt>
      <trkpt lat="47.28599" lon="0.46668">
        <ele>83.9</ele>
        <time>2024-04-14T06:05:26Z</time>
      </trkpt>
      <trkpt lat="47.28596" lon="0.46676">
        <ele>84.2</ele>
        <time>2024-04-14T06:05:27Z</time>
      </trkpt>
      <trkpt lat="47.28588" lon="0.46701">
        <ele>85</ele>
        <time>2024-04-14T06:05:30Z</time>
      </trkpt>
      <trkpt lat="47.28586" lon="0.46709">
        <ele>85.3</ele>
        <time>2024-04-14T06:05:31Z</time>
      </trkpt>
      <trkpt lat="47.28584" lon="0.46718">
        <ele>85.6</ele>
        <time>2024-04-14T06:05:32Z</time>
      </trkpt>
      <trkpt lat="47.2858" lon="0.46745">
        <ele>86.4</ele>
        <time>2024-04-14T06:05:35Z</time>
      </trkpt>
      <trkpt lat="47.2858" lon="0.46754">
        <ele>86.7</ele>
        <time>2024-04-14T06:05:36Z</time>
      </trkpt>
      <trkpt lat="47.28577" lon="0.46781">
        <ele>87.3</ele>
        <time>2024-04-14T06:05:39Z</time>
      </trkpt>
      <trkpt lat="47.28576" lon="0.4679">
        <ele>87.5</ele>
        <time>2024-04-14T06:05:40Z</time>
      </trkpt>
      <trkpt lat="47.28574" lon="0.46809">
        <ele>87.8</ele>
        <time>2024-04-14T06:05:42Z</time>
      </trkpt>
      <trkpt lat="47.28573" lon="0.46818">
        <ele>87.9</ele>
        <time>2024-04-14T06:05:43Z</time>
      </trkpt>
      <trkpt lat="47.28572" lon="0.46836">
        <ele>88.1</ele>
        <time>2024-04-14T06:05:45Z</time>
      </trkpt>
      <trkpt lat="47.28569" lon="0.46882">
        <ele>88.5</ele>
        <time>2024-04-14T06:05:50Z</time>
      </trkpt>
      <trkpt lat="47.28569" lon="0.46891">
        <ele>88.6</ele>
        <time>2024-04-14T06:05:51Z</time>
      </trkpt>
      <trkpt lat="47.28566" lon="0.46916">
        <ele>88.8</ele>
        <time>2024-04-14T06:05:54Z</time>
      </trkpt>
      <trkpt lat="47.2856" lon="0.46937">
        <ele>88.9</ele>
        <time>2024-04-14T06:05:57Z</time>
      </trkpt>
      <trkpt lat="47.28544" lon="0.46941">
        <ele>89</ele>
        <time>2024-04-14T06:06:00Z</time>
      </trkpt>
      <trkpt lat="47.28531" lon="0.46939">
        <ele>89.1</ele>
        <time>2024-04-14T06:06:02Z</time>
      </trkpt>
      <trkpt lat="47.28512" lon="0.46938">
        <ele>89.4</ele>
        <time>2024-04-14T06:06:05Z</time>
      </trkpt>
      <trkpt lat="47.28467" lon="0.46934">
        <ele>90.1</ele>
        <time>2024-04-14T06:06:12Z</time>
      </trkpt>
      <trkpt lat="47.28426" lon="0.46931">
        <ele>90.4</ele>
        <time>2024-04-14T06:06:18Z</time>
      </trkpt>
      <trkpt lat="47.28392" lon="0.46928">
        <ele>90.4</ele>
        <time>2024-04-14T06:06:23Z</time>
      </trkpt>
      <trkpt lat="47.28335" lon="0.46923">
        <ele>90.4</ele>
        <time>2024-04-14T06:06:31Z</time>
      </trkpt>
      <trkpt lat="47.28321" lon="0.46921">
        <ele>90.5</ele>
        <time>2024-04-14T06:06:33Z</time>
      </trkpt>
      <trkpt lat="47.28264" lon="0.46918">
        <ele>91.2</ele>
        <time>2024-04-14T06:06:41Z</time>
      </trkpt>
      <trkpt lat="47.28244" lon="0.46918">
        <ele>91.4</ele>
        <time>2024-04-14T06:06:44Z</time>
      </trkpt>
      <trkpt lat="47.28194" lon="0.4693">
        <ele>91.4</ele>
        <time>2024-04-14T06:06:51Z</time>
      </trkpt>
      <trkpt lat="47.28154" lon="0.46943">
        <ele>91.3</ele>
        <time>2024-04-14T06:06:57Z</time>
      </trkpt>
      <trkpt lat="47.2815" lon="0.46949">
        <ele>91.3</ele>
        <time>2024-04-14T06:06:58Z</time>
      </trkpt>
      <trkpt lat="47.28146" lon="0.46974">
        <ele>91.5</ele>
        <time>2024-04-14T06:07:01Z</time>
      </trkpt>
      <trkpt lat="47.28145" lon="0.46982">
        <ele>91.6</ele>
        <time>2024-04-14T06:07:02Z</time>
      </trkpt>
      <trkpt lat="47.28137" lon="0.47025">
        <ele>92.1</ele>
        <time>2024-04-14T06:07:07Z</time>
      </trkpt>
      <trkpt lat="47.28128" lon="0.47068">
        <ele>92.8</ele>
        <time>2024-04-14T06:07:12Z</time>
      </trkpt>
      <trkpt lat="47.28125" lon="0.47086">
        <ele>93</ele>
        <time>2024-04-14T06:07:14Z</time>
      </trkpt>
      <trkpt lat="47.28114" lon="0.4714">
        <ele>93.8</ele>
        <time>2024-04-14T06:07:20Z</time>
      </trkpt>
      <trkpt lat="47.28106" lon="0.47185">
        <ele>94.3</ele>
        <time>2024-04-14T06:07:25Z</time>
      </trkpt>
      <trkpt lat="47.28089" lon="0.47269">
        <ele>94.6</ele>
        <time>2024-04-14T06:07:34Z</time>
      </trkpt>
      <trkpt lat="47.28087" lon="0.47279">
        <ele>94.6</ele>
        <time>2024-04-14T06:07:35Z</time>
      </trkpt>
      <trkpt lat="47.28084" lon="0.47288">
        <ele>94.6</ele>
        <time>2024-04-14T06:07:36Z</time>
      </trkpt>
      <trkpt lat="47.28078" lon="0.47306">
        <ele>94.7</ele>
        <time>2024-04-14T06:07:38Z</time>
      </trkpt>
      <trkpt lat="47.28075" lon="0.47314">
        <ele>94.7</ele>
        <time>2024-04-14T06:07:39Z</time>
      </trkpt>
      <trkpt lat="47.28051" lon="0.47358">
        <ele>94.9</ele>
        <time>2024-04-14T06:07:45Z</time>
      </trkpt>
      <trkpt lat="47.28031" lon="0.47397">
        <ele>95</ele>
        <time>2024-04-14T06:07:50Z</time>
      </trkpt>
      <trkpt lat="47.28013" lon="0.47451">
        <ele>95</ele>
        <time>2024-04-14T06:07:56Z</time>
      </trkpt>
      <trkpt lat="47.27997" lon="0.47508">
        <ele>95.1</ele>
        <time>2024-04-14T06:08:02Z</time>
      </trkpt>
      <trkpt lat="47.27985" lon="0.47568">
        <ele>95.4</ele>
        <time>2024-04-14T06:08:08Z</time>
      </trkpt>
      <trkpt lat="47.27972" lon="0.47643">
        <ele>95.6</ele>
        <time>2024-04-14T06:08:15Z</time>
      </trkpt>
      <trkpt lat="47.27959" lon="0.47718">
        <ele>96</ele>
        <time>2024-04-14T06:08:22Z</time>
      </trkpt>
      <trkpt lat="47.27957" lon="0.47727">
        <ele>96.1</ele>
        <time>2024-04-14T06:08:23Z</time>
      </trkpt>
      <trkpt lat="47.27948" lon="0.47774">
        <ele>96.2</ele>
        <time>2024-04-14T06:08:28Z</time>
      </trkpt>
      <trkpt lat="47.27934" lon="0.47847">
        <ele>96.3</ele>
        <time>2024-04-14T06:08:35Z</time>
      </trkpt>
      <trkpt lat="47.27922" lon="0.47918">
        <ele>96.4</ele>
        <time>2024-04-14T06:08:42Z</time>
      </trkpt>
      <trkpt lat="47.27924" lon="0.47927">
        <ele>96.4</ele>
        <time>2024-04-14T06:08:43Z</time>
      </trkpt>
      <trkpt lat="47.27927" lon="0.47934">
        <ele>96.4</ele>
        <time>2024-04-14T06:08:44Z</time>
      </trkpt>
      <trkpt lat="47.27932" lon="0.47938">
        <ele>96.3</ele>
        <time>2024-04-14T06:08:45Z</time>
      </trkpt>
      <trkpt lat="47.27938" lon="0.47939">
        <ele>96.3</ele>
        <time>2024-04-14T06:08:46Z</time>
      </trkpt>
      <trkpt lat="47.27956" lon="0.47943">
        <ele>96.3</ele>
        <time>2024-04-14T06:08:49Z</time>
      </trkpt>
      <trkpt lat="47.27961" lon="0.47946">
        <ele>96.3</ele>
        <time>2024-04-14T06:08:50Z</time>
      </trkpt>
      <trkpt lat="47.2797" lon="0.47966">
        <ele>96.3</ele>
        <time>2024-04-14T06:08:53Z</time>
      </trkpt>
      <trkpt lat="47.27972" lon="0.47992">
        <ele>96.3</ele>
        <time>2024-04-14T06:08:56Z</time>
      </trkpt>
      <trkpt lat="47.27974" lon="0.4801">
        <ele>96.3</ele>
        <time>2024-04-14T06:08:58Z</time>
      </trkpt>
      <trkpt lat="47.27981" lon="0.48079">
        <ele>96.3</ele>
        <time>2024-04-14T06:09:05Z</time>
      </trkpt>
      <trkpt lat="47.27989" lon="0.48142">
        <ele>96.3</ele>
        <time>2024-04-14T06:09:11Z</time>
      </trkpt>
      <trkpt lat="47.27998" lon="0.48225">
        <ele>96</ele>
        <time>2024-04-14T06:09:19Z</time>
      </trkpt>
      <trkpt lat="47.28" lon="0.48267">
        <ele>95.8</ele>
        <time>2024-04-14T06:09:23Z</time>
      </trkpt>
      <trkpt lat="47.28" lon="0.48277">
        <ele>95.8</ele>
        <time>2024-04-14T06:09:24Z</time>
      </trkpt>
      <trkpt lat="47.27992" lon="0.48317">
        <ele>95.7</ele>
        <time>2024-04-14T06:09:28Z</time>
      </trkpt>
      <trkpt lat="47.27981" lon="0.48364">
        <ele>95.4</ele>
        <time>2024-04-14T06:09:33Z</time>
      </trkpt>
      <trkpt lat="47.27975" lon="0.48383">
        <ele>95.3</ele>
        <time>2024-04-14T06:09:35Z</time>
      </trkpt>
      <trkpt lat="47.27964" lon="0.48424">
        <ele>95</ele>
        <time>2024-04-14T06:09:39Z</time>
      </trkpt>
      <trkpt lat="47.27961" lon="0.48434">
        <ele>94.9</ele>
        <time>2024-04-14T06:09:40Z</time>
      </trkpt>
      <trkpt lat="47.27942" lon="0.48508">
        <ele>93.6</ele>
        <time>2024-04-14T06:09:47Z</time>
      </trkpt>
      <trkpt lat="47.27939" lon="0.48518">
        <ele>93.4</ele>
        <time>2024-04-14T06:09:48Z</time>
      </trkpt>
      <trkpt lat="47.27923" lon="0.48572">
        <ele>92.1</ele>
        <time>2024-04-14T06:09:53Z</time>
      </trkpt>
      <trkpt lat="47.2792" lon="0.48583">
        <ele>91.9</ele>
        <time>2024-04-14T06:09:54Z</time>
      </trkpt>
      <trkpt lat="47.27908" lon="0.48626">
        <ele>91.1</ele>
        <time>2024-04-14T06:09:58Z</time>
      </trkpt>
      <trkpt lat="47.27902" lon="0.48647">
        <ele>90.9</ele>
        <time>2024-04-14T06:10:00Z</time>
      </trkpt>
      <trkpt lat="47.27897" lon="0.48667">
        <ele>90.7</ele>
        <time>2024-04-14T06:10:02Z</time>
      </trkpt>
      <trkpt lat="47.27895" lon="0.48677">
        <ele>90.7</ele>
        <time>2024-04-14T06:10:03Z</time>
      </trkpt>
      <trkpt lat="47.27889" lon="0.48696">
        <ele>90.8</ele>
        <time>2024-04-14T06:10:05Z</time>
      </trkpt>
      <trkpt lat="47.27879" lon="0.48708">
        <ele>90.9</ele>
        <time>2024-04-14T06:10:07Z</time>
      </trkpt>
      <trkpt lat="47.27858" lon="0.48707">
        <ele>90.9</ele>
        <time>2024-04-14T06:10:10Z</time>
      </trkpt>
      <trkpt lat="47.27852" lon="0.48703">
        <ele>90.8</ele>
        <time>2024-04-14T06:10:11Z</time>
      </trkpt>
      <trkpt lat="47.27825" lon="0.48687">
        <ele>90.9</ele>
        <time>2024-04-14T06:10:15Z</time>
      </trkpt>
      <trkpt lat="47.27811" lon="0.4868">
        <ele>91</ele>
        <time>2024-04-14T06:10:17Z</time>
      </trkpt>
      <trkpt lat="47.27756" lon="0.48651">
        <ele>92</ele>
        <time>2024-04-14T06:10:25Z</time>
      </trkpt>
      <trkpt lat="47.27742" lon="0.48644">
        <ele>92.3</ele>
        <time>2024-04-14T06:10:27Z</time>
      </trkpt>
      <trkpt lat="47.27722" lon="0.48633">
        <ele>92.9</ele>
        <time>2024-04-14T06:10:30Z</time>
      </trkpt>
      <trkpt lat="47.27697" lon="0.48619">
        <ele>93.5</ele>
        <time>2024-04-14T06:10:34Z</time>
      </trkpt>
      <trkpt lat="47.27685" lon="0.48613">
        <ele>93.7</ele>
        <time>2024-04-14T06:10:36Z</time>
      </trkpt>
      <trkpt lat="47.27672" lon="0.48606">
        <ele>93.9</ele>
        <time>2024-04-14T06:10:38Z</time>
      </trkpt>
      <trkpt lat="47.2762" lon="0.48575">
        <ele>93.8</ele>
        <time>2024-04-14T06:10:46Z</time>
      </trkpt>
      <trkpt lat="47.2759" lon="0.48542">
        <ele>93.3</ele>
        <time>2024-04-14T06:10:51Z</time>
      </trkpt>
      <trkpt lat="47.27549" lon="0.48493">
        <ele>92</ele>
        <time>2024-04-14T06:10:58Z</time>
      </trkpt>
      <trkpt lat="47.27512" lon="0.48466">
        <ele>90.5</ele>
        <time>2024-04-14T06:11:03Z</time>
      </trkpt>
      <trkpt lat="47.27482" lon="0.48447">
        <ele>90.1</ele>
        <time>2024-04-14T06:11:07Z</time>
      </trkpt>
      <trkpt lat="47.2746" lon="0.48434">
        <ele>90.3</ele>
        <time>2024-04-14T06:11:10Z</time>
      </trkpt>
      <trkpt lat="47.27404" lon="0.48405">
        <ele>91.4</ele>
        <time>2024-04-14T06:11:18Z</time>
      </trkpt>
      <trkpt lat="47.27391" lon="0.48398">
        <ele>91.6</ele>
        <time>2024-04-14T06:11:20Z</time>
      </trkpt>
      <trkpt lat="47.2735" lon="0.48371">
        <ele>91.9</ele>
        <time>2024-04-14T06:11:26Z</time>
      </trkpt>
      <trkpt lat="47.27324" lon="0.48352">
        <ele>92.2</ele>
        <time>2024-04-14T06:11:30Z</time>
      </trkpt>
      <trkpt lat="47.273" lon="0.48333">
        <ele>92.4</ele>
        <time>2024-04-14T06:11:34Z</time>
      </trkpt>
      <trkpt lat="47.27252" lon="0.48295">
        <ele>92.9</ele>
        <time>2024-04-14T06:11:42Z</time>
      </trkpt>
      <trkpt lat="47.27247" lon="0.48291">
        <ele>93</ele>
        <time>2024-04-14T06:11:43Z</time>
      </trkpt>
      <trkpt lat="47.27231" lon="0.48278">
        <ele>93.2</ele>
        <time>2024-04-14T06:11:46Z</time>
      </trkpt>
      <trkpt lat="47.27221" lon="0.48269">
        <ele>93.5</ele>
        <time>2024-04-14T06:11:48Z</time>
      </trkpt>
      <trkpt lat="47.27213" lon="0.48258">
        <ele>93.8</ele>
        <time>2024-04-14T06:11:50Z</time>
      </trkpt>
      <trkpt lat="47.2721" lon="0.48237">
        <ele>94.2</ele>
        <time>2024-04-14T06:11:53Z</time>
      </trkpt>
      <trkpt lat="47.27213" lon="0.4823">
        <ele>94</ele>
        <time>2024-04-14T06:11:54Z</time>
      </trkpt>
      <trkpt lat="47.27223" lon="0.48217">
        <ele>93.6</ele>
        <time>2024-04-14T06:11:56Z</time>
      </trkpt>
      <trkpt lat="47.27228" lon="0.48211">
        <ele>93.5</ele>
        <time>2024-04-14T06:11:57Z</time>
      </trkpt>
      <trkpt lat="47.27248" lon="0.4818">
        <ele>92.8</ele>
        <time>2024-04-14T06:12:01Z</time>
      </trkpt>
      <trkpt lat="47.27258" lon="0.48163">
        <ele>92.5</ele>
        <time>2024-04-14T06:12:03Z</time>
      </trkpt>
      <trkpt lat="47.27272" lon="0.48137">
        <ele>92.1</ele>
        <time>2024-04-14T06:12:06Z</time>
      </trkpt>
      <trkpt lat="47.27284" lon="0.48112">
        <ele>91.7</ele>
        <time>2024-04-14T06:12:09Z</time>
      </trkpt>
      <trkpt lat="47.27296" lon="0.48087">
        <ele>91.3</ele>
        <time>2024-04-14T06:12:12Z</time>
      </trkpt>
      <trkpt lat="47.27311" lon="0.48053">
        <ele>90.8</ele>
        <time>2024-04-14T06:12:16Z</time>
      </trkpt>
      <trkpt lat="47.27318" lon="0.48037">
        <ele>90.6</ele>
        <time>2024-04-14T06:12:18Z</time>
      </trkpt>
      <trkpt lat="47.27345" lon="0.47971">
        <ele>90.2</ele>
        <time>2024-04-14T06:12:25Z</time>
      </trkpt>
      <trkpt lat="47.27348" lon="0.47962">
        <ele>90.2</ele>
        <time>2024-04-14T06:12:26Z</time>
      </trkpt>
      <trkpt lat="47.27358" lon="0.47909">
        <ele>90.2</ele>
        <time>2024-04-14T06:12:31Z</time>
      </trkpt>
      <trkpt lat="47.27367" lon="0.47835">
        <ele>90.4</ele>
        <time>2024-04-14T06:12:38Z</time>
      </trkpt>
      <trkpt lat="47.2737" lon="0.47794">
        <ele>90.6</ele>
        <time>2024-04-14T06:12:42Z</time>
      </trkpt>
      <trkpt lat="47.27369" lon="0.47785">
        <ele>90.6</ele>
        <time>2024-04-14T06:12:43Z</time>
      </trkpt>
      <trkpt lat="47.27357" lon="0.47763">
        <ele>90.7</ele>
        <time>2024-04-14T06:12:46Z</time>
      </trkpt>
      <trkpt lat="47.27344" lon="0.47755">
        <ele>90.8</ele>
        <time>2024-04-14T06:12:48Z</time>
      </trkpt>
      <trkpt lat="47.27325" lon="0.47742">
        <ele>90.9</ele>
        <time>2024-04-14T06:12:51Z</time>
      </trkpt>
      <trkpt lat="47.27287" lon="0.47714">
        <ele>90.8</ele>
        <time>2024-04-14T06:12:57Z</time>
      </trkpt>
      <trkpt lat="47.27284" lon="0.47706">
        <ele>90.7</ele>
        <time>2024-04-14T06:12:58Z</time>
      </trkpt>
      <trkpt lat="47.27286" lon="0.47687">
        <ele>90.6</ele>
        <time>2024-04-14T06:13:00Z</time>
      </trkpt>
      <trkpt lat="47.27289" lon="0.47679">
        <ele>90.5</ele>
        <time>2024-04-14T06:13:01Z</time>
      </trkpt>
      <trkpt lat="47.27292" lon="0.47669">
        <ele>90.4</ele>
        <time>2024-04-14T06:13:02Z</time>
      </trkpt>
      <trkpt lat="47.27292" lon="0.4765">
        <ele>90.3</ele>
        <time>2024-04-14T06:13:04Z</time>
      </trkpt>
      <trkpt lat="47.27277" lon="0.4763">
        <ele>89.9</ele>
        <time>2024-04-14T06:13:07Z</time>
      </trkpt>
      <trkpt lat="47.2727" lon="0.47624">
        <ele>89.8</ele>
        <time>2024-04-14T06:13:08Z</time>
      </trkpt>
      <trkpt lat="47.27226" lon="0.47581">
        <ele>89.6</ele>
        <time>2024-04-14T06:13:15Z</time>
      </trkpt>
      <trkpt lat="47.27189" lon="0.4754">
        <ele>90.2</ele>
        <time>2024-04-14T06:13:21Z</time>
      </trkpt>
      <trkpt lat="47.27171" lon="0.4752">
        <ele>90.4</ele>
        <time>2024-04-14T06:13:24Z</time>
      </trkpt>
      <trkpt lat="47.27139" lon="0.47479">
        <ele>91.3</ele>
        <time>2024-04-14T06:13:30Z</time>
      </trkpt>
      <trkpt lat="47.27109" lon="0.47445">
        <ele>92.2</ele>
        <time>2024-04-14T06:13:36Z</time>
      </trkpt>
      <trkpt lat="47.27103" lon="0.4744">
        <ele>92.4</ele>
        <time>2024-04-14T06:13:37Z</time>
      </trkpt>
      <trkpt lat="47.2708" lon="0.4742">
        <ele>93.1</ele>
        <time>2024-04-14T06:13:41Z</time>
      </trkpt>
      <trkpt lat="47.27055" lon="0.47403">
        <ele>93.8</ele>
        <time>2024-04-14T06:13:45Z</time>
      </trkpt>
      <trkpt lat="47.27037" lon="0.47391">
        <ele>94.4</ele>
        <time>2024-04-14T06:13:48Z</time>
      </trkpt>
      <trkpt lat="47.26993" lon="0.47363">
        <ele>95.5</ele>
        <time>2024-04-14T06:13:55Z</time>
      </trkpt>
      <trkpt lat="47.2698" lon="0.47354">
        <ele>95.7</ele>
        <time>2024-04-14T06:13:57Z</time>
      </trkpt>
      <trkpt lat="47.2696" lon="0.47341">
        <ele>96</ele>
        <time>2024-04-14T06:14:00Z</time>
      </trkpt>
      <trkpt lat="47.26928" lon="0.47316">
        <ele>96.2</ele>
        <time>2024-04-14T06:14:05Z</time>
      </trkpt>
      <trkpt lat="47.26877" lon="0.47275">
        <ele>96.3</ele>
        <time>2024-04-14T06:14:13Z</time>
      </trkpt>
      <trkpt lat="47.26829" lon="0.47231">
        <ele>95.8</ele>
        <time>2024-04-14T06:14:21Z</time>
      </trkpt>
      <trkpt lat="47.26817" lon="0.4722">
        <ele>95.5</ele>
        <time>2024-04-14T06:14:23Z</time>
      </trkpt>
      <trkpt lat="47.26771" lon="0.4719">
        <ele>93.9</ele>
        <time>2024-04-14T06:14:30Z</time>
      </trkpt>
      <trkpt lat="47.26747" lon="0.47191">
        <ele>93.1</ele>
        <time>2024-04-14T06:14:33Z</time>
      </trkpt>
      <trkpt lat="47.26739" lon="0.47193">
        <ele>93</ele>
        <time>2024-04-14T06:14:34Z</time>
      </trkpt>
      <trkpt lat="47.26731" lon="0.47194">
        <ele>92.9</ele>
        <time>2024-04-14T06:14:35Z</time>
      </trkpt>
      <trkpt lat="47.26716" lon="0.47188">
        <ele>92.6</ele>
        <time>2024-04-14T06:14:37Z</time>
      </trkpt>
      <trkpt lat="47.26703" lon="0.47178">
        <ele>92</ele>
        <time>2024-04-14T06:14:39Z</time>
      </trkpt>
      <trkpt lat="47.26687" lon="0.4718">
        <ele>91.8</ele>
        <time>2024-04-14T06:14:41Z</time>
      </trkpt>
      <trkpt lat="47.26679" lon="0.47198">
        <ele>92</ele>
        <time>2024-04-14T06:14:43Z</time>
      </trkpt>
      <trkpt lat="47.26677" lon="0.4722">
        <ele>92.5</ele>
        <time>2024-04-14T06:14:45Z</time>
      </trkpt>
      <trkpt lat="47.26677" lon="0.47231">
        <ele>92.8</ele>
        <time>2024-04-14T06:14:46Z</time>
      </trkpt>
      <trkpt lat="47.26669" lon="0.47272">
        <ele>94</ele>
        <time>2024-04-14T06:14:50Z</time>
      </trkpt>
      <trkpt lat="47.26656" lon="0.47318">
        <ele>94.4</ele>
        <time>2024-04-14T06:14:55Z</time>
      </trkpt>
      <trkpt lat="47.26653" lon="0.47327">
        <ele>94.5</ele>
        <time>2024-04-14T06:14:56Z</time>
      </trkpt>
      <trkpt lat="47.26646" lon="0.47346">
        <ele>94.6</ele>
        <time>2024-04-14T06:14:58Z</time>
      </trkpt>
      <trkpt lat="47.26629" lon="0.47381">
        <ele>94.5</ele>
        <time>2024-04-14T06:15:02Z</time>
      </trkpt>
      <trkpt lat="47.26599" lon="0.47442">
        <ele>93.5</ele>
        <time>2024-04-14T06:15:09Z</time>
      </trkpt>
      <trkpt lat="47.26594" lon="0.4745">
        <ele>93.3</ele>
        <time>2024-04-14T06:15:10Z</time>
      </trkpt>
      <trkpt lat="47.26582" lon="0.4746">
        <ele>92.8</ele>
        <time>2024-04-14T06:15:12Z</time>
      </trkpt>
      <trkpt lat="47.26575" lon="0.47475">
        <ele>92.8</ele>
        <time>2024-04-14T06:15:14Z</time>
      </trkpt>
      <trkpt lat="47.26579" lon="0.47493">
        <ele>92.8</ele>
        <time>2024-04-14T06:15:16Z</time>
      </trkpt>
      <trkpt lat="47.26583" lon="0.47501">
        <ele>92.7</ele>
        <time>2024-04-14T06:15:17Z</time>
      </trkpt>
      <trkpt lat="47.26593" lon="0.47516">
        <ele>92.8</ele>
        <time>2024-04-14T06:15:19Z</time>
      </trkpt>
      <trkpt lat="47.26598" lon="0.47524">
        <ele>92.9</ele>
        <time>2024-04-14T06:15:20Z</time>
      </trkpt>
      <trkpt lat="47.2662" lon="0.4756">
        <ele>93</ele>
        <time>2024-04-14T06:15:25Z</time>
      </trkpt>
      <trkpt lat="47.26621" lon="0.47568">
        <ele>93</ele>
        <time>2024-04-14T06:15:26Z</time>
      </trkpt>
      <trkpt lat="47.26616" lon="0.47597">
        <ele>91.5</ele>
        <time>2024-04-14T06:15:29Z</time>
      </trkpt>
      <trkpt lat="47.26614" lon="0.47607">
        <ele>90.9</ele>
        <time>2024-04-14T06:15:30Z</time>
      </trkpt>
      <trkpt lat="47.26611" lon="0.47641">
        <ele>89.5</ele>
        <time>2024-04-14T06:15:33Z</time>
      </trkpt>
      <trkpt lat="47.26607" lon="0.47664">
        <ele>88.9</ele>
        <time>2024-04-14T06:15:35Z</time>
      </trkpt>
      <trkpt lat="47.26603" lon="0.47673">
        <ele>88.5</ele>
        <time>2024-04-14T06:15:36Z</time>
      </trkpt>
      <trkpt lat="47.2659" lon="0.47687">
        <ele>87.5</ele>
        <time>2024-04-14T06:15:38Z</time>
      </trkpt>
      <trkpt lat="47.26581" lon="0.47692">
        <ele>87</ele>
        <time>2024-04-14T06:15:39Z</time>
      </trkpt>
      <trkpt lat="47.26563" lon="0.47703">
        <ele>85.8</ele>
        <time>2024-04-14T06:15:41Z</time>
      </trkpt>
      <trkpt lat="47.26544" lon="0.47714">
        <ele>84.3</ele>
        <time>2024-04-14T06:15:43Z</time>
      </trkpt>
      <trkpt lat="47.26536" lon="0.4772">
        <ele>83.6</ele>
        <time>2024-04-14T06:15:44Z</time>
      </trkpt>
      <trkpt lat="47.26528" lon="0.47729">
        <ele>82.9</ele>
        <time>2024-04-14T06:15:45Z</time>
      </trkpt>
      <trkpt lat="47.26524" lon="0.47741">
        <ele>82.6</ele>
        <time>2024-04-14T06:15:46Z</time>
      </trkpt>
      <trkpt lat="47.2652" lon="0.47755">
        <ele>82.3</ele>
        <time>2024-04-14T06:15:47Z</time>
      </trkpt>
      <trkpt lat="47.26515" lon="0.47768">
        <ele>82.1</ele>
        <time>2024-04-14T06:15:48Z</time>
      </trkpt>
      <trkpt lat="47.26501" lon="0.47788">
        <ele>81.5</ele>
        <time>2024-04-14T06:15:50Z</time>
      </trkpt>
      <trkpt lat="47.26493" lon="0.47796">
        <ele>81.4</ele>
        <time>2024-04-14T06:15:51Z</time>
      </trkpt>
      <trkpt lat="47.26486" lon="0.47802">
        <ele>81.3</ele>
        <time>2024-04-14T06:15:52Z</time>
      </trkpt>
      <trkpt lat="47.26479" lon="0.47803">
        <ele>81.3</ele>
        <time>2024-04-14T06:15:53Z</time>
      </trkpt>
      <trkpt lat="47.26466" lon="0.47789">
        <ele>81.4</ele>
        <time>2024-04-14T06:15:55Z</time>
      </trkpt>
      <trkpt lat="47.26462" lon="0.47781">
        <ele>81.5</ele>
        <time>2024-04-14T06:15:56Z</time>
      </trkpt>
      <trkpt lat="47.26459" lon="0.47772">
        <ele>81.6</ele>
        <time>2024-04-14T06:15:57Z</time>
      </trkpt>
      <trkpt lat="47.26451" lon="0.47755">
        <ele>81.7</ele>
        <time>2024-04-14T06:15:59Z</time>
      </trkpt>
      <trkpt lat="47.26446" lon="0.47748">
        <ele>81.7</ele>
        <time>2024-04-14T06:16:00Z</time>
      </trkpt>
      <trkpt lat="47.26433" lon="0.47743">
        <ele>81.6</ele>
        <time>2024-04-14T06:16:02Z</time>
      </trkpt>
      <trkpt lat="47.26418" lon="0.4775">
        <ele>81.2</ele>
        <time>2024-04-14T06:16:04Z</time>
      </trkpt>
      <trkpt lat="47.26406" lon="0.47765">
        <ele>80.8</ele>
        <time>2024-04-14T06:16:06Z</time>
      </trkpt>
      <trkpt lat="47.26392" lon="0.47778">
        <ele>80.3</ele>
        <time>2024-04-14T06:16:08Z</time>
      </trkpt>
      <trkpt lat="47.26368" lon="0.47787">
        <ele>79.8</ele>
        <time>2024-04-14T06:16:11Z</time>
      </trkpt>
      <trkpt lat="47.26356" lon="0.478">
        <ele>78.9</ele>
        <time>2024-04-14T06:16:13Z</time>
      </trkpt>
      <trkpt lat="47.2635" lon="0.47808">
        <ele>78.8</ele>
        <time>2024-04-14T06:16:14Z</time>
      </trkpt>
      <trkpt lat="47.2633" lon="0.47826">
        <ele>78.7</ele>
        <time>2024-04-14T06:16:17Z</time>
      </trkpt>
      <trkpt lat="47.26322" lon="0.4783">
        <ele>78.7</ele>
        <time>2024-04-14T06:16:18Z</time>
      </trkpt>
      <trkpt lat="47.26308" lon="0.47831">
        <ele>78.7</ele>
        <time>2024-04-14T06:16:20Z</time>
      </trkpt>
      <trkpt lat="47.26302" lon="0.47833">
        <ele>78.7</ele>
        <time>2024-04-14T06:16:21Z</time>
      </trkpt>
      <trkpt lat="47.26298" lon="0.4784">
        <ele>78.7</ele>
        <time>2024-04-14T06:16:22Z</time>
      </trkpt>
      <trkpt lat="47.26295" lon="0.47856">
        <ele>78.7</ele>
        <time>2024-04-14T06:16:24Z</time>
      </trkpt>
      <trkpt lat="47.26294" lon="0.47873">
        <ele>78.7</ele>
        <time>2024-04-14T06:16:26Z</time>
      </trkpt>
      <trkpt lat="47.26292" lon="0.47893">
        <ele>78.6</ele>
        <time>2024-04-14T06:16:28Z</time>
      </trkpt>
      <trkpt lat="47.26292" lon="0.47903">
        <ele>78.5</ele>
        <time>2024-04-14T06:16:29Z</time>
      </trkpt>
      <trkpt lat="47.26296" lon="0.47922">
        <ele>78.4</ele>
        <time>2024-04-14T06:16:31Z</time>
      </trkpt>
      <trkpt lat="47.26305" lon="0.47939">
        <ele>78.3</ele>
        <time>2024-04-14T06:16:33Z</time>
      </trkpt>
      <trkpt lat="47.26312" lon="0.47954">
        <ele>78.3</ele>
        <time>2024-04-14T06:16:35Z</time>
      </trkpt>
      <trkpt lat="47.2632" lon="0.47958">
        <ele>78.3</ele>
        <time>2024-04-14T06:16:37Z</time>
      </trkpt>
      <trkpt lat="47.26329" lon="0.47953">
        <ele>78.2</ele>
        <time>2024-04-14T06:16:39Z</time>
      </trkpt>
      <trkpt lat="47.26338" lon="0.47943">
        <ele>78.2</ele>
        <time>2024-04-14T06:16:41Z</time>
      </trkpt>
      <trkpt lat="47.26343" lon="0.47939">
        <ele>78.1</ele>
        <time>2024-04-14T06:16:42Z</time>
      </trkpt>
      <trkpt lat="47.26349" lon="0.47936">
        <ele>78</ele>
        <time>2024-04-14T06:16:43Z</time>
      </trkpt>
      <trkpt lat="47.26366" lon="0.47936">
        <ele>77.7</ele>
        <time>2024-04-14T06:16:46Z</time>
      </trkpt>
      <trkpt lat="47.26373" lon="0.47938">
        <ele>77.4</ele>
        <time>2024-04-14T06:16:47Z</time>
      </trkpt>
      <trkpt lat="47.264" lon="0.4795">
        <ele>76.2</ele>
        <time>2024-04-14T06:16:51Z</time>
      </trkpt>
      <trkpt lat="47.26416" lon="0.47977">
        <ele>74.8</ele>
        <time>2024-04-14T06:16:54Z</time>
      </trkpt>
      <trkpt lat="47.26419" lon="0.47987">
        <ele>74.2</ele>
        <time>2024-04-14T06:16:55Z</time>
      </trkpt>
      <trkpt lat="47.2642" lon="0.47998">
        <ele>73.7</ele>
        <time>2024-04-14T06:16:56Z</time>
      </trkpt>
      <trkpt lat="47.2642" lon="0.48009">
        <ele>73</ele>
        <time>2024-04-14T06:16:57Z</time>
      </trkpt>
      <trkpt lat="47.26419" lon="0.48025">
        <ele>72.1</ele>
        <time>2024-04-14T06:16:59Z</time>
      </trkpt>
      <trkpt lat="47.26407" lon="0.48038">
        <ele>71</ele>
        <time>2024-04-14T06:17:01Z</time>
      </trkpt>
      <trkpt lat="47.26383" lon="0.4805">
        <ele>69.3</ele>
        <time>2024-04-14T06:17:03Z</time>
      </trkpt>
      <trkpt lat="47.26374" lon="0.48058">
        <ele>68.7</ele>
        <time>2024-04-14T06:17:04Z</time>
      </trkpt>
      <trkpt lat="47.26364" lon="0.48065">
        <ele>68.2</ele>
        <time>2024-04-14T06:17:05Z</time>
      </trkpt>
      <trkpt lat="47.26347" lon="0.4808">
        <ele>67.4</ele>
        <time>2024-04-14T06:17:07Z</time>
      </trkpt>
      <trkpt lat="47.26339" lon="0.48085">
        <ele>67</ele>
        <time>2024-04-14T06:17:08Z</time>
      </trkpt>
      <trkpt lat="47.26331" lon="0.48088">
        <ele>66.8</ele>
        <time>2024-04-14T06:17:09Z</time>
      </trkpt>
      <trkpt lat="47.26315" lon="0.48085">
        <ele>66.2</ele>
        <time>2024-04-14T06:17:11Z</time>
      </trkpt>
      <trkpt lat="47.26291" lon="0.48072">
        <ele>65.4</ele>
        <time>2024-04-14T06:17:14Z</time>
      </trkpt>
      <trkpt lat="47.26273" lon="0.48064">
        <ele>64.9</ele>
        <time>2024-04-14T06:17:16Z</time>
      </trkpt>
      <trkpt lat="47.26247" lon="0.48052">
        <ele>64.1</ele>
        <time>2024-04-14T06:17:19Z</time>
      </trkpt>
      <trkpt lat="47.2623" lon="0.48044">
        <ele>63.6</ele>
        <time>2024-04-14T06:17:21Z</time>
      </trkpt>
      <trkpt lat="47.26203" lon="0.48035">
        <ele>62.7</ele>
        <time>2024-04-14T06:17:24Z</time>
      </trkpt>
      <trkpt lat="47.26194" lon="0.48032">
        <ele>62.5</ele>
        <time>2024-04-14T06:17:25Z</time>
      </trkpt>
      <trkpt lat="47.26159" lon="0.48018">
        <ele>61.6</ele>
        <time>2024-04-14T06:17:29Z</time>
      </trkpt>
      <trkpt lat="47.26141" lon="0.48009">
        <ele>61.3</ele>
        <time>2024-04-14T06:17:31Z</time>
      </trkpt>
      <trkpt lat="47.26126" lon="0.47999">
        <ele>61</ele>
        <time>2024-04-14T06:17:33Z</time>
      </trkpt>
      <trkpt lat="47.26104" lon="0.47981">
        <ele>60.5</ele>
        <time>2024-04-14T06:17:36Z</time>
      </trkpt>
      <trkpt lat="47.26082" lon="0.47957">
        <ele>59.9</ele>
        <time>2024-04-14T06:17:39Z</time>
      </trkpt>
      <trkpt lat="47.2606" lon="0.47935">
        <ele>59.4</ele>
        <time>2024-04-14T06:17:42Z</time>
      </trkpt>
      <trkpt lat="47.26042" lon="0.47922">
        <ele>59</ele>
        <time>2024-04-14T06:17:44Z</time>
      </trkpt>
      <trkpt lat="47.26017" lon="0.47906">
        <ele>58.4</ele>
        <time>2024-04-14T06:17:47Z</time>
      </trkpt>
      <trkpt lat="47.26" lon="0.47896">
        <ele>58</ele>
        <time>2024-04-14T06:17:49Z</time>
      </trkpt>
      <trkpt lat="47.25983" lon="0.47886">
        <ele>57.5</ele>
        <time>2024-04-14T06:17:51Z</time>
      </trkpt>
      <trkpt lat="47.25937" lon="0.47869">
        <ele>53.1</ele>
        <time>2024-04-14T06:17:56Z</time>
      </trkpt>
      <trkpt lat="47.25926" lon="0.47867">
        <ele>52</ele>
        <time>2024-04-14T06:17:57Z</time>
      </trkpt>
      <trkpt lat="47.25907" lon="0.47862">
        <ele>49.9</ele>
        <time>2024-04-14T06:17:59Z</time>
      </trkpt>
      <trkpt lat="47.25889" lon="0.47857">
        <ele>48.5</ele>
        <time>2024-04-14T06:18:01Z</time>
      </trkpt>
      <trkpt lat="47.25883" lon="0.47855">
        <ele>48</ele>
        <time>2024-04-14T06:18:02Z</time>
      </trkpt>
      <trkpt lat="47.25878" lon="0.4785">
        <ele>47.6</ele>
        <time>2024-04-14T06:18:03Z</time>
      </trkpt>
      <trkpt lat="47.25875" lon="0.47843">
        <ele>47.5</ele>
        <time>2024-04-14T06:18:04Z</time>
      </trkpt>
      <trkpt lat="47.25874" lon="0.47834">
        <ele>47.4</ele>
        <time>2024-04-14T06:18:05Z</time>
      </trkpt>
      <trkpt lat="47.25874" lon="0.47814">
        <ele>47.3</ele>
        <time>2024-04-14T06:18:07Z</time>
      </trkpt>
      <trkpt lat="47.25875" lon="0.47803">
        <ele>47.2</ele>
        <time>2024-04-14T06:18:08Z</time>
      </trkpt>
      <trkpt lat="47.25883" lon="0.47761">
        <ele>47.2</ele>
        <time>2024-04-14T06:18:12Z</time>
      </trkpt>
      <trkpt lat="47.25886" lon="0.4775">
        <ele>47.2</ele>
        <time>2024-04-14T06:18:13Z</time>
      </trkpt>
      <trkpt lat="47.25896" lon="0.47718">
        <ele>47.4</ele>
        <time>2024-04-14T06:18:16Z</time>
      </trkpt>
      <trkpt lat="47.2592" lon="0.47663">
        <ele>48.7</ele>
        <time>2024-04-14T06:18:22Z</time>
      </trkpt>
      <trkpt lat="47.25926" lon="0.47646">
        <ele>49.3</ele>
        <time>2024-04-14T06:18:24Z</time>
      </trkpt>
      <trkpt lat="47.25934" lon="0.47622">
        <ele>50.3</ele>
        <time>2024-04-14T06:18:27Z</time>
      </trkpt>
      <trkpt lat="47.25936" lon="0.47614">
        <ele>50.7</ele>
        <time>2024-04-14T06:18:28Z</time>
      </trkpt>
      <trkpt lat="47.25939" lon="0.47606">
        <ele>51</ele>
        <time>2024-04-14T06:18:29Z</time>
      </trkpt>
      <trkpt lat="47.25942" lon="0.47599">
        <ele>51.3</ele>
        <time>2024-04-14T06:18:30Z</time>
      </trkpt>
      <trkpt lat="47.25947" lon="0.47585">
        <ele>51.8</ele>
        <time>2024-04-14T06:18:32Z</time>
      </trkpt>
      <trkpt lat="47.2595" lon="0.47577">
        <ele>52.1</ele>
        <time>2024-04-14T06:18:33Z</time>
      </trkpt>
      <trkpt lat="47.2596" lon="0.47556">
        <ele>52.7</ele>
        <time>2024-04-14T06:18:36Z</time>
      </trkpt>
      <trkpt lat="47.25971" lon="0.47535">
        <ele>53.2</ele>
        <time>2024-04-14T06:18:39Z</time>
      </trkpt>
      <trkpt lat="47.25982" lon="0.47514">
        <ele>53.6</ele>
        <time>2024-04-14T06:18:42Z</time>
      </trkpt>
      <trkpt lat="47.25995" lon="0.47485">
        <ele>54</ele>
        <time>2024-04-14T06:18:46Z</time>
      </trkpt>
      <trkpt lat="47.2601" lon="0.4743">
        <ele>54.1</ele>
        <time>2024-04-14T06:18:52Z</time>
      </trkpt>
      <trkpt lat="47.26025" lon="0.47355">
        <ele>54.9</ele>
        <time>2024-04-14T06:19:00Z</time>
      </trkpt>
      <trkpt lat="47.26041" lon="0.47292">
        <ele>55.7</ele>
        <time>2024-04-14T06:19:07Z</time>
      </trkpt>
      <trkpt lat="47.26043" lon="0.47282">
        <ele>55.8</ele>
        <time>2024-04-14T06:19:08Z</time>
      </trkpt>
      <trkpt lat="47.26045" lon="0.47273">
        <ele>56</ele>
        <time>2024-04-14T06:19:09Z</time>
      </trkpt>
      <trkpt lat="47.26055" lon="0.47237">
        <ele>56.4</ele>
        <time>2024-04-14T06:19:13Z</time>
      </trkpt>
      <trkpt lat="47.26057" lon="0.47228">
        <ele>56.5</ele>
        <time>2024-04-14T06:19:14Z</time>
      </trkpt>
      <trkpt lat="47.26067" lon="0.47178">
        <ele>56.4</ele>
        <time>2024-04-14T06:19:20Z</time>
      </trkpt>
      <trkpt lat="47.26076" lon="0.47124">
        <ele>54.7</ele>
        <time>2024-04-14T06:19:26Z</time>
      </trkpt>
      <trkpt lat="47.26082" lon="0.47093">
        <ele>53.8</ele>
        <time>2024-04-14T06:19:29Z</time>
      </trkpt>
      <trkpt lat="47.26083" lon="0.47063">
        <ele>53.2</ele>
        <time>2024-04-14T06:19:32Z</time>
      </trkpt>
      <trkpt lat="47.26084" lon="0.47055">
        <ele>53.1</ele>
        <time>2024-04-14T06:19:33Z</time>
      </trkpt>
      <trkpt lat="47.26088" lon="0.47034">
        <ele>52.9</ele>
        <time>2024-04-14T06:19:36Z</time>
      </trkpt>
      <trkpt lat="47.26087" lon="0.46998">
        <ele>52.5</ele>
        <time>2024-04-14T06:19:40Z</time>
      </trkpt>
      <trkpt lat="47.26089" lon="0.46989">
        <ele>52.4</ele>
        <time>2024-04-14T06:19:41Z</time>
      </trkpt>
      <trkpt lat="47.2609" lon="0.46981">
        <ele>52.4</ele>
        <time>2024-04-14T06:19:42Z</time>
      </trkpt>
      <trkpt lat="47.26093" lon="0.46964">
        <ele>52.3</ele>
        <time>2024-04-14T06:19:44Z</time>
      </trkpt>
      <trkpt lat="47.26095" lon="0.46956">
        <ele>52.2</ele>
        <time>2024-04-14T06:19:45Z</time>
      </trkpt>
      <trkpt lat="47.26098" lon="0.46921">
        <ele>51.9</ele>
        <time>2024-04-14T06:19:49Z</time>
      </trkpt>
      <trkpt lat="47.26099" lon="0.46912">
        <ele>51.7</ele>
        <time>2024-04-14T06:19:50Z</time>
      </trkpt>
      <trkpt lat="47.26102" lon="0.46845">
        <ele>50.6</ele>
        <time>2024-04-14T06:19:57Z</time>
      </trkpt>
      <trkpt lat="47.26102" lon="0.46835">
        <ele>50.4</ele>
        <time>2024-04-14T06:19:58Z</time>
      </trkpt>
      <trkpt lat="47.26104" lon="0.46805">
        <ele>50</ele>
        <time>2024-04-14T06:20:01Z</time>
      </trkpt>
      <trkpt lat="47.26105" lon="0.46795">
        <ele>49.9</ele>
        <time>2024-04-14T06:20:02Z</time>
      </trkpt>
      <trkpt lat="47.26108" lon="0.46766">
        <ele>49.6</ele>
        <time>2024-04-14T06:20:05Z</time>
      </trkpt>
      <trkpt lat="47.26111" lon="0.46757">
        <ele>49.5</ele>
        <time>2024-04-14T06:20:06Z</time>
      </trkpt>
      <trkpt lat="47.26123" lon="0.46737">
        <ele>49.3</ele>
        <time>2024-04-14T06:20:09Z</time>
      </trkpt>
      <trkpt lat="47.26138" lon="0.46742">
        <ele>49.6</ele>
        <time>2024-04-14T06:20:12Z</time>
      </trkpt>
      <trkpt lat="47.26153" lon="0.46758">
        <ele>50.2</ele>
        <time>2024-04-14T06:20:16Z</time>
      </trkpt>
      <trkpt lat="47.26157" lon="0.46761">
        <ele>50.5</ele>
        <time>2024-04-14T06:20:17Z</time>
      </trkpt>
      <trkpt lat="47.26166" lon="0.46761">
        <ele>51</ele>
        <time>2024-04-14T06:20:19Z</time>
      </trkpt>
      <trkpt lat="47.2617" lon="0.46759">
        <ele>51.3</ele>
        <time>2024-04-14T06:20:20Z</time>
      </trkpt>
      <trkpt lat="47.26173" lon="0.46754">
        <ele>51.6</ele>
        <time>2024-04-14T06:20:21Z</time>
      </trkpt>
      <trkpt lat="47.26177" lon="0.46743">
        <ele>52.1</ele>
        <time>2024-04-14T06:20:23Z</time>
      </trkpt>
      <trkpt lat="47.26182" lon="0.46729">
        <ele>52.3</ele>
        <time>2024-04-14T06:20:25Z</time>
      </trkpt>
      <trkpt lat="47.26191" lon="0.46705">
        <ele>52.3</ele>
        <time>2024-04-14T06:20:28Z</time>
      </trkpt>
      <trkpt lat="47.26204" lon="0.46671">
        <ele>51.9</ele>
        <time>2024-04-14T06:20:32Z</time>
      </trkpt>
      <trkpt lat="47.26209" lon="0.46665">
        <ele>52</ele>
        <time>2024-04-14T06:20:33Z</time>
      </trkpt>
      <trkpt lat="47.26217" lon="0.46654">
        <ele>52.1</ele>
        <time>2024-04-14T06:20:35Z</time>
      </trkpt>
      <trkpt lat="47.26219" lon="0.46647">
        <ele>52.2</ele>
        <time>2024-04-14T06:20:36Z</time>
      </trkpt>
      <trkpt lat="47.26229" lon="0.46612">
        <ele>52.8</ele>
        <time>2024-04-14T06:20:42Z</time>
      </trkpt>
      <trkpt lat="47.26229" lon="0.46607">
        <ele>52.9</ele>
        <time>2024-04-14T06:20:43Z</time>
      </trkpt>
      <trkpt lat="47.26224" lon="0.46601">
        <ele>52.6</ele>
        <time>2024-04-14T06:20:45Z</time>
      </trkpt>
      <trkpt lat="47.26209" lon="0.46592">
        <ele>51.9</ele>
        <time>2024-04-14T06:20:50Z</time>
      </trkpt>
      <trkpt lat="47.26187" lon="0.46578">
        <ele>50.9</ele>
        <time>2024-04-14T06:20:55Z</time>
      </trkpt>
      <trkpt lat="47.26177" lon="0.46572">
        <ele>50.3</ele>
        <time>2024-04-14T06:20:57Z</time>
      </trkpt>
      <trkpt lat="47.26161" lon="0.46564">
        <ele>49.3</ele>
        <time>2024-04-14T06:21:00Z</time>
      </trkpt>
      <trkpt lat="47.26156" lon="0.4656">
        <ele>48.9</ele>
        <time>2024-04-14T06:21:01Z</time>
      </trkpt>
      <trkpt lat="47.26147" lon="0.4655">
        <ele>48.3</ele>
        <time>2024-04-14T06:21:03Z</time>
      </trkpt>
      <trkpt lat="47.26142" lon="0.46544">
        <ele>47.9</ele>
        <time>2024-04-14T06:21:04Z</time>
      </trkpt>
      <trkpt lat="47.26125" lon="0.46514">
        <ele>46.8</ele>
        <time>2024-04-14T06:21:08Z</time>
      </trkpt>
      <trkpt lat="47.26113" lon="0.46503">
        <ele>46.4</ele>
        <time>2024-04-14T06:21:11Z</time>
      </trkpt>
      <trkpt lat="47.26095" lon="0.46495">
        <ele>46</ele>
        <time>2024-04-14T06:21:13Z</time>
      </trkpt>
      <trkpt lat="47.26088" lon="0.46491">
        <ele>45.9</ele>
        <time>2024-04-14T06:21:14Z</time>
      </trkpt>
      <trkpt lat="47.26068" lon="0.46482">
        <ele>45.6</ele>
        <time>2024-04-14T06:21:17Z</time>
      </trkpt>
      <trkpt lat="47.26057" lon="0.46475">
        <ele>45.6</ele>
        <time>2024-04-14T06:21:19Z</time>
      </trkpt>
      <trkpt lat="47.26031" lon="0.46461">
        <ele>45.6</ele>
        <time>2024-04-14T06:21:24Z</time>
      </trkpt>
      <trkpt lat="47.2602" lon="0.46455">
        <ele>45.6</ele>
        <time>2024-04-14T06:21:26Z</time>
      </trkpt>
      <trkpt lat="47.25994" lon="0.46441">
        <ele>45.4</ele>
        <time>2024-04-14T06:21:31Z</time>
      </trkpt>
      <trkpt lat="47.25979" lon="0.46432">
        <ele>45.3</ele>
        <time>2024-04-14T06:21:35Z</time>
      </trkpt>
      <trkpt lat="47.25977" lon="0.46433">
        <ele>45.3</ele>
        <time>2024-04-14T06:21:36Z</time>
      </trkpt>
      <trkpt lat="47.25973" lon="0.46437">
        <ele>45.3</ele>
        <time>2024-04-14T06:34:48Z</time>
      </trkpt>
      <trkpt lat="47.25975" lon="0.46439">
        <ele>45.3</ele>
        <time>2024-04-14T06:34:49Z</time>
      </trkpt>
      <trkpt lat="47.25978" lon="0.46441">
        <ele>45.3</ele>
        <time>2024-04-14T06:34:51Z</time>
      </trkpt>
      <trkpt lat="47.25992" lon="0.46448">
        <ele>45.4</ele>
        <time>2024-04-14T06:34:56Z</time>
      </trkpt>
      <trkpt lat="47.2601" lon="0.4646">
        <ele>45.5</ele>
        <time>2024-04-14T06:35:00Z</time>
      </trkpt>
      <trkpt lat="47.26016" lon="0.46462">
        <ele>45.5</ele>
        <time>2024-04-14T06:35:01Z</time>
      </trkpt>
      <trkpt lat="47.26037" lon="0.46473">
        <ele>45.6</ele>
        <time>2024-04-14T06:35:05Z</time>
      </trkpt>
      <trkpt lat="47.26049" lon="0.46478">
        <ele>45.6</ele>
        <time>2024-04-14T06:35:07Z</time>
      </trkpt>
      <trkpt lat="47.26081" lon="0.46494">
        <ele>45.8</ele>
        <time>2024-04-14T06:35:12Z</time>
      </trkpt>
      <trkpt lat="47.26087" lon="0.46497">
        <ele>45.9</ele>
        <time>2024-04-14T06:35:13Z</time>
      </trkpt>
      <trkpt lat="47.2611" lon="0.46511">
        <ele>46.5</ele>
        <time>2024-04-14T06:35:17Z</time>
      </trkpt>
      <trkpt lat="47.26115" lon="0.46516">
        <ele>46.6</ele>
        <time>2024-04-14T06:35:18Z</time>
      </trkpt>
      <trkpt lat="47.26118" lon="0.46522">
        <ele>46.8</ele>
        <time>2024-04-14T06:35:19Z</time>
      </trkpt>
      <trkpt lat="47.26129" lon="0.46541">
        <ele>47.5</ele>
        <time>2024-04-14T06:35:22Z</time>
      </trkpt>
      <trkpt lat="47.26136" lon="0.46549">
        <ele>47.9</ele>
        <time>2024-04-14T06:35:24Z</time>
      </trkpt>
      <trkpt lat="47.2614" lon="0.46553">
        <ele>48.1</ele>
        <time>2024-04-14T06:35:25Z</time>
      </trkpt>
      <trkpt lat="47.26144" lon="0.46556">
        <ele>48.3</ele>
        <time>2024-04-14T06:35:26Z</time>
      </trkpt>
      <trkpt lat="47.26157" lon="0.46565">
        <ele>49.2</ele>
        <time>2024-04-14T06:35:29Z</time>
      </trkpt>
      <trkpt lat="47.26165" lon="0.46571">
        <ele>49.7</ele>
        <time>2024-04-14T06:35:31Z</time>
      </trkpt>
      <trkpt lat="47.26169" lon="0.46574">
        <ele>50</ele>
        <time>2024-04-14T06:35:32Z</time>
      </trkpt>
      <trkpt lat="47.26173" lon="0.46576">
        <ele>50.3</ele>
        <time>2024-04-14T06:35:33Z</time>
      </trkpt>
      <trkpt lat="47.26177" lon="0.46575">
        <ele>50.6</ele>
        <time>2024-04-14T06:35:34Z</time>
      </trkpt>
      <trkpt lat="47.26181" lon="0.46572">
        <ele>50.6</ele>
        <time>2024-04-14T06:35:35Z</time>
      </trkpt>
      <trkpt lat="47.26188" lon="0.46554">
        <ele>50.4</ele>
        <time>2024-04-14T06:35:38Z</time>
      </trkpt>
      <trkpt lat="47.2619" lon="0.46547">
        <ele>50.3</ele>
        <time>2024-04-14T06:35:39Z</time>
      </trkpt>
      <trkpt lat="47.26203" lon="0.4651">
        <ele>49.9</ele>
        <time>2024-04-14T06:35:45Z</time>
      </trkpt>
      <trkpt lat="47.26205" lon="0.46504">
        <ele>49.8</ele>
        <time>2024-04-14T06:35:46Z</time>
      </trkpt>
      <trkpt lat="47.26204" lon="0.46482">
        <ele>49.4</ele>
        <time>2024-04-14T06:35:49Z</time>
      </trkpt>
      <trkpt lat="47.26203" lon="0.46474">
        <ele>49.3</ele>
        <time>2024-04-14T06:35:50Z</time>
      </trkpt>
      <trkpt lat="47.26197" lon="0.46425">
        <ele>48.7</ele>
        <time>2024-04-14T06:35:56Z</time>
      </trkpt>
      <trkpt lat="47.26195" lon="0.46417">
        <ele>48.6</ele>
        <time>2024-04-14T06:35:57Z</time>
      </trkpt>
      <trkpt lat="47.2619" lon="0.46401">
        <ele>48.5</ele>
        <time>2024-04-14T06:35:59Z</time>
      </trkpt>
      <trkpt lat="47.26183" lon="0.46385">
        <ele>48.3</ele>
        <time>2024-04-14T06:36:01Z</time>
      </trkpt>
      <trkpt lat="47.26178" lon="0.46368">
        <ele>48.2</ele>
        <time>2024-04-14T06:36:03Z</time>
      </trkpt>
      <trkpt lat="47.26179" lon="0.4635">
        <ele>48.3</ele>
        <time>2024-04-14T06:36:05Z</time>
      </trkpt>
      <trkpt lat="47.26181" lon="0.46342">
        <ele>48.3</ele>
        <time>2024-04-14T06:36:06Z</time>
      </trkpt>
      <trkpt lat="47.26183" lon="0.46333">
        <ele>48.3</ele>
        <time>2024-04-14T06:36:07Z</time>
      </trkpt>
      <trkpt lat="47.2619" lon="0.46309">
        <ele>48.5</ele>
        <time>2024-04-14T06:36:10Z</time>
      </trkpt>
      <trkpt lat="47.26207" lon="0.46253">
        <ele>48.9</ele>
        <time>2024-04-14T06:36:17Z</time>
      </trkpt>
      <trkpt lat="47.26225" lon="0.46208">
        <ele>49.5</ele>
        <time>2024-04-14T06:36:23Z</time>
      </trkpt>
      <trkpt lat="47.2623" lon="0.46193">
        <ele>49.6</ele>
        <time>2024-04-14T06:36:25Z</time>
      </trkpt>
      <trkpt lat="47.26238" lon="0.4615">
        <ele>49.7</ele>
        <time>2024-04-14T06:36:30Z</time>
      </trkpt>
      <trkpt lat="47.2624" lon="0.46141">
        <ele>49.7</ele>
        <time>2024-04-14T06:36:31Z</time>
      </trkpt>
      <trkpt lat="47.26254" lon="0.4608">
        <ele>49.7</ele>
        <time>2024-04-14T06:36:38Z</time>
      </trkpt>
      <trkpt lat="47.26272" lon="0.46">
        <ele>49.7</ele>
        <time>2024-04-14T06:36:47Z</time>
      </trkpt>
      <trkpt lat="47.26284" lon="0.45924">
        <ele>49.4</ele>
        <time>2024-04-14T06:36:55Z</time>
      </trkpt>
      <trkpt lat="47.26294" lon="0.45846">
        <ele>49.1</ele>
        <time>2024-04-14T06:37:03Z</time>
      </trkpt>
      <trkpt lat="47.26305" lon="0.45776">
        <ele>48.8</ele>
        <time>2024-04-14T06:37:10Z</time>
      </trkpt>
      <trkpt lat="47.26313" lon="0.45705">
        <ele>48.6</ele>
        <time>2024-04-14T06:37:17Z</time>
      </trkpt>
      <trkpt lat="47.26315" lon="0.45696">
        <ele>48.6</ele>
        <time>2024-04-14T06:37:18Z</time>
      </trkpt>
      <trkpt lat="47.26322" lon="0.45641">
        <ele>48.6</ele>
        <time>2024-04-14T06:37:24Z</time>
      </trkpt>
      <trkpt lat="47.26324" lon="0.45632">
        <ele>48.6</ele>
        <time>2024-04-14T06:37:25Z</time>
      </trkpt>
      <trkpt lat="47.26339" lon="0.45568">
        <ele>48.7</ele>
        <time>2024-04-14T06:37:32Z</time>
      </trkpt>
      <trkpt lat="47.2636" lon="0.45484">
        <ele>48.6</ele>
        <time>2024-04-14T06:37:41Z</time>
      </trkpt>
      <trkpt lat="47.26362" lon="0.45474">
        <ele>48.6</ele>
        <time>2024-04-14T06:37:42Z</time>
      </trkpt>
      <trkpt lat="47.2638" lon="0.45398">
        <ele>48.4</ele>
        <time>2024-04-14T06:37:50Z</time>
      </trkpt>
      <trkpt lat="47.26382" lon="0.45388">
        <ele>48.3</ele>
        <time>2024-04-14T06:37:51Z</time>
      </trkpt>
      <trkpt lat="47.2639" lon="0.4535">
        <ele>48.2</ele>
        <time>2024-04-14T06:37:55Z</time>
      </trkpt>
      <trkpt lat="47.26395" lon="0.45311">
        <ele>48</ele>
        <time>2024-04-14T06:37:59Z</time>
      </trkpt>
      <trkpt lat="47.26407" lon="0.45229">
        <ele>47.6</ele>
        <time>2024-04-14T06:38:07Z</time>
      </trkpt>
      <trkpt lat="47.26418" lon="0.45149">
        <ele>47.4</ele>
        <time>2024-04-14T06:38:15Z</time>
      </trkpt>
      <trkpt lat="47.2642" lon="0.45139">
        <ele>47.3</ele>
        <time>2024-04-14T06:38:16Z</time>
      </trkpt>
      <trkpt lat="47.26422" lon="0.45118">
        <ele>47.3</ele>
        <time>2024-04-14T06:38:18Z</time>
      </trkpt>
      <trkpt lat="47.26431" lon="0.45057">
        <ele>47.2</ele>
        <time>2024-04-14T06:38:24Z</time>
      </trkpt>
      <trkpt lat="47.26443" lon="0.44976">
        <ele>47.1</ele>
        <time>2024-04-14T06:38:32Z</time>
      </trkpt>
      <trkpt lat="47.26447" lon="0.44946">
        <ele>47.1</ele>
        <time>2024-04-14T06:38:35Z</time>
      </trkpt>
      <trkpt lat="47.26456" lon="0.44886">
        <ele>47</ele>
        <time>2024-04-14T06:38:41Z</time>
      </trkpt>
      <trkpt lat="47.26474" lon="0.44808">
        <ele>46.6</ele>
        <time>2024-04-14T06:38:49Z</time>
      </trkpt>
      <trkpt lat="47.26479" lon="0.44788">
        <ele>46.5</ele>
        <time>2024-04-14T06:38:51Z</time>
      </trkpt>
      <trkpt lat="47.26498" lon="0.44716">
        <ele>45.8</ele>
        <time>2024-04-14T06:38:59Z</time>
      </trkpt>
      <trkpt lat="47.26505" lon="0.44693">
        <ele>45.5</ele>
        <time>2024-04-14T06:39:02Z</time>
      </trkpt>
      <trkpt lat="47.26504" lon="0.44685">
        <ele>45.4</ele>
        <time>2024-04-14T06:39:03Z</time>
      </trkpt>
      <trkpt lat="47.26501" lon="0.44657">
        <ele>45</ele>
        <time>2024-04-14T06:39:06Z</time>
      </trkpt>
      <trkpt lat="47.26501" lon="0.44647">
        <ele>44.8</ele>
        <time>2024-04-14T06:39:07Z</time>
      </trkpt>
      <trkpt lat="47.265" lon="0.44637">
        <ele>44.7</ele>
        <time>2024-04-14T06:39:08Z</time>
      </trkpt>
      <trkpt lat="47.26501" lon="0.44617">
        <ele>44.5</ele>
        <time>2024-04-14T06:39:10Z</time>
      </trkpt>
      <trkpt lat="47.2651" lon="0.44606">
        <ele>45.3</ele>
        <time>2024-04-14T06:39:12Z</time>
      </trkpt>
      <trkpt lat="47.26516" lon="0.44608">
        <ele>45.6</ele>
        <time>2024-04-14T06:39:13Z</time>
      </trkpt>
      <trkpt lat="47.26521" lon="0.44611">
        <ele>45.8</ele>
        <time>2024-04-14T06:39:14Z</time>
      </trkpt>
      <trkpt lat="47.26531" lon="0.44617">
        <ele>46.2</ele>
        <time>2024-04-14T06:39:16Z</time>
      </trkpt>
      <trkpt lat="47.26551" lon="0.44629">
        <ele>47</ele>
        <time>2024-04-14T06:39:20Z</time>
      </trkpt>
      <trkpt lat="47.26561" lon="0.44633">
        <ele>47.5</ele>
        <time>2024-04-14T06:39:22Z</time>
      </trkpt>
      <trkpt lat="47.26577" lon="0.44636">
        <ele>48.5</ele>
        <time>2024-04-14T06:39:25Z</time>
      </trkpt>
      <trkpt lat="47.26582" lon="0.44636">
        <ele>48.8</ele>
        <time>2024-04-14T06:39:26Z</time>
      </trkpt>
      <trkpt lat="47.26587" lon="0.44635">
        <ele>49.2</ele>
        <time>2024-04-14T06:39:27Z</time>
      </trkpt>
      <trkpt lat="47.26592" lon="0.44635">
        <ele>49.5</ele>
        <time>2024-04-14T06:39:28Z</time>
      </trkpt>
      <trkpt lat="47.26607" lon="0.44635">
        <ele>50.7</ele>
        <time>2024-04-14T06:39:31Z</time>
      </trkpt>
      <trkpt lat="47.26612" lon="0.44637">
        <ele>51.1</ele>
        <time>2024-04-14T06:39:32Z</time>
      </trkpt>
      <trkpt lat="47.2663" lon="0.44654">
        <ele>52.2</ele>
        <time>2024-04-14T06:39:36Z</time>
      </trkpt>
      <trkpt lat="47.26633" lon="0.4466">
        <ele>52.4</ele>
        <time>2024-04-14T06:39:37Z</time>
      </trkpt>
      <trkpt lat="47.26639" lon="0.44672">
        <ele>52.8</ele>
        <time>2024-04-14T06:39:39Z</time>
      </trkpt>
      <trkpt lat="47.26645" lon="0.44685">
        <ele>53.3</ele>
        <time>2024-04-14T06:39:41Z</time>
      </trkpt>
      <trkpt lat="47.26651" lon="0.44696">
        <ele>53.8</ele>
        <time>2024-04-14T06:39:43Z</time>
      </trkpt>
      <trkpt lat="47.26662" lon="0.44712">
        <ele>54.7</ele>
        <time>2024-04-14T06:39:46Z</time>
      </trkpt>
      <trkpt lat="47.26671" lon="0.44719">
        <ele>55.3</ele>
        <time>2024-04-14T06:39:48Z</time>
      </trkpt>
      <trkpt lat="47.2668" lon="0.44724">
        <ele>56</ele>
        <time>2024-04-14T06:39:50Z</time>
      </trkpt>
      <trkpt lat="47.2669" lon="0.44727">
        <ele>56.6</ele>
        <time>2024-04-14T06:39:52Z</time>
      </trkpt>
      <trkpt lat="47.26696" lon="0.44728">
        <ele>56.9</ele>
        <time>2024-04-14T06:39:53Z</time>
      </trkpt>
      <trkpt lat="47.26701" lon="0.44729">
        <ele>57.2</ele>
        <time>2024-04-14T06:39:54Z</time>
      </trkpt>
      <trkpt lat="47.26721" lon="0.4473">
        <ele>58.4</ele>
        <time>2024-04-14T06:39:58Z</time>
      </trkpt>
      <trkpt lat="47.26741" lon="0.44731">
        <ele>59.5</ele>
        <time>2024-04-14T06:40:02Z</time>
      </trkpt>
      <trkpt lat="47.26746" lon="0.44731">
        <ele>59.8</ele>
        <time>2024-04-14T06:40:03Z</time>
      </trkpt>
      <trkpt lat="47.26766" lon="0.4473">
        <ele>61.1</ele>
        <time>2024-04-14T06:40:07Z</time>
      </trkpt>
      <trkpt lat="47.26776" lon="0.44728">
        <ele>61.8</ele>
        <time>2024-04-14T06:40:09Z</time>
      </trkpt>
      <trkpt lat="47.26781" lon="0.44728">
        <ele>62.1</ele>
        <time>2024-04-14T06:40:10Z</time>
      </trkpt>
      <trkpt lat="47.26795" lon="0.44724">
        <ele>63</ele>
        <time>2024-04-14T06:40:13Z</time>
      </trkpt>
      <trkpt lat="47.26809" lon="0.4472">
        <ele>63.9</ele>
        <time>2024-04-14T06:40:16Z</time>
      </trkpt>
      <trkpt lat="47.26814" lon="0.44719">
        <ele>64.2</ele>
        <time>2024-04-14T06:40:17Z</time>
      </trkpt>
      <trkpt lat="47.26828" lon="0.44715">
        <ele>65.2</ele>
        <time>2024-04-14T06:40:20Z</time>
      </trkpt>
      <trkpt lat="47.26848" lon="0.44712">
        <ele>66.4</ele>
        <time>2024-04-14T06:40:24Z</time>
      </trkpt>
      <trkpt lat="47.26852" lon="0.44712">
        <ele>66.7</ele>
        <time>2024-04-14T06:40:25Z</time>
      </trkpt>
      <trkpt lat="47.26867" lon="0.44711">
        <ele>67.6</ele>
        <time>2024-04-14T06:40:28Z</time>
      </trkpt>
      <trkpt lat="47.26886" lon="0.44711">
        <ele>68.8</ele>
        <time>2024-04-14T06:40:32Z</time>
      </trkpt>
      <trkpt lat="47.26896" lon="0.44712">
        <ele>69.4</ele>
        <time>2024-04-14T06:40:34Z</time>
      </trkpt>
      <trkpt lat="47.269" lon="0.44712">
        <ele>69.7</ele>
        <time>2024-04-14T06:40:35Z</time>
      </trkpt>
      <trkpt lat="47.26919" lon="0.44715">
        <ele>70.8</ele>
        <time>2024-04-14T06:40:39Z</time>
      </trkpt>
      <trkpt lat="47.26938" lon="0.44716">
        <ele>71.9</ele>
        <time>2024-04-14T06:40:43Z</time>
      </trkpt>
      <trkpt lat="47.26958" lon="0.44717">
        <ele>73.1</ele>
        <time>2024-04-14T06:40:47Z</time>
      </trkpt>
      <trkpt lat="47.26977" lon="0.44716">
        <ele>74.2</ele>
        <time>2024-04-14T06:40:51Z</time>
      </trkpt>
      <trkpt lat="47.26987" lon="0.44714">
        <ele>74.8</ele>
        <time>2024-04-14T06:40:53Z</time>
      </trkpt>
      <trkpt lat="47.2701" lon="0.44709">
        <ele>76.1</ele>
        <time>2024-04-14T06:40:58Z</time>
      </trkpt>
      <trkpt lat="47.27019" lon="0.44707">
        <ele>76.6</ele>
        <time>2024-04-14T06:41:00Z</time>
      </trkpt>
      <trkpt lat="47.27034" lon="0.44703">
        <ele>77.4</ele>
        <time>2024-04-14T06:41:03Z</time>
      </trkpt>
      <trkpt lat="47.27053" lon="0.447">
        <ele>78.4</ele>
        <time>2024-04-14T06:41:07Z</time>
      </trkpt>
      <trkpt lat="47.27058" lon="0.44699">
        <ele>78.6</ele>
        <time>2024-04-14T06:41:08Z</time>
      </trkpt>
      <trkpt lat="47.27076" lon="0.44699">
        <ele>79.5</ele>
        <time>2024-04-14T06:41:12Z</time>
      </trkpt>
      <trkpt lat="47.27095" lon="0.44701">
        <ele>80.2</ele>
        <time>2024-04-14T06:41:16Z</time>
      </trkpt>
      <trkpt lat="47.271" lon="0.44702">
        <ele>80.4</ele>
        <time>2024-04-14T06:41:17Z</time>
      </trkpt>
      <trkpt lat="47.2712" lon="0.44705">
        <ele>80.8</ele>
        <time>2024-04-14T06:41:21Z</time>
      </trkpt>
      <trkpt lat="47.27141" lon="0.44703">
        <ele>81.1</ele>
        <time>2024-04-14T06:41:25Z</time>
      </trkpt>
      <trkpt lat="47.27172" lon="0.44689">
        <ele>81.6</ele>
        <time>2024-04-14T06:41:31Z</time>
      </trkpt>
      <trkpt lat="47.27177" lon="0.44685">
        <ele>81.6</ele>
        <time>2024-04-14T06:41:32Z</time>
      </trkpt>
      <trkpt lat="47.27219" lon="0.44663">
        <ele>82.3</ele>
        <time>2024-04-14T06:41:40Z</time>
      </trkpt>
      <trkpt lat="47.27252" lon="0.44664">
        <ele>82.7</ele>
        <time>2024-04-14T06:41:46Z</time>
      </trkpt>
      <trkpt lat="47.27291" lon="0.44679">
        <ele>83.3</ele>
        <time>2024-04-14T06:41:53Z</time>
      </trkpt>
      <trkpt lat="47.27297" lon="0.44682">
        <ele>83.4</ele>
        <time>2024-04-14T06:41:54Z</time>
      </trkpt>
      <trkpt lat="47.27346" lon="0.44703">
        <ele>84</ele>
        <time>2024-04-14T06:42:03Z</time>
      </trkpt>
      <trkpt lat="47.27394" lon="0.44715">
        <ele>84.4</ele>
        <time>2024-04-14T06:42:11Z</time>
      </trkpt>
      <trkpt lat="47.27442" lon="0.44718">
        <ele>84.5</ele>
        <time>2024-04-14T06:42:19Z</time>
      </trkpt>
      <trkpt lat="47.27453" lon="0.44721">
        <ele>84.5</ele>
        <time>2024-04-14T06:42:21Z</time>
      </trkpt>
      <trkpt lat="47.27478" lon="0.44721">
        <ele>84.6</ele>
        <time>2024-04-14T06:42:25Z</time>
      </trkpt>
      <trkpt lat="47.27509" lon="0.44718">
        <ele>84.7</ele>
        <time>2024-04-14T06:42:30Z</time>
      </trkpt>
      <trkpt lat="47.27515" lon="0.44714">
        <ele>84.8</ele>
        <time>2024-04-14T06:42:31Z</time>
      </trkpt>
      <trkpt lat="47.27531" lon="0.447">
        <ele>84.9</ele>
        <time>2024-04-14T06:42:34Z</time>
      </trkpt>
      <trkpt lat="47.27541" lon="0.4469">
        <ele>85</ele>
        <time>2024-04-14T06:42:36Z</time>
      </trkpt>
      <trkpt lat="47.2759" lon="0.44641">
        <ele>86.2</ele>
        <time>2024-04-14T06:42:46Z</time>
      </trkpt>
      <trkpt lat="47.27614" lon="0.4462">
        <ele>86.8</ele>
        <time>2024-04-14T06:42:51Z</time>
      </trkpt>
      <trkpt lat="47.27629" lon="0.44607">
        <ele>87.1</ele>
        <time>2024-04-14T06:42:54Z</time>
      </trkpt>
      <trkpt lat="47.27644" lon="0.44595">
        <ele>87.3</ele>
        <time>2024-04-14T06:42:57Z</time>
      </trkpt>
      <trkpt lat="47.27685" lon="0.44564">
        <ele>88</ele>
        <time>2024-04-14T06:43:05Z</time>
      </trkpt>
      <trkpt lat="47.27724" lon="0.44547">
        <ele>88.9</ele>
        <time>2024-04-14T06:43:12Z</time>
      </trkpt>
      <trkpt lat="47.27763" lon="0.44544">
        <ele>90</ele>
        <time>2024-04-14T06:43:19Z</time>
      </trkpt>
      <trkpt lat="47.27785" lon="0.4454">
        <ele>90.7</ele>
        <time>2024-04-14T06:43:23Z</time>
      </trkpt>
      <trkpt lat="47.27807" lon="0.44532">
        <ele>91.2</ele>
        <time>2024-04-14T06:43:27Z</time>
      </trkpt>
      <trkpt lat="47.27827" lon="0.4452">
        <ele>91.6</ele>
        <time>2024-04-14T06:43:31Z</time>
      </trkpt>
      <trkpt lat="47.27854" lon="0.44503">
        <ele>92</ele>
        <time>2024-04-14T06:43:36Z</time>
      </trkpt>
      <trkpt lat="47.27864" lon="0.44495">
        <ele>92.1</ele>
        <time>2024-04-14T06:43:38Z</time>
      </trkpt>
      <trkpt lat="47.27892" lon="0.44465">
        <ele>92.4</ele>
        <time>2024-04-14T06:43:44Z</time>
      </trkpt>
      <trkpt lat="47.27901" lon="0.44454">
        <ele>92.6</ele>
        <time>2024-04-14T06:43:46Z</time>
      </trkpt>
      <trkpt lat="47.27938" lon="0.44413">
        <ele>93</ele>
        <time>2024-04-14T06:43:54Z</time>
      </trkpt>
      <trkpt lat="47.27974" lon="0.4437">
        <ele>93.3</ele>
        <time>2024-04-14T06:44:02Z</time>
      </trkpt>
      <trkpt lat="47.27987" lon="0.44352">
        <ele>93.5</ele>
        <time>2024-04-14T06:44:05Z</time>
      </trkpt>
      <trkpt lat="47.28025" lon="0.44295">
        <ele>93.6</ele>
        <time>2024-04-14T06:44:14Z</time>
      </trkpt>
      <trkpt lat="47.2803" lon="0.44289">
        <ele>93.5</ele>
        <time>2024-04-14T06:44:15Z</time>
      </trkpt>
      <trkpt lat="47.28067" lon="0.44237">
        <ele>93.1</ele>
        <time>2024-04-14T06:44:23Z</time>
      </trkpt>
      <trkpt lat="47.28085" lon="0.44211">
        <ele>92.7</ele>
        <time>2024-04-14T06:44:27Z</time>
      </trkpt>
      <trkpt lat="47.28099" lon="0.44194">
        <ele>92.4</ele>
        <time>2024-04-14T06:44:30Z</time>
      </trkpt>
      <trkpt lat="47.28113" lon="0.44181">
        <ele>92.1</ele>
        <time>2024-04-14T06:44:33Z</time>
      </trkpt>
      <trkpt lat="47.28129" lon="0.44168">
        <ele>91.7</ele>
        <time>2024-04-14T06:44:36Z</time>
      </trkpt>
      <trkpt lat="47.28146" lon="0.44154">
        <ele>91</ele>
        <time>2024-04-14T06:44:39Z</time>
      </trkpt>
      <trkpt lat="47.2817" lon="0.44133">
        <ele>90.1</ele>
        <time>2024-04-14T06:44:43Z</time>
      </trkpt>
      <trkpt lat="47.28183" lon="0.44123">
        <ele>89.6</ele>
        <time>2024-04-14T06:44:45Z</time>
      </trkpt>
      <trkpt lat="47.28197" lon="0.44113">
        <ele>89.1</ele>
        <time>2024-04-14T06:44:47Z</time>
      </trkpt>
      <trkpt lat="47.28224" lon="0.4409">
        <ele>87.7</ele>
        <time>2024-04-14T06:44:51Z</time>
      </trkpt>
      <trkpt lat="47.28232" lon="0.44085">
        <ele>87.3</ele>
        <time>2024-04-14T06:44:52Z</time>
      </trkpt>
      <trkpt lat="47.2824" lon="0.44079">
        <ele>86.9</ele>
        <time>2024-04-14T06:44:53Z</time>
      </trkpt>
      <trkpt lat="47.28255" lon="0.44069">
        <ele>86</ele>
        <time>2024-04-14T06:44:55Z</time>
      </trkpt>
      <trkpt lat="47.2828" lon="0.44054">
        <ele>84.6</ele>
        <time>2024-04-14T06:44:58Z</time>
      </trkpt>
      <trkpt lat="47.28288" lon="0.44048">
        <ele>84.1</ele>
        <time>2024-04-14T06:44:59Z</time>
      </trkpt>
      <trkpt lat="47.28304" lon="0.44033">
        <ele>83.1</ele>
        <time>2024-04-14T06:45:01Z</time>
      </trkpt>
      <trkpt lat="47.28318" lon="0.44013">
        <ele>81.9</ele>
        <time>2024-04-14T06:45:03Z</time>
      </trkpt>
      <trkpt lat="47.28332" lon="0.4399">
        <ele>80.6</ele>
        <time>2024-04-14T06:45:05Z</time>
      </trkpt>
      <trkpt lat="47.28346" lon="0.43966">
        <ele>79.2</ele>
        <time>2024-04-14T06:45:07Z</time>
      </trkpt>
      <trkpt lat="47.28354" lon="0.43955">
        <ele>78.5</ele>
        <time>2024-04-14T06:45:08Z</time>
      </trkpt>
      <trkpt lat="47.28369" lon="0.43932">
        <ele>77.2</ele>
        <time>2024-04-14T06:45:10Z</time>
      </trkpt>
      <trkpt lat="47.28396" lon="0.43901">
        <ele>75.6</ele>
        <time>2024-04-14T06:45:13Z</time>
      </trkpt>
      <trkpt lat="47.28405" lon="0.43891">
        <ele>75.1</ele>
        <time>2024-04-14T06:45:14Z</time>
      </trkpt>
      <trkpt lat="47.28414" lon="0.43881">
        <ele>74.8</ele>
        <time>2024-04-14T06:45:15Z</time>
      </trkpt>
      <trkpt lat="47.28434" lon="0.43864">
        <ele>74.6</ele>
        <time>2024-04-14T06:45:17Z</time>
      </trkpt>
      <trkpt lat="47.28454" lon="0.43853">
        <ele>75.1</ele>
        <time>2024-04-14T06:45:19Z</time>
      </trkpt>
      <trkpt lat="47.28471" lon="0.43844">
        <ele>76</ele>
        <time>2024-04-14T06:45:21Z</time>
      </trkpt>
      <trkpt lat="47.28495" lon="0.4383">
        <ele>77.6</ele>
        <time>2024-04-14T06:45:24Z</time>
      </trkpt>
      <trkpt lat="47.2851" lon="0.43822">
        <ele>78.6</ele>
        <time>2024-04-14T06:45:26Z</time>
      </trkpt>
      <trkpt lat="47.28524" lon="0.43816">
        <ele>79.5</ele>
        <time>2024-04-14T06:45:28Z</time>
      </trkpt>
      <trkpt lat="47.28531" lon="0.43813">
        <ele>79.9</ele>
        <time>2024-04-14T06:45:29Z</time>
      </trkpt>
      <trkpt lat="47.28544" lon="0.43808">
        <ele>80.7</ele>
        <time>2024-04-14T06:45:31Z</time>
      </trkpt>
      <trkpt lat="47.28569" lon="0.43802">
        <ele>82</ele>
        <time>2024-04-14T06:45:35Z</time>
      </trkpt>
      <trkpt lat="47.28588" lon="0.43797">
        <ele>82.8</ele>
        <time>2024-04-14T06:45:38Z</time>
      </trkpt>
      <trkpt lat="47.28607" lon="0.43792">
        <ele>83.6</ele>
        <time>2024-04-14T06:45:41Z</time>
      </trkpt>
      <trkpt lat="47.28625" lon="0.43787">
        <ele>84.3</ele>
        <time>2024-04-14T06:45:44Z</time>
      </trkpt>
      <trkpt lat="47.2863" lon="0.43785">
        <ele>84.5</ele>
        <time>2024-04-14T06:45:45Z</time>
      </trkpt>
      <trkpt lat="47.2866" lon="0.43777">
        <ele>85.5</ele>
        <time>2024-04-14T06:45:50Z</time>
      </trkpt>
      <trkpt lat="47.28672" lon="0.43773">
        <ele>85.9</ele>
        <time>2024-04-14T06:45:52Z</time>
      </trkpt>
      <trkpt lat="47.28683" lon="0.4377">
        <ele>86.3</ele>
        <time>2024-04-14T06:45:54Z</time>
      </trkpt>
      <trkpt lat="47.28706" lon="0.43761">
        <ele>87.2</ele>
        <time>2024-04-14T06:45:58Z</time>
      </trkpt>
      <trkpt lat="47.28711" lon="0.43759">
        <ele>87.4</ele>
        <time>2024-04-14T06:45:59Z</time>
      </trkpt>
      <trkpt lat="47.28746" lon="0.43745">
        <ele>88.5</ele>
        <time>2024-04-14T06:46:05Z</time>
      </trkpt>
      <trkpt lat="47.28778" lon="0.43731">
        <ele>89.5</ele>
        <time>2024-04-14T06:46:11Z</time>
      </trkpt>
      <trkpt lat="47.28794" lon="0.43724">
        <ele>90</ele>
        <time>2024-04-14T06:46:14Z</time>
      </trkpt>
      <trkpt lat="47.2881" lon="0.43717">
        <ele>90.4</ele>
        <time>2024-04-14T06:46:17Z</time>
      </trkpt>
      <trkpt lat="47.28844" lon="0.43702">
        <ele>91</ele>
        <time>2024-04-14T06:46:23Z</time>
      </trkpt>
      <trkpt lat="47.2885" lon="0.43699">
        <ele>91.1</ele>
        <time>2024-04-14T06:46:24Z</time>
      </trkpt>
      <trkpt lat="47.28896" lon="0.43674">
        <ele>92.1</ele>
        <time>2024-04-14T06:46:32Z</time>
      </trkpt>
      <trkpt lat="47.28924" lon="0.43657">
        <ele>92.7</ele>
        <time>2024-04-14T06:46:37Z</time>
      </trkpt>
      <trkpt lat="47.28941" lon="0.43647">
        <ele>93.1</ele>
        <time>2024-04-14T06:46:40Z</time>
      </trkpt>
      <trkpt lat="47.2898" lon="0.4362">
        <ele>93.6</ele>
        <time>2024-04-14T06:46:47Z</time>
      </trkpt>
      <trkpt lat="47.29024" lon="0.43588">
        <ele>93.9</ele>
        <time>2024-04-14T06:46:55Z</time>
      </trkpt>
      <trkpt lat="47.29054" lon="0.43555">
        <ele>93.7</ele>
        <time>2024-04-14T06:47:01Z</time>
      </trkpt>
      <trkpt lat="47.29087" lon="0.43518">
        <ele>93</ele>
        <time>2024-04-14T06:47:07Z</time>
      </trkpt>
      <trkpt lat="47.29131" lon="0.43475">
        <ele>92.3</ele>
        <time>2024-04-14T06:47:14Z</time>
      </trkpt>
      <trkpt lat="47.29143" lon="0.43463">
        <ele>92.1</ele>
        <time>2024-04-14T06:47:16Z</time>
      </trkpt>
      <trkpt lat="47.29174" lon="0.43433">
        <ele>91.5</ele>
        <time>2024-04-14T06:47:21Z</time>
      </trkpt>
      <trkpt lat="47.29211" lon="0.43396">
        <ele>90.6</ele>
        <time>2024-04-14T06:47:27Z</time>
      </trkpt>
      <trkpt lat="47.29224" lon="0.43384">
        <ele>90.3</ele>
        <time>2024-04-14T06:47:29Z</time>
      </trkpt>
      <trkpt lat="47.29261" lon="0.43344">
        <ele>89.4</ele>
        <time>2024-04-14T06:47:35Z</time>
      </trkpt>
      <trkpt lat="47.29271" lon="0.43327">
        <ele>89.1</ele>
        <time>2024-04-14T06:47:37Z</time>
      </trkpt>
      <trkpt lat="47.2929" lon="0.4329">
        <ele>88.5</ele>
        <time>2024-04-14T06:47:41Z</time>
      </trkpt>
      <trkpt lat="47.29304" lon="0.43261">
        <ele>88</ele>
        <time>2024-04-14T06:47:44Z</time>
      </trkpt>
      <trkpt lat="47.29318" lon="0.43232">
        <ele>87.7</ele>
        <time>2024-04-14T06:47:47Z</time>
      </trkpt>
      <trkpt lat="47.29338" lon="0.43197">
        <ele>87.5</ele>
        <time>2024-04-14T06:47:51Z</time>
      </trkpt>
      <trkpt lat="47.29376" lon="0.43144">
        <ele>87.6</ele>
        <time>2024-04-14T06:47:58Z</time>
      </trkpt>
      <trkpt lat="47.29419" lon="0.43091">
        <ele>88.1</ele>
        <time>2024-04-14T06:48:06Z</time>
      </trkpt>
      <trkpt lat="47.29424" lon="0.43085">
        <ele>88.2</ele>
        <time>2024-04-14T06:48:07Z</time>
      </trkpt>
      <trkpt lat="47.29463" lon="0.43045">
        <ele>88.2</ele>
        <time>2024-04-14T06:48:14Z</time>
      </trkpt>
      <trkpt lat="47.29505" lon="0.43012">
        <ele>87.8</ele>
        <time>2024-04-14T06:48:21Z</time>
      </trkpt>
      <trkpt lat="47.29541" lon="0.42984">
        <ele>87.5</ele>
        <time>2024-04-14T06:48:27Z</time>
      </trkpt>
      <trkpt lat="47.29546" lon="0.42978">
        <ele>87.4</ele>
        <time>2024-04-14T06:48:28Z</time>
      </trkpt>
      <trkpt lat="47.29563" lon="0.42963">
        <ele>87</ele>
        <time>2024-04-14T06:48:31Z</time>
      </trkpt>
      <trkpt lat="47.29576" lon="0.42954">
        <ele>86.6</ele>
        <time>2024-04-14T06:48:33Z</time>
      </trkpt>
      <trkpt lat="47.29608" lon="0.42928">
        <ele>84.8</ele>
        <time>2024-04-14T06:48:38Z</time>
      </trkpt>
      <trkpt lat="47.29622" lon="0.42918">
        <ele>83.9</ele>
        <time>2024-04-14T06:48:40Z</time>
      </trkpt>
      <trkpt lat="47.2965" lon="0.42895">
        <ele>81.9</ele>
        <time>2024-04-14T06:48:44Z</time>
      </trkpt>
      <trkpt lat="47.29666" lon="0.42882">
        <ele>80.6</ele>
        <time>2024-04-14T06:48:46Z</time>
      </trkpt>
      <trkpt lat="47.29674" lon="0.42875">
        <ele>79.8</ele>
        <time>2024-04-14T06:48:47Z</time>
      </trkpt>
      <trkpt lat="47.2969" lon="0.4286">
        <ele>78</ele>
        <time>2024-04-14T06:48:49Z</time>
      </trkpt>
      <trkpt lat="47.29709" lon="0.42845">
        <ele>76</ele>
        <time>2024-04-14T06:48:51Z</time>
      </trkpt>
      <trkpt lat="47.29718" lon="0.42838">
        <ele>75.1</ele>
        <time>2024-04-14T06:48:52Z</time>
      </trkpt>
      <trkpt lat="47.29728" lon="0.4283">
        <ele>74.1</ele>
        <time>2024-04-14T06:48:53Z</time>
      </trkpt>
      <trkpt lat="47.29738" lon="0.42822">
        <ele>73.2</ele>
        <time>2024-04-14T06:48:54Z</time>
      </trkpt>
      <trkpt lat="47.29748" lon="0.42814">
        <ele>72.2</ele>
        <time>2024-04-14T06:48:55Z</time>
      </trkpt>
      <trkpt lat="47.29758" lon="0.42806">
        <ele>71.2</ele>
        <time>2024-04-14T06:48:56Z</time>
      </trkpt>
      <trkpt lat="47.29768" lon="0.42797">
        <ele>70.3</ele>
        <time>2024-04-14T06:48:57Z</time>
      </trkpt>
      <trkpt lat="47.29778" lon="0.42787">
        <ele>69.3</ele>
        <time>2024-04-14T06:48:58Z</time>
      </trkpt>
      <trkpt lat="47.29796" lon="0.42763">
        <ele>67.5</ele>
        <time>2024-04-14T06:49:00Z</time>
      </trkpt>
      <trkpt lat="47.29813" lon="0.42737">
        <ele>65.9</ele>
        <time>2024-04-14T06:49:02Z</time>
      </trkpt>
      <trkpt lat="47.29822" lon="0.42724">
        <ele>65.2</ele>
        <time>2024-04-14T06:49:03Z</time>
      </trkpt>
      <trkpt lat="47.29839" lon="0.42699">
        <ele>64</ele>
        <time>2024-04-14T06:49:05Z</time>
      </trkpt>
      <trkpt lat="47.29857" lon="0.42675">
        <ele>62.8</ele>
        <time>2024-04-14T06:49:07Z</time>
      </trkpt>
      <trkpt lat="47.29867" lon="0.42665">
        <ele>62.2</ele>
        <time>2024-04-14T06:49:08Z</time>
      </trkpt>
      <trkpt lat="47.29878" lon="0.42658">
        <ele>61.6</ele>
        <time>2024-04-14T06:49:09Z</time>
      </trkpt>
      <trkpt lat="47.29903" lon="0.42655">
        <ele>61.2</ele>
        <time>2024-04-14T06:49:11Z</time>
      </trkpt>
      <trkpt lat="47.29924" lon="0.42668">
        <ele>60.1</ele>
        <time>2024-04-14T06:49:13Z</time>
      </trkpt>
      <trkpt lat="47.29945" lon="0.4268">
        <ele>58.9</ele>
        <time>2024-04-14T06:49:15Z</time>
      </trkpt>
      <trkpt lat="47.29978" lon="0.42688">
        <ele>57.4</ele>
        <time>2024-04-14T06:49:18Z</time>
      </trkpt>
      <trkpt lat="47.30007" lon="0.42668">
        <ele>56.5</ele>
        <time>2024-04-14T06:49:21Z</time>
      </trkpt>
      <trkpt lat="47.30016" lon="0.42659">
        <ele>55.9</ele>
        <time>2024-04-14T06:49:22Z</time>
      </trkpt>
      <trkpt lat="47.30025" lon="0.42649">
        <ele>55.3</ele>
        <time>2024-04-14T06:49:23Z</time>
      </trkpt>
      <trkpt lat="47.30042" lon="0.42629">
        <ele>54.4</ele>
        <time>2024-04-14T06:49:25Z</time>
      </trkpt>
      <trkpt lat="47.3005" lon="0.4262">
        <ele>54</ele>
        <time>2024-04-14T06:49:26Z</time>
      </trkpt>
      <trkpt lat="47.30066" lon="0.42603">
        <ele>53.4</ele>
        <time>2024-04-14T06:49:28Z</time>
      </trkpt>
      <trkpt lat="47.30084" lon="0.42584">
        <ele>53</ele>
        <time>2024-04-14T06:49:31Z</time>
      </trkpt>
      <trkpt lat="47.30092" lon="0.42578">
        <ele>52.9</ele>
        <time>2024-04-14T06:49:33Z</time>
      </trkpt>
      <trkpt lat="47.30093" lon="0.42577">
        <ele>52.9</ele>
        <time>2024-04-14T06:49:34Z</time>
      </trkpt>
      <trkpt lat="47.30096" lon="0.42573">
        <ele>52.9</ele>
        <time>2024-04-14T06:49:38Z</time>
      </trkpt>
      <trkpt lat="47.30092" lon="0.42566">
        <ele>52.9</ele>
        <time>2024-04-14T06:49:40Z</time>
      </trkpt>
      <trkpt lat="47.3009" lon="0.42562">
        <ele>52.8</ele>
        <time>2024-04-14T06:49:41Z</time>
      </trkpt>
      <trkpt lat="47.30081" lon="0.42538">
        <ele>52.7</ele>
        <time>2024-04-14T06:49:45Z</time>
      </trkpt>
      <trkpt lat="47.30078" lon="0.4253">
        <ele>52.7</ele>
        <time>2024-04-14T06:49:46Z</time>
      </trkpt>
      <trkpt lat="47.30062" lon="0.42488">
        <ele>52.4</ele>
        <time>2024-04-14T06:49:51Z</time>
      </trkpt>
      <trkpt lat="47.30041" lon="0.42431">
        <ele>52</ele>
        <time>2024-04-14T06:49:57Z</time>
      </trkpt>
      <trkpt lat="47.30037" lon="0.4242">
        <ele>51.9</ele>
        <time>2024-04-14T06:49:58Z</time>
      </trkpt>
      <trkpt lat="47.30032" lon="0.42399">
        <ele>51.8</ele>
        <time>2024-04-14T06:50:00Z</time>
      </trkpt>
      <trkpt lat="47.30015" lon="0.42338">
        <ele>51.7</ele>
        <time>2024-04-14T06:50:06Z</time>
      </trkpt>
      <trkpt lat="47.30002" lon="0.42287">
        <ele>51.5</ele>
        <time>2024-04-14T06:50:11Z</time>
      </trkpt>
      <trkpt lat="47.29999" lon="0.42277">
        <ele>51.5</ele>
        <time>2024-04-14T06:50:12Z</time>
      </trkpt>
      <trkpt lat="47.29976" lon="0.4222">
        <ele>51.4</ele>
        <time>2024-04-14T06:50:18Z</time>
      </trkpt>
      <trkpt lat="47.29962" lon="0.42194">
        <ele>51.5</ele>
        <time>2024-04-14T06:50:21Z</time>
      </trkpt>
      <trkpt lat="47.29946" lon="0.42171">
        <ele>51.5</ele>
        <time>2024-04-14T06:50:24Z</time>
      </trkpt>
      <trkpt lat="47.2994" lon="0.42164">
        <ele>51.5</ele>
        <time>2024-04-14T06:50:25Z</time>
      </trkpt>
      <trkpt lat="47.29915" lon="0.42139">
        <ele>51.5</ele>
        <time>2024-04-14T06:50:29Z</time>
      </trkpt>
      <trkpt lat="47.29874" lon="0.42092">
        <ele>51.5</ele>
        <time>2024-04-14T06:50:36Z</time>
      </trkpt>
      <trkpt lat="47.29851" lon="0.42048">
        <ele>51.5</ele>
        <time>2024-04-14T06:50:42Z</time>
      </trkpt>
      <trkpt lat="47.29828" lon="0.41996">
        <ele>51</ele>
        <time>2024-04-14T06:50:49Z</time>
      </trkpt>
      <trkpt lat="47.29807" lon="0.41941">
        <ele>50.4</ele>
        <time>2024-04-14T06:50:55Z</time>
      </trkpt>
      <trkpt lat="47.29783" lon="0.41868">
        <ele>49.4</ele>
        <time>2024-04-14T06:51:02Z</time>
      </trkpt>
      <trkpt lat="47.29779" lon="0.41857">
        <ele>49.3</ele>
        <time>2024-04-14T06:51:03Z</time>
      </trkpt>
      <trkpt lat="47.29757" lon="0.41795">
        <ele>48.5</ele>
        <time>2024-04-14T06:51:09Z</time>
      </trkpt>
      <trkpt lat="47.29753" lon="0.41785">
        <ele>48.3</ele>
        <time>2024-04-14T06:51:10Z</time>
      </trkpt>
      <trkpt lat="47.29741" lon="0.41744">
        <ele>47.9</ele>
        <time>2024-04-14T06:51:14Z</time>
      </trkpt>
      <trkpt lat="47.29739" lon="0.41733">
        <ele>47.8</ele>
        <time>2024-04-14T06:51:15Z</time>
      </trkpt>
      <trkpt lat="47.29738" lon="0.41693">
        <ele>47.4</ele>
        <time>2024-04-14T06:51:19Z</time>
      </trkpt>
      <trkpt lat="47.29739" lon="0.41684">
        <ele>47.3</ele>
        <time>2024-04-14T06:51:20Z</time>
      </trkpt>
      <trkpt lat="47.29743" lon="0.41666">
        <ele>47.1</ele>
        <time>2024-04-14T06:51:22Z</time>
      </trkpt>
      <trkpt lat="47.29755" lon="0.41656">
        <ele>46.5</ele>
        <time>2024-04-14T06:51:24Z</time>
      </trkpt>
      <trkpt lat="47.29763" lon="0.41653">
        <ele>46.2</ele>
        <time>2024-04-14T06:51:25Z</time>
      </trkpt>
      <trkpt lat="47.29771" lon="0.4165">
        <ele>45.7</ele>
        <time>2024-04-14T06:51:26Z</time>
      </trkpt>
      <trkpt lat="47.29798" lon="0.41639">
        <ele>43.8</ele>
        <time>2024-04-14T06:51:29Z</time>
      </trkpt>
      <trkpt lat="47.29827" lon="0.41627">
        <ele>41.9</ele>
        <time>2024-04-14T06:51:32Z</time>
      </trkpt>
      <trkpt lat="47.29855" lon="0.4161">
        <ele>40.5</ele>
        <time>2024-04-14T06:51:35Z</time>
      </trkpt>
      <trkpt lat="47.29865" lon="0.41603">
        <ele>40.3</ele>
        <time>2024-04-14T06:51:36Z</time>
      </trkpt>
      <trkpt lat="47.29874" lon="0.41595">
        <ele>40</ele>
        <time>2024-04-14T06:51:37Z</time>
      </trkpt>
      <trkpt lat="47.29891" lon="0.41578">
        <ele>39.7</ele>
        <time>2024-04-14T06:51:39Z</time>
      </trkpt>
      <trkpt lat="47.29916" lon="0.41553">
        <ele>39.5</ele>
        <time>2024-04-14T06:51:42Z</time>
      </trkpt>
      <trkpt lat="47.29923" lon="0.41545">
        <ele>39.4</ele>
        <time>2024-04-14T06:51:43Z</time>
      </trkpt>
      <trkpt lat="47.29961" lon="0.41506">
        <ele>39.2</ele>
        <time>2024-04-14T06:51:48Z</time>
      </trkpt>
      <trkpt lat="47.29975" lon="0.41491">
        <ele>39.1</ele>
        <time>2024-04-14T06:51:50Z</time>
      </trkpt>
      <trkpt lat="47.30024" lon="0.41441">
        <ele>39.1</ele>
        <time>2024-04-14T06:51:57Z</time>
      </trkpt>
      <trkpt lat="47.30031" lon="0.41434">
        <ele>39.1</ele>
        <time>2024-04-14T06:51:58Z</time>
      </trkpt>
      <trkpt lat="47.30081" lon="0.41388">
        <ele>39.2</ele>
        <time>2024-04-14T06:52:05Z</time>
      </trkpt>
      <trkpt lat="47.30121" lon="0.41373">
        <ele>39.1</ele>
        <time>2024-04-14T06:52:10Z</time>
      </trkpt>
      <trkpt lat="47.30178" lon="0.41358">
        <ele>39.2</ele>
        <time>2024-04-14T06:52:17Z</time>
      </trkpt>
      <trkpt lat="47.30195" lon="0.41353">
        <ele>39.3</ele>
        <time>2024-04-14T06:52:19Z</time>
      </trkpt>
      <trkpt lat="47.30226" lon="0.41345">
        <ele>39.5</ele>
        <time>2024-04-14T06:52:23Z</time>
      </trkpt>
      <trkpt lat="47.3028" lon="0.41333">
        <ele>39.5</ele>
        <time>2024-04-14T06:52:30Z</time>
      </trkpt>
      <trkpt lat="47.30288" lon="0.41331">
        <ele>39.5</ele>
        <time>2024-04-14T06:52:31Z</time>
      </trkpt>
      <trkpt lat="47.30342" lon="0.41316">
        <ele>39.5</ele>
        <time>2024-04-14T06:52:38Z</time>
      </trkpt>
      <trkpt lat="47.30358" lon="0.41312">
        <ele>39.5</ele>
        <time>2024-04-14T06:52:40Z</time>
      </trkpt>
      <trkpt lat="47.30414" lon="0.41292">
        <ele>39.3</ele>
        <time>2024-04-14T06:52:47Z</time>
      </trkpt>
      <trkpt lat="47.30429" lon="0.41286">
        <ele>39.3</ele>
        <time>2024-04-14T06:52:49Z</time>
      </trkpt>
      <trkpt lat="47.30483" lon="0.41264">
        <ele>39.3</ele>
        <time>2024-04-14T06:52:56Z</time>
      </trkpt>
      <trkpt lat="47.3053" lon="0.41245">
        <ele>39.2</ele>
        <time>2024-04-14T06:53:02Z</time>
      </trkpt>
      <trkpt lat="47.30584" lon="0.41224">
        <ele>39.2</ele>
        <time>2024-04-14T06:53:09Z</time>
      </trkpt>
      <trkpt lat="47.30614" lon="0.41212">
        <ele>39.2</ele>
        <time>2024-04-14T06:53:13Z</time>
      </trkpt>
      <trkpt lat="47.30667" lon="0.41191">
        <ele>39.2</ele>
        <time>2024-04-14T06:53:20Z</time>
      </trkpt>
      <trkpt lat="47.30682" lon="0.41185">
        <ele>39.2</ele>
        <time>2024-04-14T06:53:22Z</time>
      </trkpt>
      <trkpt lat="47.30741" lon="0.41161">
        <ele>39.3</ele>
        <time>2024-04-14T06:53:30Z</time>
      </trkpt>
      <trkpt lat="47.30749" lon="0.41158">
        <ele>39.3</ele>
        <time>2024-04-14T06:53:31Z</time>
      </trkpt>
      <trkpt lat="47.30801" lon="0.41137">
        <ele>39.4</ele>
        <time>2024-04-14T06:53:38Z</time>
      </trkpt>
      <trkpt lat="47.30823" lon="0.41128">
        <ele>39.4</ele>
        <time>2024-04-14T06:53:41Z</time>
      </trkpt>
      <trkpt lat="47.30875" lon="0.41108">
        <ele>39.5</ele>
        <time>2024-04-14T06:53:48Z</time>
      </trkpt>
      <trkpt lat="47.3089" lon="0.41102">
        <ele>39.5</ele>
        <time>2024-04-14T06:53:50Z</time>
      </trkpt>
      <trkpt lat="47.30942" lon="0.41081">
        <ele>39.7</ele>
        <time>2024-04-14T06:53:57Z</time>
      </trkpt>
      <trkpt lat="47.3095" lon="0.41078">
        <ele>39.7</ele>
        <time>2024-04-14T06:53:58Z</time>
      </trkpt>
      <trkpt lat="47.31009" lon="0.41055">
        <ele>39.8</ele>
        <time>2024-04-14T06:54:06Z</time>
      </trkpt>
      <trkpt lat="47.31016" lon="0.41052">
        <ele>39.8</ele>
        <time>2024-04-14T06:54:07Z</time>
      </trkpt>
      <trkpt lat="47.31075" lon="0.41029">
        <ele>40</ele>
        <time>2024-04-14T06:54:15Z</time>
      </trkpt>
      <trkpt lat="47.3109" lon="0.41022">
        <ele>40</ele>
        <time>2024-04-14T06:54:17Z</time>
      </trkpt>
      <trkpt lat="47.31143" lon="0.41001">
        <ele>39.9</ele>
        <time>2024-04-14T06:54:24Z</time>
      </trkpt>
      <trkpt lat="47.31173" lon="0.40988">
        <ele>39.8</ele>
        <time>2024-04-14T06:54:28Z</time>
      </trkpt>
      <trkpt lat="47.31226" lon="0.40967">
        <ele>39.6</ele>
        <time>2024-04-14T06:54:35Z</time>
      </trkpt>
      <trkpt lat="47.31256" lon="0.40955">
        <ele>39.5</ele>
        <time>2024-04-14T06:54:39Z</time>
      </trkpt>
      <trkpt lat="47.3131" lon="0.40934">
        <ele>39.2</ele>
        <time>2024-04-14T06:54:46Z</time>
      </trkpt>
      <trkpt lat="47.31354" lon="0.40913">
        <ele>39.2</ele>
        <time>2024-04-14T06:54:52Z</time>
      </trkpt>
      <trkpt lat="47.31408" lon="0.40892">
        <ele>39.5</ele>
        <time>2024-04-14T06:54:59Z</time>
      </trkpt>
      <trkpt lat="47.31423" lon="0.40886">
        <ele>39.7</ele>
        <time>2024-04-14T06:55:01Z</time>
      </trkpt>
      <trkpt lat="47.31464" lon="0.40869">
        <ele>40.9</ele>
        <time>2024-04-14T06:55:07Z</time>
      </trkpt>
      <trkpt lat="47.31471" lon="0.40865">
        <ele>41.2</ele>
        <time>2024-04-14T06:55:08Z</time>
      </trkpt>
      <trkpt lat="47.31477" lon="0.40861">
        <ele>41.5</ele>
        <time>2024-04-14T06:55:09Z</time>
      </trkpt>
      <trkpt lat="47.31493" lon="0.40843">
        <ele>42.4</ele>
        <time>2024-04-14T06:55:12Z</time>
      </trkpt>
      <trkpt lat="47.31498" lon="0.40836">
        <ele>42.7</ele>
        <time>2024-04-14T06:55:13Z</time>
      </trkpt>
      <trkpt lat="47.31517" lon="0.40808">
        <ele>42.6</ele>
        <time>2024-04-14T06:55:17Z</time>
      </trkpt>
      <trkpt lat="47.31523" lon="0.40802">
        <ele>42.6</ele>
        <time>2024-04-14T06:55:18Z</time>
      </trkpt>
      <trkpt lat="47.31549" lon="0.40779">
        <ele>42.4</ele>
        <time>2024-04-14T06:55:22Z</time>
      </trkpt>
      <trkpt lat="47.316" lon="0.40736">
        <ele>42.6</ele>
        <time>2024-04-14T06:55:30Z</time>
      </trkpt>
      <trkpt lat="47.31607" lon="0.40731">
        <ele>42.7</ele>
        <time>2024-04-14T06:55:31Z</time>
      </trkpt>
      <trkpt lat="47.31659" lon="0.40688">
        <ele>42.9</ele>
        <time>2024-04-14T06:55:39Z</time>
      </trkpt>
      <trkpt lat="47.31666" lon="0.40682">
        <ele>43</ele>
        <time>2024-04-14T06:55:40Z</time>
      </trkpt>
      <trkpt lat="47.31672" lon="0.40677">
        <ele>43</ele>
        <time>2024-04-14T06:55:41Z</time>
      </trkpt>
      <trkpt lat="47.31717" lon="0.40639">
        <ele>43.8</ele>
        <time>2024-04-14T06:55:48Z</time>
      </trkpt>
      <trkpt lat="47.31761" lon="0.40604">
        <ele>44.9</ele>
        <time>2024-04-14T06:55:55Z</time>
      </trkpt>
      <trkpt lat="47.31784" lon="0.40585">
        <ele>45.5</ele>
        <time>2024-04-14T06:55:59Z</time>
      </trkpt>
      <trkpt lat="47.31813" lon="0.40559">
        <ele>45.9</ele>
        <time>2024-04-14T06:56:04Z</time>
      </trkpt>
      <trkpt lat="47.31819" lon="0.40554">
        <ele>46</ele>
        <time>2024-04-14T06:56:05Z</time>
      </trkpt>
      <trkpt lat="47.31849" lon="0.40528">
        <ele>46.3</ele>
        <time>2024-04-14T06:56:10Z</time>
      </trkpt>
      <trkpt lat="47.31862" lon="0.40518">
        <ele>46.4</ele>
        <time>2024-04-14T06:56:12Z</time>
      </trkpt>
      <trkpt lat="47.31874" lon="0.40507">
        <ele>46.5</ele>
        <time>2024-04-14T06:56:14Z</time>
      </trkpt>
      <trkpt lat="47.31912" lon="0.40476">
        <ele>46.5</ele>
        <time>2024-04-14T06:56:20Z</time>
      </trkpt>
      <trkpt lat="47.31964" lon="0.40435">
        <ele>46.6</ele>
        <time>2024-04-14T06:56:28Z</time>
      </trkpt>
      <trkpt lat="47.3201" lon="0.40396">
        <ele>46.5</ele>
        <time>2024-04-14T06:56:35Z</time>
      </trkpt>
      <trkpt lat="47.32061" lon="0.40353">
        <ele>46.4</ele>
        <time>2024-04-14T06:56:43Z</time>
      </trkpt>
      <trkpt lat="47.32093" lon="0.40327">
        <ele>46.2</ele>
        <time>2024-04-14T06:56:48Z</time>
      </trkpt>
      <trkpt lat="47.32101" lon="0.40326">
        <ele>46.2</ele>
        <time>2024-04-14T06:56:49Z</time>
      </trkpt>
      <trkpt lat="47.32114" lon="0.40335">
        <ele>45.9</ele>
        <time>2024-04-14T06:56:51Z</time>
      </trkpt>
      <trkpt lat="47.32121" lon="0.40354">
        <ele>45.7</ele>
        <time>2024-04-14T06:56:53Z</time>
      </trkpt>
      <trkpt lat="47.32124" lon="0.40364">
        <ele>45.6</ele>
        <time>2024-04-14T06:56:54Z</time>
      </trkpt>
      <trkpt lat="47.32126" lon="0.40374">
        <ele>45.5</ele>
        <time>2024-04-14T06:56:55Z</time>
      </trkpt>
      <trkpt lat="47.32138" lon="0.40441">
        <ele>44.8</ele>
        <time>2024-04-14T06:57:01Z</time>
      </trkpt>
      <trkpt lat="47.32141" lon="0.40464">
        <ele>44.6</ele>
        <time>2024-04-14T06:57:03Z</time>
      </trkpt>
      <trkpt lat="47.32157" lon="0.40541">
        <ele>44.2</ele>
        <time>2024-04-14T06:57:10Z</time>
      </trkpt>
      <trkpt lat="47.32179" lon="0.40601">
        <ele>44.1</ele>
        <time>2024-04-14T06:57:16Z</time>
      </trkpt>
      <trkpt lat="47.32188" lon="0.40618">
        <ele>43.9</ele>
        <time>2024-04-14T06:57:18Z</time>
      </trkpt>
      <trkpt lat="47.32197" lon="0.4063">
        <ele>43.7</ele>
        <time>2024-04-14T06:57:20Z</time>
      </trkpt>
      <trkpt lat="47.3221" lon="0.40632">
        <ele>43.3</ele>
        <time>2024-04-14T06:57:22Z</time>
      </trkpt>
      <trkpt lat="47.32232" lon="0.40641">
        <ele>42.5</ele>
        <time>2024-04-14T06:57:25Z</time>
      </trkpt>
      <trkpt lat="47.32258" lon="0.40631">
        <ele>41.6</ele>
        <time>2024-04-14T06:57:28Z</time>
      </trkpt>
      <trkpt lat="47.32266" lon="0.40626">
        <ele>41.5</ele>
        <time>2024-04-14T06:57:29Z</time>
      </trkpt>
      <trkpt lat="47.32274" lon="0.40622">
        <ele>41.5</ele>
        <time>2024-04-14T06:57:30Z</time>
      </trkpt>
      <trkpt lat="47.3228" lon="0.40619">
        <ele>41.5</ele>
        <time>2024-04-14T06:57:31Z</time>
      </trkpt>
      <trkpt lat="47.32293" lon="0.40623">
        <ele>41.4</ele>
        <time>2024-04-14T06:57:33Z</time>
      </trkpt>
      <trkpt lat="47.32297" lon="0.4064">
        <ele>41.4</ele>
        <time>2024-04-14T06:57:35Z</time>
      </trkpt>
      <trkpt lat="47.32308" lon="0.40682">
        <ele>41.4</ele>
        <time>2024-04-14T06:57:40Z</time>
      </trkpt>
      <trkpt lat="47.32316" lon="0.40696">
        <ele>41.5</ele>
        <time>2024-04-14T06:57:42Z</time>
      </trkpt>
      <trkpt lat="47.32327" lon="0.4072">
        <ele>41.5</ele>
        <time>2024-04-14T06:57:45Z</time>
      </trkpt>
      <trkpt lat="47.32345" lon="0.40768">
        <ele>41.5</ele>
        <time>2024-04-14T06:57:51Z</time>
      </trkpt>
      <trkpt lat="47.32356" lon="0.40799">
        <ele>41.5</ele>
        <time>2024-04-14T06:57:55Z</time>
      </trkpt>
      <trkpt lat="47.32376" lon="0.40854">
        <ele>41.7</ele>
        <time>2024-04-14T06:58:02Z</time>
      </trkpt>
      <trkpt lat="47.32387" lon="0.40885">
        <ele>41.8</ele>
        <time>2024-04-14T06:58:07Z</time>
      </trkpt>
      <trkpt lat="47.32391" lon="0.40892">
        <ele>41.8</ele>
        <time>2024-04-14T06:58:10Z</time>
      </trkpt>
      <trkpt lat="47.32398" lon="0.40908">
        <ele>41.9</ele>
        <time>2024-04-14T06:58:14Z</time>
      </trkpt>
      <trkpt lat="47.32404" lon="0.40927">
        <ele>42.2</ele>
        <time>2024-04-14T06:58:17Z</time>
      </trkpt>
      <trkpt lat="47.32407" lon="0.40939">
        <ele>42.4</ele>
        <time>2024-04-14T06:58:19Z</time>
      </trkpt>
      <trkpt lat="47.32414" lon="0.4094">
        <ele>42.5</ele>
        <time>2024-04-14T06:58:21Z</time>
      </trkpt>
      <trkpt lat="47.32426" lon="0.40926">
        <ele>42.4</ele>
        <time>2024-04-14T06:58:24Z</time>
      </trkpt>
      <trkpt lat="47.32452" lon="0.40894">
        <ele>42.4</ele>
        <time>2024-04-14T06:58:29Z</time>
      </trkpt>
      <trkpt lat="47.32484" lon="0.40845">
        <ele>42.1</ele>
        <time>2024-04-14T06:58:36Z</time>
      </trkpt>
      <trkpt lat="47.32505" lon="0.40815">
        <ele>42</ele>
        <time>2024-04-14T06:58:41Z</time>
      </trkpt>
      <trkpt lat="47.32507" lon="0.40797">
        <ele>42</ele>
        <time>2024-04-14T06:58:44Z</time>
      </trkpt>
      <trkpt lat="47.32504" lon="0.40784">
        <ele>41.9</ele>
        <time>2024-04-14T06:58:46Z</time>
      </trkpt>
      <trkpt lat="47.32503" lon="0.40777">
        <ele>42</ele>
        <time>2024-04-14T06:58:47Z</time>
      </trkpt>
      <trkpt lat="47.32501" lon="0.40763">
        <ele>42</ele>
        <time>2024-04-14T06:58:49Z</time>
      </trkpt>
      <trkpt lat="47.32497" lon="0.40723">
        <ele>42.1</ele>
        <time>2024-04-14T06:58:55Z</time>
      </trkpt>
      <trkpt lat="47.32493" lon="0.40678">
        <ele>42.7</ele>
        <time>2024-04-14T06:59:01Z</time>
      </trkpt>
      <trkpt lat="47.3249" lon="0.40658">
        <ele>43.2</ele>
        <time>2024-04-14T06:59:04Z</time>
      </trkpt>
      <trkpt lat="47.32493" lon="0.40647">
        <ele>43.4</ele>
        <time>2024-04-14T06:59:06Z</time>
      </trkpt>
      <trkpt lat="47.32502" lon="0.40624">
        <ele>43.7</ele>
        <time>2024-04-14T06:59:10Z</time>
      </trkpt>
      <trkpt lat="47.32503" lon="0.40616">
        <ele>43.8</ele>
        <time>2024-04-14T06:59:11Z</time>
      </trkpt>
      <trkpt lat="47.325" lon="0.40605">
        <ele>43.9</ele>
        <time>2024-04-14T06:59:13Z</time>
      </trkpt>
      <trkpt lat="47.32487" lon="0.40578">
        <ele>44.1</ele>
        <time>2024-04-14T06:59:17Z</time>
      </trkpt>
      <trkpt lat="47.32483" lon="0.40572">
        <ele>44.2</ele>
        <time>2024-04-14T06:59:18Z</time>
      </trkpt>
      <trkpt lat="47.32475" lon="0.40557">
        <ele>44.4</ele>
        <time>2024-04-14T06:59:20Z</time>
      </trkpt>
      <trkpt lat="47.32469" lon="0.4054">
        <ele>44.5</ele>
        <time>2024-04-14T06:59:22Z</time>
      </trkpt>
      <trkpt lat="47.32466" lon="0.40531">
        <ele>44.5</ele>
        <time>2024-04-14T06:59:23Z</time>
      </trkpt>
      <trkpt lat="47.32456" lon="0.40507">
        <ele>44.6</ele>
        <time>2024-04-14T06:59:26Z</time>
      </trkpt>
      <trkpt lat="47.3245" lon="0.4049">
        <ele>44.7</ele>
        <time>2024-04-14T06:59:28Z</time>
      </trkpt>
      <trkpt lat="47.32435" lon="0.40434">
        <ele>44.5</ele>
        <time>2024-04-14T06:59:34Z</time>
      </trkpt>
      <trkpt lat="47.32429" lon="0.40414">
        <ele>44.4</ele>
        <time>2024-04-14T06:59:36Z</time>
      </trkpt>
      <trkpt lat="47.32415" lon="0.40343">
        <ele>44.1</ele>
        <time>2024-04-14T06:59:43Z</time>
      </trkpt>
      <trkpt lat="47.32407" lon="0.40289">
        <ele>44</ele>
        <time>2024-04-14T06:59:48Z</time>
      </trkpt>
      <trkpt lat="47.32404" lon="0.40255">
        <ele>44</ele>
        <time>2024-04-14T06:59:51Z</time>
      </trkpt>
      <trkpt lat="47.32406" lon="0.40177">
        <ele>43.8</ele>
        <time>2024-04-14T06:59:58Z</time>
      </trkpt>
      <trkpt lat="47.32418" lon="0.40126">
        <ele>43.7</ele>
        <time>2024-04-14T07:00:03Z</time>
      </trkpt>
      <trkpt lat="47.32442" lon="0.4007">
        <ele>43.7</ele>
        <time>2024-04-14T07:00:09Z</time>
      </trkpt>
      <trkpt lat="47.32466" lon="0.40031">
        <ele>43.7</ele>
        <time>2024-04-14T07:00:14Z</time>
      </trkpt>
      <trkpt lat="47.32504" lon="0.39993">
        <ele>43.8</ele>
        <time>2024-04-14T07:00:20Z</time>
      </trkpt>
      <trkpt lat="47.32536" lon="0.39971">
        <ele>43.9</ele>
        <time>2024-04-14T07:00:25Z</time>
      </trkpt>
      <trkpt lat="47.32542" lon="0.39969">
        <ele>43.9</ele>
        <time>2024-04-14T07:00:26Z</time>
      </trkpt>
      <trkpt lat="47.32567" lon="0.3996">
        <ele>44</ele>
        <time>2024-04-14T07:00:30Z</time>
      </trkpt>
      <trkpt lat="47.32607" lon="0.39943">
        <ele>44</ele>
        <time>2024-04-14T07:00:36Z</time>
      </trkpt>
      <trkpt lat="47.32631" lon="0.39928">
        <ele>44.1</ele>
        <time>2024-04-14T07:00:40Z</time>
      </trkpt>
      <trkpt lat="47.32645" lon="0.39923">
        <ele>44.1</ele>
        <time>2024-04-14T07:00:42Z</time>
      </trkpt>
      <trkpt lat="47.32679" lon="0.39917">
        <ele>44.3</ele>
        <time>2024-04-14T07:00:47Z</time>
      </trkpt>
      <trkpt lat="47.32707" lon="0.39905">
        <ele>44.8</ele>
        <time>2024-04-14T07:00:51Z</time>
      </trkpt>
      <trkpt lat="47.32724" lon="0.39889">
        <ele>45.2</ele>
        <time>2024-04-14T07:00:54Z</time>
      </trkpt>
      <trkpt lat="47.32734" lon="0.39877">
        <ele>45.5</ele>
        <time>2024-04-14T07:00:56Z</time>
      </trkpt>
      <trkpt lat="47.32758" lon="0.39845">
        <ele>46</ele>
        <time>2024-04-14T07:01:01Z</time>
      </trkpt>
      <trkpt lat="47.32764" lon="0.3984">
        <ele>45.9</ele>
        <time>2024-04-14T07:01:02Z</time>
      </trkpt>
      <trkpt lat="47.32769" lon="0.39835">
        <ele>45.9</ele>
        <time>2024-04-14T07:01:03Z</time>
      </trkpt>
      <trkpt lat="47.32807" lon="0.39807">
        <ele>45.9</ele>
        <time>2024-04-14T07:01:09Z</time>
      </trkpt>
      <trkpt lat="47.32821" lon="0.39797">
        <ele>45.9</ele>
        <time>2024-04-14T07:01:11Z</time>
      </trkpt>
      <trkpt lat="47.32867" lon="0.39761">
        <ele>46.3</ele>
        <time>2024-04-14T07:01:18Z</time>
      </trkpt>
      <trkpt lat="47.32903" lon="0.39739">
        <ele>47.4</ele>
        <time>2024-04-14T07:01:24Z</time>
      </trkpt>
      <trkpt lat="47.32919" lon="0.39732">
        <ele>48.2</ele>
        <time>2024-04-14T07:01:27Z</time>
      </trkpt>
      <trkpt lat="47.32933" lon="0.39728">
        <ele>49.1</ele>
        <time>2024-04-14T07:01:30Z</time>
      </trkpt>
      <trkpt lat="47.32937" lon="0.39727">
        <ele>49.3</ele>
        <time>2024-04-14T07:01:31Z</time>
      </trkpt>
      <trkpt lat="47.32942" lon="0.39726">
        <ele>49.6</ele>
        <time>2024-04-14T07:01:32Z</time>
      </trkpt>
      <trkpt lat="47.32957" lon="0.39728">
        <ele>50.4</ele>
        <time>2024-04-14T07:01:35Z</time>
      </trkpt>
      <trkpt lat="47.32962" lon="0.39729">
        <ele>50.7</ele>
        <time>2024-04-14T07:01:36Z</time>
      </trkpt>
      <trkpt lat="47.32967" lon="0.39731">
        <ele>51</ele>
        <time>2024-04-14T07:01:37Z</time>
      </trkpt>
      <trkpt lat="47.32978" lon="0.39736">
        <ele>51.6</ele>
        <time>2024-04-14T07:01:39Z</time>
      </trkpt>
      <trkpt lat="47.32988" lon="0.39741">
        <ele>52.2</ele>
        <time>2024-04-14T07:01:41Z</time>
      </trkpt>
      <trkpt lat="47.33001" lon="0.3975">
        <ele>53</ele>
        <time>2024-04-14T07:01:44Z</time>
      </trkpt>
      <trkpt lat="47.33013" lon="0.3976">
        <ele>54.1</ele>
        <time>2024-04-14T07:01:47Z</time>
      </trkpt>
      <trkpt lat="47.33026" lon="0.39767">
        <ele>55.1</ele>
        <time>2024-04-14T07:01:50Z</time>
      </trkpt>
      <trkpt lat="47.33039" lon="0.39775">
        <ele>56.2</ele>
        <time>2024-04-14T07:01:53Z</time>
      </trkpt>
      <trkpt lat="47.33044" lon="0.39777">
        <ele>56.5</ele>
        <time>2024-04-14T07:01:54Z</time>
      </trkpt>
      <trkpt lat="47.33057" lon="0.39781">
        <ele>57.4</ele>
        <time>2024-04-14T07:01:57Z</time>
      </trkpt>
      <trkpt lat="47.33071" lon="0.39787">
        <ele>58.2</ele>
        <time>2024-04-14T07:02:00Z</time>
      </trkpt>
      <trkpt lat="47.33076" lon="0.39789">
        <ele>58.5</ele>
        <time>2024-04-14T07:02:01Z</time>
      </trkpt>
      <trkpt lat="47.3308" lon="0.39792">
        <ele>58.8</ele>
        <time>2024-04-14T07:02:02Z</time>
      </trkpt>
      <trkpt lat="47.33092" lon="0.398">
        <ele>59.5</ele>
        <time>2024-04-14T07:02:05Z</time>
      </trkpt>
      <trkpt lat="47.33095" lon="0.39803">
        <ele>59.7</ele>
        <time>2024-04-14T07:02:06Z</time>
      </trkpt>
      <trkpt lat="47.33099" lon="0.39807">
        <ele>60</ele>
        <time>2024-04-14T07:02:07Z</time>
      </trkpt>
      <trkpt lat="47.33106" lon="0.39816">
        <ele>60.7</ele>
        <time>2024-04-14T07:02:09Z</time>
      </trkpt>
      <trkpt lat="47.3311" lon="0.39821">
        <ele>61</ele>
        <time>2024-04-14T07:02:10Z</time>
      </trkpt>
      <trkpt lat="47.33114" lon="0.39825">
        <ele>61.3</ele>
        <time>2024-04-14T07:02:11Z</time>
      </trkpt>
      <trkpt lat="47.3312" lon="0.39835">
        <ele>62</ele>
        <time>2024-04-14T07:02:13Z</time>
      </trkpt>
      <trkpt lat="47.33123" lon="0.39841">
        <ele>62.3</ele>
        <time>2024-04-14T07:02:14Z</time>
      </trkpt>
      <trkpt lat="47.33126" lon="0.39846">
        <ele>62.6</ele>
        <time>2024-04-14T07:02:15Z</time>
      </trkpt>
      <trkpt lat="47.33132" lon="0.39856">
        <ele>63.1</ele>
        <time>2024-04-14T07:02:17Z</time>
      </trkpt>
      <trkpt lat="47.33136" lon="0.39861">
        <ele>63.4</ele>
        <time>2024-04-14T07:02:18Z</time>
      </trkpt>
      <trkpt lat="47.33144" lon="0.39871">
        <ele>64</ele>
        <time>2024-04-14T07:02:20Z</time>
      </trkpt>
      <trkpt lat="47.33149" lon="0.39874">
        <ele>64.2</ele>
        <time>2024-04-14T07:02:21Z</time>
      </trkpt>
      <trkpt lat="47.33166" lon="0.3988">
        <ele>65</ele>
        <time>2024-04-14T07:02:24Z</time>
      </trkpt>
      <trkpt lat="47.33194" lon="0.39872">
        <ele>66.1</ele>
        <time>2024-04-14T07:02:29Z</time>
      </trkpt>
      <trkpt lat="47.332" lon="0.3987">
        <ele>66.3</ele>
        <time>2024-04-14T07:02:30Z</time>
      </trkpt>
      <trkpt lat="47.33222" lon="0.3986">
        <ele>67.1</ele>
        <time>2024-04-14T07:02:34Z</time>
      </trkpt>
      <trkpt lat="47.33227" lon="0.39858">
        <ele>67.3</ele>
        <time>2024-04-14T07:02:35Z</time>
      </trkpt>
      <trkpt lat="47.33235" lon="0.39853">
        <ele>67.7</ele>
        <time>2024-04-14T07:02:37Z</time>
      </trkpt>
      <trkpt lat="47.33244" lon="0.39849">
        <ele>68.1</ele>
        <time>2024-04-14T07:02:39Z</time>
      </trkpt>
      <trkpt lat="47.33256" lon="0.39843">
        <ele>68.7</ele>
        <time>2024-04-14T07:02:41Z</time>
      </trkpt>
      <trkpt lat="47.33261" lon="0.39841">
        <ele>69</ele>
        <time>2024-04-14T07:02:42Z</time>
      </trkpt>
      <trkpt lat="47.33266" lon="0.39839">
        <ele>69.3</ele>
        <time>2024-04-14T07:02:43Z</time>
      </trkpt>
      <trkpt lat="47.33276" lon="0.39835">
        <ele>69.7</ele>
        <time>2024-04-14T07:02:45Z</time>
      </trkpt>
      <trkpt lat="47.3328" lon="0.39834">
        <ele>69.9</ele>
        <time>2024-04-14T07:02:46Z</time>
      </trkpt>
      <trkpt lat="47.33299" lon="0.39824">
        <ele>70.8</ele>
        <time>2024-04-14T07:02:50Z</time>
      </trkpt>
      <trkpt lat="47.33319" lon="0.39815">
        <ele>71.6</ele>
        <time>2024-04-14T07:02:54Z</time>
      </trkpt>
      <trkpt lat="47.33346" lon="0.39805">
        <ele>72.8</ele>
        <time>2024-04-14T07:02:59Z</time>
      </trkpt>
      <trkpt lat="47.3336" lon="0.39802">
        <ele>73.4</ele>
        <time>2024-04-14T07:03:02Z</time>
      </trkpt>
      <trkpt lat="47.33366" lon="0.39802">
        <ele>73.7</ele>
        <time>2024-04-14T07:03:03Z</time>
      </trkpt>
      <trkpt lat="47.33387" lon="0.39804">
        <ele>74.4</ele>
        <time>2024-04-14T07:03:07Z</time>
      </trkpt>
      <trkpt lat="47.33429" lon="0.39813">
        <ele>75.3</ele>
        <time>2024-04-14T07:03:14Z</time>
      </trkpt>
      <trkpt lat="47.33442" lon="0.39817">
        <ele>75.5</ele>
        <time>2024-04-14T07:03:16Z</time>
      </trkpt>
      <trkpt lat="47.33476" lon="0.39829">
        <ele>76.3</ele>
        <time>2024-04-14T07:03:22Z</time>
      </trkpt>
      <trkpt lat="47.33494" lon="0.39836">
        <ele>76.7</ele>
        <time>2024-04-14T07:03:25Z</time>
      </trkpt>
      <trkpt lat="47.33522" lon="0.3985">
        <ele>77.4</ele>
        <time>2024-04-14T07:03:30Z</time>
      </trkpt>
      <trkpt lat="47.33533" lon="0.39856">
        <ele>77.7</ele>
        <time>2024-04-14T07:03:32Z</time>
      </trkpt>
      <trkpt lat="47.33565" lon="0.39873">
        <ele>78.6</ele>
        <time>2024-04-14T07:03:38Z</time>
      </trkpt>
      <trkpt lat="47.33586" lon="0.39882">
        <ele>79.2</ele>
        <time>2024-04-14T07:03:42Z</time>
      </trkpt>
      <trkpt lat="47.33602" lon="0.39887">
        <ele>79.8</ele>
        <time>2024-04-14T07:03:45Z</time>
      </trkpt>
      <trkpt lat="47.33624" lon="0.39888">
        <ele>80.8</ele>
        <time>2024-04-14T07:03:49Z</time>
      </trkpt>
      <trkpt lat="47.33645" lon="0.3989">
        <ele>82</ele>
        <time>2024-04-14T07:03:53Z</time>
      </trkpt>
      <trkpt lat="47.33671" lon="0.39891">
        <ele>83.6</ele>
        <time>2024-04-14T07:03:58Z</time>
      </trkpt>
      <trkpt lat="47.33687" lon="0.39892">
        <ele>84.6</ele>
        <time>2024-04-14T07:04:01Z</time>
      </trkpt>
      <trkpt lat="47.33692" lon="0.39892">
        <ele>85</ele>
        <time>2024-04-14T07:04:02Z</time>
      </trkpt>
      <trkpt lat="47.33707" lon="0.39893">
        <ele>85.9</ele>
        <time>2024-04-14T07:04:05Z</time>
      </trkpt>
      <trkpt lat="47.33723" lon="0.39895">
        <ele>86.8</ele>
        <time>2024-04-14T07:04:08Z</time>
      </trkpt>
      <trkpt lat="47.33739" lon="0.39896">
        <ele>87.7</ele>
        <time>2024-04-14T07:04:11Z</time>
      </trkpt>
      <trkpt lat="47.3376" lon="0.39897">
        <ele>88.7</ele>
        <time>2024-04-14T07:04:15Z</time>
      </trkpt>
      <trkpt lat="47.33786" lon="0.39895">
        <ele>89.9</ele>
        <time>2024-04-14T07:04:20Z</time>
      </trkpt>
      <trkpt lat="47.33796" lon="0.39893">
        <ele>90.3</ele>
        <time>2024-04-14T07:04:22Z</time>
      </trkpt>
      <trkpt lat="47.33801" lon="0.3989">
        <ele>90.6</ele>
        <time>2024-04-14T07:04:23Z</time>
      </trkpt>
      <trkpt lat="47.33816" lon="0.39884">
        <ele>91.3</ele>
        <time>2024-04-14T07:04:26Z</time>
      </trkpt>
      <trkpt lat="47.3382" lon="0.39882">
        <ele>91.6</ele>
        <time>2024-04-14T07:04:27Z</time>
      </trkpt>
      <trkpt lat="47.33837" lon="0.3987">
        <ele>92.5</ele>
        <time>2024-04-14T07:04:31Z</time>
      </trkpt>
      <trkpt lat="47.33841" lon="0.39866">
        <ele>92.8</ele>
        <time>2024-04-14T07:04:32Z</time>
      </trkpt>
      <trkpt lat="47.33854" lon="0.39854">
        <ele>93.5</ele>
        <time>2024-04-14T07:04:35Z</time>
      </trkpt>
      <trkpt lat="47.33873" lon="0.39833">
        <ele>94.4</ele>
        <time>2024-04-14T07:04:39Z</time>
      </trkpt>
      <trkpt lat="47.33877" lon="0.39827">
        <ele>94.5</ele>
        <time>2024-04-14T07:04:40Z</time>
      </trkpt>
      <trkpt lat="47.33899" lon="0.39792">
        <ele>95.7</ele>
        <time>2024-04-14T07:04:46Z</time>
      </trkpt>
      <trkpt lat="47.33903" lon="0.39785">
        <ele>95.9</ele>
        <time>2024-04-14T07:04:47Z</time>
      </trkpt>
      <trkpt lat="47.33933" lon="0.39738">
        <ele>97.2</ele>
        <time>2024-04-14T07:04:55Z</time>
      </trkpt>
      <trkpt lat="47.33937" lon="0.39733">
        <ele>97.3</ele>
        <time>2024-04-14T07:04:56Z</time>
      </trkpt>
      <trkpt lat="47.33957" lon="0.39714">
        <ele>97.7</ele>
        <time>2024-04-14T07:05:00Z</time>
      </trkpt>
      <trkpt lat="47.33967" lon="0.39705">
        <ele>97.8</ele>
        <time>2024-04-14T07:05:02Z</time>
      </trkpt>
      <trkpt lat="47.34007" lon="0.39685">
        <ele>98.1</ele>
        <time>2024-04-14T07:05:09Z</time>
      </trkpt>
      <trkpt lat="47.34026" lon="0.39679">
        <ele>98.3</ele>
        <time>2024-04-14T07:05:12Z</time>
      </trkpt>
      <trkpt lat="47.3405" lon="0.39672">
        <ele>98.6</ele>
        <time>2024-04-14T07:05:16Z</time>
      </trkpt>
      <trkpt lat="47.34103" lon="0.39655">
        <ele>99.8</ele>
        <time>2024-04-14T07:05:25Z</time>
      </trkpt>
      <trkpt lat="47.34109" lon="0.39653">
        <ele>99.9</ele>
        <time>2024-04-14T07:05:26Z</time>
      </trkpt>
      <trkpt lat="47.34144" lon="0.39642">
        <ele>100.8</ele>
        <time>2024-04-14T07:05:32Z</time>
      </trkpt>
      <trkpt lat="47.34162" lon="0.39637">
        <ele>101.3</ele>
        <time>2024-04-14T07:05:35Z</time>
      </trkpt>
      <trkpt lat="47.34192" lon="0.39627">
        <ele>101.9</ele>
        <time>2024-04-14T07:05:40Z</time>
      </trkpt>
      <trkpt lat="47.3421" lon="0.39622">
        <ele>102.2</ele>
        <time>2024-04-14T07:05:43Z</time>
      </trkpt>
      <trkpt lat="47.34228" lon="0.39617">
        <ele>102.2</ele>
        <time>2024-04-14T07:05:46Z</time>
      </trkpt>
      <trkpt lat="47.34252" lon="0.3961">
        <ele>101.9</ele>
        <time>2024-04-14T07:05:50Z</time>
      </trkpt>
      <trkpt lat="47.34286" lon="0.39599">
        <ele>101.1</ele>
        <time>2024-04-14T07:05:56Z</time>
      </trkpt>
      <trkpt lat="47.34303" lon="0.39592">
        <ele>100.5</ele>
        <time>2024-04-14T07:05:59Z</time>
      </trkpt>
      <trkpt lat="47.34319" lon="0.39586">
        <ele>100.1</ele>
        <time>2024-04-14T07:06:02Z</time>
      </trkpt>
      <trkpt lat="47.34338" lon="0.3958">
        <ele>99.5</ele>
        <time>2024-04-14T07:06:06Z</time>
      </trkpt>
      <trkpt lat="47.34352" lon="0.39577">
        <ele>98.9</ele>
        <time>2024-04-14T07:06:09Z</time>
      </trkpt>
      <trkpt lat="47.34357" lon="0.39576">
        <ele>98.8</ele>
        <time>2024-04-14T07:06:10Z</time>
      </trkpt>
      <trkpt lat="47.34375" lon="0.3957">
        <ele>98</ele>
        <time>2024-04-14T07:06:14Z</time>
      </trkpt>
      <trkpt lat="47.3438" lon="0.39568">
        <ele>97.8</ele>
        <time>2024-04-14T07:06:15Z</time>
      </trkpt>
      <trkpt lat="47.34386" lon="0.39567">
        <ele>97.6</ele>
        <time>2024-04-14T07:06:16Z</time>
      </trkpt>
      <trkpt lat="47.34414" lon="0.39559">
        <ele>96.8</ele>
        <time>2024-04-14T07:06:21Z</time>
      </trkpt>
      <trkpt lat="47.34424" lon="0.39555">
        <ele>96.6</ele>
        <time>2024-04-14T07:06:23Z</time>
      </trkpt>
      <trkpt lat="47.34433" lon="0.39551">
        <ele>96.4</ele>
        <time>2024-04-14T07:06:25Z</time>
      </trkpt>
      <trkpt lat="47.34448" lon="0.39546">
        <ele>96.2</ele>
        <time>2024-04-14T07:06:28Z</time>
      </trkpt>
      <trkpt lat="47.34455" lon="0.39543">
        <ele>96.1</ele>
        <time>2024-04-14T07:06:30Z</time>
      </trkpt>
      <trkpt lat="47.34459" lon="0.39541">
        <ele>96.1</ele>
        <time>2024-04-14T07:06:31Z</time>
      </trkpt>
      <trkpt lat="47.34463" lon="0.39537">
        <ele>96.1</ele>
        <time>2024-04-14T07:06:32Z</time>
      </trkpt>
      <trkpt lat="47.34468" lon="0.39528">
        <ele>95.7</ele>
        <time>2024-04-14T07:06:34Z</time>
      </trkpt>
      <trkpt lat="47.34474" lon="0.39516">
        <ele>95.2</ele>
        <time>2024-04-14T07:06:36Z</time>
      </trkpt>
      <trkpt lat="47.3448" lon="0.39504">
        <ele>94.6</ele>
        <time>2024-04-14T07:06:38Z</time>
      </trkpt>
      <trkpt lat="47.34484" lon="0.39498">
        <ele>94.3</ele>
        <time>2024-04-14T07:06:39Z</time>
      </trkpt>
      <trkpt lat="47.34508" lon="0.39463">
        <ele>92.8</ele>
        <time>2024-04-14T07:06:45Z</time>
      </trkpt>
      <trkpt lat="47.34516" lon="0.3945">
        <ele>92.4</ele>
        <time>2024-04-14T07:06:47Z</time>
      </trkpt>
      <trkpt lat="47.34528" lon="0.39428">
        <ele>91.9</ele>
        <time>2024-04-14T07:06:50Z</time>
      </trkpt>
      <trkpt lat="47.34532" lon="0.39421">
        <ele>91.8</ele>
        <time>2024-04-14T07:06:51Z</time>
      </trkpt>
      <trkpt lat="47.34539" lon="0.39405">
        <ele>91.6</ele>
        <time>2024-04-14T07:06:53Z</time>
      </trkpt>
      <trkpt lat="47.34548" lon="0.39372">
        <ele>91.5</ele>
        <time>2024-04-14T07:06:57Z</time>
      </trkpt>
      <trkpt lat="47.34553" lon="0.39346">
        <ele>91.4</ele>
        <time>2024-04-14T07:07:00Z</time>
      </trkpt>
      <trkpt lat="47.34555" lon="0.39319">
        <ele>91.3</ele>
        <time>2024-04-14T07:07:03Z</time>
      </trkpt>
      <trkpt lat="47.34555" lon="0.39291">
        <ele>91.3</ele>
        <time>2024-04-14T07:07:06Z</time>
      </trkpt>
      <trkpt lat="47.34554" lon="0.39263">
        <ele>91.5</ele>
        <time>2024-04-14T07:07:09Z</time>
      </trkpt>
      <trkpt lat="47.34548" lon="0.39198">
        <ele>92.3</ele>
        <time>2024-04-14T07:07:16Z</time>
      </trkpt>
      <trkpt lat="47.34543" lon="0.39126">
        <ele>93.9</ele>
        <time>2024-04-14T07:07:24Z</time>
      </trkpt>
      <trkpt lat="47.3454" lon="0.39086">
        <ele>94.9</ele>
        <time>2024-04-14T07:07:29Z</time>
      </trkpt>
      <trkpt lat="47.34537" lon="0.39046">
        <ele>96</ele>
        <time>2024-04-14T07:07:34Z</time>
      </trkpt>
      <trkpt lat="47.34537" lon="0.39037">
        <ele>96.2</ele>
        <time>2024-04-14T07:07:35Z</time>
      </trkpt>
      <trkpt lat="47.34533" lon="0.39005">
        <ele>97.1</ele>
        <time>2024-04-14T07:07:39Z</time>
      </trkpt>
      <trkpt lat="47.34531" lon="0.38981">
        <ele>97.8</ele>
        <time>2024-04-14T07:07:42Z</time>
      </trkpt>
      <trkpt lat="47.3453" lon="0.38966">
        <ele>98.1</ele>
        <time>2024-04-14T07:07:44Z</time>
      </trkpt>
      <trkpt lat="47.3453" lon="0.38957">
        <ele>98.3</ele>
        <time>2024-04-14T07:07:45Z</time>
      </trkpt>
      <trkpt lat="47.34529" lon="0.38932">
        <ele>98.7</ele>
        <time>2024-04-14T07:07:48Z</time>
      </trkpt>
      <trkpt lat="47.34529" lon="0.38924">
        <ele>98.8</ele>
        <time>2024-04-14T07:07:49Z</time>
      </trkpt>
      <trkpt lat="47.3453" lon="0.38915">
        <ele>99</ele>
        <time>2024-04-14T07:07:50Z</time>
      </trkpt>
      <trkpt lat="47.34533" lon="0.3888">
        <ele>99.5</ele>
        <time>2024-04-14T07:07:54Z</time>
      </trkpt>
      <trkpt lat="47.34536" lon="0.38861">
        <ele>99.7</ele>
        <time>2024-04-14T07:07:56Z</time>
      </trkpt>
      <trkpt lat="47.3454" lon="0.38832">
        <ele>100</ele>
        <time>2024-04-14T07:07:59Z</time>
      </trkpt>
      <trkpt lat="47.34542" lon="0.38822">
        <ele>100.1</ele>
        <time>2024-04-14T07:08:00Z</time>
      </trkpt>
      <trkpt lat="47.34548" lon="0.38759">
        <ele>100.6</ele>
        <time>2024-04-14T07:08:06Z</time>
      </trkpt>
      <trkpt lat="47.34551" lon="0.38728">
        <ele>100.9</ele>
        <time>2024-04-14T07:08:09Z</time>
      </trkpt>
      <trkpt lat="47.34554" lon="0.38698">
        <ele>101.1</ele>
        <time>2024-04-14T07:08:12Z</time>
      </trkpt>
      <trkpt lat="47.34559" lon="0.38641">
        <ele>102.1</ele>
        <time>2024-04-14T07:08:18Z</time>
      </trkpt>
      <trkpt lat="47.3456" lon="0.38631">
        <ele>102.3</ele>
        <time>2024-04-14T07:08:19Z</time>
      </trkpt>
      <trkpt lat="47.34562" lon="0.38591">
        <ele>103.1</ele>
        <time>2024-04-14T07:08:23Z</time>
      </trkpt>
      <trkpt lat="47.34564" lon="0.38573">
        <ele>103.5</ele>
        <time>2024-04-14T07:08:25Z</time>
      </trkpt>
      <trkpt lat="47.34567" lon="0.38537">
        <ele>104.4</ele>
        <time>2024-04-14T07:08:29Z</time>
      </trkpt>
      <trkpt lat="47.34568" lon="0.38518">
        <ele>104.8</ele>
        <time>2024-04-14T07:08:31Z</time>
      </trkpt>
      <trkpt lat="47.3457" lon="0.38491">
        <ele>105.3</ele>
        <time>2024-04-14T07:08:34Z</time>
      </trkpt>
      <trkpt lat="47.34573" lon="0.38454">
        <ele>106</ele>
        <time>2024-04-14T07:08:38Z</time>
      </trkpt>
      <trkpt lat="47.34574" lon="0.38425">
        <ele>106.5</ele>
        <time>2024-04-14T07:08:41Z</time>
      </trkpt>
      <trkpt lat="47.34575" lon="0.38395">
        <ele>106.8</ele>
        <time>2024-04-14T07:08:44Z</time>
      </trkpt>
      <trkpt lat="47.34576" lon="0.38364">
        <ele>107.2</ele>
        <time>2024-04-14T07:08:47Z</time>
      </trkpt>
      <trkpt lat="47.34579" lon="0.38321">
        <ele>107.4</ele>
        <time>2024-04-14T07:08:51Z</time>
      </trkpt>
      <trkpt lat="47.34583" lon="0.38237">
        <ele>107.4</ele>
        <time>2024-04-14T07:08:59Z</time>
      </trkpt>
      <trkpt lat="47.34584" lon="0.38226">
        <ele>107.3</ele>
        <time>2024-04-14T07:09:00Z</time>
      </trkpt>
      <trkpt lat="47.34588" lon="0.3816">
        <ele>106.9</ele>
        <time>2024-04-14T07:09:06Z</time>
      </trkpt>
      <trkpt lat="47.34594" lon="0.38079">
        <ele>105.9</ele>
        <time>2024-04-14T07:09:13Z</time>
      </trkpt>
      <trkpt lat="47.34595" lon="0.38055">
        <ele>105.6</ele>
        <time>2024-04-14T07:09:15Z</time>
      </trkpt>
      <trkpt lat="47.34596" lon="0.38043">
        <ele>105.4</ele>
        <time>2024-04-14T07:09:16Z</time>
      </trkpt>
      <trkpt lat="47.34602" lon="0.37956">
        <ele>104.2</ele>
        <time>2024-04-14T07:09:23Z</time>
      </trkpt>
      <trkpt lat="47.34603" lon="0.37943">
        <ele>103.9</ele>
        <time>2024-04-14T07:09:24Z</time>
      </trkpt>
      <trkpt lat="47.34608" lon="0.37878">
        <ele>102.6</ele>
        <time>2024-04-14T07:09:29Z</time>
      </trkpt>
      <trkpt lat="47.34613" lon="0.3781">
        <ele>101.1</ele>
        <time>2024-04-14T07:09:34Z</time>
      </trkpt>
      <trkpt lat="47.34617" lon="0.3777">
        <ele>100.3</ele>
        <time>2024-04-14T07:09:37Z</time>
      </trkpt>
      <trkpt lat="47.34618" lon="0.37757">
        <ele>100</ele>
        <time>2024-04-14T07:09:38Z</time>
      </trkpt>
      <trkpt lat="47.34621" lon="0.37701">
        <ele>99.2</ele>
        <time>2024-04-14T07:09:42Z</time>
      </trkpt>
      <trkpt lat="47.34624" lon="0.37661">
        <ele>98.7</ele>
        <time>2024-04-14T07:09:45Z</time>
      </trkpt>
      <trkpt lat="47.34626" lon="0.37634">
        <ele>98.4</ele>
        <time>2024-04-14T07:09:47Z</time>
      </trkpt>
      <trkpt lat="47.34631" lon="0.37554">
        <ele>97.7</ele>
        <time>2024-04-14T07:09:54Z</time>
      </trkpt>
      <trkpt lat="47.34633" lon="0.37529">
        <ele>97.5</ele>
        <time>2024-04-14T07:09:56Z</time>
      </trkpt>
      <trkpt lat="47.34638" lon="0.37439">
        <ele>97</ele>
        <time>2024-04-14T07:10:03Z</time>
      </trkpt>
      <trkpt lat="47.34639" lon="0.37415">
        <ele>97</ele>
        <time>2024-04-14T07:10:05Z</time>
      </trkpt>
      <trkpt lat="47.34645" lon="0.3733">
        <ele>97.4</ele>
        <time>2024-04-14T07:10:12Z</time>
      </trkpt>
      <trkpt lat="47.34647" lon="0.37295">
        <ele>97.6</ele>
        <time>2024-04-14T07:10:15Z</time>
      </trkpt>
      <trkpt lat="47.34652" lon="0.37211">
        <ele>97.7</ele>
        <time>2024-04-14T07:10:22Z</time>
      </trkpt>
      <trkpt lat="47.34653" lon="0.37187">
        <ele>97.6</ele>
        <time>2024-04-14T07:10:24Z</time>
      </trkpt>
      <trkpt lat="47.34649" lon="0.37115">
        <ele>97.5</ele>
        <time>2024-04-14T07:10:30Z</time>
      </trkpt>
      <trkpt lat="47.34637" lon="0.37046">
        <ele>98</ele>
        <time>2024-04-14T07:10:36Z</time>
      </trkpt>
      <trkpt lat="47.34619" lon="0.36971">
        <ele>99</ele>
        <time>2024-04-14T07:10:43Z</time>
      </trkpt>
      <trkpt lat="47.34598" lon="0.36901">
        <ele>100</ele>
        <time>2024-04-14T07:10:50Z</time>
      </trkpt>
      <trkpt lat="47.34592" lon="0.36882">
        <ele>100.4</ele>
        <time>2024-04-14T07:10:52Z</time>
      </trkpt>
      <trkpt lat="47.34583" lon="0.36842">
        <ele>101.2</ele>
        <time>2024-04-14T07:10:56Z</time>
      </trkpt>
      <trkpt lat="47.34581" lon="0.36821">
        <ele>101.5</ele>
        <time>2024-04-14T07:10:58Z</time>
      </trkpt>
      <trkpt lat="47.34582" lon="0.3679">
        <ele>102.1</ele>
        <time>2024-04-14T07:11:01Z</time>
      </trkpt>
      <trkpt lat="47.34585" lon="0.36769">
        <ele>102.5</ele>
        <time>2024-04-14T07:11:03Z</time>
      </trkpt>
      <trkpt lat="47.34592" lon="0.3674">
        <ele>103</ele>
        <time>2024-04-14T07:11:06Z</time>
      </trkpt>
      <trkpt lat="47.34599" lon="0.36722">
        <ele>103.3</ele>
        <time>2024-04-14T07:11:08Z</time>
      </trkpt>
      <trkpt lat="47.3463" lon="0.36664">
        <ele>103.6</ele>
        <time>2024-04-14T07:11:15Z</time>
      </trkpt>
      <trkpt lat="47.34639" lon="0.36648">
        <ele>103.6</ele>
        <time>2024-04-14T07:11:17Z</time>
      </trkpt>
      <trkpt lat="47.34672" lon="0.3659">
        <ele>102.6</ele>
        <time>2024-04-14T07:11:24Z</time>
      </trkpt>
      <trkpt lat="47.347" lon="0.36531">
        <ele>100.9</ele>
        <time>2024-04-14T07:11:30Z</time>
      </trkpt>
      <trkpt lat="47.34705" lon="0.3652">
        <ele>100.6</ele>
        <time>2024-04-14T07:11:31Z</time>
      </trkpt>
      <trkpt lat="47.34719" lon="0.36471">
        <ele>99.6</ele>
        <time>2024-04-14T07:11:35Z</time>
      </trkpt>
      <trkpt lat="47.34725" lon="0.36444">
        <ele>99.3</ele>
        <time>2024-04-14T07:11:37Z</time>
      </trkpt>
      <trkpt lat="47.34734" lon="0.36389">
        <ele>98.9</ele>
        <time>2024-04-14T07:11:41Z</time>
      </trkpt>
      <trkpt lat="47.34738" lon="0.36349">
        <ele>99</ele>
        <time>2024-04-14T07:11:44Z</time>
      </trkpt>
      <trkpt lat="47.34739" lon="0.3631">
        <ele>99</ele>
        <time>2024-04-14T07:11:47Z</time>
      </trkpt>
      <trkpt lat="47.3474" lon="0.36218">
        <ele>99.2</ele>
        <time>2024-04-14T07:11:54Z</time>
      </trkpt>
      <trkpt lat="47.34742" lon="0.36143">
        <ele>99.6</ele>
        <time>2024-04-14T07:12:00Z</time>
      </trkpt>
      <trkpt lat="47.34744" lon="0.36055">
        <ele>99.9</ele>
        <time>2024-04-14T07:12:07Z</time>
      </trkpt>
      <trkpt lat="47.34744" lon="0.35967">
        <ele>99.8</ele>
        <time>2024-04-14T07:12:14Z</time>
      </trkpt>
      <trkpt lat="47.34744" lon="0.35943">
        <ele>99.4</ele>
        <time>2024-04-14T07:12:16Z</time>
      </trkpt>
      <trkpt lat="47.34746" lon="0.35863">
        <ele>96.7</ele>
        <time>2024-04-14T07:12:22Z</time>
      </trkpt>
      <trkpt lat="47.34745" lon="0.35818">
        <ele>95.2</ele>
        <time>2024-04-14T07:12:25Z</time>
      </trkpt>
      <trkpt lat="47.34745" lon="0.35773">
        <ele>93.8</ele>
        <time>2024-04-14T07:12:28Z</time>
      </trkpt>
      <trkpt lat="47.34745" lon="0.35742">
        <ele>93</ele>
        <time>2024-04-14T07:12:30Z</time>
      </trkpt>
      <trkpt lat="47.34746" lon="0.35728">
        <ele>92.7</ele>
        <time>2024-04-14T07:12:31Z</time>
      </trkpt>
      <trkpt lat="47.34746" lon="0.35679">
        <ele>92.2</ele>
        <time>2024-04-14T07:12:34Z</time>
      </trkpt>
      <trkpt lat="47.34747" lon="0.35637">
        <ele>92</ele>
        <time>2024-04-14T07:12:37Z</time>
      </trkpt>
      <trkpt lat="47.34748" lon="0.35624">
        <ele>91.9</ele>
        <time>2024-04-14T07:12:38Z</time>
      </trkpt>
      <trkpt lat="47.34749" lon="0.35541">
        <ele>91.7</ele>
        <time>2024-04-14T07:12:44Z</time>
      </trkpt>
      <trkpt lat="47.34736" lon="0.35475">
        <ele>91.6</ele>
        <time>2024-04-14T07:12:49Z</time>
      </trkpt>
      <trkpt lat="47.34714" lon="0.35398">
        <ele>91</ele>
        <time>2024-04-14T07:12:55Z</time>
      </trkpt>
      <trkpt lat="47.34696" lon="0.35333">
        <ele>91.3</ele>
        <time>2024-04-14T07:13:00Z</time>
      </trkpt>
      <trkpt lat="47.34693" lon="0.35321">
        <ele>91.4</ele>
        <time>2024-04-14T07:13:01Z</time>
      </trkpt>
      <trkpt lat="47.34671" lon="0.35251">
        <ele>92.2</ele>
        <time>2024-04-14T07:13:07Z</time>
      </trkpt>
      <trkpt lat="47.34666" lon="0.35242">
        <ele>92.2</ele>
        <time>2024-04-14T07:13:08Z</time>
      </trkpt>
      <trkpt lat="47.34652" lon="0.35211">
        <ele>92.1</ele>
        <time>2024-04-14T07:13:11Z</time>
      </trkpt>
      <trkpt lat="47.34647" lon="0.35201">
        <ele>92.1</ele>
        <time>2024-04-14T07:13:12Z</time>
      </trkpt>
      <trkpt lat="47.34617" lon="0.35139">
        <ele>91.4</ele>
        <time>2024-04-14T07:13:18Z</time>
      </trkpt>
      <trkpt lat="47.34586" lon="0.35072">
        <ele>90.1</ele>
        <time>2024-04-14T07:13:24Z</time>
      </trkpt>
      <trkpt lat="47.34581" lon="0.35061">
        <ele>89.9</ele>
        <time>2024-04-14T07:13:25Z</time>
      </trkpt>
      <trkpt lat="47.3456" lon="0.35014">
        <ele>89.2</ele>
        <time>2024-04-14T07:13:29Z</time>
      </trkpt>
      <trkpt lat="47.34545" lon="0.3498">
        <ele>88.6</ele>
        <time>2024-04-14T07:13:32Z</time>
      </trkpt>
      <trkpt lat="47.34539" lon="0.34969">
        <ele>88.4</ele>
        <time>2024-04-14T07:13:33Z</time>
      </trkpt>
      <trkpt lat="47.34512" lon="0.34914">
        <ele>87.8</ele>
        <time>2024-04-14T07:13:38Z</time>
      </trkpt>
      <trkpt lat="47.34507" lon="0.34903">
        <ele>87.6</ele>
        <time>2024-04-14T07:13:39Z</time>
      </trkpt>
      <trkpt lat="47.34474" lon="0.34837">
        <ele>86.7</ele>
        <time>2024-04-14T07:13:45Z</time>
      </trkpt>
      <trkpt lat="47.34465" lon="0.34813">
        <ele>86.4</ele>
        <time>2024-04-14T07:13:47Z</time>
      </trkpt>
      <trkpt lat="47.34461" lon="0.348">
        <ele>86.4</ele>
        <time>2024-04-14T07:13:48Z</time>
      </trkpt>
      <trkpt lat="47.34458" lon="0.34787">
        <ele>86.3</ele>
        <time>2024-04-14T07:13:49Z</time>
      </trkpt>
      <trkpt lat="47.34455" lon="0.34759">
        <ele>86.1</ele>
        <time>2024-04-14T07:13:51Z</time>
      </trkpt>
      <trkpt lat="47.34455" lon="0.34708">
        <ele>85.2</ele>
        <time>2024-04-14T07:13:55Z</time>
      </trkpt>
      <trkpt lat="47.34456" lon="0.34683">
        <ele>84.4</ele>
        <time>2024-04-14T07:13:57Z</time>
      </trkpt>
      <trkpt lat="47.34458" lon="0.34595">
        <ele>81.1</ele>
        <time>2024-04-14T07:14:03Z</time>
      </trkpt>
      <trkpt lat="47.34459" lon="0.34564">
        <ele>80</ele>
        <time>2024-04-14T07:14:05Z</time>
      </trkpt>
      <trkpt lat="47.3446" lon="0.34534">
        <ele>78.9</ele>
        <time>2024-04-14T07:14:07Z</time>
      </trkpt>
      <trkpt lat="47.3446" lon="0.34504">
        <ele>77.8</ele>
        <time>2024-04-14T07:14:09Z</time>
      </trkpt>
      <trkpt lat="47.34461" lon="0.34489">
        <ele>77.5</ele>
        <time>2024-04-14T07:14:10Z</time>
      </trkpt>
      <trkpt lat="47.3446" lon="0.34459">
        <ele>76.3</ele>
        <time>2024-04-14T07:14:12Z</time>
      </trkpt>
      <trkpt lat="47.34459" lon="0.34413">
        <ele>73.9</ele>
        <time>2024-04-14T07:14:15Z</time>
      </trkpt>
      <trkpt lat="47.34457" lon="0.34382">
        <ele>72.4</ele>
        <time>2024-04-14T07:14:17Z</time>
      </trkpt>
      <trkpt lat="47.34456" lon="0.34349">
        <ele>70.8</ele>
        <time>2024-04-14T07:14:19Z</time>
      </trkpt>
      <trkpt lat="47.34454" lon="0.34316">
        <ele>69</ele>
        <time>2024-04-14T07:14:21Z</time>
      </trkpt>
      <trkpt lat="47.34448" lon="0.34281">
        <ele>67.1</ele>
        <time>2024-04-14T07:14:23Z</time>
      </trkpt>
      <trkpt lat="47.34442" lon="0.34245">
        <ele>65.6</ele>
        <time>2024-04-14T07:14:25Z</time>
      </trkpt>
      <trkpt lat="47.34438" lon="0.34227">
        <ele>65.2</ele>
        <time>2024-04-14T07:14:26Z</time>
      </trkpt>
      <trkpt lat="47.34434" lon="0.3421">
        <ele>64.9</ele>
        <time>2024-04-14T07:14:27Z</time>
      </trkpt>
      <trkpt lat="47.34427" lon="0.34178">
        <ele>64.9</ele>
        <time>2024-04-14T07:14:29Z</time>
      </trkpt>
      <trkpt lat="47.34425" lon="0.34162">
        <ele>65</ele>
        <time>2024-04-14T07:14:30Z</time>
      </trkpt>
      <trkpt lat="47.34422" lon="0.34147">
        <ele>65.2</ele>
        <time>2024-04-14T07:14:31Z</time>
      </trkpt>
      <trkpt lat="47.34409" lon="0.34089">
        <ele>66.2</ele>
        <time>2024-04-14T07:14:35Z</time>
      </trkpt>
      <trkpt lat="47.34403" lon="0.34045">
        <ele>67.2</ele>
        <time>2024-04-14T07:14:38Z</time>
      </trkpt>
      <trkpt lat="47.34402" lon="0.34031">
        <ele>67.7</ele>
        <time>2024-04-14T07:14:39Z</time>
      </trkpt>
      <trkpt lat="47.34398" lon="0.33961">
        <ele>68.6</ele>
        <time>2024-04-14T07:14:44Z</time>
      </trkpt>
      <trkpt lat="47.34397" lon="0.33948">
        <ele>68.8</ele>
        <time>2024-04-14T07:14:45Z</time>
      </trkpt>
      <trkpt lat="47.34397" lon="0.33895">
        <ele>69.5</ele>
        <time>2024-04-14T07:14:49Z</time>
      </trkpt>
      <trkpt lat="47.34398" lon="0.3387">
        <ele>69.8</ele>
        <time>2024-04-14T07:14:51Z</time>
      </trkpt>
      <trkpt lat="47.34401" lon="0.33845">
        <ele>70.1</ele>
        <time>2024-04-14T07:14:53Z</time>
      </trkpt>
      <trkpt lat="47.34403" lon="0.33821">
        <ele>70.6</ele>
        <time>2024-04-14T07:14:55Z</time>
      </trkpt>
      <trkpt lat="47.34407" lon="0.33798">
        <ele>71.2</ele>
        <time>2024-04-14T07:14:57Z</time>
      </trkpt>
      <trkpt lat="47.34412" lon="0.33765">
        <ele>72.2</ele>
        <time>2024-04-14T07:15:00Z</time>
      </trkpt>
      <trkpt lat="47.34418" lon="0.33735">
        <ele>73</ele>
        <time>2024-04-14T07:15:03Z</time>
      </trkpt>
      <trkpt lat="47.34419" lon="0.33725">
        <ele>73.3</ele>
        <time>2024-04-14T07:15:04Z</time>
      </trkpt>
      <trkpt lat="47.34421" lon="0.33705">
        <ele>73.6</ele>
        <time>2024-04-14T07:15:06Z</time>
      </trkpt>
      <trkpt lat="47.34422" lon="0.33684">
        <ele>73.7</ele>
        <time>2024-04-14T07:15:08Z</time>
      </trkpt>
      <trkpt lat="47.34415" lon="0.33632">
        <ele>73.7</ele>
        <time>2024-04-14T07:15:13Z</time>
      </trkpt>
      <trkpt lat="47.344" lon="0.33582">
        <ele>74.1</ele>
        <time>2024-04-14T07:15:18Z</time>
      </trkpt>
      <trkpt lat="47.34377" lon="0.33542">
        <ele>75.7</ele>
        <time>2024-04-14T07:15:23Z</time>
      </trkpt>
      <trkpt lat="47.34362" lon="0.33522">
        <ele>76.8</ele>
        <time>2024-04-14T07:15:26Z</time>
      </trkpt>
      <trkpt lat="47.34349" lon="0.33501">
        <ele>77.9</ele>
        <time>2024-04-14T07:15:29Z</time>
      </trkpt>
      <trkpt lat="47.34346" lon="0.33494">
        <ele>78.3</ele>
        <time>2024-04-14T07:15:30Z</time>
      </trkpt>
      <trkpt lat="47.34339" lon="0.3348">
        <ele>79</ele>
        <time>2024-04-14T07:15:32Z</time>
      </trkpt>
      <trkpt lat="47.34331" lon="0.33458">
        <ele>79.1</ele>
        <time>2024-04-14T07:15:35Z</time>
      </trkpt>
      <trkpt lat="47.34325" lon="0.33444">
        <ele>79.8</ele>
        <time>2024-04-14T07:15:37Z</time>
      </trkpt>
      <trkpt lat="47.3432" lon="0.3343">
        <ele>80.4</ele>
        <time>2024-04-14T07:15:39Z</time>
      </trkpt>
      <trkpt lat="47.3431" lon="0.33402">
        <ele>81.8</ele>
        <time>2024-04-14T07:15:43Z</time>
      </trkpt>
      <trkpt lat="47.34303" lon="0.33382">
        <ele>82.8</ele>
        <time>2024-04-14T07:15:46Z</time>
      </trkpt>
      <trkpt lat="47.34298" lon="0.3336">
        <ele>83.8</ele>
        <time>2024-04-14T07:15:49Z</time>
      </trkpt>
      <trkpt lat="47.34295" lon="0.33338">
        <ele>84.8</ele>
        <time>2024-04-14T07:15:52Z</time>
      </trkpt>
      <trkpt lat="47.34293" lon="0.33322">
        <ele>85.5</ele>
        <time>2024-04-14T07:15:54Z</time>
      </trkpt>
      <trkpt lat="47.34292" lon="0.33307">
        <ele>86.1</ele>
        <time>2024-04-14T07:15:56Z</time>
      </trkpt>
      <trkpt lat="47.34292" lon="0.33299">
        <ele>86.4</ele>
        <time>2024-04-14T07:15:57Z</time>
      </trkpt>
      <trkpt lat="47.3429" lon="0.33276">
        <ele>87.3</ele>
        <time>2024-04-14T07:16:00Z</time>
      </trkpt>
      <trkpt lat="47.3429" lon="0.33245">
        <ele>88.5</ele>
        <time>2024-04-14T07:16:04Z</time>
      </trkpt>
      <trkpt lat="47.34291" lon="0.33206">
        <ele>90</ele>
        <time>2024-04-14T07:16:09Z</time>
      </trkpt>
      <trkpt lat="47.34293" lon="0.33175">
        <ele>91.2</ele>
        <time>2024-04-14T07:16:13Z</time>
      </trkpt>
      <trkpt lat="47.34293" lon="0.33167">
        <ele>91.4</ele>
        <time>2024-04-14T07:16:14Z</time>
      </trkpt>
      <trkpt lat="47.34294" lon="0.3315">
        <ele>91.9</ele>
        <time>2024-04-14T07:16:16Z</time>
      </trkpt>
      <trkpt lat="47.34298" lon="0.33125">
        <ele>92.4</ele>
        <time>2024-04-14T07:16:19Z</time>
      </trkpt>
      <trkpt lat="47.343" lon="0.33108">
        <ele>92.5</ele>
        <time>2024-04-14T07:16:21Z</time>
      </trkpt>
      <trkpt lat="47.34313" lon="0.33032">
        <ele>92.8</ele>
        <time>2024-04-14T07:16:29Z</time>
      </trkpt>
      <trkpt lat="47.34317" lon="0.32971">
        <ele>93.2</ele>
        <time>2024-04-14T07:16:35Z</time>
      </trkpt>
      <trkpt lat="47.34321" lon="0.32919">
        <ele>93.8</ele>
        <time>2024-04-14T07:16:40Z</time>
      </trkpt>
      <trkpt lat="47.34325" lon="0.329">
        <ele>93.9</ele>
        <time>2024-04-14T07:16:42Z</time>
      </trkpt>
      <trkpt lat="47.34332" lon="0.32872">
        <ele>94.1</ele>
        <time>2024-04-14T07:16:45Z</time>
      </trkpt>
      <trkpt lat="47.34337" lon="0.32855">
        <ele>94.3</ele>
        <time>2024-04-14T07:16:47Z</time>
      </trkpt>
      <trkpt lat="47.34345" lon="0.32828">
        <ele>94.7</ele>
        <time>2024-04-14T07:16:50Z</time>
      </trkpt>
      <trkpt lat="47.34356" lon="0.32794">
        <ele>95.5</ele>
        <time>2024-04-14T07:16:54Z</time>
      </trkpt>
      <trkpt lat="47.34362" lon="0.32777">
        <ele>95.9</ele>
        <time>2024-04-14T07:16:56Z</time>
      </trkpt>
      <trkpt lat="47.34374" lon="0.32742">
        <ele>96.6</ele>
        <time>2024-04-14T07:17:00Z</time>
      </trkpt>
      <trkpt lat="47.34387" lon="0.32705">
        <ele>97.4</ele>
        <time>2024-04-14T07:17:04Z</time>
      </trkpt>
      <trkpt lat="47.34413" lon="0.32631">
        <ele>98.3</ele>
        <time>2024-04-14T07:17:12Z</time>
      </trkpt>
      <trkpt lat="47.34419" lon="0.32613">
        <ele>98.4</ele>
        <time>2024-04-14T07:17:14Z</time>
      </trkpt>
      <trkpt lat="47.34445" lon="0.32535">
        <ele>98.6</ele>
        <time>2024-04-14T07:17:22Z</time>
      </trkpt>
      <trkpt lat="47.34448" lon="0.32525">
        <ele>98.6</ele>
        <time>2024-04-14T07:17:23Z</time>
      </trkpt>
      <trkpt lat="47.34467" lon="0.3244">
        <ele>98.3</ele>
        <time>2024-04-14T07:17:31Z</time>
      </trkpt>
      <trkpt lat="47.34476" lon="0.32382">
        <ele>98</ele>
        <time>2024-04-14T07:17:36Z</time>
      </trkpt>
      <trkpt lat="47.3449" lon="0.3233">
        <ele>99.1</ele>
        <time>2024-04-14T07:17:41Z</time>
      </trkpt>
      <trkpt lat="47.34494" lon="0.3231">
        <ele>99.7</ele>
        <time>2024-04-14T07:17:43Z</time>
      </trkpt>
      <trkpt lat="47.34498" lon="0.32292">
        <ele>100.1</ele>
        <time>2024-04-14T07:17:45Z</time>
      </trkpt>
      <trkpt lat="47.34505" lon="0.32253">
        <ele>100.7</ele>
        <time>2024-04-14T07:17:49Z</time>
      </trkpt>
      <trkpt lat="47.34511" lon="0.32224">
        <ele>100.9</ele>
        <time>2024-04-14T07:17:52Z</time>
      </trkpt>
      <trkpt lat="47.34513" lon="0.32214">
        <ele>101</ele>
        <time>2024-04-14T07:17:53Z</time>
      </trkpt>
      <trkpt lat="47.34531" lon="0.32152">
        <ele>101</ele>
        <time>2024-04-14T07:17:59Z</time>
      </trkpt>
      <trkpt lat="47.34556" lon="0.32085">
        <ele>101.1</ele>
        <time>2024-04-14T07:18:06Z</time>
      </trkpt>
      <trkpt lat="47.34579" lon="0.32026">
        <ele>101.1</ele>
        <time>2024-04-14T07:18:12Z</time>
      </trkpt>
      <trkpt lat="47.34589" lon="0.31996">
        <ele>101</ele>
        <time>2024-04-14T07:18:15Z</time>
      </trkpt>
      <trkpt lat="47.34608" lon="0.31944">
        <ele>100.6</ele>
        <time>2024-04-14T07:18:20Z</time>
      </trkpt>
      <trkpt lat="47.34636" lon="0.3187">
        <ele>100.1</ele>
        <time>2024-04-14T07:18:27Z</time>
      </trkpt>
      <trkpt lat="47.34644" lon="0.31847">
        <ele>99.8</ele>
        <time>2024-04-14T07:18:29Z</time>
      </trkpt>
      <trkpt lat="47.34669" lon="0.31771">
        <ele>99.2</ele>
        <time>2024-04-14T07:18:36Z</time>
      </trkpt>
      <trkpt lat="47.34675" lon="0.31748">
        <ele>99</ele>
        <time>2024-04-14T07:18:38Z</time>
      </trkpt>
      <trkpt lat="47.34689" lon="0.31705">
        <ele>98.4</ele>
        <time>2024-04-14T07:18:42Z</time>
      </trkpt>
      <trkpt lat="47.34696" lon="0.31671">
        <ele>97.8</ele>
        <time>2024-04-14T07:18:45Z</time>
      </trkpt>
      <trkpt lat="47.34696" lon="0.31659">
        <ele>97.6</ele>
        <time>2024-04-14T07:18:46Z</time>
      </trkpt>
      <trkpt lat="47.34695" lon="0.31636">
        <ele>97.2</ele>
        <time>2024-04-14T07:18:48Z</time>
      </trkpt>
      <trkpt lat="47.34692" lon="0.31602">
        <ele>96.5</ele>
        <time>2024-04-14T07:18:51Z</time>
      </trkpt>
      <trkpt lat="47.34686" lon="0.31559">
        <ele>95.6</ele>
        <time>2024-04-14T07:18:55Z</time>
      </trkpt>
      <trkpt lat="47.34681" lon="0.31526">
        <ele>94.8</ele>
        <time>2024-04-14T07:18:58Z</time>
      </trkpt>
      <trkpt lat="47.34676" lon="0.31484">
        <ele>93.9</ele>
        <time>2024-04-14T07:19:02Z</time>
      </trkpt>
      <trkpt lat="47.34674" lon="0.31451">
        <ele>93.3</ele>
        <time>2024-04-14T07:19:05Z</time>
      </trkpt>
      <trkpt lat="47.3467" lon="0.31409">
        <ele>92.4</ele>
        <time>2024-04-14T07:19:09Z</time>
      </trkpt>
      <trkpt lat="47.34669" lon="0.31388">
        <ele>92.1</ele>
        <time>2024-04-14T07:19:11Z</time>
      </trkpt>
      <trkpt lat="47.34669" lon="0.31358">
        <ele>91.5</ele>
        <time>2024-04-14T07:19:14Z</time>
      </trkpt>
      <trkpt lat="47.3467" lon="0.31338">
        <ele>91.2</ele>
        <time>2024-04-14T07:19:16Z</time>
      </trkpt>
      <trkpt lat="47.34672" lon="0.31303">
        <ele>90.6</ele>
        <time>2024-04-14T07:19:20Z</time>
      </trkpt>
      <trkpt lat="47.34674" lon="0.31285">
        <ele>90.3</ele>
        <time>2024-04-14T07:19:22Z</time>
      </trkpt>
      <trkpt lat="47.34674" lon="0.31268">
        <ele>90</ele>
        <time>2024-04-14T07:19:24Z</time>
      </trkpt>
      <trkpt lat="47.34673" lon="0.31236">
        <ele>89.4</ele>
        <time>2024-04-14T07:19:28Z</time>
      </trkpt>
      <trkpt lat="47.34671" lon="0.312">
        <ele>88.5</ele>
        <time>2024-04-14T07:19:32Z</time>
      </trkpt>
      <trkpt lat="47.34669" lon="0.3118">
        <ele>87.9</ele>
        <time>2024-04-14T07:19:34Z</time>
      </trkpt>
      <trkpt lat="47.34668" lon="0.3116">
        <ele>87.3</ele>
        <time>2024-04-14T07:19:36Z</time>
      </trkpt>
      <trkpt lat="47.34665" lon="0.3113">
        <ele>86.3</ele>
        <time>2024-04-14T07:19:39Z</time>
      </trkpt>
      <trkpt lat="47.34662" lon="0.31099">
        <ele>85.3</ele>
        <time>2024-04-14T07:19:42Z</time>
      </trkpt>
      <trkpt lat="47.34662" lon="0.31087">
        <ele>84.9</ele>
        <time>2024-04-14T07:19:43Z</time>
      </trkpt>
      <trkpt lat="47.34657" lon="0.31042">
        <ele>83.4</ele>
        <time>2024-04-14T07:19:47Z</time>
      </trkpt>
      <trkpt lat="47.34655" lon="0.31019">
        <ele>82.5</ele>
        <time>2024-04-14T07:19:49Z</time>
      </trkpt>
      <trkpt lat="47.34653" lon="0.31007">
        <ele>81.9</ele>
        <time>2024-04-14T07:19:50Z</time>
      </trkpt>
      <trkpt lat="47.3465" lon="0.30971">
        <ele>80.3</ele>
        <time>2024-04-14T07:19:53Z</time>
      </trkpt>
      <trkpt lat="47.34647" lon="0.30945">
        <ele>78.9</ele>
        <time>2024-04-14T07:19:55Z</time>
      </trkpt>
      <trkpt lat="47.34646" lon="0.30932">
        <ele>78.2</ele>
        <time>2024-04-14T07:19:56Z</time>
      </trkpt>
      <trkpt lat="47.3464" lon="0.3089">
        <ele>75.6</ele>
        <time>2024-04-14T07:19:59Z</time>
      </trkpt>
      <trkpt lat="47.34637" lon="0.30875">
        <ele>74.4</ele>
        <time>2024-04-14T07:20:00Z</time>
      </trkpt>
      <trkpt lat="47.34634" lon="0.30859">
        <ele>73.3</ele>
        <time>2024-04-14T07:20:01Z</time>
      </trkpt>
      <trkpt lat="47.3463" lon="0.30844">
        <ele>72.1</ele>
        <time>2024-04-14T07:20:02Z</time>
      </trkpt>
      <trkpt lat="47.34624" lon="0.3083">
        <ele>70.8</ele>
        <time>2024-04-14T07:20:03Z</time>
      </trkpt>
      <trkpt lat="47.34618" lon="0.30816">
        <ele>69.5</ele>
        <time>2024-04-14T07:20:04Z</time>
      </trkpt>
      <trkpt lat="47.34612" lon="0.30801">
        <ele>68.1</ele>
        <time>2024-04-14T07:20:05Z</time>
      </trkpt>
      <trkpt lat="47.34606" lon="0.30786">
        <ele>66.7</ele>
        <time>2024-04-14T07:20:06Z</time>
      </trkpt>
      <trkpt lat="47.34599" lon="0.30771">
        <ele>65.4</ele>
        <time>2024-04-14T07:20:07Z</time>
      </trkpt>
      <trkpt lat="47.34593" lon="0.30755">
        <ele>64.2</ele>
        <time>2024-04-14T07:20:08Z</time>
      </trkpt>
      <trkpt lat="47.34587" lon="0.30737">
        <ele>63</ele>
        <time>2024-04-14T07:20:09Z</time>
      </trkpt>
      <trkpt lat="47.34581" lon="0.3072">
        <ele>62</ele>
        <time>2024-04-14T07:20:10Z</time>
      </trkpt>
      <trkpt lat="47.34576" lon="0.30701">
        <ele>61</ele>
        <time>2024-04-14T07:20:11Z</time>
      </trkpt>
      <trkpt lat="47.3457" lon="0.30683">
        <ele>60.1</ele>
        <time>2024-04-14T07:20:12Z</time>
      </trkpt>
      <trkpt lat="47.34565" lon="0.30664">
        <ele>59.4</ele>
        <time>2024-04-14T07:20:13Z</time>
      </trkpt>
      <trkpt lat="47.34561" lon="0.30645">
        <ele>58.8</ele>
        <time>2024-04-14T07:20:14Z</time>
      </trkpt>
      <trkpt lat="47.34557" lon="0.30626">
        <ele>58.4</ele>
        <time>2024-04-14T07:20:15Z</time>
      </trkpt>
      <trkpt lat="47.34553" lon="0.30607">
        <ele>58.1</ele>
        <time>2024-04-14T07:20:16Z</time>
      </trkpt>
      <trkpt lat="47.3455" lon="0.30588">
        <ele>57.8</ele>
        <time>2024-04-14T07:20:17Z</time>
      </trkpt>
      <trkpt lat="47.34548" lon="0.3057">
        <ele>57.7</ele>
        <time>2024-04-14T07:20:18Z</time>
      </trkpt>
      <trkpt lat="47.34543" lon="0.30535">
        <ele>57.6</ele>
        <time>2024-04-14T07:20:20Z</time>
      </trkpt>
      <trkpt lat="47.34535" lon="0.30471">
        <ele>57.9</ele>
        <time>2024-04-14T07:20:24Z</time>
      </trkpt>
      <trkpt lat="47.34526" lon="0.30404">
        <ele>58</ele>
        <time>2024-04-14T07:20:29Z</time>
      </trkpt>
      <trkpt lat="47.34514" lon="0.30349">
        <ele>59</ele>
        <time>2024-04-14T07:20:34Z</time>
      </trkpt>
      <trkpt lat="47.34512" lon="0.3034">
        <ele>59.2</ele>
        <time>2024-04-14T07:20:35Z</time>
      </trkpt>
      <trkpt lat="47.34504" lon="0.30307">
        <ele>60.5</ele>
        <time>2024-04-14T07:20:39Z</time>
      </trkpt>
      <trkpt lat="47.34502" lon="0.30299">
        <ele>60.8</ele>
        <time>2024-04-14T07:20:40Z</time>
      </trkpt>
      <trkpt lat="47.34496" lon="0.30278">
        <ele>61.7</ele>
        <time>2024-04-14T07:20:43Z</time>
      </trkpt>
      <trkpt lat="47.34497" lon="0.30271">
        <ele>61.8</ele>
        <time>2024-04-14T07:20:44Z</time>
      </trkpt>
      <trkpt lat="47.34505" lon="0.30251">
        <ele>61.9</ele>
        <time>2024-04-14T07:20:47Z</time>
      </trkpt>
      <trkpt lat="47.34509" lon="0.30247">
        <ele>61.9</ele>
        <time>2024-04-14T07:20:48Z</time>
      </trkpt>
      <trkpt lat="47.34514" lon="0.30242">
        <ele>61.9</ele>
        <time>2024-04-14T07:20:49Z</time>
      </trkpt>
      <trkpt lat="47.34526" lon="0.30223">
        <ele>61.9</ele>
        <time>2024-04-14T07:20:52Z</time>
      </trkpt>
      <trkpt lat="47.34531" lon="0.30216">
        <ele>61.9</ele>
        <time>2024-04-14T07:20:53Z</time>
      </trkpt>
      <trkpt lat="47.34546" lon="0.30198">
        <ele>61.7</ele>
        <time>2024-04-14T07:20:56Z</time>
      </trkpt>
      <trkpt lat="47.34556" lon="0.30185">
        <ele>61.6</ele>
        <time>2024-04-14T07:20:58Z</time>
      </trkpt>
      <trkpt lat="47.34569" lon="0.30175">
        <ele>61.5</ele>
        <time>2024-04-14T07:21:00Z</time>
      </trkpt>
      <trkpt lat="47.3459" lon="0.30159">
        <ele>61.4</ele>
        <time>2024-04-14T07:21:03Z</time>
      </trkpt>
      <trkpt lat="47.34639" lon="0.30122">
        <ele>61.2</ele>
        <time>2024-04-14T07:21:10Z</time>
      </trkpt>
      <trkpt lat="47.34652" lon="0.30112">
        <ele>61.1</ele>
        <time>2024-04-14T07:21:12Z</time>
      </trkpt>
      <trkpt lat="47.34688" lon="0.30089">
        <ele>60.9</ele>
        <time>2024-04-14T07:21:17Z</time>
      </trkpt>
      <trkpt lat="47.34703" lon="0.30085">
        <ele>60.9</ele>
        <time>2024-04-14T07:21:19Z</time>
      </trkpt>
      <trkpt lat="47.34758" lon="0.30077">
        <ele>60.5</ele>
        <time>2024-04-14T07:21:26Z</time>
      </trkpt>
      <trkpt lat="47.34765" lon="0.30077">
        <ele>60.5</ele>
        <time>2024-04-14T07:21:27Z</time>
      </trkpt>
      <trkpt lat="47.34803" lon="0.30067">
        <ele>60.5</ele>
        <time>2024-04-14T07:21:32Z</time>
      </trkpt>
      <trkpt lat="47.3486" lon="0.30039">
        <ele>61.2</ele>
        <time>2024-04-14T07:21:40Z</time>
      </trkpt>
      <trkpt lat="47.34899" lon="0.30019">
        <ele>62.3</ele>
        <time>2024-04-14T07:21:47Z</time>
      </trkpt>
      <trkpt lat="47.34905" lon="0.30016">
        <ele>62.5</ele>
        <time>2024-04-14T07:21:48Z</time>
      </trkpt>
      <trkpt lat="47.34935" lon="0.30004">
        <ele>63.5</ele>
        <time>2024-04-14T07:21:54Z</time>
      </trkpt>
      <trkpt lat="47.34944" lon="0.3">
        <ele>63.8</ele>
        <time>2024-04-14T07:21:56Z</time>
      </trkpt>
      <trkpt lat="47.34972" lon="0.29989">
        <ele>64.3</ele>
        <time>2024-04-14T07:22:02Z</time>
      </trkpt>
      <trkpt lat="47.34978" lon="0.29987">
        <ele>64.4</ele>
        <time>2024-04-14T07:22:03Z</time>
      </trkpt>
      <trkpt lat="47.35011" lon="0.29968">
        <ele>64.7</ele>
        <time>2024-04-14T07:22:10Z</time>
      </trkpt>
      <trkpt lat="47.35014" lon="0.29964">
        <ele>64.8</ele>
        <time>2024-04-14T07:22:11Z</time>
      </trkpt>
      <trkpt lat="47.35019" lon="0.29948">
        <ele>65.2</ele>
        <time>2024-04-14T07:22:14Z</time>
      </trkpt>
      <trkpt lat="47.3502" lon="0.29923">
        <ele>66.1</ele>
        <time>2024-04-14T07:22:18Z</time>
      </trkpt>
      <trkpt lat="47.35019" lon="0.29916">
        <ele>66.4</ele>
        <time>2024-04-14T07:22:19Z</time>
      </trkpt>
      <trkpt lat="47.35017" lon="0.29897">
        <ele>67.1</ele>
        <time>2024-04-14T07:22:22Z</time>
      </trkpt>
      <trkpt lat="47.35016" lon="0.29875">
        <ele>68.3</ele>
        <time>2024-04-14T07:22:26Z</time>
      </trkpt>
      <trkpt lat="47.35015" lon="0.29869">
        <ele>68.6</ele>
        <time>2024-04-14T07:22:27Z</time>
      </trkpt>
      <trkpt lat="47.35013" lon="0.29852">
        <ele>69.5</ele>
        <time>2024-04-14T07:22:30Z</time>
      </trkpt>
      <trkpt lat="47.3501" lon="0.29831">
        <ele>70.6</ele>
        <time>2024-04-14T07:22:34Z</time>
      </trkpt>
      <trkpt lat="47.35009" lon="0.2982">
        <ele>71.1</ele>
        <time>2024-04-14T07:22:36Z</time>
      </trkpt>
      <trkpt lat="47.35008" lon="0.29815">
        <ele>71.4</ele>
        <time>2024-04-14T07:22:37Z</time>
      </trkpt>
      <trkpt lat="47.35007" lon="0.29797">
        <ele>72.3</ele>
        <time>2024-04-14T07:22:40Z</time>
      </trkpt>
      <trkpt lat="47.35007" lon="0.29784">
        <ele>72.9</ele>
        <time>2024-04-14T07:22:42Z</time>
      </trkpt>
      <trkpt lat="47.35007" lon="0.29771">
        <ele>73.5</ele>
        <time>2024-04-14T07:22:44Z</time>
      </trkpt>
      <trkpt lat="47.35006" lon="0.2974">
        <ele>74.8</ele>
        <time>2024-04-14T07:22:49Z</time>
      </trkpt>
      <trkpt lat="47.35006" lon="0.29733">
        <ele>75.1</ele>
        <time>2024-04-14T07:22:50Z</time>
      </trkpt>
      <trkpt lat="47.35005" lon="0.297">
        <ele>76.5</ele>
        <time>2024-04-14T07:22:55Z</time>
      </trkpt>
      <trkpt lat="47.35005" lon="0.29673">
        <ele>77.5</ele>
        <time>2024-04-14T07:22:59Z</time>
      </trkpt>
      <trkpt lat="47.35004" lon="0.29666">
        <ele>77.8</ele>
        <time>2024-04-14T07:23:00Z</time>
      </trkpt>
      <trkpt lat="47.35004" lon="0.29639">
        <ele>78.7</ele>
        <time>2024-04-14T07:23:04Z</time>
      </trkpt>
      <trkpt lat="47.35003" lon="0.29611">
        <ele>79.7</ele>
        <time>2024-04-14T07:23:08Z</time>
      </trkpt>
      <trkpt lat="47.35003" lon="0.29559">
        <ele>81.5</ele>
        <time>2024-04-14T07:23:15Z</time>
      </trkpt>
      <trkpt lat="47.35004" lon="0.29538">
        <ele>82.4</ele>
        <time>2024-04-14T07:23:18Z</time>
      </trkpt>
      <trkpt lat="47.35005" lon="0.29524">
        <ele>82.9</ele>
        <time>2024-04-14T07:23:20Z</time>
      </trkpt>
      <trkpt lat="47.35008" lon="0.2949">
        <ele>84.3</ele>
        <time>2024-04-14T07:23:25Z</time>
      </trkpt>
      <trkpt lat="47.35009" lon="0.2947">
        <ele>85.1</ele>
        <time>2024-04-14T07:23:28Z</time>
      </trkpt>
      <trkpt lat="47.35012" lon="0.29443">
        <ele>86.1</ele>
        <time>2024-04-14T07:23:32Z</time>
      </trkpt>
      <trkpt lat="47.35014" lon="0.29415">
        <ele>87.1</ele>
        <time>2024-04-14T07:23:36Z</time>
      </trkpt>
      <trkpt lat="47.35018" lon="0.29374">
        <ele>88.5</ele>
        <time>2024-04-14T07:23:42Z</time>
      </trkpt>
      <trkpt lat="47.35021" lon="0.29345">
        <ele>89.2</ele>
        <time>2024-04-14T07:23:46Z</time>
      </trkpt>
      <trkpt lat="47.35022" lon="0.29338">
        <ele>89.3</ele>
        <time>2024-04-14T07:23:47Z</time>
      </trkpt>
      <trkpt lat="47.35024" lon="0.29308">
        <ele>90.1</ele>
        <time>2024-04-14T07:23:51Z</time>
      </trkpt>
      <trkpt lat="47.35029" lon="0.29264">
        <ele>91</ele>
        <time>2024-04-14T07:23:57Z</time>
      </trkpt>
      <trkpt lat="47.35035" lon="0.29194">
        <ele>92.1</ele>
        <time>2024-04-14T07:24:06Z</time>
      </trkpt>
      <trkpt lat="47.35037" lon="0.29169">
        <ele>92.4</ele>
        <time>2024-04-14T07:24:09Z</time>
      </trkpt>
      <trkpt lat="47.35042" lon="0.29111">
        <ele>92.7</ele>
        <time>2024-04-14T07:24:16Z</time>
      </trkpt>
      <trkpt lat="47.35042" lon="0.29103">
        <ele>92.6</ele>
        <time>2024-04-14T07:24:17Z</time>
      </trkpt>
      <trkpt lat="47.35047" lon="0.29037">
        <ele>92</ele>
        <time>2024-04-14T07:24:24Z</time>
      </trkpt>
      <trkpt lat="47.35053" lon="0.28965">
        <ele>90.6</ele>
        <time>2024-04-14T07:24:31Z</time>
      </trkpt>
      <trkpt lat="47.35057" lon="0.28902">
        <ele>88.6</ele>
        <time>2024-04-14T07:24:36Z</time>
      </trkpt>
      <trkpt lat="47.35058" lon="0.28888">
        <ele>88.2</ele>
        <time>2024-04-14T07:24:37Z</time>
      </trkpt>
      <trkpt lat="47.35059" lon="0.28875">
        <ele>87.9</ele>
        <time>2024-04-14T07:24:38Z</time>
      </trkpt>
      <trkpt lat="47.35062" lon="0.28847">
        <ele>87.5</ele>
        <time>2024-04-14T07:24:40Z</time>
      </trkpt>
      <trkpt lat="47.35067" lon="0.28807">
        <ele>87.9</ele>
        <time>2024-04-14T07:24:43Z</time>
      </trkpt>
      <trkpt lat="47.35083" lon="0.28753">
        <ele>89.4</ele>
        <time>2024-04-14T07:24:48Z</time>
      </trkpt>
      <trkpt lat="47.35093" lon="0.28725">
        <ele>90.2</ele>
        <time>2024-04-14T07:24:51Z</time>
      </trkpt>
      <trkpt lat="47.35104" lon="0.287">
        <ele>90.9</ele>
        <time>2024-04-14T07:24:54Z</time>
      </trkpt>
      <trkpt lat="47.35108" lon="0.28691">
        <ele>91.1</ele>
        <time>2024-04-14T07:24:55Z</time>
      </trkpt>
      <trkpt lat="47.35115" lon="0.28673">
        <ele>91.4</ele>
        <time>2024-04-14T07:24:57Z</time>
      </trkpt>
      <trkpt lat="47.35132" lon="0.2863">
        <ele>92</ele>
        <time>2024-04-14T07:25:02Z</time>
      </trkpt>
      <trkpt lat="47.35145" lon="0.28597">
        <ele>92.6</ele>
        <time>2024-04-14T07:25:06Z</time>
      </trkpt>
      <trkpt lat="47.35162" lon="0.28556">
        <ele>93.3</ele>
        <time>2024-04-14T07:25:11Z</time>
      </trkpt>
      <trkpt lat="47.35174" lon="0.28522">
        <ele>93.7</ele>
        <time>2024-04-14T07:25:15Z</time>
      </trkpt>
      <trkpt lat="47.35191" lon="0.28479">
        <ele>94.1</ele>
        <time>2024-04-14T07:25:20Z</time>
      </trkpt>
      <trkpt lat="47.35218" lon="0.28408">
        <ele>94.6</ele>
        <time>2024-04-14T07:25:28Z</time>
      </trkpt>
      <trkpt lat="47.35221" lon="0.28399">
        <ele>94.7</ele>
        <time>2024-04-14T07:25:29Z</time>
      </trkpt>
      <trkpt lat="47.35229" lon="0.28372">
        <ele>94.9</ele>
        <time>2024-04-14T07:25:32Z</time>
      </trkpt>
      <trkpt lat="47.35231" lon="0.28364">
        <ele>95</ele>
        <time>2024-04-14T07:25:33Z</time>
      </trkpt>
      <trkpt lat="47.35233" lon="0.28355">
        <ele>95</ele>
        <time>2024-04-14T07:25:34Z</time>
      </trkpt>
      <trkpt lat="47.35239" lon="0.28339">
        <ele>95.1</ele>
        <time>2024-04-14T07:25:36Z</time>
      </trkpt>
      <trkpt lat="47.35249" lon="0.28314">
        <ele>95</ele>
        <time>2024-04-14T07:25:39Z</time>
      </trkpt>
      <trkpt lat="47.35262" lon="0.28267">
        <ele>94.9</ele>
        <time>2024-04-14T07:25:44Z</time>
      </trkpt>
      <trkpt lat="47.35273" lon="0.28228">
        <ele>94.7</ele>
        <time>2024-04-14T07:25:48Z</time>
      </trkpt>
      <trkpt lat="47.35279" lon="0.28208">
        <ele>94.7</ele>
        <time>2024-04-14T07:25:50Z</time>
      </trkpt>
      <trkpt lat="47.35303" lon="0.28149">
        <ele>94.4</ele>
        <time>2024-04-14T07:25:56Z</time>
      </trkpt>
      <trkpt lat="47.35326" lon="0.28089">
        <ele>94.1</ele>
        <time>2024-04-14T07:26:02Z</time>
      </trkpt>
      <trkpt lat="47.35348" lon="0.28034">
        <ele>94.2</ele>
        <time>2024-04-14T07:26:08Z</time>
      </trkpt>
      <trkpt lat="47.35364" lon="0.2799">
        <ele>94.6</ele>
        <time>2024-04-14T07:26:13Z</time>
      </trkpt>
      <trkpt lat="47.35387" lon="0.27934">
        <ele>94.9</ele>
        <time>2024-04-14T07:26:19Z</time>
      </trkpt>
      <trkpt lat="47.35393" lon="0.27914">
        <ele>95.1</ele>
        <time>2024-04-14T07:26:21Z</time>
      </trkpt>
      <trkpt lat="47.35404" lon="0.27884">
        <ele>95.3</ele>
        <time>2024-04-14T07:26:24Z</time>
      </trkpt>
      <trkpt lat="47.35434" lon="0.27814">
        <ele>95.2</ele>
        <time>2024-04-14T07:26:31Z</time>
      </trkpt>
      <trkpt lat="47.35469" lon="0.27746">
        <ele>95</ele>
        <time>2024-04-14T07:26:38Z</time>
      </trkpt>
      <trkpt lat="47.355" lon="0.27672">
        <ele>95</ele>
        <time>2024-04-14T07:26:45Z</time>
      </trkpt>
      <trkpt lat="47.35508" lon="0.27649">
        <ele>95</ele>
        <time>2024-04-14T07:26:47Z</time>
      </trkpt>
      <trkpt lat="47.35538" lon="0.27572">
        <ele>94.8</ele>
        <time>2024-04-14T07:26:54Z</time>
      </trkpt>
      <trkpt lat="47.35543" lon="0.2756">
        <ele>94.7</ele>
        <time>2024-04-14T07:26:55Z</time>
      </trkpt>
      <trkpt lat="47.35557" lon="0.27528">
        <ele>94.4</ele>
        <time>2024-04-14T07:26:58Z</time>
      </trkpt>
      <trkpt lat="47.35566" lon="0.27505">
        <ele>94.1</ele>
        <time>2024-04-14T07:27:00Z</time>
      </trkpt>
      <trkpt lat="47.35584" lon="0.27461">
        <ele>93.6</ele>
        <time>2024-04-14T07:27:04Z</time>
      </trkpt>
      <trkpt lat="47.356" lon="0.27428">
        <ele>93.3</ele>
        <time>2024-04-14T07:27:07Z</time>
      </trkpt>
      <trkpt lat="47.35615" lon="0.27395">
        <ele>93.1</ele>
        <time>2024-04-14T07:27:10Z</time>
      </trkpt>
      <trkpt lat="47.35643" lon="0.27323">
        <ele>92.1</ele>
        <time>2024-04-14T07:27:16Z</time>
      </trkpt>
      <trkpt lat="47.35671" lon="0.27254">
        <ele>91.1</ele>
        <time>2024-04-14T07:27:22Z</time>
      </trkpt>
      <trkpt lat="47.35676" lon="0.27242">
        <ele>91</ele>
        <time>2024-04-14T07:27:23Z</time>
      </trkpt>
      <trkpt lat="47.357" lon="0.27185">
        <ele>90.8</ele>
        <time>2024-04-14T07:27:28Z</time>
      </trkpt>
      <trkpt lat="47.35709" lon="0.27164">
        <ele>90.9</ele>
        <time>2024-04-14T07:27:30Z</time>
      </trkpt>
      <trkpt lat="47.35734" lon="0.27099">
        <ele>91.2</ele>
        <time>2024-04-14T07:27:36Z</time>
      </trkpt>
      <trkpt lat="47.35762" lon="0.27026">
        <ele>91.7</ele>
        <time>2024-04-14T07:27:43Z</time>
      </trkpt>
      <trkpt lat="47.35788" lon="0.26955">
        <ele>91.6</ele>
        <time>2024-04-14T07:27:50Z</time>
      </trkpt>
      <trkpt lat="47.3581" lon="0.26898">
        <ele>91.4</ele>
        <time>2024-04-14T07:27:56Z</time>
      </trkpt>
      <trkpt lat="47.35824" lon="0.26855">
        <ele>91.1</ele>
        <time>2024-04-14T07:28:00Z</time>
      </trkpt>
      <trkpt lat="47.35829" lon="0.26845">
        <ele>91</ele>
        <time>2024-04-14T07:28:01Z</time>
      </trkpt>
      <trkpt lat="47.35845" lon="0.26815">
        <ele>90.8</ele>
        <time>2024-04-14T07:28:04Z</time>
      </trkpt>
      <trkpt lat="47.35854" lon="0.26793">
        <ele>90.7</ele>
        <time>2024-04-14T07:28:06Z</time>
      </trkpt>
      <trkpt lat="47.3587" lon="0.26751">
        <ele>90.7</ele>
        <time>2024-04-14T07:28:10Z</time>
      </trkpt>
      <trkpt lat="47.35898" lon="0.26686">
        <ele>90.6</ele>
        <time>2024-04-14T07:28:16Z</time>
      </trkpt>
      <trkpt lat="47.35929" lon="0.26612">
        <ele>90.1</ele>
        <time>2024-04-14T07:28:23Z</time>
      </trkpt>
      <trkpt lat="47.35936" lon="0.2659">
        <ele>90</ele>
        <time>2024-04-14T07:28:25Z</time>
      </trkpt>
      <trkpt lat="47.35942" lon="0.2657">
        <ele>89.9</ele>
        <time>2024-04-14T07:28:27Z</time>
      </trkpt>
      <trkpt lat="47.35955" lon="0.26538">
        <ele>89.7</ele>
        <time>2024-04-14T07:28:30Z</time>
      </trkpt>
      <trkpt lat="47.35987" lon="0.26461">
        <ele>88.9</ele>
        <time>2024-04-14T07:28:37Z</time>
      </trkpt>
      <trkpt lat="47.35992" lon="0.2645">
        <ele>88.9</ele>
        <time>2024-04-14T07:28:38Z</time>
      </trkpt>
      <trkpt lat="47.36023" lon="0.26372">
        <ele>88.6</ele>
        <time>2024-04-14T07:28:45Z</time>
      </trkpt>
      <trkpt lat="47.36054" lon="0.26296">
        <ele>88.9</ele>
        <time>2024-04-14T07:28:52Z</time>
      </trkpt>
      <trkpt lat="47.36067" lon="0.26264">
        <ele>89.1</ele>
        <time>2024-04-14T07:28:55Z</time>
      </trkpt>
      <trkpt lat="47.36095" lon="0.26194">
        <ele>89.7</ele>
        <time>2024-04-14T07:29:02Z</time>
      </trkpt>
      <trkpt lat="47.36099" lon="0.26184">
        <ele>89.8</ele>
        <time>2024-04-14T07:29:03Z</time>
      </trkpt>
      <trkpt lat="47.36103" lon="0.26175">
        <ele>89.9</ele>
        <time>2024-04-14T07:29:04Z</time>
      </trkpt>
      <trkpt lat="47.36119" lon="0.26127">
        <ele>90.1</ele>
        <time>2024-04-14T07:29:09Z</time>
      </trkpt>
      <trkpt lat="47.36138" lon="0.26079">
        <ele>89.9</ele>
        <time>2024-04-14T07:29:14Z</time>
      </trkpt>
      <trkpt lat="47.3615" lon="0.26048">
        <ele>89.5</ele>
        <time>2024-04-14T07:29:17Z</time>
      </trkpt>
      <trkpt lat="47.36174" lon="0.25983">
        <ele>88.4</ele>
        <time>2024-04-14T07:29:23Z</time>
      </trkpt>
      <trkpt lat="47.36178" lon="0.25972">
        <ele>88.1</ele>
        <time>2024-04-14T07:29:24Z</time>
      </trkpt>
      <trkpt lat="47.36187" lon="0.2595">
        <ele>87.7</ele>
        <time>2024-04-14T07:29:26Z</time>
      </trkpt>
      <trkpt lat="47.36192" lon="0.25939">
        <ele>87.4</ele>
        <time>2024-04-14T07:29:27Z</time>
      </trkpt>
      <trkpt lat="47.36199" lon="0.25916">
        <ele>87</ele>
        <time>2024-04-14T07:29:29Z</time>
      </trkpt>
      <trkpt lat="47.36221" lon="0.25858">
        <ele>86.5</ele>
        <time>2024-04-14T07:29:34Z</time>
      </trkpt>
      <trkpt lat="47.36245" lon="0.25795">
        <ele>86.5</ele>
        <time>2024-04-14T07:29:40Z</time>
      </trkpt>
      <trkpt lat="47.36276" lon="0.25725">
        <ele>86.3</ele>
        <time>2024-04-14T07:29:47Z</time>
      </trkpt>
      <trkpt lat="47.36281" lon="0.25714">
        <ele>86.4</ele>
        <time>2024-04-14T07:29:48Z</time>
      </trkpt>
      <trkpt lat="47.36311" lon="0.25641">
        <ele>86.7</ele>
        <time>2024-04-14T07:29:55Z</time>
      </trkpt>
      <trkpt lat="47.36331" lon="0.25587">
        <ele>87.1</ele>
        <time>2024-04-14T07:30:00Z</time>
      </trkpt>
      <trkpt lat="47.36357" lon="0.25516">
        <ele>87.6</ele>
        <time>2024-04-14T07:30:07Z</time>
      </trkpt>
      <trkpt lat="47.36385" lon="0.25447">
        <ele>88</ele>
        <time>2024-04-14T07:30:14Z</time>
      </trkpt>
      <trkpt lat="47.36415" lon="0.25377">
        <ele>88.1</ele>
        <time>2024-04-14T07:30:21Z</time>
      </trkpt>
      <trkpt lat="47.3642" lon="0.25367">
        <ele>88.2</ele>
        <time>2024-04-14T07:30:22Z</time>
      </trkpt>
      <trkpt lat="47.36448" lon="0.25296">
        <ele>88.3</ele>
        <time>2024-04-14T07:30:29Z</time>
      </trkpt>
      <trkpt lat="47.36452" lon="0.25286">
        <ele>88.3</ele>
        <time>2024-04-14T07:30:30Z</time>
      </trkpt>
      <trkpt lat="47.36472" lon="0.25235">
        <ele>88.4</ele>
        <time>2024-04-14T07:30:35Z</time>
      </trkpt>
      <trkpt lat="47.36485" lon="0.25206">
        <ele>88.5</ele>
        <time>2024-04-14T07:30:38Z</time>
      </trkpt>
      <trkpt lat="47.36503" lon="0.25155">
        <ele>88.7</ele>
        <time>2024-04-14T07:30:43Z</time>
      </trkpt>
      <trkpt lat="47.36506" lon="0.25146">
        <ele>88.7</ele>
        <time>2024-04-14T07:30:44Z</time>
      </trkpt>
      <trkpt lat="47.36529" lon="0.25085">
        <ele>88.5</ele>
        <time>2024-04-14T07:30:50Z</time>
      </trkpt>
      <trkpt lat="47.3655" lon="0.25022">
        <ele>88.1</ele>
        <time>2024-04-14T07:30:56Z</time>
      </trkpt>
      <trkpt lat="47.3657" lon="0.24968">
        <ele>87.2</ele>
        <time>2024-04-14T07:31:01Z</time>
      </trkpt>
      <trkpt lat="47.36586" lon="0.24931">
        <ele>85.9</ele>
        <time>2024-04-14T07:31:04Z</time>
      </trkpt>
      <trkpt lat="47.36596" lon="0.24907">
        <ele>84.8</ele>
        <time>2024-04-14T07:31:06Z</time>
      </trkpt>
      <trkpt lat="47.36601" lon="0.24894">
        <ele>84.2</ele>
        <time>2024-04-14T07:31:07Z</time>
      </trkpt>
      <trkpt lat="47.36616" lon="0.24853">
        <ele>82.2</ele>
        <time>2024-04-14T07:31:10Z</time>
      </trkpt>
      <trkpt lat="47.36627" lon="0.24822">
        <ele>80.6</ele>
        <time>2024-04-14T07:31:12Z</time>
      </trkpt>
      <trkpt lat="47.36637" lon="0.2479">
        <ele>79</ele>
        <time>2024-04-14T07:31:14Z</time>
      </trkpt>
      <trkpt lat="47.36642" lon="0.24774">
        <ele>78.3</ele>
        <time>2024-04-14T07:31:15Z</time>
      </trkpt>
      <trkpt lat="47.36647" lon="0.24757">
        <ele>77.6</ele>
        <time>2024-04-14T07:31:16Z</time>
      </trkpt>
      <trkpt lat="47.36651" lon="0.2474">
        <ele>76.8</ele>
        <time>2024-04-14T07:31:17Z</time>
      </trkpt>
      <trkpt lat="47.36656" lon="0.24725">
        <ele>76.2</ele>
        <time>2024-04-14T07:31:18Z</time>
      </trkpt>
      <trkpt lat="47.3666" lon="0.24708">
        <ele>75.6</ele>
        <time>2024-04-14T07:31:19Z</time>
      </trkpt>
      <trkpt lat="47.36669" lon="0.24675">
        <ele>74.8</ele>
        <time>2024-04-14T07:31:21Z</time>
      </trkpt>
      <trkpt lat="47.36678" lon="0.24645">
        <ele>74.4</ele>
        <time>2024-04-14T07:31:23Z</time>
      </trkpt>
      <trkpt lat="47.3668" lon="0.2463">
        <ele>74.3</ele>
        <time>2024-04-14T07:31:24Z</time>
      </trkpt>
      <trkpt lat="47.36689" lon="0.246">
        <ele>74.2</ele>
        <time>2024-04-14T07:31:26Z</time>
      </trkpt>
      <trkpt lat="47.36703" lon="0.24576">
        <ele>74.2</ele>
        <time>2024-04-14T07:31:28Z</time>
      </trkpt>
      <trkpt lat="47.36717" lon="0.24555">
        <ele>74.2</ele>
        <time>2024-04-14T07:31:30Z</time>
      </trkpt>
      <trkpt lat="47.36733" lon="0.24536">
        <ele>74.2</ele>
        <time>2024-04-14T07:31:32Z</time>
      </trkpt>
      <trkpt lat="47.36756" lon="0.24508">
        <ele>74.3</ele>
        <time>2024-04-14T07:31:35Z</time>
      </trkpt>
      <trkpt lat="47.36764" lon="0.24498">
        <ele>74.3</ele>
        <time>2024-04-14T07:31:36Z</time>
      </trkpt>
      <trkpt lat="47.36808" lon="0.24439">
        <ele>74.3</ele>
        <time>2024-04-14T07:31:42Z</time>
      </trkpt>
      <trkpt lat="47.36847" lon="0.24375">
        <ele>74.2</ele>
        <time>2024-04-14T07:31:48Z</time>
      </trkpt>
      <trkpt lat="47.36865" lon="0.24342">
        <ele>74.4</ele>
        <time>2024-04-14T07:31:51Z</time>
      </trkpt>
      <trkpt lat="47.36897" lon="0.24275">
        <ele>74.7</ele>
        <time>2024-04-14T07:31:57Z</time>
      </trkpt>
      <trkpt lat="47.36901" lon="0.24264">
        <ele>74.7</ele>
        <time>2024-04-14T07:31:58Z</time>
      </trkpt>
      <trkpt lat="47.36923" lon="0.24192">
        <ele>74.5</ele>
        <time>2024-04-14T07:32:04Z</time>
      </trkpt>
      <trkpt lat="47.36946" lon="0.24134">
        <ele>73.7</ele>
        <time>2024-04-14T07:32:09Z</time>
      </trkpt>
      <trkpt lat="47.36953" lon="0.24124">
        <ele>73.5</ele>
        <time>2024-04-14T07:32:10Z</time>
      </trkpt>
      <trkpt lat="47.36977" lon="0.24102">
        <ele>73.1</ele>
        <time>2024-04-14T07:32:13Z</time>
      </trkpt>
      <trkpt lat="47.37012" lon="0.24086">
        <ele>72.9</ele>
        <time>2024-04-14T07:32:17Z</time>
      </trkpt>
      <trkpt lat="47.3703" lon="0.24078">
        <ele>72.9</ele>
        <time>2024-04-14T07:32:19Z</time>
      </trkpt>
      <trkpt lat="47.37069" lon="0.24059">
        <ele>73.2</ele>
        <time>2024-04-14T07:32:24Z</time>
      </trkpt>
      <trkpt lat="47.37108" lon="0.2404">
        <ele>73.6</ele>
        <time>2024-04-14T07:32:29Z</time>
      </trkpt>
      <trkpt lat="47.37157" lon="0.24014">
        <ele>75.7</ele>
        <time>2024-04-14T07:32:36Z</time>
      </trkpt>
      <trkpt lat="47.37175" lon="0.24004">
        <ele>76.9</ele>
        <time>2024-04-14T07:32:39Z</time>
      </trkpt>
      <trkpt lat="47.37192" lon="0.23993">
        <ele>78.1</ele>
        <time>2024-04-14T07:32:42Z</time>
      </trkpt>
      <trkpt lat="47.37197" lon="0.23989">
        <ele>78.5</ele>
        <time>2024-04-14T07:32:43Z</time>
      </trkpt>
      <trkpt lat="47.37213" lon="0.23976">
        <ele>79.7</ele>
        <time>2024-04-14T07:32:46Z</time>
      </trkpt>
      <trkpt lat="47.3723" lon="0.23963">
        <ele>80.9</ele>
        <time>2024-04-14T07:32:49Z</time>
      </trkpt>
      <trkpt lat="47.37235" lon="0.23959">
        <ele>81.2</ele>
        <time>2024-04-14T07:32:50Z</time>
      </trkpt>
      <trkpt lat="47.37251" lon="0.23945">
        <ele>82.1</ele>
        <time>2024-04-14T07:32:53Z</time>
      </trkpt>
      <trkpt lat="47.37278" lon="0.23921">
        <ele>83.2</ele>
        <time>2024-04-14T07:32:58Z</time>
      </trkpt>
      <trkpt lat="47.37316" lon="0.23875">
        <ele>84.4</ele>
        <time>2024-04-14T07:33:06Z</time>
      </trkpt>
      <trkpt lat="47.37332" lon="0.23835">
        <ele>85.1</ele>
        <time>2024-04-14T07:33:11Z</time>
      </trkpt>
      <trkpt lat="47.37335" lon="0.23826">
        <ele>85.3</ele>
        <time>2024-04-14T07:33:12Z</time>
      </trkpt>
      <trkpt lat="47.37344" lon="0.23781">
        <ele>86</ele>
        <time>2024-04-14T07:33:17Z</time>
      </trkpt>
      <trkpt lat="47.37359" lon="0.23709">
        <ele>86.7</ele>
        <time>2024-04-14T07:33:25Z</time>
      </trkpt>
      <trkpt lat="47.37373" lon="0.23666">
        <ele>86.9</ele>
        <time>2024-04-14T07:33:30Z</time>
      </trkpt>
      <trkpt lat="47.37377" lon="0.23658">
        <ele>86.9</ele>
        <time>2024-04-14T07:33:31Z</time>
      </trkpt>
      <trkpt lat="47.37404" lon="0.23591">
        <ele>86.8</ele>
        <time>2024-04-14T07:33:39Z</time>
      </trkpt>
      <trkpt lat="47.37434" lon="0.23519">
        <ele>86</ele>
        <time>2024-04-14T07:33:47Z</time>
      </trkpt>
      <trkpt lat="47.37461" lon="0.23456">
        <ele>85.8</ele>
        <time>2024-04-14T07:33:54Z</time>
      </trkpt>
      <trkpt lat="47.37493" lon="0.23382">
        <ele>85.2</ele>
        <time>2024-04-14T07:34:02Z</time>
      </trkpt>
      <trkpt lat="47.37497" lon="0.23373">
        <ele>85.1</ele>
        <time>2024-04-14T07:34:03Z</time>
      </trkpt>
      <trkpt lat="47.3753" lon="0.23309">
        <ele>84.5</ele>
        <time>2024-04-14T07:34:10Z</time>
      </trkpt>
      <trkpt lat="47.37568" lon="0.23254">
        <ele>83.9</ele>
        <time>2024-04-14T07:34:17Z</time>
      </trkpt>
      <trkpt lat="47.37598" lon="0.23213">
        <ele>83.6</ele>
        <time>2024-04-14T07:34:22Z</time>
      </trkpt>
      <trkpt lat="47.37627" lon="0.23172">
        <ele>83.4</ele>
        <time>2024-04-14T07:34:27Z</time>
      </trkpt>
      <trkpt lat="47.37669" lon="0.23114">
        <ele>82.8</ele>
        <time>2024-04-14T07:34:34Z</time>
      </trkpt>
      <trkpt lat="47.37693" lon="0.23079">
        <ele>82.8</ele>
        <time>2024-04-14T07:34:38Z</time>
      </trkpt>
      <trkpt lat="47.37698" lon="0.23071">
        <ele>82.8</ele>
        <time>2024-04-14T07:34:39Z</time>
      </trkpt>
      <trkpt lat="47.37725" lon="0.23028">
        <ele>82.8</ele>
        <time>2024-04-14T07:34:44Z</time>
      </trkpt>
      <trkpt lat="47.37752" lon="0.22973">
        <ele>82.9</ele>
        <time>2024-04-14T07:34:50Z</time>
      </trkpt>
      <trkpt lat="47.37783" lon="0.22906">
        <ele>82.9</ele>
        <time>2024-04-14T07:34:57Z</time>
      </trkpt>
      <trkpt lat="47.37793" lon="0.22887">
        <ele>82.8</ele>
        <time>2024-04-14T07:34:59Z</time>
      </trkpt>
      <trkpt lat="47.37803" lon="0.22869">
        <ele>82.8</ele>
        <time>2024-04-14T07:35:01Z</time>
      </trkpt>
      <trkpt lat="47.3784" lon="0.2281">
        <ele>82.8</ele>
        <time>2024-04-14T07:35:08Z</time>
      </trkpt>
      <trkpt lat="47.37882" lon="0.22745">
        <ele>83.5</ele>
        <time>2024-04-14T07:35:16Z</time>
      </trkpt>
      <trkpt lat="47.37892" lon="0.22729">
        <ele>83.7</ele>
        <time>2024-04-14T07:35:18Z</time>
      </trkpt>
      <trkpt lat="47.37917" lon="0.2269">
        <ele>84.2</ele>
        <time>2024-04-14T07:35:23Z</time>
      </trkpt>
      <trkpt lat="47.37933" lon="0.22668">
        <ele>84.3</ele>
        <time>2024-04-14T07:35:26Z</time>
      </trkpt>
      <trkpt lat="47.37974" lon="0.22615">
        <ele>83.7</ele>
        <time>2024-04-14T07:35:33Z</time>
      </trkpt>
      <trkpt lat="47.37986" lon="0.22599">
        <ele>83.5</ele>
        <time>2024-04-14T07:35:35Z</time>
      </trkpt>
      <trkpt lat="47.3803" lon="0.22543">
        <ele>82.6</ele>
        <time>2024-04-14T07:35:42Z</time>
      </trkpt>
      <trkpt lat="47.38036" lon="0.22534">
        <ele>82.5</ele>
        <time>2024-04-14T07:35:43Z</time>
      </trkpt>
      <trkpt lat="47.3808" lon="0.22477">
        <ele>82.1</ele>
        <time>2024-04-14T07:35:50Z</time>
      </trkpt>
      <trkpt lat="47.38086" lon="0.2247">
        <ele>82.1</ele>
        <time>2024-04-14T07:35:51Z</time>
      </trkpt>
      <trkpt lat="47.38098" lon="0.22454">
        <ele>82.1</ele>
        <time>2024-04-14T07:35:53Z</time>
      </trkpt>
      <trkpt lat="47.3814" lon="0.224">
        <ele>82.3</ele>
        <time>2024-04-14T07:36:00Z</time>
      </trkpt>
      <trkpt lat="47.38186" lon="0.22342">
        <ele>83</ele>
        <time>2024-04-14T07:36:08Z</time>
      </trkpt>
      <trkpt lat="47.38197" lon="0.22327">
        <ele>83.2</ele>
        <time>2024-04-14T07:36:10Z</time>
      </trkpt>
      <trkpt lat="47.38238" lon="0.22273">
        <ele>83.8</ele>
        <time>2024-04-14T07:36:18Z</time>
      </trkpt>
      <trkpt lat="47.38243" lon="0.22267">
        <ele>83.8</ele>
        <time>2024-04-14T07:36:19Z</time>
      </trkpt>
      <trkpt lat="47.38257" lon="0.22252">
        <ele>83.7</ele>
        <time>2024-04-14T07:36:22Z</time>
      </trkpt>
      <trkpt lat="47.38269" lon="0.22245">
        <ele>83.6</ele>
        <time>2024-04-14T07:36:24Z</time>
      </trkpt>
      <trkpt lat="47.3829" lon="0.2224">
        <ele>83.3</ele>
        <time>2024-04-14T07:36:27Z</time>
      </trkpt>
      <trkpt lat="47.38304" lon="0.22238">
        <ele>83</ele>
        <time>2024-04-14T07:36:29Z</time>
      </trkpt>
      <trkpt lat="47.38348" lon="0.2223">
        <ele>81.5</ele>
        <time>2024-04-14T07:36:35Z</time>
      </trkpt>
      <trkpt lat="47.38356" lon="0.22228">
        <ele>81.2</ele>
        <time>2024-04-14T07:36:36Z</time>
      </trkpt>
      <trkpt lat="47.38405" lon="0.2222">
        <ele>78.5</ele>
        <time>2024-04-14T07:36:42Z</time>
      </trkpt>
      <trkpt lat="47.38432" lon="0.22223">
        <ele>76.8</ele>
        <time>2024-04-14T07:36:45Z</time>
      </trkpt>
      <trkpt lat="47.38441" lon="0.22224">
        <ele>76.2</ele>
        <time>2024-04-14T07:36:46Z</time>
      </trkpt>
      <trkpt lat="47.3845" lon="0.22224">
        <ele>75.5</ele>
        <time>2024-04-14T07:36:47Z</time>
      </trkpt>
      <trkpt lat="47.3846" lon="0.22223">
        <ele>74.8</ele>
        <time>2024-04-14T07:36:48Z</time>
      </trkpt>
      <trkpt lat="47.38479" lon="0.22216">
        <ele>73.5</ele>
        <time>2024-04-14T07:36:50Z</time>
      </trkpt>
      <trkpt lat="47.38489" lon="0.22211">
        <ele>72.8</ele>
        <time>2024-04-14T07:36:51Z</time>
      </trkpt>
      <trkpt lat="47.38498" lon="0.22206">
        <ele>72.2</ele>
        <time>2024-04-14T07:36:52Z</time>
      </trkpt>
      <trkpt lat="47.38508" lon="0.222">
        <ele>71.6</ele>
        <time>2024-04-14T07:36:53Z</time>
      </trkpt>
      <trkpt lat="47.38518" lon="0.22195">
        <ele>71</ele>
        <time>2024-04-14T07:36:54Z</time>
      </trkpt>
      <trkpt lat="47.38537" lon="0.22184">
        <ele>69.9</ele>
        <time>2024-04-14T07:36:56Z</time>
      </trkpt>
      <trkpt lat="47.38547" lon="0.2218">
        <ele>69.4</ele>
        <time>2024-04-14T07:36:57Z</time>
      </trkpt>
      <trkpt lat="47.38558" lon="0.22176">
        <ele>69</ele>
        <time>2024-04-14T07:36:58Z</time>
      </trkpt>
      <trkpt lat="47.38578" lon="0.2217">
        <ele>68.5</ele>
        <time>2024-04-14T07:37:00Z</time>
      </trkpt>
      <trkpt lat="47.38609" lon="0.2216">
        <ele>67.8</ele>
        <time>2024-04-14T07:37:03Z</time>
      </trkpt>
      <trkpt lat="47.38619" lon="0.22157">
        <ele>67.6</ele>
        <time>2024-04-14T07:37:04Z</time>
      </trkpt>
      <trkpt lat="47.38649" lon="0.22148">
        <ele>67.2</ele>
        <time>2024-04-14T07:37:07Z</time>
      </trkpt>
      <trkpt lat="47.38678" lon="0.22137">
        <ele>67.1</ele>
        <time>2024-04-14T07:37:10Z</time>
      </trkpt>
      <trkpt lat="47.38697" lon="0.22128">
        <ele>67.3</ele>
        <time>2024-04-14T07:37:12Z</time>
      </trkpt>
      <trkpt lat="47.38731" lon="0.22109">
        <ele>67.6</ele>
        <time>2024-04-14T07:37:16Z</time>
      </trkpt>
      <trkpt lat="47.38767" lon="0.22083">
        <ele>68.8</ele>
        <time>2024-04-14T07:37:21Z</time>
      </trkpt>
      <trkpt lat="47.38785" lon="0.22072">
        <ele>69.8</ele>
        <time>2024-04-14T07:37:24Z</time>
      </trkpt>
      <trkpt lat="47.38796" lon="0.22067">
        <ele>70.5</ele>
        <time>2024-04-14T07:37:26Z</time>
      </trkpt>
      <trkpt lat="47.38803" lon="0.22063">
        <ele>70.9</ele>
        <time>2024-04-14T07:37:28Z</time>
      </trkpt>
      <trkpt lat="47.38805" lon="0.2206">
        <ele>71.1</ele>
        <time>2024-04-14T07:37:29Z</time>
      </trkpt>
      <trkpt lat="47.38805" lon="0.22055">
        <ele>71.2</ele>
        <time>2024-04-14T07:37:30Z</time>
      </trkpt>
      <trkpt lat="47.38805" lon="0.22042">
        <ele>71.3</ele>
        <time>2024-04-14T07:37:32Z</time>
      </trkpt>
      <trkpt lat="47.38806" lon="0.22035">
        <ele>71.4</ele>
        <time>2024-04-14T07:37:33Z</time>
      </trkpt>
      <trkpt lat="47.38808" lon="0.22013">
        <ele>71.6</ele>
        <time>2024-04-14T07:37:36Z</time>
      </trkpt>
      <trkpt lat="47.38808" lon="0.21995">
        <ele>71.7</ele>
        <time>2024-04-14T07:37:38Z</time>
      </trkpt>
      <trkpt lat="47.38808" lon="0.21966">
        <ele>71.6</ele>
        <time>2024-04-14T07:37:41Z</time>
      </trkpt>
      <trkpt lat="47.38805" lon="0.21946">
        <ele>71.5</ele>
        <time>2024-04-14T07:37:43Z</time>
      </trkpt>
      <trkpt lat="47.388" lon="0.21877">
        <ele>71</ele>
        <time>2024-04-14T07:37:49Z</time>
      </trkpt>
      <trkpt lat="47.38799" lon="0.21853">
        <ele>70.7</ele>
        <time>2024-04-14T07:37:51Z</time>
      </trkpt>
      <trkpt lat="47.388" lon="0.21803">
        <ele>70.2</ele>
        <time>2024-04-14T07:37:55Z</time>
      </trkpt>
      <trkpt lat="47.388" lon="0.21778">
        <ele>69.9</ele>
        <time>2024-04-14T07:37:57Z</time>
      </trkpt>
      <trkpt lat="47.388" lon="0.21703">
        <ele>69.2</ele>
        <time>2024-04-14T07:38:03Z</time>
      </trkpt>
      <trkpt lat="47.388" lon="0.21678">
        <ele>69</ele>
        <time>2024-04-14T07:38:05Z</time>
      </trkpt>
      <trkpt lat="47.38802" lon="0.21614">
        <ele>68.6</ele>
        <time>2024-04-14T07:38:10Z</time>
      </trkpt>
      <trkpt lat="47.38804" lon="0.21527">
        <ele>68.5</ele>
        <time>2024-04-14T07:38:17Z</time>
      </trkpt>
      <trkpt lat="47.38805" lon="0.21503">
        <ele>68.4</ele>
        <time>2024-04-14T07:38:19Z</time>
      </trkpt>
      <trkpt lat="47.38804" lon="0.21429">
        <ele>68.2</ele>
        <time>2024-04-14T07:38:25Z</time>
      </trkpt>
      <trkpt lat="47.38805" lon="0.21404">
        <ele>68.1</ele>
        <time>2024-04-14T07:38:27Z</time>
      </trkpt>
      <trkpt lat="47.38807" lon="0.21355">
        <ele>68.2</ele>
        <time>2024-04-14T07:38:31Z</time>
      </trkpt>
      <trkpt lat="47.38808" lon="0.21306">
        <ele>68.3</ele>
        <time>2024-04-14T07:38:35Z</time>
      </trkpt>
      <trkpt lat="47.38811" lon="0.21218">
        <ele>68.1</ele>
        <time>2024-04-14T07:38:42Z</time>
      </trkpt>
      <trkpt lat="47.3881" lon="0.21205">
        <ele>68.1</ele>
        <time>2024-04-14T07:38:43Z</time>
      </trkpt>
      <trkpt lat="47.38811" lon="0.2113">
        <ele>67.9</ele>
        <time>2024-04-14T07:38:49Z</time>
      </trkpt>
      <trkpt lat="47.38811" lon="0.21066">
        <ele>67.5</ele>
        <time>2024-04-14T07:38:54Z</time>
      </trkpt>
      <trkpt lat="47.38812" lon="0.21026">
        <ele>67.1</ele>
        <time>2024-04-14T07:38:57Z</time>
      </trkpt>
      <trkpt lat="47.38813" lon="0.20943">
        <ele>65.8</ele>
        <time>2024-04-14T07:39:03Z</time>
      </trkpt>
      <trkpt lat="47.38813" lon="0.20914">
        <ele>65.5</ele>
        <time>2024-04-14T07:39:05Z</time>
      </trkpt>
      <trkpt lat="47.38814" lon="0.20899">
        <ele>65.4</ele>
        <time>2024-04-14T07:39:06Z</time>
      </trkpt>
      <trkpt lat="47.38814" lon="0.20856">
        <ele>65</ele>
        <time>2024-04-14T07:39:09Z</time>
      </trkpt>
      <trkpt lat="47.38814" lon="0.20799">
        <ele>64.4</ele>
        <time>2024-04-14T07:39:13Z</time>
      </trkpt>
      <trkpt lat="47.38814" lon="0.20771">
        <ele>64.2</ele>
        <time>2024-04-14T07:39:15Z</time>
      </trkpt>
      <trkpt lat="47.38814" lon="0.20718">
        <ele>63.9</ele>
        <time>2024-04-14T07:39:19Z</time>
      </trkpt>
      <trkpt lat="47.38816" lon="0.20637">
        <ele>62.7</ele>
        <time>2024-04-14T07:39:25Z</time>
      </trkpt>
      <trkpt lat="47.3882" lon="0.20609">
        <ele>62.4</ele>
        <time>2024-04-14T07:39:27Z</time>
      </trkpt>
      <trkpt lat="47.38828" lon="0.2057">
        <ele>62.2</ele>
        <time>2024-04-14T07:39:30Z</time>
      </trkpt>
      <trkpt lat="47.38843" lon="0.20506">
        <ele>61.9</ele>
        <time>2024-04-14T07:39:35Z</time>
      </trkpt>
      <trkpt lat="47.38852" lon="0.20468">
        <ele>61.8</ele>
        <time>2024-04-14T07:39:38Z</time>
      </trkpt>
      <trkpt lat="47.38869" lon="0.20391">
        <ele>61.6</ele>
        <time>2024-04-14T07:39:44Z</time>
      </trkpt>
      <trkpt lat="47.38875" lon="0.20366">
        <ele>61.5</ele>
        <time>2024-04-14T07:39:46Z</time>
      </trkpt>
      <trkpt lat="47.38894" lon="0.20283">
        <ele>62</ele>
        <time>2024-04-14T07:39:53Z</time>
      </trkpt>
      <trkpt lat="47.38903" lon="0.20249">
        <ele>62.3</ele>
        <time>2024-04-14T07:39:56Z</time>
      </trkpt>
      <trkpt lat="47.38913" lon="0.20228">
        <ele>62.4</ele>
        <time>2024-04-14T07:39:58Z</time>
      </trkpt>
      <trkpt lat="47.38939" lon="0.20199">
        <ele>62.7</ele>
        <time>2024-04-14T07:40:02Z</time>
      </trkpt>
      <trkpt lat="47.38962" lon="0.20188">
        <ele>63</ele>
        <time>2024-04-14T07:40:05Z</time>
      </trkpt>
      <trkpt lat="47.38977" lon="0.20183">
        <ele>63</ele>
        <time>2024-04-14T07:40:07Z</time>
      </trkpt>
      <trkpt lat="47.39032" lon="0.20165">
        <ele>62.6</ele>
        <time>2024-04-14T07:40:14Z</time>
      </trkpt>
      <trkpt lat="47.39062" lon="0.20153">
        <ele>62.3</ele>
        <time>2024-04-14T07:40:18Z</time>
      </trkpt>
      <trkpt lat="47.3907" lon="0.20148">
        <ele>62.3</ele>
        <time>2024-04-14T07:40:19Z</time>
      </trkpt>
      <trkpt lat="47.39087" lon="0.20122">
        <ele>62</ele>
        <time>2024-04-14T07:40:22Z</time>
      </trkpt>
      <trkpt lat="47.3909" lon="0.20096">
        <ele>61.7</ele>
        <time>2024-04-14T07:40:24Z</time>
      </trkpt>
      <trkpt lat="47.39091" lon="0.20083">
        <ele>61.6</ele>
        <time>2024-04-14T07:40:25Z</time>
      </trkpt>
      <trkpt lat="47.39091" lon="0.20057">
        <ele>61.6</ele>
        <time>2024-04-14T07:40:27Z</time>
      </trkpt>
      <trkpt lat="47.39092" lon="0.20005">
        <ele>61.7</ele>
        <time>2024-04-14T07:40:31Z</time>
      </trkpt>
      <trkpt lat="47.39097" lon="0.19933">
        <ele>61.9</ele>
        <time>2024-04-14T07:40:37Z</time>
      </trkpt>
      <trkpt lat="47.39099" lon="0.19921">
        <ele>61.8</ele>
        <time>2024-04-14T07:40:38Z</time>
      </trkpt>
      <trkpt lat="47.3911" lon="0.19851">
        <ele>61.4</ele>
        <time>2024-04-14T07:40:44Z</time>
      </trkpt>
      <trkpt lat="47.39115" lon="0.19829">
        <ele>61.2</ele>
        <time>2024-04-14T07:40:46Z</time>
      </trkpt>
      <trkpt lat="47.39126" lon="0.19784">
        <ele>60.8</ele>
        <time>2024-04-14T07:40:50Z</time>
      </trkpt>
      <trkpt lat="47.3913" lon="0.1976">
        <ele>60.6</ele>
        <time>2024-04-14T07:40:52Z</time>
      </trkpt>
      <trkpt lat="47.39141" lon="0.19732">
        <ele>60.5</ele>
        <time>2024-04-14T07:40:55Z</time>
      </trkpt>
      <trkpt lat="47.39144" lon="0.19725">
        <ele>60.4</ele>
        <time>2024-04-14T07:40:56Z</time>
      </trkpt>
      <trkpt lat="47.39147" lon="0.1972">
        <ele>60.4</ele>
        <time>2024-04-14T07:40:57Z</time>
      </trkpt>
      <trkpt lat="47.39149" lon="0.19715">
        <ele>60.4</ele>
        <time>2024-04-14T07:40:58Z</time>
      </trkpt>
      <trkpt lat="47.39159" lon="0.19697">
        <ele>60.3</ele>
        <time>2024-04-14T07:41:01Z</time>
      </trkpt>
      <trkpt lat="47.39172" lon="0.1968">
        <ele>60.3</ele>
        <time>2024-04-14T07:41:04Z</time>
      </trkpt>
      <trkpt lat="47.39195" lon="0.19657">
        <ele>60.5</ele>
        <time>2024-04-14T07:41:08Z</time>
      </trkpt>
      <trkpt lat="47.39206" lon="0.19643">
        <ele>60.7</ele>
        <time>2024-04-14T07:41:10Z</time>
      </trkpt>
      <trkpt lat="47.39235" lon="0.19599">
        <ele>61.3</ele>
        <time>2024-04-14T07:41:16Z</time>
      </trkpt>
      <trkpt lat="47.3924" lon="0.19591">
        <ele>61.4</ele>
        <time>2024-04-14T07:41:17Z</time>
      </trkpt>
      <trkpt lat="47.39257" lon="0.19563">
        <ele>61.8</ele>
        <time>2024-04-14T07:41:21Z</time>
      </trkpt>
      <trkpt lat="47.39262" lon="0.19549">
        <ele>61.9</ele>
        <time>2024-04-14T07:41:23Z</time>
      </trkpt>
      <trkpt lat="47.39272" lon="0.1952">
        <ele>62.1</ele>
        <time>2024-04-14T07:41:27Z</time>
      </trkpt>
      <trkpt lat="47.39274" lon="0.19511">
        <ele>62.2</ele>
        <time>2024-04-14T07:41:28Z</time>
      </trkpt>
      <trkpt lat="47.39275" lon="0.19502">
        <ele>62.2</ele>
        <time>2024-04-14T07:41:29Z</time>
      </trkpt>
      <trkpt lat="47.39287" lon="0.19447">
        <ele>62.7</ele>
        <time>2024-04-14T07:41:35Z</time>
      </trkpt>
      <trkpt lat="47.39292" lon="0.1944">
        <ele>62.8</ele>
        <time>2024-04-14T07:41:36Z</time>
      </trkpt>
      <trkpt lat="47.39305" lon="0.19433">
        <ele>62.7</ele>
        <time>2024-04-14T07:41:38Z</time>
      </trkpt>
      <trkpt lat="47.39319" lon="0.19435">
        <ele>62.7</ele>
        <time>2024-04-14T07:41:40Z</time>
      </trkpt>
      <trkpt lat="47.39341" lon="0.19437">
        <ele>62.5</ele>
        <time>2024-04-14T07:41:43Z</time>
      </trkpt>
      <trkpt lat="47.39381" lon="0.19438">
        <ele>62.8</ele>
        <time>2024-04-14T07:41:49Z</time>
      </trkpt>
      <trkpt lat="47.39391" lon="0.19437">
        <ele>63</ele>
        <time>2024-04-14T07:41:51Z</time>
      </trkpt>
      <trkpt lat="47.39399" lon="0.19435">
        <ele>63.1</ele>
        <time>2024-04-14T07:41:53Z</time>
      </trkpt>
      <trkpt lat="47.39423" lon="0.19426">
        <ele>63.2</ele>
        <time>2024-04-14T07:41:58Z</time>
      </trkpt>
      <trkpt lat="47.3946" lon="0.1941">
        <ele>63.5</ele>
        <time>2024-04-14T07:42:04Z</time>
      </trkpt>
      <trkpt lat="47.39487" lon="0.19398">
        <ele>63.5</ele>
        <time>2024-04-14T07:42:08Z</time>
      </trkpt>
      <trkpt lat="47.39533" lon="0.1938">
        <ele>63.6</ele>
        <time>2024-04-14T07:42:15Z</time>
      </trkpt>
      <trkpt lat="47.39546" lon="0.19375">
        <ele>63.7</ele>
        <time>2024-04-14T07:42:17Z</time>
      </trkpt>
      <trkpt lat="47.39559" lon="0.1937">
        <ele>63.7</ele>
        <time>2024-04-14T07:42:19Z</time>
      </trkpt>
      <trkpt lat="47.39579" lon="0.19361">
        <ele>63.8</ele>
        <time>2024-04-14T07:42:22Z</time>
      </trkpt>
      <trkpt lat="47.39632" lon="0.19331">
        <ele>64</ele>
        <time>2024-04-14T07:42:30Z</time>
      </trkpt>
      <trkpt lat="47.39685" lon="0.19294">
        <ele>64.2</ele>
        <time>2024-04-14T07:42:38Z</time>
      </trkpt>
      <trkpt lat="47.39728" lon="0.19252">
        <ele>64.2</ele>
        <time>2024-04-14T07:42:45Z</time>
      </trkpt>
      <trkpt lat="47.39767" lon="0.19201">
        <ele>64.1</ele>
        <time>2024-04-14T07:42:52Z</time>
      </trkpt>
      <trkpt lat="47.39807" lon="0.19136">
        <ele>64.7</ele>
        <time>2024-04-14T07:43:00Z</time>
      </trkpt>
      <trkpt lat="47.39811" lon="0.19128">
        <ele>64.8</ele>
        <time>2024-04-14T07:43:01Z</time>
      </trkpt>
      <trkpt lat="47.39847" lon="0.19061">
        <ele>65.3</ele>
        <time>2024-04-14T07:43:09Z</time>
      </trkpt>
      <trkpt lat="47.39856" lon="0.19045">
        <ele>65.3</ele>
        <time>2024-04-14T07:43:11Z</time>
      </trkpt>
      <trkpt lat="47.39892" lon="0.18991">
        <ele>65.4</ele>
        <time>2024-04-14T07:43:18Z</time>
      </trkpt>
      <trkpt lat="47.39932" lon="0.18944">
        <ele>65.6</ele>
        <time>2024-04-14T07:43:25Z</time>
      </trkpt>
      <trkpt lat="47.39944" lon="0.18932">
        <ele>65.6</ele>
        <time>2024-04-14T07:43:27Z</time>
      </trkpt>
      <trkpt lat="47.39956" lon="0.1892">
        <ele>65.7</ele>
        <time>2024-04-14T07:43:29Z</time>
      </trkpt>
      <trkpt lat="47.39995" lon="0.18874">
        <ele>66.4</ele>
        <time>2024-04-14T07:43:36Z</time>
      </trkpt>
      <trkpt lat="47.40038" lon="0.18818">
        <ele>66.8</ele>
        <time>2024-04-14T07:43:44Z</time>
      </trkpt>
      <trkpt lat="47.40043" lon="0.18811">
        <ele>66.9</ele>
        <time>2024-04-14T07:43:45Z</time>
      </trkpt>
      <trkpt lat="47.40085" lon="0.18754">
        <ele>67.6</ele>
        <time>2024-04-14T07:43:53Z</time>
      </trkpt>
      <trkpt lat="47.4009" lon="0.18746">
        <ele>67.6</ele>
        <time>2024-04-14T07:43:54Z</time>
      </trkpt>
      <trkpt lat="47.40134" lon="0.1869">
        <ele>68.2</ele>
        <time>2024-04-14T07:44:02Z</time>
      </trkpt>
      <trkpt lat="47.40139" lon="0.18683">
        <ele>68.3</ele>
        <time>2024-04-14T07:44:03Z</time>
      </trkpt>
      <trkpt lat="47.40167" lon="0.18652">
        <ele>68.8</ele>
        <time>2024-04-14T07:44:08Z</time>
      </trkpt>
      <trkpt lat="47.40197" lon="0.18625">
        <ele>69.3</ele>
        <time>2024-04-14T07:44:13Z</time>
      </trkpt>
      <trkpt lat="47.40247" lon="0.18591">
        <ele>70.4</ele>
        <time>2024-04-14T07:44:21Z</time>
      </trkpt>
      <trkpt lat="47.40261" lon="0.18586">
        <ele>70.7</ele>
        <time>2024-04-14T07:44:23Z</time>
      </trkpt>
      <trkpt lat="47.4028" lon="0.18578">
        <ele>71.1</ele>
        <time>2024-04-14T07:44:26Z</time>
      </trkpt>
      <trkpt lat="47.40293" lon="0.18573">
        <ele>71.3</ele>
        <time>2024-04-14T07:44:28Z</time>
      </trkpt>
      <trkpt lat="47.40313" lon="0.18566">
        <ele>71.6</ele>
        <time>2024-04-14T07:44:31Z</time>
      </trkpt>
      <trkpt lat="47.40352" lon="0.18555">
        <ele>72.3</ele>
        <time>2024-04-14T07:44:37Z</time>
      </trkpt>
      <trkpt lat="47.40385" lon="0.18548">
        <ele>73</ele>
        <time>2024-04-14T07:44:42Z</time>
      </trkpt>
      <trkpt lat="47.40398" lon="0.1854">
        <ele>73.3</ele>
        <time>2024-04-14T07:44:44Z</time>
      </trkpt>
      <trkpt lat="47.40419" lon="0.18517">
        <ele>73.9</ele>
        <time>2024-04-14T07:44:48Z</time>
      </trkpt>
      <trkpt lat="47.40424" lon="0.1851">
        <ele>74.1</ele>
        <time>2024-04-14T07:44:49Z</time>
      </trkpt>
      <trkpt lat="47.40428" lon="0.18503">
        <ele>74.2</ele>
        <time>2024-04-14T07:44:50Z</time>
      </trkpt>
      <trkpt lat="47.4047" lon="0.18439">
        <ele>75.7</ele>
        <time>2024-04-14T07:44:59Z</time>
      </trkpt>
      <trkpt lat="47.40475" lon="0.18433">
        <ele>75.9</ele>
        <time>2024-04-14T07:45:00Z</time>
      </trkpt>
      <trkpt lat="47.40486" lon="0.18422">
        <ele>76.2</ele>
        <time>2024-04-14T07:45:02Z</time>
      </trkpt>
      <trkpt lat="47.40497" lon="0.18411">
        <ele>76.6</ele>
        <time>2024-04-14T07:45:04Z</time>
      </trkpt>
      <trkpt lat="47.40513" lon="0.18394">
        <ele>77.2</ele>
        <time>2024-04-14T07:45:07Z</time>
      </trkpt>
      <trkpt lat="47.40556" lon="0.1835">
        <ele>78.6</ele>
        <time>2024-04-14T07:45:15Z</time>
      </trkpt>
      <trkpt lat="47.4059" lon="0.18322">
        <ele>79.9</ele>
        <time>2024-04-14T07:45:21Z</time>
      </trkpt>
      <trkpt lat="47.40596" lon="0.18318">
        <ele>80.1</ele>
        <time>2024-04-14T07:45:22Z</time>
      </trkpt>
      <trkpt lat="47.4062" lon="0.18308">
        <ele>81</ele>
        <time>2024-04-14T07:45:26Z</time>
      </trkpt>
      <trkpt lat="47.40644" lon="0.18295">
        <ele>81.7</ele>
        <time>2024-04-14T07:45:30Z</time>
      </trkpt>
      <trkpt lat="47.40649" lon="0.18291">
        <ele>81.9</ele>
        <time>2024-04-14T07:45:31Z</time>
      </trkpt>
      <trkpt lat="47.40655" lon="0.18285">
        <ele>82.1</ele>
        <time>2024-04-14T07:45:32Z</time>
      </trkpt>
      <trkpt lat="47.40676" lon="0.18265">
        <ele>82.5</ele>
        <time>2024-04-14T07:45:36Z</time>
      </trkpt>
      <trkpt lat="47.40699" lon="0.18246">
        <ele>82.6</ele>
        <time>2024-04-14T07:45:40Z</time>
      </trkpt>
      <trkpt lat="47.40728" lon="0.18222">
        <ele>82.7</ele>
        <time>2024-04-14T07:45:45Z</time>
      </trkpt>
      <trkpt lat="47.40777" lon="0.18186">
        <ele>82.7</ele>
        <time>2024-04-14T07:45:53Z</time>
      </trkpt>
      <trkpt lat="47.40783" lon="0.18182">
        <ele>82.7</ele>
        <time>2024-04-14T07:45:54Z</time>
      </trkpt>
      <trkpt lat="47.40833" lon="0.18146">
        <ele>82.8</ele>
        <time>2024-04-14T07:46:02Z</time>
      </trkpt>
      <trkpt lat="47.40852" lon="0.18133">
        <ele>82.7</ele>
        <time>2024-04-14T07:46:05Z</time>
      </trkpt>
      <trkpt lat="47.40903" lon="0.18097">
        <ele>82.1</ele>
        <time>2024-04-14T07:46:13Z</time>
      </trkpt>
      <trkpt lat="47.40917" lon="0.18087">
        <ele>81.9</ele>
        <time>2024-04-14T07:46:15Z</time>
      </trkpt>
      <trkpt lat="47.40952" lon="0.18058">
        <ele>81.4</ele>
        <time>2024-04-14T07:46:20Z</time>
      </trkpt>
      <trkpt lat="47.4098" lon="0.18038">
        <ele>81.3</ele>
        <time>2024-04-14T07:46:24Z</time>
      </trkpt>
      <trkpt lat="47.41025" lon="0.18016">
        <ele>81.5</ele>
        <time>2024-04-14T07:46:30Z</time>
      </trkpt>
      <trkpt lat="47.4107" lon="0.18004">
        <ele>81.8</ele>
        <time>2024-04-14T07:46:36Z</time>
      </trkpt>
      <trkpt lat="47.4113" lon="0.17998">
        <ele>82.3</ele>
        <time>2024-04-14T07:46:44Z</time>
      </trkpt>
      <trkpt lat="47.41144" lon="0.17997">
        <ele>82.4</ele>
        <time>2024-04-14T07:46:46Z</time>
      </trkpt>
      <trkpt lat="47.41196" lon="0.17996">
        <ele>83.1</ele>
        <time>2024-04-14T07:46:53Z</time>
      </trkpt>
      <trkpt lat="47.41252" lon="0.17997">
        <ele>83.7</ele>
        <time>2024-04-14T07:47:01Z</time>
      </trkpt>
      <trkpt lat="47.41259" lon="0.17996">
        <ele>83.8</ele>
        <time>2024-04-14T07:47:02Z</time>
      </trkpt>
      <trkpt lat="47.41316" lon="0.17998">
        <ele>84.1</ele>
        <time>2024-04-14T07:47:10Z</time>
      </trkpt>
      <trkpt lat="47.4133" lon="0.17999">
        <ele>84.1</ele>
        <time>2024-04-14T07:47:12Z</time>
      </trkpt>
      <trkpt lat="47.41337" lon="0.17999">
        <ele>84.1</ele>
        <time>2024-04-14T07:47:13Z</time>
      </trkpt>
      <trkpt lat="47.41395" lon="0.18006">
        <ele>84</ele>
        <time>2024-04-14T07:47:21Z</time>
      </trkpt>
      <trkpt lat="47.41402" lon="0.18006">
        <ele>83.9</ele>
        <time>2024-04-14T07:47:22Z</time>
      </trkpt>
      <trkpt lat="47.41453" lon="0.18019">
        <ele>83.7</ele>
        <time>2024-04-14T07:47:29Z</time>
      </trkpt>
      <trkpt lat="47.41504" lon="0.18039">
        <ele>83.4</ele>
        <time>2024-04-14T07:47:36Z</time>
      </trkpt>
      <trkpt lat="47.41542" lon="0.18047">
        <ele>83.4</ele>
        <time>2024-04-14T07:47:41Z</time>
      </trkpt>
      <trkpt lat="47.41557" lon="0.18052">
        <ele>83.4</ele>
        <time>2024-04-14T07:47:43Z</time>
      </trkpt>
      <trkpt lat="47.41606" lon="0.18076">
        <ele>83.6</ele>
        <time>2024-04-14T07:47:50Z</time>
      </trkpt>
      <trkpt lat="47.41613" lon="0.18079">
        <ele>83.6</ele>
        <time>2024-04-14T07:47:51Z</time>
      </trkpt>
      <trkpt lat="47.41627" lon="0.18077">
        <ele>83.7</ele>
        <time>2024-04-14T07:47:53Z</time>
      </trkpt>
      <trkpt lat="47.41644" lon="0.18058">
        <ele>83.6</ele>
        <time>2024-04-14T07:47:56Z</time>
      </trkpt>
      <trkpt lat="47.41654" lon="0.18042">
        <ele>83.5</ele>
        <time>2024-04-14T07:47:58Z</time>
      </trkpt>
      <trkpt lat="47.41679" lon="0.18">
        <ele>83.3</ele>
        <time>2024-04-14T07:48:03Z</time>
      </trkpt>
      <trkpt lat="47.41714" lon="0.17938">
        <ele>82.6</ele>
        <time>2024-04-14T07:48:10Z</time>
      </trkpt>
      <trkpt lat="47.41718" lon="0.17928">
        <ele>82.5</ele>
        <time>2024-04-14T07:48:11Z</time>
      </trkpt>
      <trkpt lat="47.41739" lon="0.17876">
        <ele>81.8</ele>
        <time>2024-04-14T07:48:16Z</time>
      </trkpt>
      <trkpt lat="47.41753" lon="0.17844">
        <ele>81.3</ele>
        <time>2024-04-14T07:48:19Z</time>
      </trkpt>
      <trkpt lat="47.41775" lon="0.1779">
        <ele>80.3</ele>
        <time>2024-04-14T07:48:24Z</time>
      </trkpt>
      <trkpt lat="47.41784" lon="0.17768">
        <ele>79.8</ele>
        <time>2024-04-14T07:48:26Z</time>
      </trkpt>
      <trkpt lat="47.41794" lon="0.17745">
        <ele>79.4</ele>
        <time>2024-04-14T07:48:28Z</time>
      </trkpt>
      <trkpt lat="47.41808" lon="0.17712">
        <ele>78.9</ele>
        <time>2024-04-14T07:48:31Z</time>
      </trkpt>
      <trkpt lat="47.41822" lon="0.17678">
        <ele>78.7</ele>
        <time>2024-04-14T07:48:34Z</time>
      </trkpt>
      <trkpt lat="47.41831" lon="0.17655">
        <ele>78.5</ele>
        <time>2024-04-14T07:48:36Z</time>
      </trkpt>
      <trkpt lat="47.41835" lon="0.17644">
        <ele>78.3</ele>
        <time>2024-04-14T07:48:37Z</time>
      </trkpt>
      <trkpt lat="47.41863" lon="0.17578">
        <ele>77.9</ele>
        <time>2024-04-14T07:48:43Z</time>
      </trkpt>
      <trkpt lat="47.41885" lon="0.17524">
        <ele>77.5</ele>
        <time>2024-04-14T07:48:48Z</time>
      </trkpt>
      <trkpt lat="47.41904" lon="0.1748">
        <ele>77.4</ele>
        <time>2024-04-14T07:48:52Z</time>
      </trkpt>
      <trkpt lat="47.41934" lon="0.17404">
        <ele>77.7</ele>
        <time>2024-04-14T07:48:59Z</time>
      </trkpt>
      <trkpt lat="47.41943" lon="0.17383">
        <ele>78</ele>
        <time>2024-04-14T07:49:01Z</time>
      </trkpt>
      <trkpt lat="47.41973" lon="0.17311">
        <ele>79</ele>
        <time>2024-04-14T07:49:08Z</time>
      </trkpt>
      <trkpt lat="47.41981" lon="0.17292">
        <ele>79.3</ele>
        <time>2024-04-14T07:49:10Z</time>
      </trkpt>
      <trkpt lat="47.42005" lon="0.17234">
        <ele>79.7</ele>
        <time>2024-04-14T07:49:16Z</time>
      </trkpt>
      <trkpt lat="47.42021" lon="0.17195">
        <ele>79.5</ele>
        <time>2024-04-14T07:49:20Z</time>
      </trkpt>
      <trkpt lat="47.42051" lon="0.17125">
        <ele>78.4</ele>
        <time>2024-04-14T07:49:27Z</time>
      </trkpt>
      <trkpt lat="47.42055" lon="0.17114">
        <ele>78.3</ele>
        <time>2024-04-14T07:49:28Z</time>
      </trkpt>
      <trkpt lat="47.42086" lon="0.17039">
        <ele>77.9</ele>
        <time>2024-04-14T07:49:35Z</time>
      </trkpt>
      <trkpt lat="47.42091" lon="0.17029">
        <ele>77.8</ele>
        <time>2024-04-14T07:49:36Z</time>
      </trkpt>
      <trkpt lat="47.42103" lon="0.1701">
        <ele>77.6</ele>
        <time>2024-04-14T07:49:38Z</time>
      </trkpt>
      <trkpt lat="47.42117" lon="0.16994">
        <ele>77.3</ele>
        <time>2024-04-14T07:49:40Z</time>
      </trkpt>
      <trkpt lat="47.4214" lon="0.16976">
        <ele>76.8</ele>
        <time>2024-04-14T07:49:43Z</time>
      </trkpt>
      <trkpt lat="47.42148" lon="0.16971">
        <ele>76.7</ele>
        <time>2024-04-14T07:49:44Z</time>
      </trkpt>
      <trkpt lat="47.42156" lon="0.16967">
        <ele>76.5</ele>
        <time>2024-04-14T07:49:45Z</time>
      </trkpt>
      <trkpt lat="47.42189" lon="0.1695">
        <ele>75.9</ele>
        <time>2024-04-14T07:49:49Z</time>
      </trkpt>
      <trkpt lat="47.42214" lon="0.16936">
        <ele>75.7</ele>
        <time>2024-04-14T07:49:52Z</time>
      </trkpt>
      <trkpt lat="47.42268" lon="0.16904">
        <ele>75.8</ele>
        <time>2024-04-14T07:49:59Z</time>
      </trkpt>
      <trkpt lat="47.42276" lon="0.16899">
        <ele>75.9</ele>
        <time>2024-04-14T07:50:00Z</time>
      </trkpt>
      <trkpt lat="47.42309" lon="0.16867">
        <ele>76.5</ele>
        <time>2024-04-14T07:50:05Z</time>
      </trkpt>
      <trkpt lat="47.42335" lon="0.16825">
        <ele>77.5</ele>
        <time>2024-04-14T07:50:10Z</time>
      </trkpt>
      <trkpt lat="47.42372" lon="0.16757">
        <ele>78.7</ele>
        <time>2024-04-14T07:50:18Z</time>
      </trkpt>
      <trkpt lat="47.42376" lon="0.16749">
        <ele>78.9</ele>
        <time>2024-04-14T07:50:19Z</time>
      </trkpt>
      <trkpt lat="47.42389" lon="0.16724">
        <ele>79.1</ele>
        <time>2024-04-14T07:50:22Z</time>
      </trkpt>
      <trkpt lat="47.42418" lon="0.16675">
        <ele>79.3</ele>
        <time>2024-04-14T07:50:28Z</time>
      </trkpt>
      <trkpt lat="47.42447" lon="0.16623">
        <ele>79.1</ele>
        <time>2024-04-14T07:50:34Z</time>
      </trkpt>
      <trkpt lat="47.42459" lon="0.16608">
        <ele>78.9</ele>
        <time>2024-04-14T07:50:36Z</time>
      </trkpt>
      <trkpt lat="47.42493" lon="0.16576">
        <ele>78.5</ele>
        <time>2024-04-14T07:50:41Z</time>
      </trkpt>
      <trkpt lat="47.425" lon="0.16571">
        <ele>78.4</ele>
        <time>2024-04-14T07:50:42Z</time>
      </trkpt>
      <trkpt lat="47.4253" lon="0.16558">
        <ele>78.2</ele>
        <time>2024-04-14T07:50:46Z</time>
      </trkpt>
      <trkpt lat="47.42576" lon="0.16552">
        <ele>78.4</ele>
        <time>2024-04-14T07:50:52Z</time>
      </trkpt>
      <trkpt lat="47.42636" lon="0.16547">
        <ele>79.4</ele>
        <time>2024-04-14T07:51:00Z</time>
      </trkpt>
      <trkpt lat="47.42643" lon="0.16547">
        <ele>79.5</ele>
        <time>2024-04-14T07:51:01Z</time>
      </trkpt>
      <trkpt lat="47.42699" lon="0.16539">
        <ele>80.7</ele>
        <time>2024-04-14T07:51:09Z</time>
      </trkpt>
      <trkpt lat="47.42705" lon="0.16538">
        <ele>80.8</ele>
        <time>2024-04-14T07:51:10Z</time>
      </trkpt>
      <trkpt lat="47.42745" lon="0.16527">
        <ele>81.6</ele>
        <time>2024-04-14T07:51:16Z</time>
      </trkpt>
      <trkpt lat="47.42803" lon="0.16505">
        <ele>82.8</ele>
        <time>2024-04-14T07:51:25Z</time>
      </trkpt>
      <trkpt lat="47.42822" lon="0.16497">
        <ele>83.2</ele>
        <time>2024-04-14T07:51:28Z</time>
      </trkpt>
      <trkpt lat="47.42851" lon="0.16485">
        <ele>83.9</ele>
        <time>2024-04-14T07:51:33Z</time>
      </trkpt>
      <trkpt lat="47.42895" lon="0.16466">
        <ele>84.9</ele>
        <time>2024-04-14T07:51:40Z</time>
      </trkpt>
      <trkpt lat="47.42914" lon="0.16457">
        <ele>85.3</ele>
        <time>2024-04-14T07:51:43Z</time>
      </trkpt>
      <trkpt lat="47.4292" lon="0.16453">
        <ele>85.5</ele>
        <time>2024-04-14T07:51:44Z</time>
      </trkpt>
      <trkpt lat="47.42961" lon="0.16425">
        <ele>86.6</ele>
        <time>2024-04-14T07:51:51Z</time>
      </trkpt>
      <trkpt lat="47.42967" lon="0.16421">
        <ele>86.8</ele>
        <time>2024-04-14T07:51:52Z</time>
      </trkpt>
      <trkpt lat="47.43008" lon="0.16389">
        <ele>87.7</ele>
        <time>2024-04-14T07:51:59Z</time>
      </trkpt>
      <trkpt lat="47.43026" lon="0.16374">
        <ele>88.3</ele>
        <time>2024-04-14T07:52:02Z</time>
      </trkpt>
      <trkpt lat="47.43066" lon="0.16341">
        <ele>89.5</ele>
        <time>2024-04-14T07:52:09Z</time>
      </trkpt>
      <trkpt lat="47.43072" lon="0.16335">
        <ele>89.8</ele>
        <time>2024-04-14T07:52:10Z</time>
      </trkpt>
      <trkpt lat="47.43093" lon="0.16312">
        <ele>90.3</ele>
        <time>2024-04-14T07:52:14Z</time>
      </trkpt>
      <trkpt lat="47.43112" lon="0.16285">
        <ele>90.8</ele>
        <time>2024-04-14T07:52:18Z</time>
      </trkpt>
      <trkpt lat="47.43121" lon="0.1627">
        <ele>91</ele>
        <time>2024-04-14T07:52:20Z</time>
      </trkpt>
      <trkpt lat="47.43154" lon="0.16219">
        <ele>91.6</ele>
        <time>2024-04-14T07:52:27Z</time>
      </trkpt>
      <trkpt lat="47.43191" lon="0.16162">
        <ele>91.6</ele>
        <time>2024-04-14T07:52:35Z</time>
      </trkpt>
      <trkpt lat="47.43224" lon="0.16122">
        <ele>90.9</ele>
        <time>2024-04-14T07:52:41Z</time>
      </trkpt>
      <trkpt lat="47.43237" lon="0.1611">
        <ele>90.5</ele>
        <time>2024-04-14T07:52:43Z</time>
      </trkpt>
      <trkpt lat="47.43274" lon="0.16079">
        <ele>89.1</ele>
        <time>2024-04-14T07:52:49Z</time>
      </trkpt>
      <trkpt lat="47.43281" lon="0.16074">
        <ele>88.9</ele>
        <time>2024-04-14T07:52:50Z</time>
      </trkpt>
      <trkpt lat="47.43302" lon="0.16057">
        <ele>88.1</ele>
        <time>2024-04-14T07:52:53Z</time>
      </trkpt>
      <trkpt lat="47.43323" lon="0.16041">
        <ele>87.3</ele>
        <time>2024-04-14T07:52:57Z</time>
      </trkpt>
      <trkpt lat="47.43337" lon="0.16031">
        <ele>86.8</ele>
        <time>2024-04-14T07:52:59Z</time>
      </trkpt>
      <trkpt lat="47.43352" lon="0.16023">
        <ele>86.5</ele>
        <time>2024-04-14T07:53:01Z</time>
      </trkpt>
      <trkpt lat="47.43367" lon="0.16017">
        <ele>86.2</ele>
        <time>2024-04-14T07:53:03Z</time>
      </trkpt>
      <trkpt lat="47.43382" lon="0.16014">
        <ele>85.9</ele>
        <time>2024-04-14T07:53:05Z</time>
      </trkpt>
      <trkpt lat="47.43414" lon="0.16012">
        <ele>85.6</ele>
        <time>2024-04-14T07:53:09Z</time>
      </trkpt>
      <trkpt lat="47.4343" lon="0.16015">
        <ele>85.4</ele>
        <time>2024-04-14T07:53:11Z</time>
      </trkpt>
      <trkpt lat="47.43461" lon="0.16023">
        <ele>85.3</ele>
        <time>2024-04-14T07:53:15Z</time>
      </trkpt>
      <trkpt lat="47.43512" lon="0.16032">
        <ele>84.9</ele>
        <time>2024-04-14T07:53:22Z</time>
      </trkpt>
      <trkpt lat="47.43552" lon="0.16037">
        <ele>84.1</ele>
        <time>2024-04-14T07:53:28Z</time>
      </trkpt>
      <trkpt lat="47.43579" lon="0.16033">
        <ele>83.4</ele>
        <time>2024-04-14T07:53:32Z</time>
      </trkpt>
      <trkpt lat="47.43594" lon="0.16029">
        <ele>83</ele>
        <time>2024-04-14T07:53:34Z</time>
      </trkpt>
      <trkpt lat="47.4362" lon="0.16008">
        <ele>82.2</ele>
        <time>2024-04-14T07:53:38Z</time>
      </trkpt>
      <trkpt lat="47.43626" lon="0.16002">
        <ele>81.9</ele>
        <time>2024-04-14T07:53:39Z</time>
      </trkpt>
      <trkpt lat="47.43651" lon="0.15976">
        <ele>81.1</ele>
        <time>2024-04-14T07:53:43Z</time>
      </trkpt>
      <trkpt lat="47.43668" lon="0.1596">
        <ele>80.6</ele>
        <time>2024-04-14T07:53:46Z</time>
      </trkpt>
      <trkpt lat="47.43672" lon="0.15956">
        <ele>80.5</ele>
        <time>2024-04-14T07:53:47Z</time>
      </trkpt>
      <trkpt lat="47.43675" lon="0.15951">
        <ele>80.4</ele>
        <time>2024-04-14T07:53:48Z</time>
      </trkpt>
      <trkpt lat="47.43678" lon="0.15944">
        <ele>80.2</ele>
        <time>2024-04-14T07:53:50Z</time>
      </trkpt>
      <trkpt lat="47.4368" lon="0.15938">
        <ele>80.1</ele>
        <time>2024-04-14T07:53:52Z</time>
      </trkpt>
      <trkpt lat="47.43683" lon="0.15927">
        <ele>79.8</ele>
        <time>2024-04-14T07:53:56Z</time>
      </trkpt>
      <trkpt lat="47.43689" lon="0.15911">
        <ele>79.3</ele>
        <time>2024-04-14T07:54:00Z</time>
      </trkpt>
      <trkpt lat="47.4369" lon="0.15904">
        <ele>79.2</ele>
        <time>2024-04-14T07:54:01Z</time>
      </trkpt>
      <trkpt lat="47.43687" lon="0.1589">
        <ele>79</ele>
        <time>2024-04-14T07:54:03Z</time>
      </trkpt>
      <trkpt lat="47.43681" lon="0.15875">
        <ele>78.9</ele>
        <time>2024-04-14T07:54:05Z</time>
      </trkpt>
      <trkpt lat="47.43674" lon="0.15853">
        <ele>78.8</ele>
        <time>2024-04-14T07:54:08Z</time>
      </trkpt>
      <trkpt lat="47.43662" lon="0.15815">
        <ele>78.8</ele>
        <time>2024-04-14T07:54:14Z</time>
      </trkpt>
      <trkpt lat="47.43658" lon="0.15804">
        <ele>78.8</ele>
        <time>2024-04-14T07:54:16Z</time>
      </trkpt>
      <trkpt lat="47.43639" lon="0.1576">
        <ele>78.9</ele>
        <time>2024-04-14T07:54:23Z</time>
      </trkpt>
      <trkpt lat="47.43616" lon="0.1571">
        <ele>78.7</ele>
        <time>2024-04-14T07:54:31Z</time>
      </trkpt>
      <trkpt lat="47.43609" lon="0.15687">
        <ele>78.4</ele>
        <time>2024-04-14T07:54:34Z</time>
      </trkpt>
      <trkpt lat="47.43606" lon="0.15669">
        <ele>78.1</ele>
        <time>2024-04-14T07:54:36Z</time>
      </trkpt>
      <trkpt lat="47.43595" lon="0.15598">
        <ele>76.9</ele>
        <time>2024-04-14T07:54:43Z</time>
      </trkpt>
      <trkpt lat="47.43589" lon="0.15558">
        <ele>76</ele>
        <time>2024-04-14T07:54:47Z</time>
      </trkpt>
      <trkpt lat="47.43591" lon="0.15548">
        <ele>75.6</ele>
        <time>2024-04-14T07:54:48Z</time>
      </trkpt>
      <trkpt lat="47.43593" lon="0.15538">
        <ele>75.3</ele>
        <time>2024-04-14T07:54:49Z</time>
      </trkpt>
      <trkpt lat="47.43591" lon="0.15505">
        <ele>75.1</ele>
        <time>2024-04-14T07:54:52Z</time>
      </trkpt>
      <trkpt lat="47.4359" lon="0.15493">
        <ele>74.9</ele>
        <time>2024-04-14T07:54:53Z</time>
      </trkpt>
      <trkpt lat="47.4359" lon="0.15481">
        <ele>74.6</ele>
        <time>2024-04-14T07:54:54Z</time>
      </trkpt>
      <trkpt lat="47.43595" lon="0.15457">
        <ele>74.2</ele>
        <time>2024-04-14T07:54:56Z</time>
      </trkpt>
      <trkpt lat="47.43605" lon="0.15422">
        <ele>73.4</ele>
        <time>2024-04-14T07:54:59Z</time>
      </trkpt>
      <trkpt lat="47.43618" lon="0.15373">
        <ele>72.7</ele>
        <time>2024-04-14T07:55:03Z</time>
      </trkpt>
      <trkpt lat="47.43625" lon="0.15348">
        <ele>72.3</ele>
        <time>2024-04-14T07:55:05Z</time>
      </trkpt>
      <trkpt lat="47.43635" lon="0.15284">
        <ele>71.7</ele>
        <time>2024-04-14T07:55:10Z</time>
      </trkpt>
      <trkpt lat="47.43636" lon="0.15271">
        <ele>71.7</ele>
        <time>2024-04-14T07:55:11Z</time>
      </trkpt>
      <trkpt lat="47.43635" lon="0.15194">
        <ele>71.4</ele>
        <time>2024-04-14T07:55:17Z</time>
      </trkpt>
      <trkpt lat="47.43623" lon="0.15122">
        <ele>71.2</ele>
        <time>2024-04-14T07:55:23Z</time>
      </trkpt>
      <trkpt lat="47.43603" lon="0.15037">
        <ele>70.9</ele>
        <time>2024-04-14T07:55:30Z</time>
      </trkpt>
      <trkpt lat="47.43596" lon="0.14999">
        <ele>70.9</ele>
        <time>2024-04-14T07:55:33Z</time>
      </trkpt>
      <trkpt lat="47.43597" lon="0.14972">
        <ele>70.8</ele>
        <time>2024-04-14T07:55:35Z</time>
      </trkpt>
      <trkpt lat="47.43602" lon="0.14935">
        <ele>70.7</ele>
        <time>2024-04-14T07:55:38Z</time>
      </trkpt>
      <trkpt lat="47.43604" lon="0.14922">
        <ele>70.6</ele>
        <time>2024-04-14T07:55:39Z</time>
      </trkpt>
      <trkpt lat="47.43605" lon="0.14909">
        <ele>70.6</ele>
        <time>2024-04-14T07:55:40Z</time>
      </trkpt>
      <trkpt lat="47.436" lon="0.14872">
        <ele>70.6</ele>
        <time>2024-04-14T07:55:43Z</time>
      </trkpt>
      <trkpt lat="47.43588" lon="0.14837">
        <ele>70.5</ele>
        <time>2024-04-14T07:55:46Z</time>
      </trkpt>
      <trkpt lat="47.43584" lon="0.14826">
        <ele>70.5</ele>
        <time>2024-04-14T07:55:47Z</time>
      </trkpt>
      <trkpt lat="47.43552" lon="0.14763">
        <ele>70.4</ele>
        <time>2024-04-14T07:55:53Z</time>
      </trkpt>
      <trkpt lat="47.43513" lon="0.14706">
        <ele>70.1</ele>
        <time>2024-04-14T07:55:59Z</time>
      </trkpt>
      <trkpt lat="47.43506" lon="0.14696">
        <ele>70</ele>
        <time>2024-04-14T07:56:00Z</time>
      </trkpt>
      <trkpt lat="47.43465" lon="0.14639">
        <ele>69.4</ele>
        <time>2024-04-14T07:56:06Z</time>
      </trkpt>
      <trkpt lat="47.43439" lon="0.14598">
        <ele>69.1</ele>
        <time>2024-04-14T07:56:10Z</time>
      </trkpt>
      <trkpt lat="47.43424" lon="0.14563">
        <ele>69</ele>
        <time>2024-04-14T07:56:13Z</time>
      </trkpt>
      <trkpt lat="47.43416" lon="0.14538">
        <ele>69</ele>
        <time>2024-04-14T07:56:15Z</time>
      </trkpt>
      <trkpt lat="47.43406" lon="0.14472">
        <ele>69.3</ele>
        <time>2024-04-14T07:56:20Z</time>
      </trkpt>
      <trkpt lat="47.43404" lon="0.14409">
        <ele>70.2</ele>
        <time>2024-04-14T07:56:25Z</time>
      </trkpt>
      <trkpt lat="47.43406" lon="0.1436">
        <ele>70.7</ele>
        <time>2024-04-14T07:56:29Z</time>
      </trkpt>
      <trkpt lat="47.43405" lon="0.14288">
        <ele>71.3</ele>
        <time>2024-04-14T07:56:35Z</time>
      </trkpt>
      <trkpt lat="47.43401" lon="0.14239">
        <ele>71.4</ele>
        <time>2024-04-14T07:56:39Z</time>
      </trkpt>
      <trkpt lat="47.43396" lon="0.14191">
        <ele>71.4</ele>
        <time>2024-04-14T07:56:43Z</time>
      </trkpt>
      <trkpt lat="47.43393" lon="0.14167">
        <ele>71.3</ele>
        <time>2024-04-14T07:56:45Z</time>
      </trkpt>
      <trkpt lat="47.43384" lon="0.14079">
        <ele>70.8</ele>
        <time>2024-04-14T07:56:52Z</time>
      </trkpt>
      <trkpt lat="47.43381" lon="0.14054">
        <ele>70.6</ele>
        <time>2024-04-14T07:56:54Z</time>
      </trkpt>
      <trkpt lat="47.43363" lon="0.13979">
        <ele>69.6</ele>
        <time>2024-04-14T07:57:00Z</time>
      </trkpt>
      <trkpt lat="47.4335" lon="0.13928">
        <ele>69.2</ele>
        <time>2024-04-14T07:57:04Z</time>
      </trkpt>
      <trkpt lat="47.43345" lon="0.13901">
        <ele>68.9</ele>
        <time>2024-04-14T07:57:06Z</time>
      </trkpt>
      <trkpt lat="47.43344" lon="0.13888">
        <ele>68.8</ele>
        <time>2024-04-14T07:57:07Z</time>
      </trkpt>
      <trkpt lat="47.43344" lon="0.13833">
        <ele>68.7</ele>
        <time>2024-04-14T07:57:11Z</time>
      </trkpt>
      <trkpt lat="47.43353" lon="0.13753">
        <ele>68.8</ele>
        <time>2024-04-14T07:57:17Z</time>
      </trkpt>
      <trkpt lat="47.43355" lon="0.13741">
        <ele>68.8</ele>
        <time>2024-04-14T07:57:18Z</time>
      </trkpt>
      <trkpt lat="47.43363" lon="0.1365">
        <ele>68.7</ele>
        <time>2024-04-14T07:57:25Z</time>
      </trkpt>
      <trkpt lat="47.43363" lon="0.13569">
        <ele>68</ele>
        <time>2024-04-14T07:57:31Z</time>
      </trkpt>
      <trkpt lat="47.43359" lon="0.13487">
        <ele>67</ele>
        <time>2024-04-14T07:57:37Z</time>
      </trkpt>
      <trkpt lat="47.43357" lon="0.13458">
        <ele>66.7</ele>
        <time>2024-04-14T07:57:39Z</time>
      </trkpt>
      <trkpt lat="47.43355" lon="0.13431">
        <ele>66.5</ele>
        <time>2024-04-14T07:57:41Z</time>
      </trkpt>
      <trkpt lat="47.43349" lon="0.13349">
        <ele>66.5</ele>
        <time>2024-04-14T07:57:47Z</time>
      </trkpt>
      <trkpt lat="47.43338" lon="0.13285">
        <ele>66.8</ele>
        <time>2024-04-14T07:57:52Z</time>
      </trkpt>
      <trkpt lat="47.43319" lon="0.13225">
        <ele>66.7</ele>
        <time>2024-04-14T07:57:57Z</time>
      </trkpt>
      <trkpt lat="47.433" lon="0.1315">
        <ele>66.3</ele>
        <time>2024-04-14T07:58:03Z</time>
      </trkpt>
      <trkpt lat="47.43297" lon="0.13137">
        <ele>66.3</ele>
        <time>2024-04-14T07:58:04Z</time>
      </trkpt>
      <trkpt lat="47.4329" lon="0.13112">
        <ele>66.2</ele>
        <time>2024-04-14T07:58:06Z</time>
      </trkpt>
      <trkpt lat="47.43272" lon="0.13066">
        <ele>65.9</ele>
        <time>2024-04-14T07:58:10Z</time>
      </trkpt>
      <trkpt lat="47.43237" lon="0.13001">
        <ele>65.5</ele>
        <time>2024-04-14T07:58:16Z</time>
      </trkpt>
      <trkpt lat="47.43231" lon="0.1299">
        <ele>65.5</ele>
        <time>2024-04-14T07:58:17Z</time>
      </trkpt>
      <trkpt lat="47.43194" lon="0.1293">
        <ele>65.4</ele>
        <time>2024-04-14T07:58:23Z</time>
      </trkpt>
      <trkpt lat="47.43186" lon="0.12922">
        <ele>65.3</ele>
        <time>2024-04-14T07:58:24Z</time>
      </trkpt>
      <trkpt lat="47.43151" lon="0.129">
        <ele>65.2</ele>
        <time>2024-04-14T07:58:28Z</time>
      </trkpt>
      <trkpt lat="47.43097" lon="0.12873">
        <ele>64.6</ele>
        <time>2024-04-14T07:58:34Z</time>
      </trkpt>
      <trkpt lat="47.43088" lon="0.12867">
        <ele>64.6</ele>
        <time>2024-04-14T07:58:35Z</time>
      </trkpt>
      <trkpt lat="47.43036" lon="0.12833">
        <ele>63.8</ele>
        <time>2024-04-14T07:58:41Z</time>
      </trkpt>
      <trkpt lat="47.43027" lon="0.12828">
        <ele>63.6</ele>
        <time>2024-04-14T07:58:42Z</time>
      </trkpt>
      <trkpt lat="47.42999" lon="0.12813">
        <ele>63</ele>
        <time>2024-04-14T07:58:45Z</time>
      </trkpt>
      <trkpt lat="47.42942" lon="0.12783">
        <ele>61.6</ele>
        <time>2024-04-14T07:58:51Z</time>
      </trkpt>
      <trkpt lat="47.42933" lon="0.12778">
        <ele>61.4</ele>
        <time>2024-04-14T07:58:52Z</time>
      </trkpt>
      <trkpt lat="47.42873" lon="0.12747">
        <ele>60.5</ele>
        <time>2024-04-14T07:58:58Z</time>
      </trkpt>
      <trkpt lat="47.42864" lon="0.12742">
        <ele>60.5</ele>
        <time>2024-04-14T07:58:59Z</time>
      </trkpt>
      <trkpt lat="47.42835" lon="0.12727">
        <ele>60.5</ele>
        <time>2024-04-14T07:59:02Z</time>
      </trkpt>
      <trkpt lat="47.42779" lon="0.12698">
        <ele>61.5</ele>
        <time>2024-04-14T07:59:08Z</time>
      </trkpt>
      <trkpt lat="47.42754" lon="0.12685">
        <ele>61.9</ele>
        <time>2024-04-14T07:59:11Z</time>
      </trkpt>
      <trkpt lat="47.4273" lon="0.12673">
        <ele>62.7</ele>
        <time>2024-04-14T07:59:14Z</time>
      </trkpt>
      <trkpt lat="47.42722" lon="0.12669">
        <ele>63.1</ele>
        <time>2024-04-14T07:59:15Z</time>
      </trkpt>
      <trkpt lat="47.42699" lon="0.12657">
        <ele>63.9</ele>
        <time>2024-04-14T07:59:18Z</time>
      </trkpt>
      <trkpt lat="47.42669" lon="0.1264">
        <ele>65.2</ele>
        <time>2024-04-14T07:59:22Z</time>
      </trkpt>
      <trkpt lat="47.42662" lon="0.12636">
        <ele>65.4</ele>
        <time>2024-04-14T07:59:23Z</time>
      </trkpt>
      <trkpt lat="47.42632" lon="0.12619">
        <ele>66.4</ele>
        <time>2024-04-14T07:59:27Z</time>
      </trkpt>
      <trkpt lat="47.42596" lon="0.12596">
        <ele>67.2</ele>
        <time>2024-04-14T07:59:32Z</time>
      </trkpt>
      <trkpt lat="47.42543" lon="0.1256">
        <ele>67.5</ele>
        <time>2024-04-14T07:59:39Z</time>
      </trkpt>
      <trkpt lat="47.42528" lon="0.12551">
        <ele>67.4</ele>
        <time>2024-04-14T07:59:41Z</time>
      </trkpt>
      <trkpt lat="47.42474" lon="0.12511">
        <ele>66.7</ele>
        <time>2024-04-14T07:59:48Z</time>
      </trkpt>
      <trkpt lat="47.42467" lon="0.12505">
        <ele>66.5</ele>
        <time>2024-04-14T07:59:49Z</time>
      </trkpt>
      <trkpt lat="47.42416" lon="0.12469">
        <ele>64.3</ele>
        <time>2024-04-14T07:59:55Z</time>
      </trkpt>
      <trkpt lat="47.42407" lon="0.12463">
        <ele>63.8</ele>
        <time>2024-04-14T07:59:56Z</time>
      </trkpt>
      <trkpt lat="47.42389" lon="0.1245">
        <ele>62.9</ele>
        <time>2024-04-14T07:59:58Z</time>
      </trkpt>
      <trkpt lat="47.42351" lon="0.12424">
        <ele>61.2</ele>
        <time>2024-04-14T08:00:02Z</time>
      </trkpt>
      <trkpt lat="47.42342" lon="0.12417">
        <ele>60.7</ele>
        <time>2024-04-14T08:00:03Z</time>
      </trkpt>
      <trkpt lat="47.42332" lon="0.1241">
        <ele>60.2</ele>
        <time>2024-04-14T08:00:04Z</time>
      </trkpt>
      <trkpt lat="47.42312" lon="0.12398">
        <ele>59.2</ele>
        <time>2024-04-14T08:00:06Z</time>
      </trkpt>
      <trkpt lat="47.42292" lon="0.12387">
        <ele>58.7</ele>
        <time>2024-04-14T08:00:08Z</time>
      </trkpt>
      <trkpt lat="47.42271" lon="0.12376">
        <ele>58.4</ele>
        <time>2024-04-14T08:00:10Z</time>
      </trkpt>
      <trkpt lat="47.42261" lon="0.12371">
        <ele>58.2</ele>
        <time>2024-04-14T08:00:11Z</time>
      </trkpt>
      <trkpt lat="47.42199" lon="0.12342">
        <ele>57.3</ele>
        <time>2024-04-14T08:00:17Z</time>
      </trkpt>
      <trkpt lat="47.42189" lon="0.12337">
        <ele>57.2</ele>
        <time>2024-04-14T08:00:18Z</time>
      </trkpt>
      <trkpt lat="47.4213" lon="0.12308">
        <ele>57.1</ele>
        <time>2024-04-14T08:00:24Z</time>
      </trkpt>
      <trkpt lat="47.42102" lon="0.12292">
        <ele>57.1</ele>
        <time>2024-04-14T08:00:27Z</time>
      </trkpt>
      <trkpt lat="47.4205" lon="0.12254">
        <ele>57.2</ele>
        <time>2024-04-14T08:00:33Z</time>
      </trkpt>
      <trkpt lat="47.42042" lon="0.12247">
        <ele>57.2</ele>
        <time>2024-04-14T08:00:34Z</time>
      </trkpt>
      <trkpt lat="47.41992" lon="0.12203">
        <ele>56.8</ele>
        <time>2024-04-14T08:00:40Z</time>
      </trkpt>
      <trkpt lat="47.41968" lon="0.12181">
        <ele>56.8</ele>
        <time>2024-04-14T08:00:43Z</time>
      </trkpt>
      <trkpt lat="47.41919" lon="0.12137">
        <ele>56.9</ele>
        <time>2024-04-14T08:00:49Z</time>
      </trkpt>
      <trkpt lat="47.41896" lon="0.12115">
        <ele>57.1</ele>
        <time>2024-04-14T08:00:52Z</time>
      </trkpt>
      <trkpt lat="47.41849" lon="0.12072">
        <ele>57.4</ele>
        <time>2024-04-14T08:00:58Z</time>
      </trkpt>
      <trkpt lat="47.41841" lon="0.12064">
        <ele>57.3</ele>
        <time>2024-04-14T08:00:59Z</time>
      </trkpt>
      <trkpt lat="47.41793" lon="0.1202">
        <ele>57</ele>
        <time>2024-04-14T08:01:05Z</time>
      </trkpt>
      <trkpt lat="47.41745" lon="0.11976">
        <ele>57.1</ele>
        <time>2024-04-14T08:01:11Z</time>
      </trkpt>
      <trkpt lat="47.41699" lon="0.11933">
        <ele>57.2</ele>
        <time>2024-04-14T08:01:17Z</time>
      </trkpt>
      <trkpt lat="47.41692" lon="0.11925">
        <ele>57.3</ele>
        <time>2024-04-14T08:01:18Z</time>
      </trkpt>
      <trkpt lat="47.41653" lon="0.11873">
        <ele>57.5</ele>
        <time>2024-04-14T08:01:24Z</time>
      </trkpt>
      <trkpt lat="47.41611" lon="0.11807">
        <ele>57.8</ele>
        <time>2024-04-14T08:01:31Z</time>
      </trkpt>
      <trkpt lat="47.41575" lon="0.1175">
        <ele>58.2</ele>
        <time>2024-04-14T08:01:37Z</time>
      </trkpt>
      <trkpt lat="47.41535" lon="0.11685">
        <ele>58.6</ele>
        <time>2024-04-14T08:01:44Z</time>
      </trkpt>
      <trkpt lat="47.41496" lon="0.1162">
        <ele>58.1</ele>
        <time>2024-04-14T08:01:51Z</time>
      </trkpt>
      <trkpt lat="47.41455" lon="0.11552">
        <ele>56</ele>
        <time>2024-04-14T08:01:58Z</time>
      </trkpt>
      <trkpt lat="47.41437" lon="0.11522">
        <ele>55.5</ele>
        <time>2024-04-14T08:02:01Z</time>
      </trkpt>
      <trkpt lat="47.41409" lon="0.11488">
        <ele>54.9</ele>
        <time>2024-04-14T08:02:05Z</time>
      </trkpt>
      <trkpt lat="47.41384" lon="0.1147">
        <ele>54.6</ele>
        <time>2024-04-14T08:02:08Z</time>
      </trkpt>
      <trkpt lat="47.41375" lon="0.11466">
        <ele>54.4</ele>
        <time>2024-04-14T08:02:09Z</time>
      </trkpt>
      <trkpt lat="47.41339" lon="0.11456">
        <ele>54.1</ele>
        <time>2024-04-14T08:02:13Z</time>
      </trkpt>
      <trkpt lat="47.41329" lon="0.11456">
        <ele>53.9</ele>
        <time>2024-04-14T08:02:14Z</time>
      </trkpt>
      <trkpt lat="47.41282" lon="0.11454">
        <ele>54</ele>
        <time>2024-04-14T08:02:19Z</time>
      </trkpt>
      <trkpt lat="47.41232" lon="0.11453">
        <ele>55.3</ele>
        <time>2024-04-14T08:02:25Z</time>
      </trkpt>
      <trkpt lat="47.41195" lon="0.11452">
        <ele>56.2</ele>
        <time>2024-04-14T08:02:30Z</time>
      </trkpt>
      <trkpt lat="47.4118" lon="0.11452">
        <ele>56.4</ele>
        <time>2024-04-14T08:02:32Z</time>
      </trkpt>
      <trkpt lat="47.41166" lon="0.11452">
        <ele>56.6</ele>
        <time>2024-04-14T08:02:34Z</time>
      </trkpt>
      <trkpt lat="47.41119" lon="0.1145">
        <ele>56.3</ele>
        <time>2024-04-14T08:02:40Z</time>
      </trkpt>
      <trkpt lat="47.41068" lon="0.11438">
        <ele>55.5</ele>
        <time>2024-04-14T08:02:46Z</time>
      </trkpt>
      <trkpt lat="47.41043" lon="0.11427">
        <ele>55.3</ele>
        <time>2024-04-14T08:02:49Z</time>
      </trkpt>
      <trkpt lat="47.41018" lon="0.11415">
        <ele>55.2</ele>
        <time>2024-04-14T08:02:52Z</time>
      </trkpt>
      <trkpt lat="47.40961" lon="0.11388">
        <ele>55.9</ele>
        <time>2024-04-14T08:02:59Z</time>
      </trkpt>
      <trkpt lat="47.40945" lon="0.1138">
        <ele>56.1</ele>
        <time>2024-04-14T08:03:01Z</time>
      </trkpt>
      <trkpt lat="47.40894" lon="0.11352">
        <ele>57.1</ele>
        <time>2024-04-14T08:03:08Z</time>
      </trkpt>
      <trkpt lat="47.40887" lon="0.11349">
        <ele>57.2</ele>
        <time>2024-04-14T08:03:09Z</time>
      </trkpt>
      <trkpt lat="47.4085" lon="0.11337">
        <ele>58</ele>
        <time>2024-04-14T08:03:14Z</time>
      </trkpt>
      <trkpt lat="47.40842" lon="0.11336">
        <ele>58.1</ele>
        <time>2024-04-14T08:03:15Z</time>
      </trkpt>
      <trkpt lat="47.40796" lon="0.11332">
        <ele>58.6</ele>
        <time>2024-04-14T08:03:21Z</time>
      </trkpt>
      <trkpt lat="47.40781" lon="0.11332">
        <ele>58.6</ele>
        <time>2024-04-14T08:03:23Z</time>
      </trkpt>
      <trkpt lat="47.40741" lon="0.11327">
        <ele>58.3</ele>
        <time>2024-04-14T08:03:28Z</time>
      </trkpt>
      <trkpt lat="47.40684" lon="0.11323">
        <ele>58.2</ele>
        <time>2024-04-14T08:03:35Z</time>
      </trkpt>
      <trkpt lat="47.40661" lon="0.11321">
        <ele>58.4</ele>
        <time>2024-04-14T08:03:38Z</time>
      </trkpt>
      <trkpt lat="47.40603" lon="0.11324">
        <ele>58.6</ele>
        <time>2024-04-14T08:03:45Z</time>
      </trkpt>
      <trkpt lat="47.40595" lon="0.11324">
        <ele>58.7</ele>
        <time>2024-04-14T08:03:46Z</time>
      </trkpt>
      <trkpt lat="47.4054" lon="0.11328">
        <ele>59.8</ele>
        <time>2024-04-14T08:03:53Z</time>
      </trkpt>
      <trkpt lat="47.40525" lon="0.11328">
        <ele>60.3</ele>
        <time>2024-04-14T08:03:55Z</time>
      </trkpt>
      <trkpt lat="47.40504" lon="0.11329">
        <ele>61.1</ele>
        <time>2024-04-14T08:03:58Z</time>
      </trkpt>
      <trkpt lat="47.40477" lon="0.1133">
        <ele>62.2</ele>
        <time>2024-04-14T08:04:02Z</time>
      </trkpt>
      <trkpt lat="47.40471" lon="0.11331">
        <ele>62.5</ele>
        <time>2024-04-14T08:04:03Z</time>
      </trkpt>
      <trkpt lat="47.40458" lon="0.11331">
        <ele>63.2</ele>
        <time>2024-04-14T08:04:05Z</time>
      </trkpt>
      <trkpt lat="47.40451" lon="0.11332">
        <ele>63.5</ele>
        <time>2024-04-14T08:04:06Z</time>
      </trkpt>
      <trkpt lat="47.40437" lon="0.11331">
        <ele>64.2</ele>
        <time>2024-04-14T08:04:08Z</time>
      </trkpt>
      <trkpt lat="47.40431" lon="0.11332">
        <ele>64.5</ele>
        <time>2024-04-14T08:04:09Z</time>
      </trkpt>
      <trkpt lat="47.40411" lon="0.11333">
        <ele>65.4</ele>
        <time>2024-04-14T08:04:12Z</time>
      </trkpt>
      <trkpt lat="47.40391" lon="0.11332">
        <ele>66.3</ele>
        <time>2024-04-14T08:04:15Z</time>
      </trkpt>
      <trkpt lat="47.40385" lon="0.11332">
        <ele>66.6</ele>
        <time>2024-04-14T08:04:16Z</time>
      </trkpt>
      <trkpt lat="47.40378" lon="0.11332">
        <ele>66.9</ele>
        <time>2024-04-14T08:04:17Z</time>
      </trkpt>
      <trkpt lat="47.40365" lon="0.11332">
        <ele>67.2</ele>
        <time>2024-04-14T08:04:19Z</time>
      </trkpt>
      <trkpt lat="47.40338" lon="0.11329">
        <ele>67.6</ele>
        <time>2024-04-14T08:04:23Z</time>
      </trkpt>
      <trkpt lat="47.40318" lon="0.11324">
        <ele>67.7</ele>
        <time>2024-04-14T08:04:26Z</time>
      </trkpt>
      <trkpt lat="47.40297" lon="0.11317">
        <ele>67.6</ele>
        <time>2024-04-14T08:04:29Z</time>
      </trkpt>
      <trkpt lat="47.40284" lon="0.11309">
        <ele>67.5</ele>
        <time>2024-04-14T08:04:31Z</time>
      </trkpt>
      <trkpt lat="47.40256" lon="0.11291">
        <ele>67.4</ele>
        <time>2024-04-14T08:04:35Z</time>
      </trkpt>
      <trkpt lat="47.40218" lon="0.11251">
        <ele>67.1</ele>
        <time>2024-04-14T08:04:41Z</time>
      </trkpt>
      <trkpt lat="47.40185" lon="0.11199">
        <ele>67.2</ele>
        <time>2024-04-14T08:04:47Z</time>
      </trkpt>
      <trkpt lat="47.40149" lon="0.11133">
        <ele>67.1</ele>
        <time>2024-04-14T08:04:54Z</time>
      </trkpt>
      <trkpt lat="47.40144" lon="0.11124">
        <ele>67</ele>
        <time>2024-04-14T08:04:55Z</time>
      </trkpt>
      <trkpt lat="47.40107" lon="0.11058">
        <ele>67.2</ele>
        <time>2024-04-14T08:05:02Z</time>
      </trkpt>
      <trkpt lat="47.40096" lon="0.1104">
        <ele>67.2</ele>
        <time>2024-04-14T08:05:04Z</time>
      </trkpt>
      <trkpt lat="47.40058" lon="0.10972">
        <ele>67.6</ele>
        <time>2024-04-14T08:05:11Z</time>
      </trkpt>
      <trkpt lat="47.40019" lon="0.10908">
        <ele>68.4</ele>
        <time>2024-04-14T08:05:18Z</time>
      </trkpt>
      <trkpt lat="47.39979" lon="0.10863">
        <ele>68.9</ele>
        <time>2024-04-14T08:05:24Z</time>
      </trkpt>
      <trkpt lat="47.39936" lon="0.10827">
        <ele>69.2</ele>
        <time>2024-04-14T08:05:30Z</time>
      </trkpt>
      <trkpt lat="47.39885" lon="0.10785">
        <ele>69.1</ele>
        <time>2024-04-14T08:05:37Z</time>
      </trkpt>
      <trkpt lat="47.3987" lon="0.10772">
        <ele>68.9</ele>
        <time>2024-04-14T08:05:39Z</time>
      </trkpt>
      <trkpt lat="47.39823" lon="0.10732">
        <ele>68.1</ele>
        <time>2024-04-14T08:05:45Z</time>
      </trkpt>
      <trkpt lat="47.39807" lon="0.10719">
        <ele>67.9</ele>
        <time>2024-04-14T08:05:47Z</time>
      </trkpt>
      <trkpt lat="47.39758" lon="0.10674">
        <ele>67.3</ele>
        <time>2024-04-14T08:05:53Z</time>
      </trkpt>
      <trkpt lat="47.39743" lon="0.10656">
        <ele>67</ele>
        <time>2024-04-14T08:05:55Z</time>
      </trkpt>
      <trkpt lat="47.3973" lon="0.10635">
        <ele>66.8</ele>
        <time>2024-04-14T08:05:57Z</time>
      </trkpt>
      <trkpt lat="47.39718" lon="0.10612">
        <ele>66.6</ele>
        <time>2024-04-14T08:05:59Z</time>
      </trkpt>
      <trkpt lat="47.39703" lon="0.10575">
        <ele>66.3</ele>
        <time>2024-04-14T08:06:02Z</time>
      </trkpt>
      <trkpt lat="47.39688" lon="0.10538">
        <ele>66</ele>
        <time>2024-04-14T08:06:05Z</time>
      </trkpt>
      <trkpt lat="47.39657" lon="0.10464">
        <ele>65.4</ele>
        <time>2024-04-14T08:06:11Z</time>
      </trkpt>
      <trkpt lat="47.39637" lon="0.10414">
        <ele>64.9</ele>
        <time>2024-04-14T08:06:15Z</time>
      </trkpt>
      <trkpt lat="47.39607" lon="0.1034">
        <ele>64.1</ele>
        <time>2024-04-14T08:06:21Z</time>
      </trkpt>
      <trkpt lat="47.39602" lon="0.10327">
        <ele>64</ele>
        <time>2024-04-14T08:06:22Z</time>
      </trkpt>
      <trkpt lat="47.39581" lon="0.10278">
        <ele>63.7</ele>
        <time>2024-04-14T08:06:26Z</time>
      </trkpt>
      <trkpt lat="47.39565" lon="0.10241">
        <ele>63.7</ele>
        <time>2024-04-14T08:06:29Z</time>
      </trkpt>
      <trkpt lat="47.3955" lon="0.10205">
        <ele>63.7</ele>
        <time>2024-04-14T08:06:32Z</time>
      </trkpt>
      <trkpt lat="47.39526" lon="0.10144">
        <ele>63.4</ele>
        <time>2024-04-14T08:06:37Z</time>
      </trkpt>
      <trkpt lat="47.39496" lon="0.10073">
        <ele>63.2</ele>
        <time>2024-04-14T08:06:43Z</time>
      </trkpt>
      <trkpt lat="47.39482" lon="0.10037">
        <ele>63.1</ele>
        <time>2024-04-14T08:06:46Z</time>
      </trkpt>
      <trkpt lat="47.39453" lon="0.09967">
        <ele>62.5</ele>
        <time>2024-04-14T08:06:52Z</time>
      </trkpt>
      <trkpt lat="47.39438" lon="0.09931">
        <ele>62.3</ele>
        <time>2024-04-14T08:06:55Z</time>
      </trkpt>
      <trkpt lat="47.39409" lon="0.09857">
        <ele>61.8</ele>
        <time>2024-04-14T08:07:01Z</time>
      </trkpt>
      <trkpt lat="47.39403" lon="0.0983">
        <ele>61.6</ele>
        <time>2024-04-14T08:07:03Z</time>
      </trkpt>
      <trkpt lat="47.39398" lon="0.09774">
        <ele>61.4</ele>
        <time>2024-04-14T08:07:07Z</time>
      </trkpt>
      <trkpt lat="47.39397" lon="0.0976">
        <ele>61.3</ele>
        <time>2024-04-14T08:07:08Z</time>
      </trkpt>
      <trkpt lat="47.39393" lon="0.09676">
        <ele>61.2</ele>
        <time>2024-04-14T08:07:14Z</time>
      </trkpt>
      <trkpt lat="47.39392" lon="0.09663">
        <ele>61.3</ele>
        <time>2024-04-14T08:07:15Z</time>
      </trkpt>
      <trkpt lat="47.39391" lon="0.09649">
        <ele>61.3</ele>
        <time>2024-04-14T08:07:16Z</time>
      </trkpt>
      <trkpt lat="47.39387" lon="0.09569">
        <ele>61</ele>
        <time>2024-04-14T08:07:22Z</time>
      </trkpt>
      <trkpt lat="47.39378" lon="0.09516">
        <ele>60.6</ele>
        <time>2024-04-14T08:07:26Z</time>
      </trkpt>
      <trkpt lat="47.39374" lon="0.09503">
        <ele>60.4</ele>
        <time>2024-04-14T08:07:27Z</time>
      </trkpt>
      <trkpt lat="47.39358" lon="0.09466">
        <ele>59.9</ele>
        <time>2024-04-14T08:07:30Z</time>
      </trkpt>
      <trkpt lat="47.3933" lon="0.09424">
        <ele>59.2</ele>
        <time>2024-04-14T08:07:34Z</time>
      </trkpt>
      <trkpt lat="47.39283" lon="0.09364">
        <ele>58.6</ele>
        <time>2024-04-14T08:07:40Z</time>
      </trkpt>
      <trkpt lat="47.39275" lon="0.09354">
        <ele>58.6</ele>
        <time>2024-04-14T08:07:41Z</time>
      </trkpt>
      <trkpt lat="47.39268" lon="0.09344">
        <ele>58.5</ele>
        <time>2024-04-14T08:07:42Z</time>
      </trkpt>
      <trkpt lat="47.39221" lon="0.09285">
        <ele>58.3</ele>
        <time>2024-04-14T08:07:48Z</time>
      </trkpt>
      <trkpt lat="47.39207" lon="0.09266">
        <ele>58.7</ele>
        <time>2024-04-14T08:07:50Z</time>
      </trkpt>
      <trkpt lat="47.3918" lon="0.09229">
        <ele>59.5</ele>
        <time>2024-04-14T08:07:54Z</time>
      </trkpt>
      <trkpt lat="47.39169" lon="0.0921">
        <ele>59.8</ele>
        <time>2024-04-14T08:07:56Z</time>
      </trkpt>
      <trkpt lat="47.39146" lon="0.09158">
        <ele>60.7</ele>
        <time>2024-04-14T08:08:01Z</time>
      </trkpt>
      <trkpt lat="47.39142" lon="0.09147">
        <ele>60.9</ele>
        <time>2024-04-14T08:08:02Z</time>
      </trkpt>
      <trkpt lat="47.39117" lon="0.09071">
        <ele>62.1</ele>
        <time>2024-04-14T08:08:09Z</time>
      </trkpt>
      <trkpt lat="47.39114" lon="0.0906">
        <ele>62.3</ele>
        <time>2024-04-14T08:08:10Z</time>
      </trkpt>
      <trkpt lat="47.3909" lon="0.0898">
        <ele>64.2</ele>
        <time>2024-04-14T08:08:18Z</time>
      </trkpt>
      <trkpt lat="47.39075" lon="0.0893">
        <ele>64.9</ele>
        <time>2024-04-14T08:08:23Z</time>
      </trkpt>
      <trkpt lat="47.39066" lon="0.08902">
        <ele>65.3</ele>
        <time>2024-04-14T08:08:26Z</time>
      </trkpt>
      <trkpt lat="47.39055" lon="0.08864">
        <ele>65.8</ele>
        <time>2024-04-14T08:08:30Z</time>
      </trkpt>
      <trkpt lat="47.39035" lon="0.08797">
        <ele>66.3</ele>
        <time>2024-04-14T08:08:37Z</time>
      </trkpt>
      <trkpt lat="47.39025" lon="0.08758">
        <ele>66.4</ele>
        <time>2024-04-14T08:08:41Z</time>
      </trkpt>
      <trkpt lat="47.39021" lon="0.08727">
        <ele>66.5</ele>
        <time>2024-04-14T08:08:44Z</time>
      </trkpt>
      <trkpt lat="47.3902" lon="0.08651">
        <ele>66.1</ele>
        <time>2024-04-14T08:08:51Z</time>
      </trkpt>
      <trkpt lat="47.39015" lon="0.08573">
        <ele>65.5</ele>
        <time>2024-04-14T08:08:58Z</time>
      </trkpt>
      <trkpt lat="47.39008" lon="0.08506">
        <ele>64.8</ele>
        <time>2024-04-14T08:09:04Z</time>
      </trkpt>
      <trkpt lat="47.39007" lon="0.08495">
        <ele>64.7</ele>
        <time>2024-04-14T08:09:05Z</time>
      </trkpt>
      <trkpt lat="47.39006" lon="0.08484">
        <ele>64.5</ele>
        <time>2024-04-14T08:09:06Z</time>
      </trkpt>
      <trkpt lat="47.38998" lon="0.0842">
        <ele>63.7</ele>
        <time>2024-04-14T08:09:12Z</time>
      </trkpt>
      <trkpt lat="47.38997" lon="0.08409">
        <ele>63.6</ele>
        <time>2024-04-14T08:09:13Z</time>
      </trkpt>
      <trkpt lat="47.38983" lon="0.08348">
        <ele>63.1</ele>
        <time>2024-04-14T08:09:19Z</time>
      </trkpt>
      <trkpt lat="47.3897" lon="0.08319">
        <ele>62.9</ele>
        <time>2024-04-14T08:09:22Z</time>
      </trkpt>
      <trkpt lat="47.38961" lon="0.083">
        <ele>62.6</ele>
        <time>2024-04-14T08:09:24Z</time>
      </trkpt>
      <trkpt lat="47.38934" lon="0.08245">
        <ele>62.5</ele>
        <time>2024-04-14T08:09:30Z</time>
      </trkpt>
      <trkpt lat="47.3893" lon="0.08237">
        <ele>62.5</ele>
        <time>2024-04-14T08:09:31Z</time>
      </trkpt>
      <trkpt lat="47.38901" lon="0.08167">
        <ele>63.2</ele>
        <time>2024-04-14T08:09:39Z</time>
      </trkpt>
      <trkpt lat="47.38895" lon="0.08151">
        <ele>63.5</ele>
        <time>2024-04-14T08:09:41Z</time>
      </trkpt>
      <trkpt lat="47.38891" lon="0.08144">
        <ele>63.6</ele>
        <time>2024-04-14T08:09:42Z</time>
      </trkpt>
      <trkpt lat="47.3888" lon="0.08133">
        <ele>63.6</ele>
        <time>2024-04-14T08:09:44Z</time>
      </trkpt>
      <trkpt lat="47.38868" lon="0.08123">
        <ele>63.7</ele>
        <time>2024-04-14T08:09:46Z</time>
      </trkpt>
      <trkpt lat="47.38851" lon="0.08107">
        <ele>63.8</ele>
        <time>2024-04-14T08:09:49Z</time>
      </trkpt>
      <trkpt lat="47.38811" lon="0.08065">
        <ele>64.4</ele>
        <time>2024-04-14T08:09:56Z</time>
      </trkpt>
      <trkpt lat="47.38776" lon="0.08034">
        <ele>65.1</ele>
        <time>2024-04-14T08:10:02Z</time>
      </trkpt>
      <trkpt lat="47.38765" lon="0.08026">
        <ele>65.4</ele>
        <time>2024-04-14T08:10:04Z</time>
      </trkpt>
      <trkpt lat="47.38743" lon="0.0801">
        <ele>66.1</ele>
        <time>2024-04-14T08:10:09Z</time>
      </trkpt>
      <trkpt lat="47.3874" lon="0.08008">
        <ele>66.3</ele>
        <time>2024-04-14T08:10:10Z</time>
      </trkpt>
      <trkpt lat="47.38729" lon="0.07999">
        <ele>66.8</ele>
        <time>2024-04-14T08:10:14Z</time>
      </trkpt>
      <trkpt lat="47.38727" lon="0.07996">
        <ele>66.9</ele>
        <time>2024-04-14T08:10:16Z</time>
      </trkpt>
      <trkpt lat="47.38724" lon="0.07992">
        <ele>66.9</ele>
        <time>2024-04-14T08:10:32Z</time>
      </trkpt>
      <trkpt lat="47.38722" lon="0.07991">
        <ele>66.9</ele>
        <time>2024-04-14T08:10:33Z</time>
      </trkpt>
      <trkpt lat="47.38711" lon="0.07984">
        <ele>67</ele>
        <time>2024-04-14T08:10:38Z</time>
      </trkpt>
      <trkpt lat="47.38708" lon="0.07983">
        <ele>67</ele>
        <time>2024-04-14T08:10:39Z</time>
      </trkpt>
      <trkpt lat="47.387" lon="0.07979">
        <ele>67.1</ele>
        <time>2024-04-14T08:10:41Z</time>
      </trkpt>
      <trkpt lat="47.38686" lon="0.07973">
        <ele>67.4</ele>
        <time>2024-04-14T08:10:44Z</time>
      </trkpt>
      <trkpt lat="47.3868" lon="0.0797">
        <ele>67.5</ele>
        <time>2024-04-14T08:10:45Z</time>
      </trkpt>
      <trkpt lat="47.38675" lon="0.07969">
        <ele>67.6</ele>
        <time>2024-04-14T08:10:46Z</time>
      </trkpt>
      <trkpt lat="47.38658" lon="0.07968">
        <ele>68</ele>
        <time>2024-04-14T08:10:49Z</time>
      </trkpt>
      <trkpt lat="47.38624" lon="0.07964">
        <ele>68.8</ele>
        <time>2024-04-14T08:10:55Z</time>
      </trkpt>
      <trkpt lat="47.38612" lon="0.07964">
        <ele>69.3</ele>
        <time>2024-04-14T08:10:57Z</time>
      </trkpt>
      <trkpt lat="47.38593" lon="0.07963">
        <ele>69.9</ele>
        <time>2024-04-14T08:11:00Z</time>
      </trkpt>
      <trkpt lat="47.38576" lon="0.07962">
        <ele>70.5</ele>
        <time>2024-04-14T08:11:03Z</time>
      </trkpt>
      <trkpt lat="47.3856" lon="0.07961">
        <ele>71</ele>
        <time>2024-04-14T08:11:06Z</time>
      </trkpt>
      <trkpt lat="47.38534" lon="0.07959">
        <ele>71.9</ele>
        <time>2024-04-14T08:11:11Z</time>
      </trkpt>
      <trkpt lat="47.38514" lon="0.07958">
        <ele>72.9</ele>
        <time>2024-04-14T08:11:15Z</time>
      </trkpt>
      <trkpt lat="47.38493" lon="0.07955">
        <ele>74</ele>
        <time>2024-04-14T08:11:19Z</time>
      </trkpt>
      <trkpt lat="47.38488" lon="0.07955">
        <ele>74.3</ele>
        <time>2024-04-14T08:11:20Z</time>
      </trkpt>
      <trkpt lat="47.38465" lon="0.07953">
        <ele>75.6</ele>
        <time>2024-04-14T08:11:25Z</time>
      </trkpt>
      <trkpt lat="47.38457" lon="0.07952">
        <ele>76.1</ele>
        <time>2024-04-14T08:11:27Z</time>
      </trkpt>
      <trkpt lat="47.38452" lon="0.07949">
        <ele>76.1</ele>
        <time>2024-04-14T08:11:29Z</time>
      </trkpt>
      <trkpt lat="47.38449" lon="0.07946">
        <ele>76.2</ele>
        <time>2024-04-14T08:11:31Z</time>
      </trkpt>
      <trkpt lat="47.38447" lon="0.07946">
        <ele>76.2</ele>
        <time>2024-04-14T08:11:32Z</time>
      </trkpt>
      <trkpt lat="47.38444" lon="0.07953">
        <ele>76.3</ele>
        <time>2024-04-14T08:16:35Z</time>
      </trkpt>
      <trkpt lat="47.38443" lon="0.07954">
        <ele>76.3</ele>
        <time>2024-04-14T08:16:36Z</time>
      </trkpt>
      <trkpt lat="47.38437" lon="0.07957">
        <ele>76.4</ele>
        <time>2024-04-14T08:16:39Z</time>
      </trkpt>
      <trkpt lat="47.38434" lon="0.07957">
        <ele>76.5</ele>
        <time>2024-04-14T08:16:40Z</time>
      </trkpt>
      <trkpt lat="47.38415" lon="0.07959">
        <ele>77.6</ele>
        <time>2024-04-14T08:16:46Z</time>
      </trkpt>
      <trkpt lat="47.384" lon="0.07962">
        <ele>78.5</ele>
        <time>2024-04-14T08:16:50Z</time>
      </trkpt>
      <trkpt lat="47.38396" lon="0.07963">
        <ele>78.7</ele>
        <time>2024-04-14T08:16:51Z</time>
      </trkpt>
      <trkpt lat="47.38381" lon="0.07964">
        <ele>79.6</ele>
        <time>2024-04-14T08:16:55Z</time>
      </trkpt>
      <trkpt lat="47.38366" lon="0.07968">
        <ele>80.5</ele>
        <time>2024-04-14T08:16:59Z</time>
      </trkpt>
      <trkpt lat="47.38363" lon="0.07969">
        <ele>80.7</ele>
        <time>2024-04-14T08:17:00Z</time>
      </trkpt>
      <trkpt lat="47.38343" lon="0.07974">
        <ele>81.9</ele>
        <time>2024-04-14T08:17:05Z</time>
      </trkpt>
      <trkpt lat="47.38339" lon="0.07974">
        <ele>82.1</ele>
        <time>2024-04-14T08:17:06Z</time>
      </trkpt>
      <trkpt lat="47.38326" lon="0.07976">
        <ele>82.9</ele>
        <time>2024-04-14T08:17:09Z</time>
      </trkpt>
      <trkpt lat="47.38318" lon="0.07977">
        <ele>83.5</ele>
        <time>2024-04-14T08:17:11Z</time>
      </trkpt>
      <trkpt lat="47.38304" lon="0.0798">
        <ele>84.3</ele>
        <time>2024-04-14T08:17:14Z</time>
      </trkpt>
      <trkpt lat="47.3829" lon="0.07982">
        <ele>85.2</ele>
        <time>2024-04-14T08:17:17Z</time>
      </trkpt>
      <trkpt lat="47.38281" lon="0.07983">
        <ele>85.8</ele>
        <time>2024-04-14T08:17:19Z</time>
      </trkpt>
      <trkpt lat="47.38264" lon="0.07986">
        <ele>87</ele>
        <time>2024-04-14T08:17:23Z</time>
      </trkpt>
      <trkpt lat="47.38259" lon="0.07987">
        <ele>87.3</ele>
        <time>2024-04-14T08:17:24Z</time>
      </trkpt>
      <trkpt lat="47.38245" lon="0.07989">
        <ele>88.2</ele>
        <time>2024-04-14T08:17:27Z</time>
      </trkpt>
      <trkpt lat="47.38227" lon="0.07992">
        <ele>89.4</ele>
        <time>2024-04-14T08:17:31Z</time>
      </trkpt>
      <trkpt lat="47.38218" lon="0.07994">
        <ele>90</ele>
        <time>2024-04-14T08:17:33Z</time>
      </trkpt>
      <trkpt lat="47.38209" lon="0.07996">
        <ele>90.6</ele>
        <time>2024-04-14T08:17:35Z</time>
      </trkpt>
      <trkpt lat="47.38192" lon="0.07999">
        <ele>91.8</ele>
        <time>2024-04-14T08:17:39Z</time>
      </trkpt>
      <trkpt lat="47.38187" lon="0.08">
        <ele>92.1</ele>
        <time>2024-04-14T08:17:40Z</time>
      </trkpt>
      <trkpt lat="47.38174" lon="0.08002">
        <ele>93</ele>
        <time>2024-04-14T08:17:43Z</time>
      </trkpt>
      <trkpt lat="47.38156" lon="0.08005">
        <ele>94.2</ele>
        <time>2024-04-14T08:17:47Z</time>
      </trkpt>
      <trkpt lat="47.38152" lon="0.08006">
        <ele>94.5</ele>
        <time>2024-04-14T08:17:48Z</time>
      </trkpt>
      <trkpt lat="47.38134" lon="0.08008">
        <ele>95.6</ele>
        <time>2024-04-14T08:17:52Z</time>
      </trkpt>
      <trkpt lat="47.3813" lon="0.08008">
        <ele>95.9</ele>
        <time>2024-04-14T08:17:53Z</time>
      </trkpt>
      <trkpt lat="47.38121" lon="0.08009">
        <ele>96.4</ele>
        <time>2024-04-14T08:17:55Z</time>
      </trkpt>
      <trkpt lat="47.38103" lon="0.0801">
        <ele>97.5</ele>
        <time>2024-04-14T08:17:59Z</time>
      </trkpt>
      <trkpt lat="47.38098" lon="0.0801">
        <ele>97.7</ele>
        <time>2024-04-14T08:18:00Z</time>
      </trkpt>
      <trkpt lat="47.38075" lon="0.0801">
        <ele>99.1</ele>
        <time>2024-04-14T08:18:05Z</time>
      </trkpt>
      <trkpt lat="47.38066" lon="0.0801">
        <ele>99.6</ele>
        <time>2024-04-14T08:18:07Z</time>
      </trkpt>
      <trkpt lat="47.38056" lon="0.0801">
        <ele>100.1</ele>
        <time>2024-04-14T08:18:09Z</time>
      </trkpt>
      <trkpt lat="47.38038" lon="0.0801">
        <ele>101</ele>
        <time>2024-04-14T08:18:13Z</time>
      </trkpt>
      <trkpt lat="47.38028" lon="0.0801">
        <ele>101.4</ele>
        <time>2024-04-14T08:18:15Z</time>
      </trkpt>
      <trkpt lat="47.38008" lon="0.08011">
        <ele>102.1</ele>
        <time>2024-04-14T08:18:19Z</time>
      </trkpt>
      <trkpt lat="47.37982" lon="0.08011">
        <ele>102.8</ele>
        <time>2024-04-14T08:18:24Z</time>
      </trkpt>
      <trkpt lat="47.37941" lon="0.08013">
        <ele>103.5</ele>
        <time>2024-04-14T08:18:31Z</time>
      </trkpt>
      <trkpt lat="47.3793" lon="0.08012">
        <ele>103.8</ele>
        <time>2024-04-14T08:18:33Z</time>
      </trkpt>
      <trkpt lat="47.37888" lon="0.08013">
        <ele>104.7</ele>
        <time>2024-04-14T08:18:40Z</time>
      </trkpt>
      <trkpt lat="47.3787" lon="0.08013">
        <ele>105.1</ele>
        <time>2024-04-14T08:18:43Z</time>
      </trkpt>
      <trkpt lat="47.37822" lon="0.08014">
        <ele>106.2</ele>
        <time>2024-04-14T08:18:51Z</time>
      </trkpt>
      <trkpt lat="47.37809" lon="0.08014">
        <ele>106.5</ele>
        <time>2024-04-14T08:18:53Z</time>
      </trkpt>
      <trkpt lat="47.37785" lon="0.08014">
        <ele>107</ele>
        <time>2024-04-14T08:18:57Z</time>
      </trkpt>
      <trkpt lat="47.37759" lon="0.08015">
        <ele>107.4</ele>
        <time>2024-04-14T08:19:01Z</time>
      </trkpt>
      <trkpt lat="47.37725" lon="0.08015">
        <ele>107.7</ele>
        <time>2024-04-14T08:19:06Z</time>
      </trkpt>
      <trkpt lat="47.37685" lon="0.08017">
        <ele>107.9</ele>
        <time>2024-04-14T08:19:12Z</time>
      </trkpt>
      <trkpt lat="47.37679" lon="0.08016">
        <ele>108</ele>
        <time>2024-04-14T08:19:13Z</time>
      </trkpt>
      <trkpt lat="47.37658" lon="0.08015">
        <ele>107.8</ele>
        <time>2024-04-14T08:19:16Z</time>
      </trkpt>
      <trkpt lat="47.3763" lon="0.08015">
        <ele>107.6</ele>
        <time>2024-04-14T08:19:20Z</time>
      </trkpt>
      <trkpt lat="47.37623" lon="0.08015">
        <ele>107.5</ele>
        <time>2024-04-14T08:19:21Z</time>
      </trkpt>
      <trkpt lat="47.3757" lon="0.08015">
        <ele>106.7</ele>
        <time>2024-04-14T08:19:28Z</time>
      </trkpt>
      <trkpt lat="47.37529" lon="0.08021">
        <ele>106.3</ele>
        <time>2024-04-14T08:19:33Z</time>
      </trkpt>
      <trkpt lat="47.37521" lon="0.08022">
        <ele>106.2</ele>
        <time>2024-04-14T08:19:34Z</time>
      </trkpt>
      <trkpt lat="47.37486" lon="0.08029">
        <ele>105.5</ele>
        <time>2024-04-14T08:19:38Z</time>
      </trkpt>
      <trkpt lat="47.37477" lon="0.08032">
        <ele>105.3</ele>
        <time>2024-04-14T08:19:39Z</time>
      </trkpt>
      <trkpt lat="47.37433" lon="0.08049">
        <ele>103.7</ele>
        <time>2024-04-14T08:19:44Z</time>
      </trkpt>
      <trkpt lat="47.37424" lon="0.08054">
        <ele>103.4</ele>
        <time>2024-04-14T08:19:45Z</time>
      </trkpt>
      <trkpt lat="47.37385" lon="0.08067">
        <ele>102.3</ele>
        <time>2024-04-14T08:19:49Z</time>
      </trkpt>
      <trkpt lat="47.37376" lon="0.0807">
        <ele>102.1</ele>
        <time>2024-04-14T08:19:50Z</time>
      </trkpt>
      <trkpt lat="47.37347" lon="0.0808">
        <ele>101.6</ele>
        <time>2024-04-14T08:19:53Z</time>
      </trkpt>
      <trkpt lat="47.37297" lon="0.081">
        <ele>101.5</ele>
        <time>2024-04-14T08:19:58Z</time>
      </trkpt>
      <trkpt lat="47.37287" lon="0.08105">
        <ele>101.5</ele>
        <time>2024-04-14T08:19:59Z</time>
      </trkpt>
      <trkpt lat="47.3724" lon="0.08121">
        <ele>101.4</ele>
        <time>2024-04-14T08:20:04Z</time>
      </trkpt>
      <trkpt lat="47.37222" lon="0.08124">
        <ele>101.4</ele>
        <time>2024-04-14T08:20:06Z</time>
      </trkpt>
      <trkpt lat="47.37213" lon="0.08124">
        <ele>101.4</ele>
        <time>2024-04-14T08:20:07Z</time>
      </trkpt>
      <trkpt lat="47.37185" lon="0.08122">
        <ele>101.4</ele>
        <time>2024-04-14T08:20:10Z</time>
      </trkpt>
      <trkpt lat="47.37125" lon="0.08117">
        <ele>101.5</ele>
        <time>2024-04-14T08:20:17Z</time>
      </trkpt>
      <trkpt lat="47.37117" lon="0.08115">
        <ele>101.6</ele>
        <time>2024-04-14T08:20:18Z</time>
      </trkpt>
      <trkpt lat="47.37108" lon="0.08114">
        <ele>101.7</ele>
        <time>2024-04-14T08:20:19Z</time>
      </trkpt>
      <trkpt lat="47.37051" lon="0.08107">
        <ele>102.4</ele>
        <time>2024-04-14T08:20:26Z</time>
      </trkpt>
      <trkpt lat="47.37043" lon="0.08106">
        <ele>102.5</ele>
        <time>2024-04-14T08:20:27Z</time>
      </trkpt>
      <trkpt lat="47.37004" lon="0.081">
        <ele>103</ele>
        <time>2024-04-14T08:20:32Z</time>
      </trkpt>
      <trkpt lat="47.36982" lon="0.08095">
        <ele>103.4</ele>
        <time>2024-04-14T08:20:35Z</time>
      </trkpt>
      <trkpt lat="47.36952" lon="0.08091">
        <ele>104</ele>
        <time>2024-04-14T08:20:39Z</time>
      </trkpt>
      <trkpt lat="47.36922" lon="0.08089">
        <ele>104.6</ele>
        <time>2024-04-14T08:20:43Z</time>
      </trkpt>
      <trkpt lat="47.36899" lon="0.08086">
        <ele>104.9</ele>
        <time>2024-04-14T08:20:46Z</time>
      </trkpt>
      <trkpt lat="47.36878" lon="0.08083">
        <ele>105.2</ele>
        <time>2024-04-14T08:20:49Z</time>
      </trkpt>
      <trkpt lat="47.36849" lon="0.0808">
        <ele>105.6</ele>
        <time>2024-04-14T08:20:53Z</time>
      </trkpt>
      <trkpt lat="47.36817" lon="0.08078">
        <ele>106.1</ele>
        <time>2024-04-14T08:20:57Z</time>
      </trkpt>
      <trkpt lat="47.36787" lon="0.08077">
        <ele>106.6</ele>
        <time>2024-04-14T08:21:01Z</time>
      </trkpt>
      <trkpt lat="47.36739" lon="0.0807">
        <ele>106.9</ele>
        <time>2024-04-14T08:21:07Z</time>
      </trkpt>
      <trkpt lat="47.36716" lon="0.08066">
        <ele>107.2</ele>
        <time>2024-04-14T08:21:10Z</time>
      </trkpt>
      <trkpt lat="47.36668" lon="0.08056">
        <ele>107.5</ele>
        <time>2024-04-14T08:21:16Z</time>
      </trkpt>
      <trkpt lat="47.3662" lon="0.08047">
        <ele>107.5</ele>
        <time>2024-04-14T08:21:22Z</time>
      </trkpt>
      <trkpt lat="47.36612" lon="0.08045">
        <ele>107.4</ele>
        <time>2024-04-14T08:21:23Z</time>
      </trkpt>
      <trkpt lat="47.36552" lon="0.08029">
        <ele>105.8</ele>
        <time>2024-04-14T08:21:30Z</time>
      </trkpt>
      <trkpt lat="47.36543" lon="0.08027">
        <ele>105.5</ele>
        <time>2024-04-14T08:21:31Z</time>
      </trkpt>
      <trkpt lat="47.36496" lon="0.08017">
        <ele>103.9</ele>
        <time>2024-04-14T08:21:36Z</time>
      </trkpt>
      <trkpt lat="47.36455" lon="0.08008">
        <ele>102.9</ele>
        <time>2024-04-14T08:21:40Z</time>
      </trkpt>
      <trkpt lat="47.36415" lon="0.08">
        <ele>102.1</ele>
        <time>2024-04-14T08:21:44Z</time>
      </trkpt>
      <trkpt lat="47.36364" lon="0.07989">
        <ele>101.4</ele>
        <time>2024-04-14T08:21:49Z</time>
      </trkpt>
      <trkpt lat="47.36325" lon="0.07979">
        <ele>100.7</ele>
        <time>2024-04-14T08:21:53Z</time>
      </trkpt>
      <trkpt lat="47.36295" lon="0.07971">
        <ele>100.1</ele>
        <time>2024-04-14T08:21:56Z</time>
      </trkpt>
      <trkpt lat="47.36254" lon="0.07962">
        <ele>99.2</ele>
        <time>2024-04-14T08:22:00Z</time>
      </trkpt>
      <trkpt lat="47.36233" lon="0.07958">
        <ele>98.8</ele>
        <time>2024-04-14T08:22:02Z</time>
      </trkpt>
      <trkpt lat="47.3618" lon="0.07947">
        <ele>97.1</ele>
        <time>2024-04-14T08:22:07Z</time>
      </trkpt>
      <trkpt lat="47.36169" lon="0.07944">
        <ele>96.6</ele>
        <time>2024-04-14T08:22:08Z</time>
      </trkpt>
      <trkpt lat="47.36124" lon="0.07934">
        <ele>94.2</ele>
        <time>2024-04-14T08:22:12Z</time>
      </trkpt>
      <trkpt lat="47.36113" lon="0.07931">
        <ele>93.6</ele>
        <time>2024-04-14T08:22:13Z</time>
      </trkpt>
      <trkpt lat="47.36101" lon="0.07928">
        <ele>93.1</ele>
        <time>2024-04-14T08:22:14Z</time>
      </trkpt>
      <trkpt lat="47.36078" lon="0.07923">
        <ele>92.1</ele>
        <time>2024-04-14T08:22:16Z</time>
      </trkpt>
      <trkpt lat="47.36054" lon="0.07918">
        <ele>91.2</ele>
        <time>2024-04-14T08:22:18Z</time>
      </trkpt>
      <trkpt lat="47.3603" lon="0.07913">
        <ele>90.6</ele>
        <time>2024-04-14T08:22:20Z</time>
      </trkpt>
      <trkpt lat="47.36018" lon="0.07909">
        <ele>90.4</ele>
        <time>2024-04-14T08:22:21Z</time>
      </trkpt>
      <trkpt lat="47.36007" lon="0.07906">
        <ele>90.1</ele>
        <time>2024-04-14T08:22:22Z</time>
      </trkpt>
      <trkpt lat="47.35984" lon="0.07897">
        <ele>89.8</ele>
        <time>2024-04-14T08:22:24Z</time>
      </trkpt>
      <trkpt lat="47.35951" lon="0.07883">
        <ele>89.2</ele>
        <time>2024-04-14T08:22:27Z</time>
      </trkpt>
      <trkpt lat="47.35897" lon="0.07855">
        <ele>87.4</ele>
        <time>2024-04-14T08:22:32Z</time>
      </trkpt>
      <trkpt lat="47.35874" lon="0.07844">
        <ele>86.5</ele>
        <time>2024-04-14T08:22:34Z</time>
      </trkpt>
      <trkpt lat="47.35851" lon="0.07832">
        <ele>85.6</ele>
        <time>2024-04-14T08:22:36Z</time>
      </trkpt>
      <trkpt lat="47.35817" lon="0.07815">
        <ele>84.7</ele>
        <time>2024-04-14T08:22:39Z</time>
      </trkpt>
      <trkpt lat="47.35805" lon="0.07809">
        <ele>84.7</ele>
        <time>2024-04-14T08:22:40Z</time>
      </trkpt>
      <trkpt lat="47.35794" lon="0.07804">
        <ele>84.8</ele>
        <time>2024-04-14T08:22:41Z</time>
      </trkpt>
      <trkpt lat="47.35773" lon="0.07793">
        <ele>85.2</ele>
        <time>2024-04-14T08:22:43Z</time>
      </trkpt>
      <trkpt lat="47.35744" lon="0.07778">
        <ele>85.8</ele>
        <time>2024-04-14T08:22:46Z</time>
      </trkpt>
      <trkpt lat="47.357" lon="0.07756">
        <ele>87.2</ele>
        <time>2024-04-14T08:22:51Z</time>
      </trkpt>
      <trkpt lat="47.35675" lon="0.07745">
        <ele>87.7</ele>
        <time>2024-04-14T08:22:54Z</time>
      </trkpt>
      <trkpt lat="47.35644" lon="0.07728">
        <ele>87.8</ele>
        <time>2024-04-14T08:22:58Z</time>
      </trkpt>
      <trkpt lat="47.35637" lon="0.07723">
        <ele>87.7</ele>
        <time>2024-04-14T08:22:59Z</time>
      </trkpt>
      <trkpt lat="47.35612" lon="0.07711">
        <ele>87.4</ele>
        <time>2024-04-14T08:23:02Z</time>
      </trkpt>
      <trkpt lat="47.35579" lon="0.07694">
        <ele>87.1</ele>
        <time>2024-04-14T08:23:06Z</time>
      </trkpt>
      <trkpt lat="47.35563" lon="0.07685">
        <ele>87.1</ele>
        <time>2024-04-14T08:23:08Z</time>
      </trkpt>
      <trkpt lat="47.35517" lon="0.07662">
        <ele>88.9</ele>
        <time>2024-04-14T08:23:14Z</time>
      </trkpt>
      <trkpt lat="47.3551" lon="0.07658">
        <ele>89.3</ele>
        <time>2024-04-14T08:23:15Z</time>
      </trkpt>
      <trkpt lat="47.3549" lon="0.07648">
        <ele>90.4</ele>
        <time>2024-04-14T08:23:18Z</time>
      </trkpt>
      <trkpt lat="47.35478" lon="0.07642">
        <ele>91</ele>
        <time>2024-04-14T08:23:20Z</time>
      </trkpt>
      <trkpt lat="47.35472" lon="0.0764">
        <ele>91.3</ele>
        <time>2024-04-14T08:23:21Z</time>
      </trkpt>
      <trkpt lat="47.3546" lon="0.07635">
        <ele>91.9</ele>
        <time>2024-04-14T08:23:23Z</time>
      </trkpt>
      <trkpt lat="47.35448" lon="0.0763">
        <ele>92.5</ele>
        <time>2024-04-14T08:23:25Z</time>
      </trkpt>
      <trkpt lat="47.35429" lon="0.07622">
        <ele>93.6</ele>
        <time>2024-04-14T08:23:28Z</time>
      </trkpt>
      <trkpt lat="47.35407" lon="0.07612">
        <ele>95</ele>
        <time>2024-04-14T08:23:32Z</time>
      </trkpt>
      <trkpt lat="47.35402" lon="0.07609">
        <ele>95.3</ele>
        <time>2024-04-14T08:23:33Z</time>
      </trkpt>
      <trkpt lat="47.35393" lon="0.07604">
        <ele>95.9</ele>
        <time>2024-04-14T08:23:35Z</time>
      </trkpt>
      <trkpt lat="47.35388" lon="0.07601">
        <ele>96.2</ele>
        <time>2024-04-14T08:23:36Z</time>
      </trkpt>
      <trkpt lat="47.35382" lon="0.07599">
        <ele>96.5</ele>
        <time>2024-04-14T08:23:37Z</time>
      </trkpt>
      <trkpt lat="47.35377" lon="0.07596">
        <ele>96.8</ele>
        <time>2024-04-14T08:23:38Z</time>
      </trkpt>
      <trkpt lat="47.35355" lon="0.07583">
        <ele>98.1</ele>
        <time>2024-04-14T08:23:42Z</time>
      </trkpt>
      <trkpt lat="47.35332" lon="0.07571">
        <ele>99.4</ele>
        <time>2024-04-14T08:23:46Z</time>
      </trkpt>
      <trkpt lat="47.35315" lon="0.07561">
        <ele>100.4</ele>
        <time>2024-04-14T08:23:49Z</time>
      </trkpt>
      <trkpt lat="47.35305" lon="0.07556">
        <ele>101</ele>
        <time>2024-04-14T08:23:51Z</time>
      </trkpt>
      <trkpt lat="47.35284" lon="0.07544">
        <ele>102.2</ele>
        <time>2024-04-14T08:23:55Z</time>
      </trkpt>
      <trkpt lat="47.35278" lon="0.07541">
        <ele>102.4</ele>
        <time>2024-04-14T08:23:56Z</time>
      </trkpt>
      <trkpt lat="47.35273" lon="0.07538">
        <ele>102.7</ele>
        <time>2024-04-14T08:23:57Z</time>
      </trkpt>
      <trkpt lat="47.35245" lon="0.07526">
        <ele>103.9</ele>
        <time>2024-04-14T08:24:02Z</time>
      </trkpt>
      <trkpt lat="47.35233" lon="0.07521">
        <ele>104.2</ele>
        <time>2024-04-14T08:24:04Z</time>
      </trkpt>
      <trkpt lat="47.35209" lon="0.0751">
        <ele>104.5</ele>
        <time>2024-04-14T08:24:08Z</time>
      </trkpt>
      <trkpt lat="47.35191" lon="0.07501">
        <ele>104.7</ele>
        <time>2024-04-14T08:24:11Z</time>
      </trkpt>
      <trkpt lat="47.35173" lon="0.07492">
        <ele>104.9</ele>
        <time>2024-04-14T08:24:14Z</time>
      </trkpt>
      <trkpt lat="47.35122" lon="0.07467">
        <ele>105.3</ele>
        <time>2024-04-14T08:24:22Z</time>
      </trkpt>
      <trkpt lat="47.3511" lon="0.07461">
        <ele>105.3</ele>
        <time>2024-04-14T08:24:24Z</time>
      </trkpt>
      <trkpt lat="47.35056" lon="0.07431">
        <ele>104.7</ele>
        <time>2024-04-14T08:24:32Z</time>
      </trkpt>
      <trkpt lat="47.35001" lon="0.07404">
        <ele>103.9</ele>
        <time>2024-04-14T08:24:39Z</time>
      </trkpt>
      <trkpt lat="47.34958" lon="0.07396">
        <ele>104.1</ele>
        <time>2024-04-14T08:24:44Z</time>
      </trkpt>
      <trkpt lat="47.34916" lon="0.07404">
        <ele>105.1</ele>
        <time>2024-04-14T08:24:49Z</time>
      </trkpt>
      <trkpt lat="47.34862" lon="0.07417">
        <ele>106.4</ele>
        <time>2024-04-14T08:24:56Z</time>
      </trkpt>
      <trkpt lat="47.34854" lon="0.07418">
        <ele>106.5</ele>
        <time>2024-04-14T08:24:57Z</time>
      </trkpt>
      <trkpt lat="47.34846" lon="0.0742">
        <ele>106.6</ele>
        <time>2024-04-14T08:24:58Z</time>
      </trkpt>
      <trkpt lat="47.34791" lon="0.07431">
        <ele>107.1</ele>
        <time>2024-04-14T08:25:05Z</time>
      </trkpt>
      <trkpt lat="47.34741" lon="0.07442">
        <ele>107.4</ele>
        <time>2024-04-14T08:25:11Z</time>
      </trkpt>
      <trkpt lat="47.34684" lon="0.07454">
        <ele>107.8</ele>
        <time>2024-04-14T08:25:18Z</time>
      </trkpt>
      <trkpt lat="47.34676" lon="0.07455">
        <ele>107.7</ele>
        <time>2024-04-14T08:25:19Z</time>
      </trkpt>
      <trkpt lat="47.34668" lon="0.07456">
        <ele>107.7</ele>
        <time>2024-04-14T08:25:20Z</time>
      </trkpt>
      <trkpt lat="47.34619" lon="0.07466">
        <ele>107.8</ele>
        <time>2024-04-14T08:25:26Z</time>
      </trkpt>
      <trkpt lat="47.34561" lon="0.07479">
        <ele>107.7</ele>
        <time>2024-04-14T08:25:33Z</time>
      </trkpt>
      <trkpt lat="47.34535" lon="0.07485">
        <ele>107.5</ele>
        <time>2024-04-14T08:25:36Z</time>
      </trkpt>
      <trkpt lat="47.34474" lon="0.07499">
        <ele>106.9</ele>
        <time>2024-04-14T08:25:43Z</time>
      </trkpt>
      <trkpt lat="47.34465" lon="0.07501">
        <ele>106.8</ele>
        <time>2024-04-14T08:25:44Z</time>
      </trkpt>
      <trkpt lat="47.34403" lon="0.0751">
        <ele>106.5</ele>
        <time>2024-04-14T08:25:51Z</time>
      </trkpt>
      <trkpt lat="47.34393" lon="0.0751">
        <ele>106.4</ele>
        <time>2024-04-14T08:25:52Z</time>
      </trkpt>
      <trkpt lat="47.34341" lon="0.07497">
        <ele>106.2</ele>
        <time>2024-04-14T08:25:58Z</time>
      </trkpt>
      <trkpt lat="47.34332" lon="0.07494">
        <ele>106.2</ele>
        <time>2024-04-14T08:25:59Z</time>
      </trkpt>
      <trkpt lat="47.34271" lon="0.07477">
        <ele>105.7</ele>
        <time>2024-04-14T08:26:06Z</time>
      </trkpt>
      <trkpt lat="47.34262" lon="0.07475">
        <ele>105.7</ele>
        <time>2024-04-14T08:26:07Z</time>
      </trkpt>
      <trkpt lat="47.34227" lon="0.07476">
        <ele>105.5</ele>
        <time>2024-04-14T08:26:11Z</time>
      </trkpt>
      <trkpt lat="47.34218" lon="0.07478">
        <ele>105.4</ele>
        <time>2024-04-14T08:26:12Z</time>
      </trkpt>
      <trkpt lat="47.34202" lon="0.07487">
        <ele>105.2</ele>
        <time>2024-04-14T08:26:14Z</time>
      </trkpt>
      <trkpt lat="47.34194" lon="0.07493">
        <ele>105.1</ele>
        <time>2024-04-14T08:26:15Z</time>
      </trkpt>
      <trkpt lat="47.34186" lon="0.07501">
        <ele>105</ele>
        <time>2024-04-14T08:26:16Z</time>
      </trkpt>
      <trkpt lat="47.34172" lon="0.07517">
        <ele>104.9</ele>
        <time>2024-04-14T08:26:18Z</time>
      </trkpt>
      <trkpt lat="47.34165" lon="0.07526">
        <ele>104.8</ele>
        <time>2024-04-14T08:26:19Z</time>
      </trkpt>
      <trkpt lat="47.34132" lon="0.07574">
        <ele>104.3</ele>
        <time>2024-04-14T08:26:24Z</time>
      </trkpt>
      <trkpt lat="47.34112" lon="0.07601">
        <ele>104.2</ele>
        <time>2024-04-14T08:26:27Z</time>
      </trkpt>
      <trkpt lat="47.34067" lon="0.07662">
        <ele>105.5</ele>
        <time>2024-04-14T08:26:34Z</time>
      </trkpt>
      <trkpt lat="47.34023" lon="0.07713">
        <ele>106.4</ele>
        <time>2024-04-14T08:26:41Z</time>
      </trkpt>
      <trkpt lat="47.34009" lon="0.07724">
        <ele>106.6</ele>
        <time>2024-04-14T08:26:43Z</time>
      </trkpt>
      <trkpt lat="47.34001" lon="0.07729">
        <ele>106.7</ele>
        <time>2024-04-14T08:26:44Z</time>
      </trkpt>
      <trkpt lat="47.33986" lon="0.07734">
        <ele>106.9</ele>
        <time>2024-04-14T08:26:46Z</time>
      </trkpt>
      <trkpt lat="47.33963" lon="0.07729">
        <ele>107</ele>
        <time>2024-04-14T08:26:49Z</time>
      </trkpt>
      <trkpt lat="47.33947" lon="0.07724">
        <ele>107</ele>
        <time>2024-04-14T08:26:51Z</time>
      </trkpt>
      <trkpt lat="47.33899" lon="0.07707">
        <ele>106.8</ele>
        <time>2024-04-14T08:26:57Z</time>
      </trkpt>
      <trkpt lat="47.33849" lon="0.07688">
        <ele>106.5</ele>
        <time>2024-04-14T08:27:03Z</time>
      </trkpt>
      <trkpt lat="47.3379" lon="0.0766">
        <ele>105.3</ele>
        <time>2024-04-14T08:27:10Z</time>
      </trkpt>
      <trkpt lat="47.33763" lon="0.07647">
        <ele>104.4</ele>
        <time>2024-04-14T08:27:13Z</time>
      </trkpt>
      <trkpt lat="47.33725" lon="0.07626">
        <ele>102.9</ele>
        <time>2024-04-14T08:27:17Z</time>
      </trkpt>
      <trkpt lat="47.33675" lon="0.076">
        <ele>100.3</ele>
        <time>2024-04-14T08:27:22Z</time>
      </trkpt>
      <trkpt lat="47.33664" lon="0.07595">
        <ele>99.7</ele>
        <time>2024-04-14T08:27:23Z</time>
      </trkpt>
      <trkpt lat="47.33654" lon="0.0759">
        <ele>99.2</ele>
        <time>2024-04-14T08:27:24Z</time>
      </trkpt>
      <trkpt lat="47.33621" lon="0.07576">
        <ele>97.2</ele>
        <time>2024-04-14T08:27:27Z</time>
      </trkpt>
      <trkpt lat="47.33599" lon="0.07566">
        <ele>95.9</ele>
        <time>2024-04-14T08:27:29Z</time>
      </trkpt>
      <trkpt lat="47.33588" lon="0.07561">
        <ele>95.2</ele>
        <time>2024-04-14T08:27:30Z</time>
      </trkpt>
      <trkpt lat="47.33565" lon="0.07551">
        <ele>93.7</ele>
        <time>2024-04-14T08:27:32Z</time>
      </trkpt>
      <trkpt lat="47.3353" lon="0.07535">
        <ele>91.6</ele>
        <time>2024-04-14T08:27:35Z</time>
      </trkpt>
      <trkpt lat="47.33505" lon="0.07526">
        <ele>90.5</ele>
        <time>2024-04-14T08:27:37Z</time>
      </trkpt>
      <trkpt lat="47.3348" lon="0.07516">
        <ele>89.9</ele>
        <time>2024-04-14T08:27:39Z</time>
      </trkpt>
      <trkpt lat="47.33457" lon="0.07507">
        <ele>89.5</ele>
        <time>2024-04-14T08:27:41Z</time>
      </trkpt>
      <trkpt lat="47.33446" lon="0.07503">
        <ele>89.4</ele>
        <time>2024-04-14T08:27:42Z</time>
      </trkpt>
      <trkpt lat="47.33424" lon="0.07494">
        <ele>89.2</ele>
        <time>2024-04-14T08:27:44Z</time>
      </trkpt>
      <trkpt lat="47.3337" lon="0.07465">
        <ele>88.2</ele>
        <time>2024-04-14T08:27:49Z</time>
      </trkpt>
      <trkpt lat="47.33351" lon="0.07447">
        <ele>87.6</ele>
        <time>2024-04-14T08:27:51Z</time>
      </trkpt>
      <trkpt lat="47.33333" lon="0.07424">
        <ele>86.8</ele>
        <time>2024-04-14T08:27:53Z</time>
      </trkpt>
      <trkpt lat="47.33318" lon="0.07398">
        <ele>86</ele>
        <time>2024-04-14T08:27:55Z</time>
      </trkpt>
      <trkpt lat="47.33303" lon="0.0737">
        <ele>85.1</ele>
        <time>2024-04-14T08:27:57Z</time>
      </trkpt>
      <trkpt lat="47.33282" lon="0.07327">
        <ele>83.8</ele>
        <time>2024-04-14T08:28:00Z</time>
      </trkpt>
      <trkpt lat="47.33267" lon="0.07299">
        <ele>83.2</ele>
        <time>2024-04-14T08:28:02Z</time>
      </trkpt>
      <trkpt lat="47.33246" lon="0.07258">
        <ele>82.8</ele>
        <time>2024-04-14T08:28:05Z</time>
      </trkpt>
      <trkpt lat="47.33239" lon="0.07245">
        <ele>82.6</ele>
        <time>2024-04-14T08:28:06Z</time>
      </trkpt>
      <trkpt lat="47.33215" lon="0.07213">
        <ele>82.3</ele>
        <time>2024-04-14T08:28:09Z</time>
      </trkpt>
      <trkpt lat="47.33205" lon="0.07205">
        <ele>82.2</ele>
        <time>2024-04-14T08:28:10Z</time>
      </trkpt>
      <trkpt lat="47.33185" lon="0.07192">
        <ele>82</ele>
        <time>2024-04-14T08:28:12Z</time>
      </trkpt>
      <trkpt lat="47.33165" lon="0.07184">
        <ele>81.6</ele>
        <time>2024-04-14T08:28:14Z</time>
      </trkpt>
      <trkpt lat="47.33134" lon="0.07172">
        <ele>80.6</ele>
        <time>2024-04-14T08:28:17Z</time>
      </trkpt>
      <trkpt lat="47.33123" lon="0.07168">
        <ele>80.3</ele>
        <time>2024-04-14T08:28:18Z</time>
      </trkpt>
      <trkpt lat="47.33101" lon="0.0716">
        <ele>79.6</ele>
        <time>2024-04-14T08:28:20Z</time>
      </trkpt>
      <trkpt lat="47.33068" lon="0.07147">
        <ele>78.7</ele>
        <time>2024-04-14T08:28:23Z</time>
      </trkpt>
      <trkpt lat="47.33057" lon="0.07145">
        <ele>78.4</ele>
        <time>2024-04-14T08:28:24Z</time>
      </trkpt>
      <trkpt lat="47.33046" lon="0.07142">
        <ele>78.2</ele>
        <time>2024-04-14T08:28:25Z</time>
      </trkpt>
      <trkpt lat="47.33024" lon="0.07139">
        <ele>77.9</ele>
        <time>2024-04-14T08:28:27Z</time>
      </trkpt>
      <trkpt lat="47.33002" lon="0.07139">
        <ele>77.5</ele>
        <time>2024-04-14T08:28:29Z</time>
      </trkpt>
      <trkpt lat="47.32947" lon="0.07148">
        <ele>76.6</ele>
        <time>2024-04-14T08:28:34Z</time>
      </trkpt>
      <trkpt lat="47.32893" lon="0.07157">
        <ele>76</ele>
        <time>2024-04-14T08:28:39Z</time>
      </trkpt>
      <trkpt lat="47.32882" lon="0.07159">
        <ele>75.9</ele>
        <time>2024-04-14T08:28:40Z</time>
      </trkpt>
      <trkpt lat="47.32841" lon="0.07166">
        <ele>75.1</ele>
        <time>2024-04-14T08:28:44Z</time>
      </trkpt>
      <trkpt lat="47.32831" lon="0.07168">
        <ele>74.8</ele>
        <time>2024-04-14T08:28:45Z</time>
      </trkpt>
      <trkpt lat="47.3282" lon="0.07171">
        <ele>74.5</ele>
        <time>2024-04-14T08:28:46Z</time>
      </trkpt>
      <trkpt lat="47.32789" lon="0.07179">
        <ele>73.5</ele>
        <time>2024-04-14T08:28:49Z</time>
      </trkpt>
      <trkpt lat="47.32758" lon="0.07189">
        <ele>72.8</ele>
        <time>2024-04-14T08:28:52Z</time>
      </trkpt>
      <trkpt lat="47.32736" lon="0.07199">
        <ele>72.6</ele>
        <time>2024-04-14T08:28:54Z</time>
      </trkpt>
      <trkpt lat="47.32725" lon="0.07204">
        <ele>72.5</ele>
        <time>2024-04-14T08:28:55Z</time>
      </trkpt>
      <trkpt lat="47.32704" lon="0.07211">
        <ele>72.4</ele>
        <time>2024-04-14T08:28:57Z</time>
      </trkpt>
      <trkpt lat="47.32663" lon="0.07224">
        <ele>72.1</ele>
        <time>2024-04-14T08:29:01Z</time>
      </trkpt>
      <trkpt lat="47.32605" lon="0.07242">
        <ele>72.4</ele>
        <time>2024-04-14T08:29:07Z</time>
      </trkpt>
      <trkpt lat="47.32596" lon="0.07245">
        <ele>72.6</ele>
        <time>2024-04-14T08:29:08Z</time>
      </trkpt>
      <trkpt lat="47.32542" lon="0.07274">
        <ele>72.8</ele>
        <time>2024-04-14T08:29:14Z</time>
      </trkpt>
      <trkpt lat="47.325" lon="0.07309">
        <ele>71.6</ele>
        <time>2024-04-14T08:29:19Z</time>
      </trkpt>
      <trkpt lat="47.32466" lon="0.07348">
        <ele>70.7</ele>
        <time>2024-04-14T08:29:23Z</time>
      </trkpt>
      <trkpt lat="47.32451" lon="0.07369">
        <ele>70.6</ele>
        <time>2024-04-14T08:29:25Z</time>
      </trkpt>
      <trkpt lat="47.32435" lon="0.0739">
        <ele>70.6</ele>
        <time>2024-04-14T08:29:27Z</time>
      </trkpt>
      <trkpt lat="47.32413" lon="0.07419">
        <ele>70.3</ele>
        <time>2024-04-14T08:29:30Z</time>
      </trkpt>
      <trkpt lat="47.32376" lon="0.07469">
        <ele>69</ele>
        <time>2024-04-14T08:29:35Z</time>
      </trkpt>
      <trkpt lat="47.32346" lon="0.07509">
        <ele>67.9</ele>
        <time>2024-04-14T08:29:39Z</time>
      </trkpt>
      <trkpt lat="47.32339" lon="0.07519">
        <ele>67.7</ele>
        <time>2024-04-14T08:29:40Z</time>
      </trkpt>
      <trkpt lat="47.32315" lon="0.0755">
        <ele>67.2</ele>
        <time>2024-04-14T08:29:43Z</time>
      </trkpt>
      <trkpt lat="47.323" lon="0.07568">
        <ele>66.9</ele>
        <time>2024-04-14T08:29:45Z</time>
      </trkpt>
      <trkpt lat="47.32276" lon="0.07594">
        <ele>66.7</ele>
        <time>2024-04-14T08:29:48Z</time>
      </trkpt>
      <trkpt lat="47.32261" lon="0.07609">
        <ele>66.7</ele>
        <time>2024-04-14T08:29:50Z</time>
      </trkpt>
      <trkpt lat="47.32229" lon="0.07636">
        <ele>66.6</ele>
        <time>2024-04-14T08:29:54Z</time>
      </trkpt>
      <trkpt lat="47.32179" lon="0.07681">
        <ele>66.3</ele>
        <time>2024-04-14T08:30:00Z</time>
      </trkpt>
      <trkpt lat="47.32161" lon="0.07696">
        <ele>66.1</ele>
        <time>2024-04-14T08:30:02Z</time>
      </trkpt>
      <trkpt lat="47.32115" lon="0.07729">
        <ele>65.8</ele>
        <time>2024-04-14T08:30:07Z</time>
      </trkpt>
      <trkpt lat="47.32097" lon="0.07738">
        <ele>65.6</ele>
        <time>2024-04-14T08:30:09Z</time>
      </trkpt>
      <trkpt lat="47.32049" lon="0.0776">
        <ele>64.7</ele>
        <time>2024-04-14T08:30:14Z</time>
      </trkpt>
      <trkpt lat="47.31991" lon="0.07779">
        <ele>63.5</ele>
        <time>2024-04-14T08:30:20Z</time>
      </trkpt>
      <trkpt lat="47.31981" lon="0.07781">
        <ele>63.2</ele>
        <time>2024-04-14T08:30:21Z</time>
      </trkpt>
      <trkpt lat="47.31941" lon="0.07783">
        <ele>62.4</ele>
        <time>2024-04-14T08:30:25Z</time>
      </trkpt>
      <trkpt lat="47.31931" lon="0.07783">
        <ele>62.2</ele>
        <time>2024-04-14T08:30:26Z</time>
      </trkpt>
      <trkpt lat="47.31881" lon="0.0778">
        <ele>61</ele>
        <time>2024-04-14T08:30:31Z</time>
      </trkpt>
      <trkpt lat="47.31871" lon="0.07777">
        <ele>60.8</ele>
        <time>2024-04-14T08:30:32Z</time>
      </trkpt>
      <trkpt lat="47.31851" lon="0.07772">
        <ele>60.6</ele>
        <time>2024-04-14T08:30:34Z</time>
      </trkpt>
      <trkpt lat="47.31822" lon="0.07763">
        <ele>60</ele>
        <time>2024-04-14T08:30:37Z</time>
      </trkpt>
      <trkpt lat="47.31761" lon="0.07739">
        <ele>59.1</ele>
        <time>2024-04-14T08:30:43Z</time>
      </trkpt>
      <trkpt lat="47.31751" lon="0.07734">
        <ele>59</ele>
        <time>2024-04-14T08:30:44Z</time>
      </trkpt>
      <trkpt lat="47.31694" lon="0.07703">
        <ele>58.1</ele>
        <time>2024-04-14T08:30:50Z</time>
      </trkpt>
      <trkpt lat="47.31685" lon="0.07697">
        <ele>58</ele>
        <time>2024-04-14T08:30:51Z</time>
      </trkpt>
      <trkpt lat="47.31638" lon="0.07666">
        <ele>57.2</ele>
        <time>2024-04-14T08:30:56Z</time>
      </trkpt>
      <trkpt lat="47.31594" lon="0.07628">
        <ele>56.4</ele>
        <time>2024-04-14T08:31:01Z</time>
      </trkpt>
      <trkpt lat="47.31538" lon="0.07586">
        <ele>55.9</ele>
        <time>2024-04-14T08:31:07Z</time>
      </trkpt>
      <trkpt lat="47.31486" lon="0.0754">
        <ele>55.5</ele>
        <time>2024-04-14T08:31:13Z</time>
      </trkpt>
      <trkpt lat="47.31468" lon="0.07525">
        <ele>55.3</ele>
        <time>2024-04-14T08:31:15Z</time>
      </trkpt>
      <trkpt lat="47.31415" lon="0.07481">
        <ele>54.5</ele>
        <time>2024-04-14T08:31:21Z</time>
      </trkpt>
      <trkpt lat="47.31407" lon="0.07473">
        <ele>54.4</ele>
        <time>2024-04-14T08:31:22Z</time>
      </trkpt>
      <trkpt lat="47.3138" lon="0.07451">
        <ele>54</ele>
        <time>2024-04-14T08:31:25Z</time>
      </trkpt>
      <trkpt lat="47.31344" lon="0.07423">
        <ele>53.6</ele>
        <time>2024-04-14T08:31:29Z</time>
      </trkpt>
      <trkpt lat="47.31299" lon="0.07385">
        <ele>52.8</ele>
        <time>2024-04-14T08:31:34Z</time>
      </trkpt>
      <trkpt lat="47.31281" lon="0.07371">
        <ele>52.5</ele>
        <time>2024-04-14T08:31:36Z</time>
      </trkpt>
      <trkpt lat="47.31227" lon="0.07326">
        <ele>51</ele>
        <time>2024-04-14T08:31:42Z</time>
      </trkpt>
      <trkpt lat="47.31218" lon="0.07319">
        <ele>50.7</ele>
        <time>2024-04-14T08:31:43Z</time>
      </trkpt>
      <trkpt lat="47.31171" lon="0.07281">
        <ele>49.2</ele>
        <time>2024-04-14T08:31:48Z</time>
      </trkpt>
      <trkpt lat="47.31152" lon="0.07266">
        <ele>48.7</ele>
        <time>2024-04-14T08:31:50Z</time>
      </trkpt>
      <trkpt lat="47.31132" lon="0.07251">
        <ele>48.4</ele>
        <time>2024-04-14T08:31:52Z</time>
      </trkpt>
      <trkpt lat="47.31095" lon="0.0722">
        <ele>47.8</ele>
        <time>2024-04-14T08:31:56Z</time>
      </trkpt>
      <trkpt lat="47.31067" lon="0.07197">
        <ele>47.6</ele>
        <time>2024-04-14T08:31:59Z</time>
      </trkpt>
      <trkpt lat="47.31049" lon="0.0718">
        <ele>47.5</ele>
        <time>2024-04-14T08:32:01Z</time>
      </trkpt>
      <trkpt lat="47.31016" lon="0.07142">
        <ele>47.3</ele>
        <time>2024-04-14T08:32:05Z</time>
      </trkpt>
      <trkpt lat="47.30973" lon="0.0708">
        <ele>47.2</ele>
        <time>2024-04-14T08:32:11Z</time>
      </trkpt>
      <trkpt lat="47.30966" lon="0.0707">
        <ele>47.3</ele>
        <time>2024-04-14T08:32:12Z</time>
      </trkpt>
      <trkpt lat="47.30926" lon="0.07012">
        <ele>47.5</ele>
        <time>2024-04-14T08:32:18Z</time>
      </trkpt>
      <trkpt lat="47.30912" lon="0.06994">
        <ele>47.6</ele>
        <time>2024-04-14T08:32:20Z</time>
      </trkpt>
      <trkpt lat="47.30871" lon="0.06939">
        <ele>46.9</ele>
        <time>2024-04-14T08:32:26Z</time>
      </trkpt>
      <trkpt lat="47.30856" lon="0.06921">
        <ele>46.3</ele>
        <time>2024-04-14T08:32:28Z</time>
      </trkpt>
      <trkpt lat="47.30824" lon="0.06886">
        <ele>45.1</ele>
        <time>2024-04-14T08:32:32Z</time>
      </trkpt>
      <trkpt lat="47.308" lon="0.06859">
        <ele>44.4</ele>
        <time>2024-04-14T08:32:35Z</time>
      </trkpt>
      <trkpt lat="47.30784" lon="0.06841">
        <ele>44.3</ele>
        <time>2024-04-14T08:32:37Z</time>
      </trkpt>
      <trkpt lat="47.3076" lon="0.06815">
        <ele>44.2</ele>
        <time>2024-04-14T08:32:40Z</time>
      </trkpt>
      <trkpt lat="47.30722" lon="0.06773">
        <ele>44.5</ele>
        <time>2024-04-14T08:32:45Z</time>
      </trkpt>
      <trkpt lat="47.30692" lon="0.06741">
        <ele>44.9</ele>
        <time>2024-04-14T08:32:49Z</time>
      </trkpt>
      <trkpt lat="47.30664" lon="0.0671">
        <ele>45.5</ele>
        <time>2024-04-14T08:32:53Z</time>
      </trkpt>
      <trkpt lat="47.30616" lon="0.0667">
        <ele>45.5</ele>
        <time>2024-04-14T08:32:59Z</time>
      </trkpt>
      <trkpt lat="47.30608" lon="0.06664">
        <ele>45.5</ele>
        <time>2024-04-14T08:33:00Z</time>
      </trkpt>
      <trkpt lat="47.30574" lon="0.06639">
        <ele>45.1</ele>
        <time>2024-04-14T08:33:04Z</time>
      </trkpt>
      <trkpt lat="47.30555" lon="0.06633">
        <ele>44.9</ele>
        <time>2024-04-14T08:33:06Z</time>
      </trkpt>
      <trkpt lat="47.30536" lon="0.06632">
        <ele>44.8</ele>
        <time>2024-04-14T08:33:08Z</time>
      </trkpt>
      <trkpt lat="47.30517" lon="0.06628">
        <ele>44.6</ele>
        <time>2024-04-14T08:33:10Z</time>
      </trkpt>
      <trkpt lat="47.30498" lon="0.06624">
        <ele>44.5</ele>
        <time>2024-04-14T08:33:12Z</time>
      </trkpt>
      <trkpt lat="47.3046" lon="0.06616">
        <ele>44.3</ele>
        <time>2024-04-14T08:33:16Z</time>
      </trkpt>
      <trkpt lat="47.30432" lon="0.06608">
        <ele>44</ele>
        <time>2024-04-14T08:33:19Z</time>
      </trkpt>
      <trkpt lat="47.30385" lon="0.06597">
        <ele>43.8</ele>
        <time>2024-04-14T08:33:24Z</time>
      </trkpt>
      <trkpt lat="47.3033" lon="0.06585">
        <ele>43.6</ele>
        <time>2024-04-14T08:33:30Z</time>
      </trkpt>
      <trkpt lat="47.30282" lon="0.06573">
        <ele>43.8</ele>
        <time>2024-04-14T08:33:36Z</time>
      </trkpt>
      <trkpt lat="47.30249" lon="0.06562">
        <ele>44</ele>
        <time>2024-04-14T08:33:41Z</time>
      </trkpt>
      <trkpt lat="47.30244" lon="0.06556">
        <ele>44</ele>
        <time>2024-04-14T08:33:42Z</time>
      </trkpt>
      <trkpt lat="47.30233" lon="0.0653">
        <ele>43.9</ele>
        <time>2024-04-14T08:33:45Z</time>
      </trkpt>
      <trkpt lat="47.30226" lon="0.06504">
        <ele>43.7</ele>
        <time>2024-04-14T08:33:48Z</time>
      </trkpt>
      <trkpt lat="47.30217" lon="0.06487">
        <ele>43.6</ele>
        <time>2024-04-14T08:33:50Z</time>
      </trkpt>
      <trkpt lat="47.30194" lon="0.06441">
        <ele>43.1</ele>
        <time>2024-04-14T08:33:55Z</time>
      </trkpt>
      <trkpt lat="47.30165" lon="0.06401">
        <ele>42.6</ele>
        <time>2024-04-14T08:34:00Z</time>
      </trkpt>
      <trkpt lat="47.30153" lon="0.06388">
        <ele>42.4</ele>
        <time>2024-04-14T08:34:02Z</time>
      </trkpt>
      <trkpt lat="47.30146" lon="0.06382">
        <ele>42.2</ele>
        <time>2024-04-14T08:34:03Z</time>
      </trkpt>
      <trkpt lat="47.3013" lon="0.06374">
        <ele>41.9</ele>
        <time>2024-04-14T08:34:05Z</time>
      </trkpt>
      <trkpt lat="47.3008" lon="0.06347">
        <ele>41.1</ele>
        <time>2024-04-14T08:34:11Z</time>
      </trkpt>
      <trkpt lat="47.30072" lon="0.06342">
        <ele>41</ele>
        <time>2024-04-14T08:34:12Z</time>
      </trkpt>
      <trkpt lat="47.30013" lon="0.06312">
        <ele>40.8</ele>
        <time>2024-04-14T08:34:19Z</time>
      </trkpt>
      <trkpt lat="47.2998" lon="0.06294">
        <ele>40.8</ele>
        <time>2024-04-14T08:34:23Z</time>
      </trkpt>
      <trkpt lat="47.29946" lon="0.06273">
        <ele>40.7</ele>
        <time>2024-04-14T08:34:27Z</time>
      </trkpt>
      <trkpt lat="47.29904" lon="0.06251">
        <ele>40.5</ele>
        <time>2024-04-14T08:34:32Z</time>
      </trkpt>
      <trkpt lat="47.29853" lon="0.06224">
        <ele>40.3</ele>
        <time>2024-04-14T08:34:38Z</time>
      </trkpt>
      <trkpt lat="47.29835" lon="0.06215">
        <ele>40.3</ele>
        <time>2024-04-14T08:34:40Z</time>
      </trkpt>
      <trkpt lat="47.29778" lon="0.06184">
        <ele>40.7</ele>
        <time>2024-04-14T08:34:47Z</time>
      </trkpt>
      <trkpt lat="47.29762" lon="0.06174">
        <ele>40.9</ele>
        <time>2024-04-14T08:34:49Z</time>
      </trkpt>
      <trkpt lat="47.29707" lon="0.06144">
        <ele>41.4</ele>
        <time>2024-04-14T08:34:56Z</time>
      </trkpt>
      <trkpt lat="47.29652" lon="0.06112">
        <ele>41.7</ele>
        <time>2024-04-14T08:35:03Z</time>
      </trkpt>
      <trkpt lat="47.29597" lon="0.06081">
        <ele>42.1</ele>
        <time>2024-04-14T08:35:10Z</time>
      </trkpt>
      <trkpt lat="47.29588" lon="0.06077">
        <ele>42.1</ele>
        <time>2024-04-14T08:35:11Z</time>
      </trkpt>
      <trkpt lat="47.29539" lon="0.06051">
        <ele>42.4</ele>
        <time>2024-04-14T08:35:17Z</time>
      </trkpt>
      <trkpt lat="47.29507" lon="0.06033">
        <ele>42.5</ele>
        <time>2024-04-14T08:35:21Z</time>
      </trkpt>
      <trkpt lat="47.29448" lon="0.06004">
        <ele>42.6</ele>
        <time>2024-04-14T08:35:28Z</time>
      </trkpt>
      <trkpt lat="47.29431" lon="0.05996">
        <ele>42.6</ele>
        <time>2024-04-14T08:35:30Z</time>
      </trkpt>
      <trkpt lat="47.29374" lon="0.05966">
        <ele>42.9</ele>
        <time>2024-04-14T08:35:37Z</time>
      </trkpt>
      <trkpt lat="47.29366" lon="0.05962">
        <ele>43</ele>
        <time>2024-04-14T08:35:38Z</time>
      </trkpt>
      <trkpt lat="47.2931" lon="0.05933">
        <ele>43.5</ele>
        <time>2024-04-14T08:35:45Z</time>
      </trkpt>
      <trkpt lat="47.29303" lon="0.05928">
        <ele>43.5</ele>
        <time>2024-04-14T08:35:46Z</time>
      </trkpt>
      <trkpt lat="47.29287" lon="0.0592">
        <ele>43.7</ele>
        <time>2024-04-14T08:35:48Z</time>
      </trkpt>
      <trkpt lat="47.29233" lon="0.05889">
        <ele>43.6</ele>
        <time>2024-04-14T08:35:55Z</time>
      </trkpt>
      <trkpt lat="47.29175" lon="0.05857">
        <ele>42.5</ele>
        <time>2024-04-14T08:36:02Z</time>
      </trkpt>
      <trkpt lat="47.29166" lon="0.05853">
        <ele>42.4</ele>
        <time>2024-04-14T08:36:03Z</time>
      </trkpt>
      <trkpt lat="47.29121" lon="0.05842">
        <ele>41.5</ele>
        <time>2024-04-14T08:36:08Z</time>
      </trkpt>
      <trkpt lat="47.29112" lon="0.05842">
        <ele>41.3</ele>
        <time>2024-04-14T08:36:09Z</time>
      </trkpt>
      <trkpt lat="47.29085" lon="0.05847">
        <ele>40.8</ele>
        <time>2024-04-14T08:36:12Z</time>
      </trkpt>
      <trkpt lat="47.29075" lon="0.05849">
        <ele>40.6</ele>
        <time>2024-04-14T08:36:13Z</time>
      </trkpt>
      <trkpt lat="47.29018" lon="0.05855">
        <ele>39.5</ele>
        <time>2024-04-14T08:36:19Z</time>
      </trkpt>
      <trkpt lat="47.28999" lon="0.05853">
        <ele>39</ele>
        <time>2024-04-14T08:36:21Z</time>
      </trkpt>
      <trkpt lat="47.28961" lon="0.05849">
        <ele>37.8</ele>
        <time>2024-04-14T08:36:25Z</time>
      </trkpt>
      <trkpt lat="47.28922" lon="0.05843">
        <ele>36.8</ele>
        <time>2024-04-14T08:36:29Z</time>
      </trkpt>
      <trkpt lat="47.28881" lon="0.05838">
        <ele>35.3</ele>
        <time>2024-04-14T08:36:33Z</time>
      </trkpt>
      <trkpt lat="47.2885" lon="0.05834">
        <ele>34.3</ele>
        <time>2024-04-14T08:36:36Z</time>
      </trkpt>
      <trkpt lat="47.28809" lon="0.05832">
        <ele>33</ele>
        <time>2024-04-14T08:36:41Z</time>
      </trkpt>
      <trkpt lat="47.28778" lon="0.05834">
        <ele>32.1</ele>
        <time>2024-04-14T08:36:44Z</time>
      </trkpt>
      <trkpt lat="47.28747" lon="0.05842">
        <ele>31.4</ele>
        <time>2024-04-14T08:36:47Z</time>
      </trkpt>
      <trkpt lat="47.28717" lon="0.05853">
        <ele>30.7</ele>
        <time>2024-04-14T08:36:50Z</time>
      </trkpt>
      <trkpt lat="47.28688" lon="0.05869">
        <ele>30.2</ele>
        <time>2024-04-14T08:36:53Z</time>
      </trkpt>
      <trkpt lat="47.2867" lon="0.05881">
        <ele>30</ele>
        <time>2024-04-14T08:36:55Z</time>
      </trkpt>
      <trkpt lat="47.28654" lon="0.05894">
        <ele>29.8</ele>
        <time>2024-04-14T08:36:57Z</time>
      </trkpt>
      <trkpt lat="47.28638" lon="0.05905">
        <ele>29.8</ele>
        <time>2024-04-14T08:36:59Z</time>
      </trkpt>
      <trkpt lat="47.28631" lon="0.05909">
        <ele>29.7</ele>
        <time>2024-04-14T08:37:00Z</time>
      </trkpt>
      <trkpt lat="47.28624" lon="0.05909">
        <ele>29.8</ele>
        <time>2024-04-14T08:37:01Z</time>
      </trkpt>
      <trkpt lat="47.28607" lon="0.05906">
        <ele>29.6</ele>
        <time>2024-04-14T08:37:04Z</time>
      </trkpt>
      <trkpt lat="47.28595" lon="0.05922">
        <ele>29.5</ele>
        <time>2024-04-14T08:37:07Z</time>
      </trkpt>
      <trkpt lat="47.28591" lon="0.05931">
        <ele>29.4</ele>
        <time>2024-04-14T08:37:08Z</time>
      </trkpt>
      <trkpt lat="47.28586" lon="0.05938">
        <ele>29.3</ele>
        <time>2024-04-14T08:37:09Z</time>
      </trkpt>
      <trkpt lat="47.28579" lon="0.05945">
        <ele>29.1</ele>
        <time>2024-04-14T08:37:10Z</time>
      </trkpt>
      <trkpt lat="47.28556" lon="0.05956">
        <ele>28.8</ele>
        <time>2024-04-14T08:37:13Z</time>
      </trkpt>
      <trkpt lat="47.28548" lon="0.0596">
        <ele>28.7</ele>
        <time>2024-04-14T08:37:14Z</time>
      </trkpt>
      <trkpt lat="47.28541" lon="0.05964">
        <ele>28.6</ele>
        <time>2024-04-14T08:37:15Z</time>
      </trkpt>
      <trkpt lat="47.285" lon="0.05978">
        <ele>28.2</ele>
        <time>2024-04-14T08:37:20Z</time>
      </trkpt>
      <trkpt lat="47.28464" lon="0.05981">
        <ele>28</ele>
        <time>2024-04-14T08:37:24Z</time>
      </trkpt>
      <trkpt lat="47.28455" lon="0.05981">
        <ele>27.9</ele>
        <time>2024-04-14T08:37:25Z</time>
      </trkpt>
      <trkpt lat="47.2841" lon="0.05974">
        <ele>27.8</ele>
        <time>2024-04-14T08:37:30Z</time>
      </trkpt>
      <trkpt lat="47.28355" lon="0.05959">
        <ele>27.5</ele>
        <time>2024-04-14T08:37:36Z</time>
      </trkpt>
      <trkpt lat="47.28338" lon="0.05953">
        <ele>27.4</ele>
        <time>2024-04-14T08:37:38Z</time>
      </trkpt>
      <trkpt lat="47.28283" lon="0.05938">
        <ele>26.9</ele>
        <time>2024-04-14T08:37:44Z</time>
      </trkpt>
      <trkpt lat="47.28255" lon="0.05929">
        <ele>26.8</ele>
        <time>2024-04-14T08:37:47Z</time>
      </trkpt>
      <trkpt lat="47.28201" lon="0.05912">
        <ele>26.7</ele>
        <time>2024-04-14T08:37:53Z</time>
      </trkpt>
      <trkpt lat="47.28192" lon="0.05908">
        <ele>26.7</ele>
        <time>2024-04-14T08:37:54Z</time>
      </trkpt>
      <trkpt lat="47.28184" lon="0.05903">
        <ele>26.7</ele>
        <time>2024-04-14T08:37:55Z</time>
      </trkpt>
      <trkpt lat="47.28132" lon="0.05877">
        <ele>26.7</ele>
        <time>2024-04-14T08:38:01Z</time>
      </trkpt>
      <trkpt lat="47.28081" lon="0.05848">
        <ele>26.4</ele>
        <time>2024-04-14T08:38:07Z</time>
      </trkpt>
      <trkpt lat="47.28072" lon="0.05843">
        <ele>26.4</ele>
        <time>2024-04-14T08:38:08Z</time>
      </trkpt>
      <trkpt lat="47.28021" lon="0.05809">
        <ele>26.2</ele>
        <time>2024-04-14T08:38:14Z</time>
      </trkpt>
      <trkpt lat="47.28012" lon="0.05803">
        <ele>26.2</ele>
        <time>2024-04-14T08:38:15Z</time>
      </trkpt>
      <trkpt lat="47.27959" lon="0.05772">
        <ele>26</ele>
        <time>2024-04-14T08:38:21Z</time>
      </trkpt>
      <trkpt lat="47.27941" lon="0.05764">
        <ele>26.1</ele>
        <time>2024-04-14T08:38:23Z</time>
      </trkpt>
      <trkpt lat="47.27888" lon="0.05743">
        <ele>26.3</ele>
        <time>2024-04-14T08:38:29Z</time>
      </trkpt>
      <trkpt lat="47.27879" lon="0.0574">
        <ele>26.4</ele>
        <time>2024-04-14T08:38:30Z</time>
      </trkpt>
      <trkpt lat="47.27827" lon="0.05731">
        <ele>26.8</ele>
        <time>2024-04-14T08:38:36Z</time>
      </trkpt>
      <trkpt lat="47.27769" lon="0.05729">
        <ele>28.7</ele>
        <time>2024-04-14T08:38:43Z</time>
      </trkpt>
      <trkpt lat="47.27761" lon="0.0573">
        <ele>29.1</ele>
        <time>2024-04-14T08:38:44Z</time>
      </trkpt>
      <trkpt lat="47.27714" lon="0.05732">
        <ele>30.7</ele>
        <time>2024-04-14T08:38:50Z</time>
      </trkpt>
      <trkpt lat="47.27683" lon="0.05731">
        <ele>31.6</ele>
        <time>2024-04-14T08:38:54Z</time>
      </trkpt>
      <trkpt lat="47.27668" lon="0.05728">
        <ele>32</ele>
        <time>2024-04-14T08:38:56Z</time>
      </trkpt>
      <trkpt lat="47.27654" lon="0.05726">
        <ele>32.3</ele>
        <time>2024-04-14T08:38:58Z</time>
      </trkpt>
      <trkpt lat="47.27623" lon="0.0572">
        <ele>32.8</ele>
        <time>2024-04-14T08:39:02Z</time>
      </trkpt>
      <trkpt lat="47.27608" lon="0.05716">
        <ele>32.9</ele>
        <time>2024-04-14T08:39:04Z</time>
      </trkpt>
      <trkpt lat="47.27575" lon="0.0571">
        <ele>32.9</ele>
        <time>2024-04-14T08:39:08Z</time>
      </trkpt>
      <trkpt lat="47.27516" lon="0.05695">
        <ele>32.3</ele>
        <time>2024-04-14T08:39:15Z</time>
      </trkpt>
      <trkpt lat="47.27465" lon="0.05676">
        <ele>30.8</ele>
        <time>2024-04-14T08:39:21Z</time>
      </trkpt>
      <trkpt lat="47.27419" lon="0.05655">
        <ele>29</ele>
        <time>2024-04-14T08:39:26Z</time>
      </trkpt>
      <trkpt lat="47.274" lon="0.05646">
        <ele>28.3</ele>
        <time>2024-04-14T08:39:28Z</time>
      </trkpt>
      <trkpt lat="47.27352" lon="0.05621">
        <ele>27</ele>
        <time>2024-04-14T08:39:33Z</time>
      </trkpt>
      <trkpt lat="47.27342" lon="0.05616">
        <ele>26.8</ele>
        <time>2024-04-14T08:39:34Z</time>
      </trkpt>
      <trkpt lat="47.27313" lon="0.05605">
        <ele>26.6</ele>
        <time>2024-04-14T08:39:37Z</time>
      </trkpt>
      <trkpt lat="47.27303" lon="0.05601">
        <ele>26.5</ele>
        <time>2024-04-14T08:39:38Z</time>
      </trkpt>
      <trkpt lat="47.27246" lon="0.05583">
        <ele>26.5</ele>
        <time>2024-04-14T08:39:44Z</time>
      </trkpt>
      <trkpt lat="47.27237" lon="0.0558">
        <ele>26.6</ele>
        <time>2024-04-14T08:39:45Z</time>
      </trkpt>
      <trkpt lat="47.2718" lon="0.05569">
        <ele>26.8</ele>
        <time>2024-04-14T08:39:51Z</time>
      </trkpt>
      <trkpt lat="47.2717" lon="0.05568">
        <ele>26.8</ele>
        <time>2024-04-14T08:39:52Z</time>
      </trkpt>
      <trkpt lat="47.27117" lon="0.05558">
        <ele>26.8</ele>
        <time>2024-04-14T08:39:58Z</time>
      </trkpt>
      <trkpt lat="47.27108" lon="0.05557">
        <ele>26.8</ele>
        <time>2024-04-14T08:39:59Z</time>
      </trkpt>
      <trkpt lat="47.27056" lon="0.05545">
        <ele>26.8</ele>
        <time>2024-04-14T08:40:05Z</time>
      </trkpt>
      <trkpt lat="47.26997" lon="0.05535">
        <ele>26.8</ele>
        <time>2024-04-14T08:40:12Z</time>
      </trkpt>
      <trkpt lat="47.26988" lon="0.05533">
        <ele>26.8</ele>
        <time>2024-04-14T08:40:13Z</time>
      </trkpt>
      <trkpt lat="47.2693" lon="0.05519">
        <ele>26.7</ele>
        <time>2024-04-14T08:40:20Z</time>
      </trkpt>
      <trkpt lat="47.26877" lon="0.05506">
        <ele>26.6</ele>
        <time>2024-04-14T08:40:26Z</time>
      </trkpt>
      <trkpt lat="47.26824" lon="0.05494">
        <ele>26.7</ele>
        <time>2024-04-14T08:40:32Z</time>
      </trkpt>
      <trkpt lat="47.26806" lon="0.0549">
        <ele>26.6</ele>
        <time>2024-04-14T08:40:34Z</time>
      </trkpt>
      <trkpt lat="47.26752" lon="0.05479">
        <ele>26.3</ele>
        <time>2024-04-14T08:40:40Z</time>
      </trkpt>
      <trkpt lat="47.26725" lon="0.05473">
        <ele>26.3</ele>
        <time>2024-04-14T08:40:43Z</time>
      </trkpt>
      <trkpt lat="47.26664" lon="0.05457">
        <ele>26.2</ele>
        <time>2024-04-14T08:40:50Z</time>
      </trkpt>
      <trkpt lat="47.26603" lon="0.05442">
        <ele>26.3</ele>
        <time>2024-04-14T08:40:57Z</time>
      </trkpt>
      <trkpt lat="47.26585" lon="0.05441">
        <ele>26.4</ele>
        <time>2024-04-14T08:40:59Z</time>
      </trkpt>
      <trkpt lat="47.26533" lon="0.0544">
        <ele>27</ele>
        <time>2024-04-14T08:41:05Z</time>
      </trkpt>
      <trkpt lat="47.26472" lon="0.05442">
        <ele>26.6</ele>
        <time>2024-04-14T08:41:12Z</time>
      </trkpt>
      <trkpt lat="47.26463" lon="0.05442">
        <ele>26.5</ele>
        <time>2024-04-14T08:41:13Z</time>
      </trkpt>
      <trkpt lat="47.26402" lon="0.05442">
        <ele>26.5</ele>
        <time>2024-04-14T08:41:20Z</time>
      </trkpt>
      <trkpt lat="47.26376" lon="0.05443">
        <ele>26.5</ele>
        <time>2024-04-14T08:41:23Z</time>
      </trkpt>
      <trkpt lat="47.26315" lon="0.05444">
        <ele>26.6</ele>
        <time>2024-04-14T08:41:30Z</time>
      </trkpt>
      <trkpt lat="47.26306" lon="0.05444">
        <ele>26.6</ele>
        <time>2024-04-14T08:41:31Z</time>
      </trkpt>
      <trkpt lat="47.26289" lon="0.0544">
        <ele>26.7</ele>
        <time>2024-04-14T08:41:33Z</time>
      </trkpt>
      <trkpt lat="47.26272" lon="0.05433">
        <ele>26.8</ele>
        <time>2024-04-14T08:41:35Z</time>
      </trkpt>
      <trkpt lat="47.26226" lon="0.05403">
        <ele>26.7</ele>
        <time>2024-04-14T08:41:41Z</time>
      </trkpt>
      <trkpt lat="47.26171" lon="0.0537">
        <ele>26.7</ele>
        <time>2024-04-14T08:41:48Z</time>
      </trkpt>
      <trkpt lat="47.26155" lon="0.05363">
        <ele>26.6</ele>
        <time>2024-04-14T08:41:50Z</time>
      </trkpt>
      <trkpt lat="47.26113" lon="0.0536">
        <ele>26.5</ele>
        <time>2024-04-14T08:41:55Z</time>
      </trkpt>
      <trkpt lat="47.26051" lon="0.05366">
        <ele>26.5</ele>
        <time>2024-04-14T08:42:02Z</time>
      </trkpt>
      <trkpt lat="47.25997" lon="0.05363">
        <ele>26.4</ele>
        <time>2024-04-14T08:42:08Z</time>
      </trkpt>
      <trkpt lat="47.25955" lon="0.05343">
        <ele>26.5</ele>
        <time>2024-04-14T08:42:13Z</time>
      </trkpt>
      <trkpt lat="47.25909" lon="0.05308">
        <ele>26.5</ele>
        <time>2024-04-14T08:42:19Z</time>
      </trkpt>
      <trkpt lat="47.25856" lon="0.05266">
        <ele>26.5</ele>
        <time>2024-04-14T08:42:26Z</time>
      </trkpt>
      <trkpt lat="47.2584" lon="0.05255">
        <ele>26.5</ele>
        <time>2024-04-14T08:42:28Z</time>
      </trkpt>
      <trkpt lat="47.25784" lon="0.05225">
        <ele>26.5</ele>
        <time>2024-04-14T08:42:35Z</time>
      </trkpt>
      <trkpt lat="47.25734" lon="0.05211">
        <ele>26.5</ele>
        <time>2024-04-14T08:42:41Z</time>
      </trkpt>
      <trkpt lat="47.25725" lon="0.05208">
        <ele>26.5</ele>
        <time>2024-04-14T08:42:42Z</time>
      </trkpt>
      <trkpt lat="47.25666" lon="0.05191">
        <ele>26.7</ele>
        <time>2024-04-14T08:42:49Z</time>
      </trkpt>
      <trkpt lat="47.25607" lon="0.05172">
        <ele>27.9</ele>
        <time>2024-04-14T08:42:56Z</time>
      </trkpt>
      <trkpt lat="47.25592" lon="0.05166">
        <ele>28.4</ele>
        <time>2024-04-14T08:42:58Z</time>
      </trkpt>
      <trkpt lat="47.25577" lon="0.0516">
        <ele>28.8</ele>
        <time>2024-04-14T08:43:00Z</time>
      </trkpt>
      <trkpt lat="47.25556" lon="0.05152">
        <ele>29.6</ele>
        <time>2024-04-14T08:43:03Z</time>
      </trkpt>
      <trkpt lat="47.25548" lon="0.0515">
        <ele>30</ele>
        <time>2024-04-14T08:43:04Z</time>
      </trkpt>
      <trkpt lat="47.2552" lon="0.05143">
        <ele>31.1</ele>
        <time>2024-04-14T08:43:08Z</time>
      </trkpt>
      <trkpt lat="47.25513" lon="0.05142">
        <ele>31.3</ele>
        <time>2024-04-14T08:43:09Z</time>
      </trkpt>
      <trkpt lat="47.25499" lon="0.05139">
        <ele>31.7</ele>
        <time>2024-04-14T08:43:11Z</time>
      </trkpt>
      <trkpt lat="47.25478" lon="0.05135">
        <ele>31.4</ele>
        <time>2024-04-14T08:43:14Z</time>
      </trkpt>
      <trkpt lat="47.2547" lon="0.05132">
        <ele>31.1</ele>
        <time>2024-04-14T08:43:15Z</time>
      </trkpt>
      <trkpt lat="47.25428" lon="0.05112">
        <ele>29.2</ele>
        <time>2024-04-14T08:43:20Z</time>
      </trkpt>
      <trkpt lat="47.254" lon="0.05102">
        <ele>28.2</ele>
        <time>2024-04-14T08:43:23Z</time>
      </trkpt>
      <trkpt lat="47.25381" lon="0.05097">
        <ele>27.6</ele>
        <time>2024-04-14T08:43:25Z</time>
      </trkpt>
      <trkpt lat="47.2537" lon="0.05094">
        <ele>27.4</ele>
        <time>2024-04-14T08:43:26Z</time>
      </trkpt>
      <trkpt lat="47.25349" lon="0.05089">
        <ele>27</ele>
        <time>2024-04-14T08:43:28Z</time>
      </trkpt>
      <trkpt lat="47.25307" lon="0.05076">
        <ele>26.7</ele>
        <time>2024-04-14T08:43:32Z</time>
      </trkpt>
      <trkpt lat="47.25288" lon="0.05067">
        <ele>26.6</ele>
        <time>2024-04-14T08:43:34Z</time>
      </trkpt>
      <trkpt lat="47.2526" lon="0.05051">
        <ele>26.7</ele>
        <time>2024-04-14T08:43:37Z</time>
      </trkpt>
      <trkpt lat="47.2521" lon="0.05014">
        <ele>26.8</ele>
        <time>2024-04-14T08:43:43Z</time>
      </trkpt>
      <trkpt lat="47.25201" lon="0.0501">
        <ele>26.8</ele>
        <time>2024-04-14T08:43:44Z</time>
      </trkpt>
      <trkpt lat="47.25159" lon="0.04998">
        <ele>26.8</ele>
        <time>2024-04-14T08:43:49Z</time>
      </trkpt>
      <trkpt lat="47.25151" lon="0.04998">
        <ele>26.8</ele>
        <time>2024-04-14T08:43:50Z</time>
      </trkpt>
      <trkpt lat="47.25127" lon="0.05008">
        <ele>26.9</ele>
        <time>2024-04-14T08:43:53Z</time>
      </trkpt>
      <trkpt lat="47.25076" lon="0.05036">
        <ele>26.8</ele>
        <time>2024-04-14T08:43:59Z</time>
      </trkpt>
      <trkpt lat="47.25058" lon="0.05046">
        <ele>26.8</ele>
        <time>2024-04-14T08:44:01Z</time>
      </trkpt>
      <trkpt lat="47.25002" lon="0.05076">
        <ele>26.7</ele>
        <time>2024-04-14T08:44:07Z</time>
      </trkpt>
      <trkpt lat="47.24965" lon="0.05096">
        <ele>26.8</ele>
        <time>2024-04-14T08:44:11Z</time>
      </trkpt>
      <trkpt lat="47.24912" lon="0.05128">
        <ele>26.9</ele>
        <time>2024-04-14T08:44:17Z</time>
      </trkpt>
      <trkpt lat="47.24904" lon="0.05133">
        <ele>26.9</ele>
        <time>2024-04-14T08:44:18Z</time>
      </trkpt>
      <trkpt lat="47.24853" lon="0.05169">
        <ele>26.9</ele>
        <time>2024-04-14T08:44:24Z</time>
      </trkpt>
      <trkpt lat="47.24845" lon="0.05175">
        <ele>26.9</ele>
        <time>2024-04-14T08:44:25Z</time>
      </trkpt>
      <trkpt lat="47.24795" lon="0.05211">
        <ele>26.7</ele>
        <time>2024-04-14T08:44:31Z</time>
      </trkpt>
      <trkpt lat="47.24778" lon="0.05222">
        <ele>26.7</ele>
        <time>2024-04-14T08:44:33Z</time>
      </trkpt>
      <trkpt lat="47.24726" lon="0.05248">
        <ele>26.7</ele>
        <time>2024-04-14T08:44:39Z</time>
      </trkpt>
      <trkpt lat="47.24672" lon="0.05269">
        <ele>26.6</ele>
        <time>2024-04-14T08:44:45Z</time>
      </trkpt>
      <trkpt lat="47.24655" lon="0.05277">
        <ele>26.6</ele>
        <time>2024-04-14T08:44:47Z</time>
      </trkpt>
      <trkpt lat="47.24596" lon="0.05305">
        <ele>26.7</ele>
        <time>2024-04-14T08:44:54Z</time>
      </trkpt>
      <trkpt lat="47.24579" lon="0.05313">
        <ele>26.7</ele>
        <time>2024-04-14T08:44:56Z</time>
      </trkpt>
      <trkpt lat="47.24571" lon="0.05317">
        <ele>26.7</ele>
        <time>2024-04-14T08:44:57Z</time>
      </trkpt>
      <trkpt lat="47.24519" lon="0.05337">
        <ele>26.6</ele>
        <time>2024-04-14T08:45:03Z</time>
      </trkpt>
      <trkpt lat="47.24465" lon="0.05349">
        <ele>26.7</ele>
        <time>2024-04-14T08:45:09Z</time>
      </trkpt>
      <trkpt lat="47.24456" lon="0.05351">
        <ele>26.7</ele>
        <time>2024-04-14T08:45:10Z</time>
      </trkpt>
      <trkpt lat="47.24405" lon="0.0537">
        <ele>26.8</ele>
        <time>2024-04-14T08:45:16Z</time>
      </trkpt>
      <trkpt lat="47.24365" lon="0.05401">
        <ele>26.9</ele>
        <time>2024-04-14T08:45:21Z</time>
      </trkpt>
      <trkpt lat="47.24317" lon="0.0544">
        <ele>27</ele>
        <time>2024-04-14T08:45:27Z</time>
      </trkpt>
      <trkpt lat="47.243" lon="0.05452">
        <ele>27.1</ele>
        <time>2024-04-14T08:45:29Z</time>
      </trkpt>
      <trkpt lat="47.2426" lon="0.05482">
        <ele>27.3</ele>
        <time>2024-04-14T08:45:34Z</time>
      </trkpt>
      <trkpt lat="47.24243" lon="0.05493">
        <ele>27.4</ele>
        <time>2024-04-14T08:45:36Z</time>
      </trkpt>
      <trkpt lat="47.24218" lon="0.05507">
        <ele>27.5</ele>
        <time>2024-04-14T08:45:39Z</time>
      </trkpt>
      <trkpt lat="47.24193" lon="0.05518">
        <ele>27.7</ele>
        <time>2024-04-14T08:45:42Z</time>
      </trkpt>
      <trkpt lat="47.2415" lon="0.05529">
        <ele>28.2</ele>
        <time>2024-04-14T08:45:47Z</time>
      </trkpt>
      <trkpt lat="47.24125" lon="0.05534">
        <ele>28.3</ele>
        <time>2024-04-14T08:45:50Z</time>
      </trkpt>
      <trkpt lat="47.24091" lon="0.05535">
        <ele>28.6</ele>
        <time>2024-04-14T08:45:54Z</time>
      </trkpt>
      <trkpt lat="47.24082" lon="0.05532">
        <ele>28.6</ele>
        <time>2024-04-14T08:45:55Z</time>
      </trkpt>
      <trkpt lat="47.24074" lon="0.05529">
        <ele>28.6</ele>
        <time>2024-04-14T08:45:56Z</time>
      </trkpt>
      <trkpt lat="47.24058" lon="0.05523">
        <ele>28.7</ele>
        <time>2024-04-14T08:45:58Z</time>
      </trkpt>
      <trkpt lat="47.24008" lon="0.05501">
        <ele>28.9</ele>
        <time>2024-04-14T08:46:04Z</time>
      </trkpt>
      <trkpt lat="47.24" lon="0.05497">
        <ele>29</ele>
        <time>2024-04-14T08:46:05Z</time>
      </trkpt>
      <trkpt lat="47.23944" lon="0.05471">
        <ele>29.3</ele>
        <time>2024-04-14T08:46:12Z</time>
      </trkpt>
      <trkpt lat="47.23936" lon="0.05467">
        <ele>29.3</ele>
        <time>2024-04-14T08:46:13Z</time>
      </trkpt>
      <trkpt lat="47.23889" lon="0.05446">
        <ele>29.7</ele>
        <time>2024-04-14T08:46:19Z</time>
      </trkpt>
      <trkpt lat="47.23842" lon="0.05421">
        <ele>29.7</ele>
        <time>2024-04-14T08:46:26Z</time>
      </trkpt>
      <trkpt lat="47.23809" lon="0.054">
        <ele>29.6</ele>
        <time>2024-04-14T08:46:31Z</time>
      </trkpt>
      <trkpt lat="47.2377" lon="0.0536">
        <ele>29.3</ele>
        <time>2024-04-14T08:46:37Z</time>
      </trkpt>
      <trkpt lat="47.2374" lon="0.05319">
        <ele>29.2</ele>
        <time>2024-04-14T08:46:42Z</time>
      </trkpt>
      <trkpt lat="47.23722" lon="0.05294">
        <ele>29.1</ele>
        <time>2024-04-14T08:46:45Z</time>
      </trkpt>
      <trkpt lat="47.23677" lon="0.05237">
        <ele>28.7</ele>
        <time>2024-04-14T08:46:52Z</time>
      </trkpt>
      <trkpt lat="47.23663" lon="0.05222">
        <ele>28.5</ele>
        <time>2024-04-14T08:46:54Z</time>
      </trkpt>
      <trkpt lat="47.23634" lon="0.05196">
        <ele>28.3</ele>
        <time>2024-04-14T08:46:58Z</time>
      </trkpt>
      <trkpt lat="47.23626" lon="0.0519">
        <ele>28.3</ele>
        <time>2024-04-14T08:46:59Z</time>
      </trkpt>
      <trkpt lat="47.23576" lon="0.05165">
        <ele>28.1</ele>
        <time>2024-04-14T08:47:05Z</time>
      </trkpt>
      <trkpt lat="47.23541" lon="0.05162">
        <ele>28</ele>
        <time>2024-04-14T08:47:09Z</time>
      </trkpt>
      <trkpt lat="47.23499" lon="0.05175">
        <ele>28</ele>
        <time>2024-04-14T08:47:14Z</time>
      </trkpt>
      <trkpt lat="47.23454" lon="0.05188">
        <ele>28</ele>
        <time>2024-04-14T08:47:19Z</time>
      </trkpt>
      <trkpt lat="47.23402" lon="0.05186">
        <ele>28</ele>
        <time>2024-04-14T08:47:25Z</time>
      </trkpt>
      <trkpt lat="47.23344" lon="0.05171">
        <ele>28.1</ele>
        <time>2024-04-14T08:47:32Z</time>
      </trkpt>
      <trkpt lat="47.23286" lon="0.05152">
        <ele>28.2</ele>
        <time>2024-04-14T08:47:39Z</time>
      </trkpt>
      <trkpt lat="47.23278" lon="0.0515">
        <ele>28.2</ele>
        <time>2024-04-14T08:47:40Z</time>
      </trkpt>
      <trkpt lat="47.23227" lon="0.0514">
        <ele>28.3</ele>
        <time>2024-04-14T08:47:46Z</time>
      </trkpt>
      <trkpt lat="47.23168" lon="0.05129">
        <ele>28.3</ele>
        <time>2024-04-14T08:47:53Z</time>
      </trkpt>
      <trkpt lat="47.23143" lon="0.05124">
        <ele>28.3</ele>
        <time>2024-04-14T08:47:56Z</time>
      </trkpt>
      <trkpt lat="47.23084" lon="0.05113">
        <ele>28.4</ele>
        <time>2024-04-14T08:48:03Z</time>
      </trkpt>
      <trkpt lat="47.23067" lon="0.05109">
        <ele>28.4</ele>
        <time>2024-04-14T08:48:05Z</time>
      </trkpt>
      <trkpt lat="47.23043" lon="0.05104">
        <ele>28.4</ele>
        <time>2024-04-14T08:48:08Z</time>
      </trkpt>
      <trkpt lat="47.23011" lon="0.05095">
        <ele>28.4</ele>
        <time>2024-04-14T08:48:12Z</time>
      </trkpt>
      <trkpt lat="47.22954" lon="0.05082">
        <ele>28.3</ele>
        <time>2024-04-14T08:48:19Z</time>
      </trkpt>
      <trkpt lat="47.22895" lon="0.05069">
        <ele>28.8</ele>
        <time>2024-04-14T08:48:26Z</time>
      </trkpt>
      <trkpt lat="47.22851" lon="0.05059">
        <ele>30.4</ele>
        <time>2024-04-14T08:48:32Z</time>
      </trkpt>
      <trkpt lat="47.22831" lon="0.05054">
        <ele>31.4</ele>
        <time>2024-04-14T08:48:35Z</time>
      </trkpt>
      <trkpt lat="47.22813" lon="0.05047">
        <ele>32.6</ele>
        <time>2024-04-14T08:48:38Z</time>
      </trkpt>
      <trkpt lat="47.22795" lon="0.05035">
        <ele>33.8</ele>
        <time>2024-04-14T08:48:42Z</time>
      </trkpt>
      <trkpt lat="47.2279" lon="0.05031">
        <ele>34.1</ele>
        <time>2024-04-14T08:48:43Z</time>
      </trkpt>
      <trkpt lat="47.22782" lon="0.05021">
        <ele>34.6</ele>
        <time>2024-04-14T08:48:45Z</time>
      </trkpt>
      <trkpt lat="47.22774" lon="0.0501">
        <ele>34.8</ele>
        <time>2024-04-14T08:48:47Z</time>
      </trkpt>
      <trkpt lat="47.2277" lon="0.05005">
        <ele>34.7</ele>
        <time>2024-04-14T08:48:48Z</time>
      </trkpt>
      <trkpt lat="47.22752" lon="0.05004">
        <ele>35.2</ele>
        <time>2024-04-14T08:48:51Z</time>
      </trkpt>
      <trkpt lat="47.22745" lon="0.05004">
        <ele>35.3</ele>
        <time>2024-04-14T08:48:52Z</time>
      </trkpt>
      <trkpt lat="47.22727" lon="0.04994">
        <ele>35.4</ele>
        <time>2024-04-14T08:48:55Z</time>
      </trkpt>
      <trkpt lat="47.2268" lon="0.04966">
        <ele>35.3</ele>
        <time>2024-04-14T08:49:03Z</time>
      </trkpt>
      <trkpt lat="47.22656" lon="0.04951">
        <ele>35.4</ele>
        <time>2024-04-14T08:49:07Z</time>
      </trkpt>
      <trkpt lat="47.22645" lon="0.04943">
        <ele>35.5</ele>
        <time>2024-04-14T08:49:09Z</time>
      </trkpt>
      <trkpt lat="47.22602" lon="0.04918">
        <ele>35.6</ele>
        <time>2024-04-14T08:49:16Z</time>
      </trkpt>
      <trkpt lat="47.2255" lon="0.04885">
        <ele>35.8</ele>
        <time>2024-04-14T08:49:24Z</time>
      </trkpt>
      <trkpt lat="47.22511" lon="0.04859">
        <ele>35.8</ele>
        <time>2024-04-14T08:49:30Z</time>
      </trkpt>
      <trkpt lat="47.22464" lon="0.04827">
        <ele>35.8</ele>
        <time>2024-04-14T08:49:37Z</time>
      </trkpt>
      <trkpt lat="47.22415" lon="0.04795">
        <ele>35.8</ele>
        <time>2024-04-14T08:49:44Z</time>
      </trkpt>
      <trkpt lat="47.22381" lon="0.04774">
        <ele>35.8</ele>
        <time>2024-04-14T08:49:49Z</time>
      </trkpt>
      <trkpt lat="47.22325" lon="0.04737">
        <ele>35.7</ele>
        <time>2024-04-14T08:49:57Z</time>
      </trkpt>
      <trkpt lat="47.22289" lon="0.04713">
        <ele>35.5</ele>
        <time>2024-04-14T08:50:02Z</time>
      </trkpt>
      <trkpt lat="47.2224" lon="0.04677">
        <ele>34.9</ele>
        <time>2024-04-14T08:50:09Z</time>
      </trkpt>
      <trkpt lat="47.22199" lon="0.04649">
        <ele>33.6</ele>
        <time>2024-04-14T08:50:14Z</time>
      </trkpt>
      <trkpt lat="47.22165" lon="0.04624">
        <ele>32.7</ele>
        <time>2024-04-14T08:50:18Z</time>
      </trkpt>
      <trkpt lat="47.22156" lon="0.04619">
        <ele>32.6</ele>
        <time>2024-04-14T08:50:19Z</time>
      </trkpt>
      <trkpt lat="47.22139" lon="0.04608">
        <ele>32.5</ele>
        <time>2024-04-14T08:50:21Z</time>
      </trkpt>
      <trkpt lat="47.22115" lon="0.04593">
        <ele>32.5</ele>
        <time>2024-04-14T08:50:24Z</time>
      </trkpt>
      <trkpt lat="47.22099" lon="0.04583">
        <ele>32.6</ele>
        <time>2024-04-14T08:50:26Z</time>
      </trkpt>
      <trkpt lat="47.22057" lon="0.04549">
        <ele>33.2</ele>
        <time>2024-04-14T08:50:32Z</time>
      </trkpt>
      <trkpt lat="47.22044" lon="0.04519">
        <ele>33.4</ele>
        <time>2024-04-14T08:50:35Z</time>
      </trkpt>
      <trkpt lat="47.22032" lon="0.04514">
        <ele>33.3</ele>
        <time>2024-04-14T08:50:37Z</time>
      </trkpt>
      <trkpt lat="47.22024" lon="0.04531">
        <ele>33.3</ele>
        <time>2024-04-14T08:50:39Z</time>
      </trkpt>
      <trkpt lat="47.22023" lon="0.04553">
        <ele>33.4</ele>
        <time>2024-04-14T08:50:41Z</time>
      </trkpt>
      <trkpt lat="47.22023" lon="0.04564">
        <ele>33.3</ele>
        <time>2024-04-14T08:50:42Z</time>
      </trkpt>
      <trkpt lat="47.22022" lon="0.04574">
        <ele>33.3</ele>
        <time>2024-04-14T08:50:43Z</time>
      </trkpt>
      <trkpt lat="47.22014" lon="0.04596">
        <ele>33.3</ele>
        <time>2024-04-14T08:50:45Z</time>
      </trkpt>
      <trkpt lat="47.22002" lon="0.0463">
        <ele>33.3</ele>
        <time>2024-04-14T08:50:48Z</time>
      </trkpt>
      <trkpt lat="47.21984" lon="0.04686">
        <ele>33.3</ele>
        <time>2024-04-14T08:50:53Z</time>
      </trkpt>
      <trkpt lat="47.21959" lon="0.04764">
        <ele>33.4</ele>
        <time>2024-04-14T08:51:00Z</time>
      </trkpt>
      <trkpt lat="47.21955" lon="0.04775">
        <ele>33.4</ele>
        <time>2024-04-14T08:51:01Z</time>
      </trkpt>
      <trkpt lat="47.21932" lon="0.04845">
        <ele>33.4</ele>
        <time>2024-04-14T08:51:07Z</time>
      </trkpt>
      <trkpt lat="47.21913" lon="0.04904">
        <ele>33.5</ele>
        <time>2024-04-14T08:51:12Z</time>
      </trkpt>
      <trkpt lat="47.21905" lon="0.04928">
        <ele>33.5</ele>
        <time>2024-04-14T08:51:14Z</time>
      </trkpt>
      <trkpt lat="47.21879" lon="0.0501">
        <ele>33.5</ele>
        <time>2024-04-14T08:51:21Z</time>
      </trkpt>
      <trkpt lat="47.21852" lon="0.05093">
        <ele>33.5</ele>
        <time>2024-04-14T08:51:28Z</time>
      </trkpt>
      <trkpt lat="47.21849" lon="0.05105">
        <ele>33.4</ele>
        <time>2024-04-14T08:51:29Z</time>
      </trkpt>
      <trkpt lat="47.21826" lon="0.05179">
        <ele>33.3</ele>
        <time>2024-04-14T08:51:35Z</time>
      </trkpt>
      <trkpt lat="47.21814" lon="0.05215">
        <ele>33.3</ele>
        <time>2024-04-14T08:51:38Z</time>
      </trkpt>
      <trkpt lat="47.21787" lon="0.05299">
        <ele>33.1</ele>
        <time>2024-04-14T08:51:45Z</time>
      </trkpt>
      <trkpt lat="47.21761" lon="0.05379">
        <ele>33.3</ele>
        <time>2024-04-14T08:51:52Z</time>
      </trkpt>
      <trkpt lat="47.21749" lon="0.05423">
        <ele>33.4</ele>
        <time>2024-04-14T08:51:57Z</time>
      </trkpt>
      <trkpt lat="47.21742" lon="0.05449">
        <ele>33.5</ele>
        <time>2024-04-14T08:52:00Z</time>
      </trkpt>
      <trkpt lat="47.21736" lon="0.05467">
        <ele>33.5</ele>
        <time>2024-04-14T08:52:02Z</time>
      </trkpt>
      <trkpt lat="47.21716" lon="0.05533">
        <ele>33.5</ele>
        <time>2024-04-14T08:52:09Z</time>
      </trkpt>
      <trkpt lat="47.21703" lon="0.0557">
        <ele>33.5</ele>
        <time>2024-04-14T08:52:14Z</time>
      </trkpt>
      <trkpt lat="47.217" lon="0.05578">
        <ele>33.5</ele>
        <time>2024-04-14T08:52:18Z</time>
      </trkpt>
      <trkpt lat="47.21695" lon="0.05593">
        <ele>33.6</ele>
        <time>2024-04-14T08:52:24Z</time>
      </trkpt>
      <trkpt lat="47.21687" lon="0.05614">
        <ele>33.6</ele>
        <time>2024-04-14T08:52:28Z</time>
      </trkpt>
      <trkpt lat="47.21683" lon="0.05622">
        <ele>33.6</ele>
        <time>2024-04-14T08:52:31Z</time>
      </trkpt>
      <trkpt lat="47.21673" lon="0.05647">
        <ele>33.6</ele>
        <time>2024-04-14T08:52:37Z</time>
      </trkpt>
      <trkpt lat="47.21667" lon="0.05663">
        <ele>33.6</ele>
        <time>2024-04-14T08:52:42Z</time>
      </trkpt>
      <trkpt lat="47.21661" lon="0.05675">
        <ele>33.6</ele>
        <time>2024-04-14T08:52:47Z</time>
      </trkpt>
      <trkpt lat="47.2166" lon="0.05683">
        <ele>33.6</ele>
        <time>2024-04-14T08:52:49Z</time>
      </trkpt>
      <trkpt lat="47.21661" lon="0.05687">
        <ele>33.6</ele>
        <time>2024-04-14T08:52:50Z</time>
      </trkpt>
      <trkpt lat="47.21661" lon="0.05708">
        <ele>33.6</ele>
        <time>2024-04-14T08:52:55Z</time>
      </trkpt>
      <trkpt lat="47.21658" lon="0.05737">
        <ele>33.6</ele>
        <time>2024-04-14T08:53:00Z</time>
      </trkpt>
      <trkpt lat="47.21654" lon="0.05775">
        <ele>33.6</ele>
        <time>2024-04-14T08:53:05Z</time>
      </trkpt>
      <trkpt lat="47.21648" lon="0.05814">
        <ele>33.5</ele>
        <time>2024-04-14T08:53:11Z</time>
      </trkpt>
      <trkpt lat="47.21647" lon="0.05822">
        <ele>33.5</ele>
        <time>2024-04-14T08:53:15Z</time>
      </trkpt>
      <trkpt lat="47.21644" lon="0.05841">
        <ele>33.5</ele>
        <time>2024-04-14T08:53:20Z</time>
      </trkpt>
      <trkpt lat="47.2164" lon="0.05869">
        <ele>33.5</ele>
        <time>2024-04-14T08:53:24Z</time>
      </trkpt>
      <trkpt lat="47.21639" lon="0.05877">
        <ele>33.5</ele>
        <time>2024-04-14T08:53:25Z</time>
      </trkpt>
      <trkpt lat="47.21633" lon="0.05931">
        <ele>33.7</ele>
        <time>2024-04-14T08:53:32Z</time>
      </trkpt>
      <trkpt lat="47.21629" lon="0.05961">
        <ele>33.7</ele>
        <time>2024-04-14T08:53:36Z</time>
      </trkpt>
      <trkpt lat="47.21626" lon="0.05979">
        <ele>33.7</ele>
        <time>2024-04-14T08:53:38Z</time>
      </trkpt>
      <trkpt lat="47.21619" lon="0.06045">
        <ele>33.6</ele>
        <time>2024-04-14T08:53:45Z</time>
      </trkpt>
      <trkpt lat="47.21615" lon="0.06078">
        <ele>33.6</ele>
        <time>2024-04-14T08:53:49Z</time>
      </trkpt>
      <trkpt lat="47.21613" lon="0.06095">
        <ele>33.6</ele>
        <time>2024-04-14T08:53:51Z</time>
      </trkpt>
      <trkpt lat="47.21605" lon="0.06131">
        <ele>33.7</ele>
        <time>2024-04-14T08:53:56Z</time>
      </trkpt>
      <trkpt lat="47.21605" lon="0.06135">
        <ele>33.7</ele>
        <time>2024-04-14T08:53:59Z</time>
      </trkpt>
      <trkpt lat="47.21604" lon="0.06136">
        <ele>33.7</ele>
        <time>2024-04-14T08:54:06Z</time>
      </trkpt>
      <trkpt lat="47.21604" lon="0.06143">
        <ele>33.7</ele>
        <time>2024-04-14T08:54:08Z</time>
      </trkpt>
      <trkpt lat="47.21599" lon="0.06163">
        <ele>33.7</ele>
        <time>2024-04-14T08:54:12Z</time>
      </trkpt>
      <trkpt lat="47.21586" lon="0.06205">
        <ele>33.8</ele>
        <time>2024-04-14T08:54:18Z</time>
      </trkpt>
      <trkpt lat="47.21567" lon="0.0626">
        <ele>33.8</ele>
        <time>2024-04-14T08:54:25Z</time>
      </trkpt>
      <trkpt lat="47.21558" lon="0.06287">
        <ele>33.8</ele>
        <time>2024-04-14T08:54:28Z</time>
      </trkpt>
      <trkpt lat="47.21548" lon="0.06315">
        <ele>33.8</ele>
        <time>2024-04-14T08:54:31Z</time>
      </trkpt>
      <trkpt lat="47.21528" lon="0.06382">
        <ele>33.7</ele>
        <time>2024-04-14T08:54:38Z</time>
      </trkpt>
      <trkpt lat="47.21509" lon="0.06445">
        <ele>33.6</ele>
        <time>2024-04-14T08:54:44Z</time>
      </trkpt>
      <trkpt lat="47.21485" lon="0.0652">
        <ele>33.5</ele>
        <time>2024-04-14T08:54:51Z</time>
      </trkpt>
      <trkpt lat="47.21481" lon="0.06531">
        <ele>33.5</ele>
        <time>2024-04-14T08:54:52Z</time>
      </trkpt>
      <trkpt lat="47.21459" lon="0.06607">
        <ele>33.6</ele>
        <time>2024-04-14T08:54:59Z</time>
      </trkpt>
      <trkpt lat="47.21452" lon="0.06629">
        <ele>33.6</ele>
        <time>2024-04-14T08:55:01Z</time>
      </trkpt>
      <trkpt lat="47.21431" lon="0.06707">
        <ele>33.4</ele>
        <time>2024-04-14T08:55:08Z</time>
      </trkpt>
      <trkpt lat="47.21413" lon="0.06764">
        <ele>33.3</ele>
        <time>2024-04-14T08:55:13Z</time>
      </trkpt>
      <trkpt lat="47.2141" lon="0.06778">
        <ele>33.3</ele>
        <time>2024-04-14T08:55:14Z</time>
      </trkpt>
      <trkpt lat="47.21401" lon="0.06827">
        <ele>33.2</ele>
        <time>2024-04-14T08:55:18Z</time>
      </trkpt>
      <trkpt lat="47.21397" lon="0.06839">
        <ele>33.2</ele>
        <time>2024-04-14T08:55:19Z</time>
      </trkpt>
      <trkpt lat="47.21376" lon="0.06892">
        <ele>33.1</ele>
        <time>2024-04-14T08:55:24Z</time>
      </trkpt>
      <trkpt lat="47.21344" lon="0.0696">
        <ele>34.7</ele>
        <time>2024-04-14T08:55:31Z</time>
      </trkpt>
      <trkpt lat="47.21328" lon="0.06995">
        <ele>36.2</ele>
        <time>2024-04-14T08:55:35Z</time>
      </trkpt>
      <trkpt lat="47.21321" lon="0.07009">
        <ele>37</ele>
        <time>2024-04-14T08:55:37Z</time>
      </trkpt>
      <trkpt lat="47.21314" lon="0.07024">
        <ele>37.8</ele>
        <time>2024-04-14T08:55:39Z</time>
      </trkpt>
      <trkpt lat="47.21303" lon="0.07046">
        <ele>38.8</ele>
        <time>2024-04-14T08:55:42Z</time>
      </trkpt>
      <trkpt lat="47.21293" lon="0.07067">
        <ele>39.5</ele>
        <time>2024-04-14T08:55:45Z</time>
      </trkpt>
      <trkpt lat="47.2129" lon="0.07075">
        <ele>39.7</ele>
        <time>2024-04-14T08:55:46Z</time>
      </trkpt>
      <trkpt lat="47.21277" lon="0.07105">
        <ele>40</ele>
        <time>2024-04-14T08:55:50Z</time>
      </trkpt>
      <trkpt lat="47.21256" lon="0.07153">
        <ele>39.9</ele>
        <time>2024-04-14T08:55:56Z</time>
      </trkpt>
      <trkpt lat="47.21252" lon="0.07158">
        <ele>39.9</ele>
        <time>2024-04-14T08:55:57Z</time>
      </trkpt>
      <trkpt lat="47.21239" lon="0.07184">
        <ele>39.9</ele>
        <time>2024-04-14T08:56:01Z</time>
      </trkpt>
      <trkpt lat="47.21236" lon="0.07193">
        <ele>39.9</ele>
        <time>2024-04-14T08:56:02Z</time>
      </trkpt>
      <trkpt lat="47.21227" lon="0.07222">
        <ele>39.7</ele>
        <time>2024-04-14T08:56:05Z</time>
      </trkpt>
      <trkpt lat="47.21208" lon="0.07271">
        <ele>39.4</ele>
        <time>2024-04-14T08:56:10Z</time>
      </trkpt>
      <trkpt lat="47.21181" lon="0.07339">
        <ele>39</ele>
        <time>2024-04-14T08:56:17Z</time>
      </trkpt>
      <trkpt lat="47.21157" lon="0.07396">
        <ele>38.4</ele>
        <time>2024-04-14T08:56:23Z</time>
      </trkpt>
      <trkpt lat="47.21153" lon="0.07405">
        <ele>38.2</ele>
        <time>2024-04-14T08:56:24Z</time>
      </trkpt>
      <trkpt lat="47.21134" lon="0.07451">
        <ele>37.4</ele>
        <time>2024-04-14T08:56:29Z</time>
      </trkpt>
      <trkpt lat="47.21119" lon="0.07476">
        <ele>37.1</ele>
        <time>2024-04-14T08:56:32Z</time>
      </trkpt>
      <trkpt lat="47.21109" lon="0.07491">
        <ele>36.8</ele>
        <time>2024-04-14T08:56:34Z</time>
      </trkpt>
      <trkpt lat="47.21086" lon="0.07533">
        <ele>36.1</ele>
        <time>2024-04-14T08:56:39Z</time>
      </trkpt>
      <trkpt lat="47.21067" lon="0.07572">
        <ele>35.8</ele>
        <time>2024-04-14T08:56:43Z</time>
      </trkpt>
      <trkpt lat="47.21056" lon="0.0759">
        <ele>35.8</ele>
        <time>2024-04-14T08:56:45Z</time>
      </trkpt>
      <trkpt lat="47.2105" lon="0.07599">
        <ele>35.8</ele>
        <time>2024-04-14T08:56:46Z</time>
      </trkpt>
      <trkpt lat="47.21027" lon="0.07632">
        <ele>36.2</ele>
        <time>2024-04-14T08:56:50Z</time>
      </trkpt>
      <trkpt lat="47.20987" lon="0.07687">
        <ele>37.3</ele>
        <time>2024-04-14T08:56:57Z</time>
      </trkpt>
      <trkpt lat="47.20982" lon="0.07695">
        <ele>37.4</ele>
        <time>2024-04-14T08:56:58Z</time>
      </trkpt>
      <trkpt lat="47.20956" lon="0.07733">
        <ele>38</ele>
        <time>2024-04-14T08:57:03Z</time>
      </trkpt>
      <trkpt lat="47.20951" lon="0.07741">
        <ele>38.1</ele>
        <time>2024-04-14T08:57:04Z</time>
      </trkpt>
      <trkpt lat="47.20923" lon="0.07784">
        <ele>38.5</ele>
        <time>2024-04-14T08:57:10Z</time>
      </trkpt>
      <trkpt lat="47.20911" lon="0.07803">
        <ele>38.7</ele>
        <time>2024-04-14T08:57:14Z</time>
      </trkpt>
      <trkpt lat="47.20909" lon="0.07808">
        <ele>38.8</ele>
        <time>2024-04-14T08:57:18Z</time>
      </trkpt>
      <trkpt lat="47.20909" lon="0.0781">
        <ele>38.8</ele>
        <time>2024-04-14T08:57:25Z</time>
      </trkpt>
      <trkpt lat="47.20909" lon="0.07815">
        <ele>38.9</ele>
        <time>2024-04-14T08:57:27Z</time>
      </trkpt>
      <trkpt lat="47.20913" lon="0.07825">
        <ele>38.9</ele>
        <time>2024-04-14T08:57:30Z</time>
      </trkpt>
      <trkpt lat="47.20916" lon="0.07829">
        <ele>38.9</ele>
        <time>2024-04-14T08:57:31Z</time>
      </trkpt>
      <trkpt lat="47.20935" lon="0.0786">
        <ele>38.6</ele>
        <time>2024-04-14T08:57:36Z</time>
      </trkpt>
      <trkpt lat="47.20966" lon="0.07906">
        <ele>38.3</ele>
        <time>2024-04-14T08:57:42Z</time>
      </trkpt>
      <trkpt lat="47.20993" lon="0.07949">
        <ele>38</ele>
        <time>2024-04-14T08:57:47Z</time>
      </trkpt>
      <trkpt lat="47.21011" lon="0.07975">
        <ele>37.9</ele>
        <time>2024-04-14T08:57:50Z</time>
      </trkpt>
      <trkpt lat="47.21053" lon="0.08039">
        <ele>37.7</ele>
        <time>2024-04-14T08:57:57Z</time>
      </trkpt>
      <trkpt lat="47.21083" lon="0.08085">
        <ele>37.3</ele>
        <time>2024-04-14T08:58:02Z</time>
      </trkpt>
      <trkpt lat="47.21126" lon="0.08151">
        <ele>36.4</ele>
        <time>2024-04-14T08:58:09Z</time>
      </trkpt>
      <trkpt lat="47.21132" lon="0.08161">
        <ele>36.2</ele>
        <time>2024-04-14T08:58:10Z</time>
      </trkpt>
      <trkpt lat="47.21164" lon="0.08211">
        <ele>34.9</ele>
        <time>2024-04-14T08:58:15Z</time>
      </trkpt>
      <trkpt lat="47.21184" lon="0.08243">
        <ele>34.2</ele>
        <time>2024-04-14T08:58:18Z</time>
      </trkpt>
      <trkpt lat="47.21197" lon="0.08264">
        <ele>33.8</ele>
        <time>2024-04-14T08:58:20Z</time>
      </trkpt>
      <trkpt lat="47.21222" lon="0.08304">
        <ele>33.2</ele>
        <time>2024-04-14T08:58:24Z</time>
      </trkpt>
      <trkpt lat="47.21234" lon="0.08325">
        <ele>33.1</ele>
        <time>2024-04-14T08:58:26Z</time>
      </trkpt>
      <trkpt lat="47.21271" lon="0.08385">
        <ele>33.1</ele>
        <time>2024-04-14T08:58:32Z</time>
      </trkpt>
      <trkpt lat="47.21277" lon="0.08394">
        <ele>33.1</ele>
        <time>2024-04-14T08:58:33Z</time>
      </trkpt>
      <trkpt lat="47.21289" lon="0.08413">
        <ele>33.1</ele>
        <time>2024-04-14T08:58:35Z</time>
      </trkpt>
      <trkpt lat="47.21321" lon="0.08462">
        <ele>33.2</ele>
        <time>2024-04-14T08:58:40Z</time>
      </trkpt>
      <trkpt lat="47.21356" lon="0.08522">
        <ele>33.2</ele>
        <time>2024-04-14T08:58:46Z</time>
      </trkpt>
      <trkpt lat="47.21362" lon="0.08532">
        <ele>33.2</ele>
        <time>2024-04-14T08:58:47Z</time>
      </trkpt>
      <trkpt lat="47.214" lon="0.08604">
        <ele>33.2</ele>
        <time>2024-04-14T08:58:54Z</time>
      </trkpt>
      <trkpt lat="47.21415" lon="0.08635">
        <ele>33.2</ele>
        <time>2024-04-14T08:58:57Z</time>
      </trkpt>
      <trkpt lat="47.21442" lon="0.08703">
        <ele>33.1</ele>
        <time>2024-04-14T08:59:03Z</time>
      </trkpt>
      <trkpt lat="47.2147" lon="0.08783">
        <ele>33</ele>
        <time>2024-04-14T08:59:10Z</time>
      </trkpt>
      <trkpt lat="47.21475" lon="0.08794">
        <ele>33</ele>
        <time>2024-04-14T08:59:11Z</time>
      </trkpt>
      <trkpt lat="47.21499" lon="0.08876">
        <ele>33</ele>
        <time>2024-04-14T08:59:18Z</time>
      </trkpt>
      <trkpt lat="47.21502" lon="0.08888">
        <ele>33</ele>
        <time>2024-04-14T08:59:19Z</time>
      </trkpt>
      <trkpt lat="47.2152" lon="0.08972">
        <ele>33.2</ele>
        <time>2024-04-14T08:59:26Z</time>
      </trkpt>
      <trkpt lat="47.21526" lon="0.09009">
        <ele>33.4</ele>
        <time>2024-04-14T08:59:29Z</time>
      </trkpt>
      <trkpt lat="47.21532" lon="0.09044">
        <ele>33.5</ele>
        <time>2024-04-14T08:59:32Z</time>
      </trkpt>
      <trkpt lat="47.21545" lon="0.09126">
        <ele>33.6</ele>
        <time>2024-04-14T08:59:39Z</time>
      </trkpt>
      <trkpt lat="47.21556" lon="0.09209">
        <ele>33.6</ele>
        <time>2024-04-14T08:59:46Z</time>
      </trkpt>
      <trkpt lat="47.21563" lon="0.09267">
        <ele>33.6</ele>
        <time>2024-04-14T08:59:51Z</time>
      </trkpt>
      <trkpt lat="47.21574" lon="0.09347">
        <ele>33.3</ele>
        <time>2024-04-14T08:59:58Z</time>
      </trkpt>
      <trkpt lat="47.21575" lon="0.09359">
        <ele>33.3</ele>
        <time>2024-04-14T08:59:59Z</time>
      </trkpt>
      <trkpt lat="47.21585" lon="0.09439">
        <ele>33.3</ele>
        <time>2024-04-14T09:00:06Z</time>
      </trkpt>
      <trkpt lat="47.21587" lon="0.09451">
        <ele>33.3</ele>
        <time>2024-04-14T09:00:07Z</time>
      </trkpt>
      <trkpt lat="47.21598" lon="0.09533">
        <ele>33.2</ele>
        <time>2024-04-14T09:00:14Z</time>
      </trkpt>
      <trkpt lat="47.2161" lon="0.09615">
        <ele>33.1</ele>
        <time>2024-04-14T09:00:21Z</time>
      </trkpt>
      <trkpt lat="47.21614" lon="0.09638">
        <ele>33.1</ele>
        <time>2024-04-14T09:00:23Z</time>
      </trkpt>
      <trkpt lat="47.21627" lon="0.09719">
        <ele>33.1</ele>
        <time>2024-04-14T09:00:30Z</time>
      </trkpt>
      <trkpt lat="47.21634" lon="0.09754">
        <ele>33.1</ele>
        <time>2024-04-14T09:00:33Z</time>
      </trkpt>
      <trkpt lat="47.2165" lon="0.09834">
        <ele>33.2</ele>
        <time>2024-04-14T09:00:40Z</time>
      </trkpt>
      <trkpt lat="47.21654" lon="0.09857">
        <ele>33.2</ele>
        <time>2024-04-14T09:00:42Z</time>
      </trkpt>
      <trkpt lat="47.21674" lon="0.09934">
        <ele>33.2</ele>
        <time>2024-04-14T09:00:49Z</time>
      </trkpt>
      <trkpt lat="47.21677" lon="0.09945">
        <ele>33.2</ele>
        <time>2024-04-14T09:00:50Z</time>
      </trkpt>
      <trkpt lat="47.21698" lon="0.09996">
        <ele>33.1</ele>
        <time>2024-04-14T09:00:55Z</time>
      </trkpt>
      <trkpt lat="47.21736" lon="0.10061">
        <ele>33</ele>
        <time>2024-04-14T09:01:02Z</time>
      </trkpt>
      <trkpt lat="47.21776" lon="0.1012">
        <ele>32.9</ele>
        <time>2024-04-14T09:01:09Z</time>
      </trkpt>
      <trkpt lat="47.21788" lon="0.10137">
        <ele>32.9</ele>
        <time>2024-04-14T09:01:11Z</time>
      </trkpt>
      <trkpt lat="47.21827" lon="0.10196">
        <ele>33</ele>
        <time>2024-04-14T09:01:18Z</time>
      </trkpt>
      <trkpt lat="47.21845" lon="0.10221">
        <ele>33</ele>
        <time>2024-04-14T09:01:21Z</time>
      </trkpt>
      <trkpt lat="47.21883" lon="0.1028">
        <ele>33</ele>
        <time>2024-04-14T09:01:28Z</time>
      </trkpt>
      <trkpt lat="47.21895" lon="0.10296">
        <ele>33</ele>
        <time>2024-04-14T09:01:30Z</time>
      </trkpt>
      <trkpt lat="47.21933" lon="0.10354">
        <ele>32.9</ele>
        <time>2024-04-14T09:01:37Z</time>
      </trkpt>
      <trkpt lat="47.21944" lon="0.1037">
        <ele>32.9</ele>
        <time>2024-04-14T09:01:39Z</time>
      </trkpt>
      <trkpt lat="47.21983" lon="0.10429">
        <ele>33</ele>
        <time>2024-04-14T09:01:46Z</time>
      </trkpt>
      <trkpt lat="47.22005" lon="0.10461">
        <ele>32.9</ele>
        <time>2024-04-14T09:01:50Z</time>
      </trkpt>
      <trkpt lat="47.22043" lon="0.10519">
        <ele>33</ele>
        <time>2024-04-14T09:01:57Z</time>
      </trkpt>
      <trkpt lat="47.22066" lon="0.10553">
        <ele>32.9</ele>
        <time>2024-04-14T09:02:01Z</time>
      </trkpt>
      <trkpt lat="47.22105" lon="0.10612">
        <ele>32.9</ele>
        <time>2024-04-14T09:02:08Z</time>
      </trkpt>
      <trkpt lat="47.22111" lon="0.10621">
        <ele>32.9</ele>
        <time>2024-04-14T09:02:09Z</time>
      </trkpt>
      <trkpt lat="47.2215" lon="0.1068">
        <ele>32.8</ele>
        <time>2024-04-14T09:02:16Z</time>
      </trkpt>
      <trkpt lat="47.22166" lon="0.10704">
        <ele>32.7</ele>
        <time>2024-04-14T09:02:19Z</time>
      </trkpt>
      <trkpt lat="47.22205" lon="0.10764">
        <ele>32.7</ele>
        <time>2024-04-14T09:02:26Z</time>
      </trkpt>
      <trkpt lat="47.22222" lon="0.10788">
        <ele>32.8</ele>
        <time>2024-04-14T09:02:29Z</time>
      </trkpt>
      <trkpt lat="47.22261" lon="0.10847">
        <ele>32.7</ele>
        <time>2024-04-14T09:02:36Z</time>
      </trkpt>
      <trkpt lat="47.22266" lon="0.10856">
        <ele>32.7</ele>
        <time>2024-04-14T09:02:37Z</time>
      </trkpt>
      <trkpt lat="47.22306" lon="0.10914">
        <ele>32.7</ele>
        <time>2024-04-14T09:02:44Z</time>
      </trkpt>
      <trkpt lat="47.22322" lon="0.10939">
        <ele>32.8</ele>
        <time>2024-04-14T09:02:47Z</time>
      </trkpt>
      <trkpt lat="47.22364" lon="0.11001">
        <ele>33.2</ele>
        <time>2024-04-14T09:02:55Z</time>
      </trkpt>
      <trkpt lat="47.22406" lon="0.11063">
        <ele>33.7</ele>
        <time>2024-04-14T09:03:03Z</time>
      </trkpt>
      <trkpt lat="47.22411" lon="0.11071">
        <ele>33.8</ele>
        <time>2024-04-14T09:03:04Z</time>
      </trkpt>
      <trkpt lat="47.22424" lon="0.11096">
        <ele>34</ele>
        <time>2024-04-14T09:03:07Z</time>
      </trkpt>
      <trkpt lat="47.22443" lon="0.11129">
        <ele>34.2</ele>
        <time>2024-04-14T09:03:11Z</time>
      </trkpt>
      <trkpt lat="47.22475" lon="0.11195">
        <ele>34.3</ele>
        <time>2024-04-14T09:03:18Z</time>
      </trkpt>
      <trkpt lat="47.2248" lon="0.11205">
        <ele>34.2</ele>
        <time>2024-04-14T09:03:19Z</time>
      </trkpt>
      <trkpt lat="47.2251" lon="0.11276">
        <ele>34</ele>
        <time>2024-04-14T09:03:26Z</time>
      </trkpt>
      <trkpt lat="47.22518" lon="0.11297">
        <ele>33.9</ele>
        <time>2024-04-14T09:03:28Z</time>
      </trkpt>
      <trkpt lat="47.22547" lon="0.1137">
        <ele>33.6</ele>
        <time>2024-04-14T09:03:35Z</time>
      </trkpt>
      <trkpt lat="47.22556" lon="0.11391">
        <ele>33.6</ele>
        <time>2024-04-14T09:03:37Z</time>
      </trkpt>
      <trkpt lat="47.22585" lon="0.1147">
        <ele>33.3</ele>
        <time>2024-04-14T09:03:44Z</time>
      </trkpt>
      <trkpt lat="47.22589" lon="0.11481">
        <ele>33.3</ele>
        <time>2024-04-14T09:03:45Z</time>
      </trkpt>
      <trkpt lat="47.22618" lon="0.11559">
        <ele>33.1</ele>
        <time>2024-04-14T09:03:52Z</time>
      </trkpt>
      <trkpt lat="47.22638" lon="0.11616">
        <ele>33</ele>
        <time>2024-04-14T09:03:57Z</time>
      </trkpt>
      <trkpt lat="47.22668" lon="0.11695">
        <ele>33</ele>
        <time>2024-04-14T09:04:04Z</time>
      </trkpt>
      <trkpt lat="47.22676" lon="0.11718">
        <ele>33</ele>
        <time>2024-04-14T09:04:06Z</time>
      </trkpt>
      <trkpt lat="47.22705" lon="0.11796">
        <ele>33</ele>
        <time>2024-04-14T09:04:13Z</time>
      </trkpt>
      <trkpt lat="47.22709" lon="0.11807">
        <ele>33.1</ele>
        <time>2024-04-14T09:04:14Z</time>
      </trkpt>
      <trkpt lat="47.22738" lon="0.11886">
        <ele>33.1</ele>
        <time>2024-04-14T09:04:21Z</time>
      </trkpt>
      <trkpt lat="47.22743" lon="0.11898">
        <ele>33.1</ele>
        <time>2024-04-14T09:04:22Z</time>
      </trkpt>
      <trkpt lat="47.22772" lon="0.11977">
        <ele>33.2</ele>
        <time>2024-04-14T09:04:29Z</time>
      </trkpt>
      <trkpt lat="47.22777" lon="0.11988">
        <ele>33.2</ele>
        <time>2024-04-14T09:04:30Z</time>
      </trkpt>
      <trkpt lat="47.22805" lon="0.12067">
        <ele>33.1</ele>
        <time>2024-04-14T09:04:37Z</time>
      </trkpt>
      <trkpt lat="47.22809" lon="0.12079">
        <ele>33.1</ele>
        <time>2024-04-14T09:04:38Z</time>
      </trkpt>
      <trkpt lat="47.22838" lon="0.1216">
        <ele>33.1</ele>
        <time>2024-04-14T09:04:45Z</time>
      </trkpt>
      <trkpt lat="47.22845" lon="0.12184">
        <ele>33</ele>
        <time>2024-04-14T09:04:47Z</time>
      </trkpt>
      <trkpt lat="47.22872" lon="0.12264">
        <ele>33</ele>
        <time>2024-04-14T09:04:54Z</time>
      </trkpt>
      <trkpt lat="47.22876" lon="0.12276">
        <ele>33</ele>
        <time>2024-04-14T09:04:55Z</time>
      </trkpt>
      <trkpt lat="47.22904" lon="0.12355">
        <ele>32.9</ele>
        <time>2024-04-14T09:05:02Z</time>
      </trkpt>
      <trkpt lat="47.2293" lon="0.12435">
        <ele>32.9</ele>
        <time>2024-04-14T09:05:09Z</time>
      </trkpt>
      <trkpt lat="47.22934" lon="0.12446">
        <ele>32.9</ele>
        <time>2024-04-14T09:05:10Z</time>
      </trkpt>
      <trkpt lat="47.2296" lon="0.12527">
        <ele>33.1</ele>
        <time>2024-04-14T09:05:17Z</time>
      </trkpt>
      <trkpt lat="47.22988" lon="0.12605">
        <ele>33.3</ele>
        <time>2024-04-14T09:05:24Z</time>
      </trkpt>
      <trkpt lat="47.22991" lon="0.12617">
        <ele>33.3</ele>
        <time>2024-04-14T09:05:25Z</time>
      </trkpt>
      <trkpt lat="47.23018" lon="0.12697">
        <ele>33.2</ele>
        <time>2024-04-14T09:05:32Z</time>
      </trkpt>
      <trkpt lat="47.23022" lon="0.12709">
        <ele>33.2</ele>
        <time>2024-04-14T09:05:33Z</time>
      </trkpt>
      <trkpt lat="47.2305" lon="0.12789">
        <ele>33.2</ele>
        <time>2024-04-14T09:05:40Z</time>
      </trkpt>
      <trkpt lat="47.23062" lon="0.12823">
        <ele>33.2</ele>
        <time>2024-04-14T09:05:43Z</time>
      </trkpt>
      <trkpt lat="47.23088" lon="0.12904">
        <ele>33.4</ele>
        <time>2024-04-14T09:05:50Z</time>
      </trkpt>
      <trkpt lat="47.23104" lon="0.12949">
        <ele>33.3</ele>
        <time>2024-04-14T09:05:54Z</time>
      </trkpt>
      <trkpt lat="47.23131" lon="0.13029">
        <ele>33.4</ele>
        <time>2024-04-14T09:06:01Z</time>
      </trkpt>
      <trkpt lat="47.23135" lon="0.1304">
        <ele>33.3</ele>
        <time>2024-04-14T09:06:02Z</time>
      </trkpt>
      <trkpt lat="47.23162" lon="0.13121">
        <ele>33.3</ele>
        <time>2024-04-14T09:06:09Z</time>
      </trkpt>
      <trkpt lat="47.23166" lon="0.13132">
        <ele>33.3</ele>
        <time>2024-04-14T09:06:10Z</time>
      </trkpt>
      <trkpt lat="47.23194" lon="0.13215">
        <ele>33.4</ele>
        <time>2024-04-14T09:06:17Z</time>
      </trkpt>
      <trkpt lat="47.23202" lon="0.1324">
        <ele>33.5</ele>
        <time>2024-04-14T09:06:19Z</time>
      </trkpt>
      <trkpt lat="47.23227" lon="0.13313">
        <ele>33.5</ele>
        <time>2024-04-14T09:06:25Z</time>
      </trkpt>
      <trkpt lat="47.23234" lon="0.13337">
        <ele>33.5</ele>
        <time>2024-04-14T09:06:27Z</time>
      </trkpt>
      <trkpt lat="47.23256" lon="0.1341">
        <ele>33.5</ele>
        <time>2024-04-14T09:06:33Z</time>
      </trkpt>
      <trkpt lat="47.23263" lon="0.13434">
        <ele>33.6</ele>
        <time>2024-04-14T09:06:35Z</time>
      </trkpt>
      <trkpt lat="47.23284" lon="0.1351">
        <ele>33.6</ele>
        <time>2024-04-14T09:06:41Z</time>
      </trkpt>
      <trkpt lat="47.23287" lon="0.13522">
        <ele>33.6</ele>
        <time>2024-04-14T09:06:42Z</time>
      </trkpt>
      <trkpt lat="47.23307" lon="0.13598">
        <ele>33.6</ele>
        <time>2024-04-14T09:06:48Z</time>
      </trkpt>
      <trkpt lat="47.23317" lon="0.13636">
        <ele>33.6</ele>
        <time>2024-04-14T09:06:51Z</time>
      </trkpt>
      <trkpt lat="47.23336" lon="0.1371">
        <ele>33.7</ele>
        <time>2024-04-14T09:06:57Z</time>
      </trkpt>
      <trkpt lat="47.23355" lon="0.13786">
        <ele>33.7</ele>
        <time>2024-04-14T09:07:03Z</time>
      </trkpt>
      <trkpt lat="47.23362" lon="0.1381">
        <ele>33.7</ele>
        <time>2024-04-14T09:07:05Z</time>
      </trkpt>
      <trkpt lat="47.23382" lon="0.13884">
        <ele>33.8</ele>
        <time>2024-04-14T09:07:11Z</time>
      </trkpt>
      <trkpt lat="47.2339" lon="0.13909">
        <ele>33.8</ele>
        <time>2024-04-14T09:07:13Z</time>
      </trkpt>
      <trkpt lat="47.23409" lon="0.13983">
        <ele>33.9</ele>
        <time>2024-04-14T09:07:19Z</time>
      </trkpt>
      <trkpt lat="47.23412" lon="0.13996">
        <ele>33.9</ele>
        <time>2024-04-14T09:07:20Z</time>
      </trkpt>
      <trkpt lat="47.23431" lon="0.14071">
        <ele>34</ele>
        <time>2024-04-14T09:07:26Z</time>
      </trkpt>
      <trkpt lat="47.23433" lon="0.14083">
        <ele>34</ele>
        <time>2024-04-14T09:07:27Z</time>
      </trkpt>
      <trkpt lat="47.23453" lon="0.14171">
        <ele>33.9</ele>
        <time>2024-04-14T09:07:34Z</time>
      </trkpt>
      <trkpt lat="47.23455" lon="0.14183">
        <ele>33.9</ele>
        <time>2024-04-14T09:07:35Z</time>
      </trkpt>
      <trkpt lat="47.2347" lon="0.1426">
        <ele>33.9</ele>
        <time>2024-04-14T09:07:41Z</time>
      </trkpt>
      <trkpt lat="47.23472" lon="0.14273">
        <ele>33.9</ele>
        <time>2024-04-14T09:07:42Z</time>
      </trkpt>
      <trkpt lat="47.23488" lon="0.14362">
        <ele>33.9</ele>
        <time>2024-04-14T09:07:49Z</time>
      </trkpt>
      <trkpt lat="47.23491" lon="0.14388">
        <ele>33.9</ele>
        <time>2024-04-14T09:07:51Z</time>
      </trkpt>
      <trkpt lat="47.23504" lon="0.14476">
        <ele>34</ele>
        <time>2024-04-14T09:07:58Z</time>
      </trkpt>
      <trkpt lat="47.23513" lon="0.14567">
        <ele>34.1</ele>
        <time>2024-04-14T09:08:05Z</time>
      </trkpt>
      <trkpt lat="47.23515" lon="0.14592">
        <ele>34.1</ele>
        <time>2024-04-14T09:08:07Z</time>
      </trkpt>
      <trkpt lat="47.23524" lon="0.14683">
        <ele>34.2</ele>
        <time>2024-04-14T09:08:14Z</time>
      </trkpt>
      <trkpt lat="47.23525" lon="0.14696">
        <ele>34.2</ele>
        <time>2024-04-14T09:08:15Z</time>
      </trkpt>
      <trkpt lat="47.23532" lon="0.14786">
        <ele>34.2</ele>
        <time>2024-04-14T09:08:22Z</time>
      </trkpt>
      <trkpt lat="47.23533" lon="0.14799">
        <ele>34.2</ele>
        <time>2024-04-14T09:08:23Z</time>
      </trkpt>
      <trkpt lat="47.23535" lon="0.14889">
        <ele>34.2</ele>
        <time>2024-04-14T09:08:30Z</time>
      </trkpt>
      <trkpt lat="47.23533" lon="0.14979">
        <ele>34.3</ele>
        <time>2024-04-14T09:08:37Z</time>
      </trkpt>
      <trkpt lat="47.23528" lon="0.1507">
        <ele>34.3</ele>
        <time>2024-04-14T09:08:44Z</time>
      </trkpt>
      <trkpt lat="47.23527" lon="0.15097">
        <ele>34.3</ele>
        <time>2024-04-14T09:08:46Z</time>
      </trkpt>
      <trkpt lat="47.23522" lon="0.15187">
        <ele>34.3</ele>
        <time>2024-04-14T09:08:53Z</time>
      </trkpt>
      <trkpt lat="47.23517" lon="0.15278">
        <ele>34.3</ele>
        <time>2024-04-14T09:09:00Z</time>
      </trkpt>
      <trkpt lat="47.23516" lon="0.15304">
        <ele>34.3</ele>
        <time>2024-04-14T09:09:02Z</time>
      </trkpt>
      <trkpt lat="47.2351" lon="0.15383">
        <ele>34.3</ele>
        <time>2024-04-14T09:09:08Z</time>
      </trkpt>
      <trkpt lat="47.23508" lon="0.15409">
        <ele>34.3</ele>
        <time>2024-04-14T09:09:10Z</time>
      </trkpt>
      <trkpt lat="47.23501" lon="0.15488">
        <ele>34.2</ele>
        <time>2024-04-14T09:09:16Z</time>
      </trkpt>
      <trkpt lat="47.23499" lon="0.15512">
        <ele>34.2</ele>
        <time>2024-04-14T09:09:18Z</time>
      </trkpt>
      <trkpt lat="47.23493" lon="0.15603">
        <ele>34.2</ele>
        <time>2024-04-14T09:09:25Z</time>
      </trkpt>
      <trkpt lat="47.23481" lon="0.15691">
        <ele>34.7</ele>
        <time>2024-04-14T09:09:32Z</time>
      </trkpt>
      <trkpt lat="47.23463" lon="0.15763">
        <ele>35</ele>
        <time>2024-04-14T09:09:38Z</time>
      </trkpt>
      <trkpt lat="47.23434" lon="0.15844">
        <ele>35.4</ele>
        <time>2024-04-14T09:09:45Z</time>
      </trkpt>
      <trkpt lat="47.2343" lon="0.15855">
        <ele>35.5</ele>
        <time>2024-04-14T09:09:46Z</time>
      </trkpt>
      <trkpt lat="47.23414" lon="0.15886">
        <ele>35.7</ele>
        <time>2024-04-14T09:09:49Z</time>
      </trkpt>
      <trkpt lat="47.23394" lon="0.15928">
        <ele>36.4</ele>
        <time>2024-04-14T09:09:53Z</time>
      </trkpt>
      <trkpt lat="47.23383" lon="0.1596">
        <ele>37</ele>
        <time>2024-04-14T09:09:56Z</time>
      </trkpt>
      <trkpt lat="47.23381" lon="0.15972">
        <ele>37.2</ele>
        <time>2024-04-14T09:09:57Z</time>
      </trkpt>
      <trkpt lat="47.23376" lon="0.16006">
        <ele>37.6</ele>
        <time>2024-04-14T09:10:00Z</time>
      </trkpt>
      <trkpt lat="47.23372" lon="0.16035">
        <ele>38.2</ele>
        <time>2024-04-14T09:10:03Z</time>
      </trkpt>
      <trkpt lat="47.2337" lon="0.16043">
        <ele>38.4</ele>
        <time>2024-04-14T09:10:04Z</time>
      </trkpt>
      <trkpt lat="47.23364" lon="0.16053">
        <ele>38.6</ele>
        <time>2024-04-14T09:10:06Z</time>
      </trkpt>
      <trkpt lat="47.23356" lon="0.16058">
        <ele>38.5</ele>
        <time>2024-04-14T09:10:08Z</time>
      </trkpt>
      <trkpt lat="47.2335" lon="0.16059">
        <ele>38.4</ele>
        <time>2024-04-14T09:10:09Z</time>
      </trkpt>
      <trkpt lat="47.23339" lon="0.16062">
        <ele>38.2</ele>
        <time>2024-04-14T09:10:11Z</time>
      </trkpt>
      <trkpt lat="47.23319" lon="0.16066">
        <ele>37.9</ele>
        <time>2024-04-14T09:10:14Z</time>
      </trkpt>
      <trkpt lat="47.23288" lon="0.16076">
        <ele>37.6</ele>
        <time>2024-04-14T09:10:18Z</time>
      </trkpt>
      <trkpt lat="47.23272" lon="0.16084">
        <ele>37.5</ele>
        <time>2024-04-14T09:10:20Z</time>
      </trkpt>
      <trkpt lat="47.2323" lon="0.1611">
        <ele>37</ele>
        <time>2024-04-14T09:10:25Z</time>
      </trkpt>
      <trkpt lat="47.23203" lon="0.16122">
        <ele>36.6</ele>
        <time>2024-04-14T09:10:28Z</time>
      </trkpt>
      <trkpt lat="47.23184" lon="0.16128">
        <ele>36.3</ele>
        <time>2024-04-14T09:10:30Z</time>
      </trkpt>
      <trkpt lat="47.23128" lon="0.16155">
        <ele>35.5</ele>
        <time>2024-04-14T09:10:36Z</time>
      </trkpt>
      <trkpt lat="47.23091" lon="0.16171">
        <ele>35.2</ele>
        <time>2024-04-14T09:10:40Z</time>
      </trkpt>
      <trkpt lat="47.23073" lon="0.16177">
        <ele>35.2</ele>
        <time>2024-04-14T09:10:42Z</time>
      </trkpt>
      <trkpt lat="47.23017" lon="0.16187">
        <ele>35.2</ele>
        <time>2024-04-14T09:10:48Z</time>
      </trkpt>
      <trkpt lat="47.23007" lon="0.16187">
        <ele>35.2</ele>
        <time>2024-04-14T09:10:49Z</time>
      </trkpt>
      <trkpt lat="47.22949" lon="0.16189">
        <ele>35.2</ele>
        <time>2024-04-14T09:10:55Z</time>
      </trkpt>
      <trkpt lat="47.2294" lon="0.16189">
        <ele>35.1</ele>
        <time>2024-04-14T09:10:56Z</time>
      </trkpt>
      <trkpt lat="47.22882" lon="0.1619">
        <ele>34.9</ele>
        <time>2024-04-14T09:11:02Z</time>
      </trkpt>
      <trkpt lat="47.22844" lon="0.16192">
        <ele>35</ele>
        <time>2024-04-14T09:11:06Z</time>
      </trkpt>
      <trkpt lat="47.22786" lon="0.16194">
        <ele>35.1</ele>
        <time>2024-04-14T09:11:12Z</time>
      </trkpt>
      <trkpt lat="47.22748" lon="0.16195">
        <ele>35.1</ele>
        <time>2024-04-14T09:11:16Z</time>
      </trkpt>
      <trkpt lat="47.22691" lon="0.16196">
        <ele>35.2</ele>
        <time>2024-04-14T09:11:22Z</time>
      </trkpt>
      <trkpt lat="47.22662" lon="0.16198">
        <ele>35.1</ele>
        <time>2024-04-14T09:11:25Z</time>
      </trkpt>
      <trkpt lat="47.22604" lon="0.16199">
        <ele>35.1</ele>
        <time>2024-04-14T09:11:31Z</time>
      </trkpt>
      <trkpt lat="47.22585" lon="0.162">
        <ele>35.1</ele>
        <time>2024-04-14T09:11:33Z</time>
      </trkpt>
      <trkpt lat="47.22526" lon="0.16202">
        <ele>35.1</ele>
        <time>2024-04-14T09:11:39Z</time>
      </trkpt>
      <trkpt lat="47.22488" lon="0.16203">
        <ele>35.2</ele>
        <time>2024-04-14T09:11:43Z</time>
      </trkpt>
      <trkpt lat="47.2243" lon="0.16204">
        <ele>35.1</ele>
        <time>2024-04-14T09:11:49Z</time>
      </trkpt>
      <trkpt lat="47.2241" lon="0.16205">
        <ele>35.1</ele>
        <time>2024-04-14T09:11:51Z</time>
      </trkpt>
      <trkpt lat="47.22352" lon="0.16206">
        <ele>35.1</ele>
        <time>2024-04-14T09:11:57Z</time>
      </trkpt>
      <trkpt lat="47.22324" lon="0.16207">
        <ele>35.2</ele>
        <time>2024-04-14T09:12:00Z</time>
      </trkpt>
      <trkpt lat="47.22267" lon="0.16213">
        <ele>35.2</ele>
        <time>2024-04-14T09:12:06Z</time>
      </trkpt>
      <trkpt lat="47.22258" lon="0.16215">
        <ele>35.3</ele>
        <time>2024-04-14T09:12:07Z</time>
      </trkpt>
      <trkpt lat="47.22223" lon="0.1623">
        <ele>35.4</ele>
        <time>2024-04-14T09:12:11Z</time>
      </trkpt>
      <trkpt lat="47.222" lon="0.16239">
        <ele>35.4</ele>
        <time>2024-04-14T09:12:14Z</time>
      </trkpt>
      <trkpt lat="47.22192" lon="0.16255">
        <ele>35.4</ele>
        <time>2024-04-14T09:12:16Z</time>
      </trkpt>
      <trkpt lat="47.22192" lon="0.16286">
        <ele>35.3</ele>
        <time>2024-04-14T09:12:19Z</time>
      </trkpt>
      <trkpt lat="47.22193" lon="0.16343">
        <ele>35.4</ele>
        <time>2024-04-14T09:12:24Z</time>
      </trkpt>
      <trkpt lat="47.22192" lon="0.16368">
        <ele>35.4</ele>
        <time>2024-04-14T09:12:26Z</time>
      </trkpt>
      <trkpt lat="47.22192" lon="0.16432">
        <ele>35.4</ele>
        <time>2024-04-14T09:12:31Z</time>
      </trkpt>
      <trkpt lat="47.22194" lon="0.16499">
        <ele>35.4</ele>
        <time>2024-04-14T09:12:36Z</time>
      </trkpt>
      <trkpt lat="47.22196" lon="0.16526">
        <ele>35.5</ele>
        <time>2024-04-14T09:12:38Z</time>
      </trkpt>
      <trkpt lat="47.22203" lon="0.16616">
        <ele>35.7</ele>
        <time>2024-04-14T09:12:45Z</time>
      </trkpt>
      <trkpt lat="47.22209" lon="0.167">
        <ele>35.8</ele>
        <time>2024-04-14T09:12:52Z</time>
      </trkpt>
      <trkpt lat="47.2221" lon="0.16712">
        <ele>35.8</ele>
        <time>2024-04-14T09:12:53Z</time>
      </trkpt>
      <trkpt lat="47.22219" lon="0.16793">
        <ele>36</ele>
        <time>2024-04-14T09:13:00Z</time>
      </trkpt>
      <trkpt lat="47.2222" lon="0.16805">
        <ele>36</ele>
        <time>2024-04-14T09:13:01Z</time>
      </trkpt>
      <trkpt lat="47.22236" lon="0.16883">
        <ele>36.2</ele>
        <time>2024-04-14T09:13:08Z</time>
      </trkpt>
      <trkpt lat="47.22238" lon="0.16894">
        <ele>36.2</ele>
        <time>2024-04-14T09:13:09Z</time>
      </trkpt>
      <trkpt lat="47.22249" lon="0.16937">
        <ele>36.2</ele>
        <time>2024-04-14T09:13:13Z</time>
      </trkpt>
      <trkpt lat="47.22259" lon="0.16969">
        <ele>36.2</ele>
        <time>2024-04-14T09:13:16Z</time>
      </trkpt>
      <trkpt lat="47.22288" lon="0.17041">
        <ele>36.1</ele>
        <time>2024-04-14T09:13:23Z</time>
      </trkpt>
      <trkpt lat="47.22323" lon="0.17109">
        <ele>35.9</ele>
        <time>2024-04-14T09:13:30Z</time>
      </trkpt>
      <trkpt lat="47.22333" lon="0.17127">
        <ele>35.8</ele>
        <time>2024-04-14T09:13:32Z</time>
      </trkpt>
      <trkpt lat="47.22338" lon="0.17136">
        <ele>35.8</ele>
        <time>2024-04-14T09:13:33Z</time>
      </trkpt>
      <trkpt lat="47.22374" lon="0.17198">
        <ele>35.6</ele>
        <time>2024-04-14T09:13:40Z</time>
      </trkpt>
      <trkpt lat="47.2238" lon="0.17207">
        <ele>35.6</ele>
        <time>2024-04-14T09:13:41Z</time>
      </trkpt>
      <trkpt lat="47.22417" lon="0.17269">
        <ele>35.4</ele>
        <time>2024-04-14T09:13:48Z</time>
      </trkpt>
      <trkpt lat="47.22428" lon="0.17287">
        <ele>35.4</ele>
        <time>2024-04-14T09:13:50Z</time>
      </trkpt>
      <trkpt lat="47.22464" lon="0.17349">
        <ele>35.3</ele>
        <time>2024-04-14T09:13:57Z</time>
      </trkpt>
      <trkpt lat="47.22474" lon="0.17367">
        <ele>35.4</ele>
        <time>2024-04-14T09:13:59Z</time>
      </trkpt>
      <trkpt lat="47.22511" lon="0.17429">
        <ele>35.8</ele>
        <time>2024-04-14T09:14:06Z</time>
      </trkpt>
      <trkpt lat="47.22516" lon="0.17438">
        <ele>35.8</ele>
        <time>2024-04-14T09:14:07Z</time>
      </trkpt>
      <trkpt lat="47.22553" lon="0.17502">
        <ele>36</ele>
        <time>2024-04-14T09:14:14Z</time>
      </trkpt>
      <trkpt lat="47.2258" lon="0.17546">
        <ele>36</ele>
        <time>2024-04-14T09:14:19Z</time>
      </trkpt>
      <trkpt lat="47.22618" lon="0.17609">
        <ele>36</ele>
        <time>2024-04-14T09:14:26Z</time>
      </trkpt>
      <trkpt lat="47.2266" lon="0.17666">
        <ele>35.9</ele>
        <time>2024-04-14T09:14:33Z</time>
      </trkpt>
      <trkpt lat="47.22666" lon="0.17673">
        <ele>35.9</ele>
        <time>2024-04-14T09:14:34Z</time>
      </trkpt>
      <trkpt lat="47.22716" lon="0.17725">
        <ele>36.1</ele>
        <time>2024-04-14T09:14:42Z</time>
      </trkpt>
      <trkpt lat="47.22758" lon="0.17753">
        <ele>35.9</ele>
        <time>2024-04-14T09:14:48Z</time>
      </trkpt>
      <trkpt lat="47.22774" lon="0.17762">
        <ele>35.9</ele>
        <time>2024-04-14T09:14:50Z</time>
      </trkpt>
      <trkpt lat="47.22798" lon="0.17771">
        <ele>35.7</ele>
        <time>2024-04-14T09:14:53Z</time>
      </trkpt>
      <trkpt lat="47.22848" lon="0.17788">
        <ele>35.3</ele>
        <time>2024-04-14T09:14:59Z</time>
      </trkpt>
      <trkpt lat="47.22905" lon="0.17803">
        <ele>35.1</ele>
        <time>2024-04-14T09:15:06Z</time>
      </trkpt>
      <trkpt lat="47.22921" lon="0.17809">
        <ele>35.1</ele>
        <time>2024-04-14T09:15:08Z</time>
      </trkpt>
      <trkpt lat="47.2297" lon="0.17829">
        <ele>35</ele>
        <time>2024-04-14T09:15:14Z</time>
      </trkpt>
      <trkpt lat="47.22978" lon="0.17833">
        <ele>35.1</ele>
        <time>2024-04-14T09:15:15Z</time>
      </trkpt>
      <trkpt lat="47.23028" lon="0.1787">
        <ele>35.3</ele>
        <time>2024-04-14T09:15:22Z</time>
      </trkpt>
      <trkpt lat="47.23072" lon="0.17918">
        <ele>35.6</ele>
        <time>2024-04-14T09:15:29Z</time>
      </trkpt>
      <trkpt lat="47.23109" lon="0.17978">
        <ele>35.9</ele>
        <time>2024-04-14T09:15:36Z</time>
      </trkpt>
      <trkpt lat="47.23134" lon="0.18039">
        <ele>35.8</ele>
        <time>2024-04-14T09:15:42Z</time>
      </trkpt>
      <trkpt lat="47.23157" lon="0.18117">
        <ele>35.6</ele>
        <time>2024-04-14T09:15:49Z</time>
      </trkpt>
      <trkpt lat="47.2316" lon="0.18129">
        <ele>35.5</ele>
        <time>2024-04-14T09:15:50Z</time>
      </trkpt>
      <trkpt lat="47.23173" lon="0.18216">
        <ele>35.3</ele>
        <time>2024-04-14T09:15:57Z</time>
      </trkpt>
      <trkpt lat="47.23179" lon="0.18307">
        <ele>35.1</ele>
        <time>2024-04-14T09:16:04Z</time>
      </trkpt>
      <trkpt lat="47.23179" lon="0.1832">
        <ele>35.1</ele>
        <time>2024-04-14T09:16:05Z</time>
      </trkpt>
      <trkpt lat="47.2318" lon="0.18409">
        <ele>35.2</ele>
        <time>2024-04-14T09:16:12Z</time>
      </trkpt>
      <trkpt lat="47.23181" lon="0.18421">
        <ele>35.2</ele>
        <time>2024-04-14T09:16:13Z</time>
      </trkpt>
      <trkpt lat="47.23182" lon="0.1851">
        <ele>35.4</ele>
        <time>2024-04-14T09:16:20Z</time>
      </trkpt>
      <trkpt lat="47.23182" lon="0.18535">
        <ele>35.4</ele>
        <time>2024-04-14T09:16:22Z</time>
      </trkpt>
      <trkpt lat="47.23184" lon="0.18618">
        <ele>35.6</ele>
        <time>2024-04-14T09:16:29Z</time>
      </trkpt>
      <trkpt lat="47.23184" lon="0.18666">
        <ele>35.7</ele>
        <time>2024-04-14T09:16:33Z</time>
      </trkpt>
      <trkpt lat="47.23186" lon="0.18751">
        <ele>35.7</ele>
        <time>2024-04-14T09:16:40Z</time>
      </trkpt>
      <trkpt lat="47.23186" lon="0.18776">
        <ele>35.6</ele>
        <time>2024-04-14T09:16:42Z</time>
      </trkpt>
      <trkpt lat="47.23188" lon="0.18865">
        <ele>35.5</ele>
        <time>2024-04-14T09:16:49Z</time>
      </trkpt>
      <trkpt lat="47.23188" lon="0.18878">
        <ele>35.5</ele>
        <time>2024-04-14T09:16:50Z</time>
      </trkpt>
      <trkpt lat="47.23187" lon="0.18966">
        <ele>35.4</ele>
        <time>2024-04-14T09:16:57Z</time>
      </trkpt>
      <trkpt lat="47.23186" lon="0.18979">
        <ele>35.5</ele>
        <time>2024-04-14T09:16:58Z</time>
      </trkpt>
      <trkpt lat="47.23183" lon="0.19053">
        <ele>35.5</ele>
        <time>2024-04-14T09:17:04Z</time>
      </trkpt>
      <trkpt lat="47.23182" lon="0.1914">
        <ele>35.5</ele>
        <time>2024-04-14T09:17:11Z</time>
      </trkpt>
      <trkpt lat="47.23187" lon="0.19226">
        <ele>35.6</ele>
        <time>2024-04-14T09:17:18Z</time>
      </trkpt>
      <trkpt lat="47.23187" lon="0.19238">
        <ele>35.6</ele>
        <time>2024-04-14T09:17:19Z</time>
      </trkpt>
      <trkpt lat="47.23185" lon="0.19323">
        <ele>35.6</ele>
        <time>2024-04-14T09:17:26Z</time>
      </trkpt>
      <trkpt lat="47.23185" lon="0.19335">
        <ele>35.6</ele>
        <time>2024-04-14T09:17:27Z</time>
      </trkpt>
      <trkpt lat="47.23181" lon="0.19408">
        <ele>35.7</ele>
        <time>2024-04-14T09:17:33Z</time>
      </trkpt>
      <trkpt lat="47.23173" lon="0.1949">
        <ele>35.7</ele>
        <time>2024-04-14T09:17:40Z</time>
      </trkpt>
      <trkpt lat="47.23172" lon="0.19502">
        <ele>35.8</ele>
        <time>2024-04-14T09:17:41Z</time>
      </trkpt>
      <trkpt lat="47.23172" lon="0.19514">
        <ele>35.7</ele>
        <time>2024-04-14T09:17:42Z</time>
      </trkpt>
      <trkpt lat="47.23174" lon="0.19551">
        <ele>35.7</ele>
        <time>2024-04-14T09:17:45Z</time>
      </trkpt>
      <trkpt lat="47.23175" lon="0.19641">
        <ele>35.7</ele>
        <time>2024-04-14T09:17:52Z</time>
      </trkpt>
      <trkpt lat="47.23172" lon="0.1973">
        <ele>35.8</ele>
        <time>2024-04-14T09:17:59Z</time>
      </trkpt>
      <trkpt lat="47.23171" lon="0.19756">
        <ele>35.9</ele>
        <time>2024-04-14T09:18:01Z</time>
      </trkpt>
      <trkpt lat="47.23171" lon="0.19847">
        <ele>36</ele>
        <time>2024-04-14T09:18:08Z</time>
      </trkpt>
      <trkpt lat="47.2318" lon="0.19937">
        <ele>35.9</ele>
        <time>2024-04-14T09:18:15Z</time>
      </trkpt>
      <trkpt lat="47.23188" lon="0.20025">
        <ele>36.2</ele>
        <time>2024-04-14T09:18:22Z</time>
      </trkpt>
      <trkpt lat="47.2319" lon="0.20063">
        <ele>36.3</ele>
        <time>2024-04-14T09:18:25Z</time>
      </trkpt>
      <trkpt lat="47.23191" lon="0.20137">
        <ele>36.2</ele>
        <time>2024-04-14T09:18:31Z</time>
      </trkpt>
      <trkpt lat="47.23187" lon="0.20212">
        <ele>36.3</ele>
        <time>2024-04-14T09:18:37Z</time>
      </trkpt>
      <trkpt lat="47.23194" lon="0.20287">
        <ele>36.3</ele>
        <time>2024-04-14T09:18:43Z</time>
      </trkpt>
      <trkpt lat="47.23205" lon="0.20374">
        <ele>36.3</ele>
        <time>2024-04-14T09:18:50Z</time>
      </trkpt>
      <trkpt lat="47.23219" lon="0.20446">
        <ele>36.5</ele>
        <time>2024-04-14T09:18:56Z</time>
      </trkpt>
      <trkpt lat="47.23227" lon="0.20478">
        <ele>36.5</ele>
        <time>2024-04-14T09:18:59Z</time>
      </trkpt>
      <trkpt lat="47.23234" lon="0.20507">
        <ele>36.5</ele>
        <time>2024-04-14T09:19:02Z</time>
      </trkpt>
      <trkpt lat="47.23253" lon="0.20582">
        <ele>36.3</ele>
        <time>2024-04-14T09:19:09Z</time>
      </trkpt>
      <trkpt lat="47.23272" lon="0.20661">
        <ele>36.3</ele>
        <time>2024-04-14T09:19:16Z</time>
      </trkpt>
      <trkpt lat="47.23283" lon="0.2072">
        <ele>36.3</ele>
        <time>2024-04-14T09:19:21Z</time>
      </trkpt>
      <trkpt lat="47.23285" lon="0.20732">
        <ele>36.4</ele>
        <time>2024-04-14T09:19:22Z</time>
      </trkpt>
      <trkpt lat="47.23305" lon="0.20814">
        <ele>36.4</ele>
        <time>2024-04-14T09:19:29Z</time>
      </trkpt>
      <trkpt lat="47.2331" lon="0.2084">
        <ele>36.3</ele>
        <time>2024-04-14T09:19:31Z</time>
      </trkpt>
      <trkpt lat="47.2333" lon="0.20927">
        <ele>36.2</ele>
        <time>2024-04-14T09:19:38Z</time>
      </trkpt>
      <trkpt lat="47.23332" lon="0.20939">
        <ele>36.2</ele>
        <time>2024-04-14T09:19:39Z</time>
      </trkpt>
      <trkpt lat="47.23336" lon="0.20964">
        <ele>36.2</ele>
        <time>2024-04-14T09:19:41Z</time>
      </trkpt>
      <trkpt lat="47.23339" lon="0.21015">
        <ele>36.1</ele>
        <time>2024-04-14T09:19:45Z</time>
      </trkpt>
      <trkpt lat="47.23347" lon="0.21104">
        <ele>36.1</ele>
        <time>2024-04-14T09:19:52Z</time>
      </trkpt>
      <trkpt lat="47.23349" lon="0.21116">
        <ele>36.1</ele>
        <time>2024-04-14T09:19:53Z</time>
      </trkpt>
      <trkpt lat="47.23363" lon="0.21188">
        <ele>36</ele>
        <time>2024-04-14T09:19:59Z</time>
      </trkpt>
      <trkpt lat="47.23365" lon="0.21223">
        <ele>35.9</ele>
        <time>2024-04-14T09:20:02Z</time>
      </trkpt>
      <trkpt lat="47.2337" lon="0.2126">
        <ele>35.9</ele>
        <time>2024-04-14T09:20:05Z</time>
      </trkpt>
      <trkpt lat="47.23382" lon="0.21349">
        <ele>35.7</ele>
        <time>2024-04-14T09:20:12Z</time>
      </trkpt>
      <trkpt lat="47.23384" lon="0.21361">
        <ele>35.8</ele>
        <time>2024-04-14T09:20:13Z</time>
      </trkpt>
      <trkpt lat="47.23397" lon="0.21448">
        <ele>35.9</ele>
        <time>2024-04-14T09:20:20Z</time>
      </trkpt>
      <trkpt lat="47.23402" lon="0.21484">
        <ele>35.9</ele>
        <time>2024-04-14T09:20:23Z</time>
      </trkpt>
      <trkpt lat="47.23419" lon="0.21568">
        <ele>35.8</ele>
        <time>2024-04-14T09:20:30Z</time>
      </trkpt>
      <trkpt lat="47.23428" lon="0.21658">
        <ele>35.6</ele>
        <time>2024-04-14T09:20:37Z</time>
      </trkpt>
      <trkpt lat="47.23434" lon="0.21747">
        <ele>35.5</ele>
        <time>2024-04-14T09:20:44Z</time>
      </trkpt>
      <trkpt lat="47.23435" lon="0.2176">
        <ele>35.6</ele>
        <time>2024-04-14T09:20:45Z</time>
      </trkpt>
      <trkpt lat="47.23441" lon="0.21844">
        <ele>35.7</ele>
        <time>2024-04-14T09:20:52Z</time>
      </trkpt>
      <trkpt lat="47.23443" lon="0.21868">
        <ele>35.7</ele>
        <time>2024-04-14T09:20:54Z</time>
      </trkpt>
      <trkpt lat="47.23452" lon="0.21937">
        <ele>35.7</ele>
        <time>2024-04-14T09:21:00Z</time>
      </trkpt>
      <trkpt lat="47.23454" lon="0.21949">
        <ele>35.7</ele>
        <time>2024-04-14T09:21:01Z</time>
      </trkpt>
      <trkpt lat="47.23469" lon="0.22029">
        <ele>35.9</ele>
        <time>2024-04-14T09:21:08Z</time>
      </trkpt>
      <trkpt lat="47.23483" lon="0.2211">
        <ele>35.9</ele>
        <time>2024-04-14T09:21:15Z</time>
      </trkpt>
      <trkpt lat="47.23484" lon="0.22121">
        <ele>35.9</ele>
        <time>2024-04-14T09:21:16Z</time>
      </trkpt>
      <trkpt lat="47.23488" lon="0.22169">
        <ele>35.9</ele>
        <time>2024-04-14T09:21:20Z</time>
      </trkpt>
      <trkpt lat="47.23488" lon="0.22192">
        <ele>35.9</ele>
        <time>2024-04-14T09:21:22Z</time>
      </trkpt>
      <trkpt lat="47.23482" lon="0.22276">
        <ele>36</ele>
        <time>2024-04-14T09:21:29Z</time>
      </trkpt>
      <trkpt lat="47.23479" lon="0.223">
        <ele>36</ele>
        <time>2024-04-14T09:21:31Z</time>
      </trkpt>
      <trkpt lat="47.23471" lon="0.22372">
        <ele>36.2</ele>
        <time>2024-04-14T09:21:37Z</time>
      </trkpt>
      <trkpt lat="47.23467" lon="0.22454">
        <ele>36.5</ele>
        <time>2024-04-14T09:21:44Z</time>
      </trkpt>
      <trkpt lat="47.23468" lon="0.22478">
        <ele>36.6</ele>
        <time>2024-04-14T09:21:46Z</time>
      </trkpt>
      <trkpt lat="47.23475" lon="0.22546">
        <ele>37</ele>
        <time>2024-04-14T09:21:53Z</time>
      </trkpt>
      <trkpt lat="47.23493" lon="0.2261">
        <ele>37.1</ele>
        <time>2024-04-14T09:21:59Z</time>
      </trkpt>
      <trkpt lat="47.23497" lon="0.2262">
        <ele>37.1</ele>
        <time>2024-04-14T09:22:00Z</time>
      </trkpt>
      <trkpt lat="47.23522" lon="0.22695">
        <ele>37.3</ele>
        <time>2024-04-14T09:22:07Z</time>
      </trkpt>
      <trkpt lat="47.23526" lon="0.22706">
        <ele>37.3</ele>
        <time>2024-04-14T09:22:08Z</time>
      </trkpt>
      <trkpt lat="47.23548" lon="0.22782">
        <ele>37.3</ele>
        <time>2024-04-14T09:22:15Z</time>
      </trkpt>
      <trkpt lat="47.23551" lon="0.22794">
        <ele>37.3</ele>
        <time>2024-04-14T09:22:16Z</time>
      </trkpt>
      <trkpt lat="47.23567" lon="0.22877">
        <ele>37.4</ele>
        <time>2024-04-14T09:22:23Z</time>
      </trkpt>
      <trkpt lat="47.23569" lon="0.22889">
        <ele>37.4</ele>
        <time>2024-04-14T09:22:24Z</time>
      </trkpt>
      <trkpt lat="47.23571" lon="0.229">
        <ele>37.4</ele>
        <time>2024-04-14T09:22:25Z</time>
      </trkpt>
      <trkpt lat="47.23583" lon="0.22982">
        <ele>37.9</ele>
        <time>2024-04-14T09:22:32Z</time>
      </trkpt>
      <trkpt lat="47.23596" lon="0.23061">
        <ele>38.2</ele>
        <time>2024-04-14T09:22:39Z</time>
      </trkpt>
      <trkpt lat="47.23603" lon="0.23107">
        <ele>38.3</ele>
        <time>2024-04-14T09:22:43Z</time>
      </trkpt>
      <trkpt lat="47.23613" lon="0.23187">
        <ele>38.5</ele>
        <time>2024-04-14T09:22:50Z</time>
      </trkpt>
      <trkpt lat="47.23614" lon="0.23199">
        <ele>38.5</ele>
        <time>2024-04-14T09:22:51Z</time>
      </trkpt>
      <trkpt lat="47.2362" lon="0.23279">
        <ele>38.6</ele>
        <time>2024-04-14T09:22:58Z</time>
      </trkpt>
      <trkpt lat="47.23622" lon="0.23303">
        <ele>38.6</ele>
        <time>2024-04-14T09:23:00Z</time>
      </trkpt>
      <trkpt lat="47.23629" lon="0.23384">
        <ele>39.1</ele>
        <time>2024-04-14T09:23:07Z</time>
      </trkpt>
      <trkpt lat="47.2363" lon="0.23419">
        <ele>39.3</ele>
        <time>2024-04-14T09:23:10Z</time>
      </trkpt>
      <trkpt lat="47.23631" lon="0.23474">
        <ele>39.8</ele>
        <time>2024-04-14T09:23:15Z</time>
      </trkpt>
      <trkpt lat="47.23631" lon="0.23506">
        <ele>40.3</ele>
        <time>2024-04-14T09:23:18Z</time>
      </trkpt>
      <trkpt lat="47.23631" lon="0.23568">
        <ele>41.3</ele>
        <time>2024-04-14T09:23:24Z</time>
      </trkpt>
      <trkpt lat="47.23632" lon="0.23578">
        <ele>41.5</ele>
        <time>2024-04-14T09:23:25Z</time>
      </trkpt>
      <trkpt lat="47.23635" lon="0.23626">
        <ele>42.5</ele>
        <time>2024-04-14T09:23:30Z</time>
      </trkpt>
      <trkpt lat="47.23637" lon="0.23655">
        <ele>43</ele>
        <time>2024-04-14T09:23:33Z</time>
      </trkpt>
      <trkpt lat="47.23638" lon="0.23664">
        <ele>43.2</ele>
        <time>2024-04-14T09:23:34Z</time>
      </trkpt>
      <trkpt lat="47.23643" lon="0.23711">
        <ele>44.1</ele>
        <time>2024-04-14T09:23:39Z</time>
      </trkpt>
      <trkpt lat="47.23646" lon="0.2373">
        <ele>44.5</ele>
        <time>2024-04-14T09:23:41Z</time>
      </trkpt>
      <trkpt lat="47.23648" lon="0.23749">
        <ele>44.9</ele>
        <time>2024-04-14T09:23:43Z</time>
      </trkpt>
      <trkpt lat="47.23658" lon="0.23813">
        <ele>46.3</ele>
        <time>2024-04-14T09:23:50Z</time>
      </trkpt>
      <trkpt lat="47.23659" lon="0.23821">
        <ele>46.5</ele>
        <time>2024-04-14T09:23:51Z</time>
      </trkpt>
      <trkpt lat="47.23667" lon="0.23874">
        <ele>47.7</ele>
        <time>2024-04-14T09:23:57Z</time>
      </trkpt>
      <trkpt lat="47.23667" lon="0.23892">
        <ele>48.1</ele>
        <time>2024-04-14T09:23:59Z</time>
      </trkpt>
      <trkpt lat="47.23668" lon="0.23919">
        <ele>48.4</ele>
        <time>2024-04-14T09:24:02Z</time>
      </trkpt>
      <trkpt lat="47.23667" lon="0.23928">
        <ele>48.4</ele>
        <time>2024-04-14T09:24:03Z</time>
      </trkpt>
      <trkpt lat="47.23663" lon="0.23975">
        <ele>48.5</ele>
        <time>2024-04-14T09:24:08Z</time>
      </trkpt>
      <trkpt lat="47.23663" lon="0.23985">
        <ele>48.4</ele>
        <time>2024-04-14T09:24:09Z</time>
      </trkpt>
      <trkpt lat="47.23667" lon="0.24016">
        <ele>47.9</ele>
        <time>2024-04-14T09:24:12Z</time>
      </trkpt>
      <trkpt lat="47.23676" lon="0.24047">
        <ele>46.9</ele>
        <time>2024-04-14T09:24:15Z</time>
      </trkpt>
      <trkpt lat="47.23683" lon="0.24068">
        <ele>46.2</ele>
        <time>2024-04-14T09:24:17Z</time>
      </trkpt>
      <trkpt lat="47.23687" lon="0.24079">
        <ele>45.9</ele>
        <time>2024-04-14T09:24:18Z</time>
      </trkpt>
      <trkpt lat="47.23704" lon="0.24125">
        <ele>44.6</ele>
        <time>2024-04-14T09:24:22Z</time>
      </trkpt>
      <trkpt lat="47.23712" lon="0.24149">
        <ele>44</ele>
        <time>2024-04-14T09:24:24Z</time>
      </trkpt>
      <trkpt lat="47.23724" lon="0.24185">
        <ele>43.5</ele>
        <time>2024-04-14T09:24:27Z</time>
      </trkpt>
      <trkpt lat="47.23734" lon="0.24222">
        <ele>42.8</ele>
        <time>2024-04-14T09:24:30Z</time>
      </trkpt>
      <trkpt lat="47.23739" lon="0.24248">
        <ele>42.4</ele>
        <time>2024-04-14T09:24:32Z</time>
      </trkpt>
      <trkpt lat="47.23743" lon="0.24273">
        <ele>42</ele>
        <time>2024-04-14T09:24:34Z</time>
      </trkpt>
      <trkpt lat="47.23759" lon="0.24349">
        <ele>41.4</ele>
        <time>2024-04-14T09:24:40Z</time>
      </trkpt>
      <trkpt lat="47.23783" lon="0.2443">
        <ele>41.4</ele>
        <time>2024-04-14T09:24:47Z</time>
      </trkpt>
      <trkpt lat="47.23791" lon="0.24452">
        <ele>41.4</ele>
        <time>2024-04-14T09:24:49Z</time>
      </trkpt>
      <trkpt lat="47.23818" lon="0.24511">
        <ele>41.6</ele>
        <time>2024-04-14T09:24:55Z</time>
      </trkpt>
      <trkpt lat="47.2385" lon="0.24578">
        <ele>41.4</ele>
        <time>2024-04-14T09:25:02Z</time>
      </trkpt>
      <trkpt lat="47.23854" lon="0.24588">
        <ele>41.3</ele>
        <time>2024-04-14T09:25:03Z</time>
      </trkpt>
      <trkpt lat="47.23878" lon="0.2466">
        <ele>41.3</ele>
        <time>2024-04-14T09:25:10Z</time>
      </trkpt>
      <trkpt lat="47.23884" lon="0.24681">
        <ele>41.4</ele>
        <time>2024-04-14T09:25:12Z</time>
      </trkpt>
      <trkpt lat="47.239" lon="0.24756">
        <ele>41.7</ele>
        <time>2024-04-14T09:25:19Z</time>
      </trkpt>
      <trkpt lat="47.23916" lon="0.24831">
        <ele>42.8</ele>
        <time>2024-04-14T09:25:27Z</time>
      </trkpt>
      <trkpt lat="47.23925" lon="0.24873">
        <ele>44.1</ele>
        <time>2024-04-14T09:25:33Z</time>
      </trkpt>
      <trkpt lat="47.23926" lon="0.24879">
        <ele>44.4</ele>
        <time>2024-04-14T09:25:34Z</time>
      </trkpt>
      <trkpt lat="47.23932" lon="0.24904">
        <ele>45.4</ele>
        <time>2024-04-14T09:25:38Z</time>
      </trkpt>
      <trkpt lat="47.23936" lon="0.24917">
        <ele>45.9</ele>
        <time>2024-04-14T09:25:40Z</time>
      </trkpt>
      <trkpt lat="47.23937" lon="0.24924">
        <ele>46.3</ele>
        <time>2024-04-14T09:25:41Z</time>
      </trkpt>
      <trkpt lat="47.23945" lon="0.24963">
        <ele>48.2</ele>
        <time>2024-04-14T09:25:47Z</time>
      </trkpt>
      <trkpt lat="47.23947" lon="0.24976">
        <ele>48.8</ele>
        <time>2024-04-14T09:25:49Z</time>
      </trkpt>
      <trkpt lat="47.23947" lon="0.24982">
        <ele>49.1</ele>
        <time>2024-04-14T09:25:50Z</time>
      </trkpt>
      <trkpt lat="47.23947" lon="0.24999">
        <ele>49.9</ele>
        <time>2024-04-14T09:25:53Z</time>
      </trkpt>
      <trkpt lat="47.23955" lon="0.2501">
        <ele>50.2</ele>
        <time>2024-04-14T09:25:56Z</time>
      </trkpt>
      <trkpt lat="47.23964" lon="0.25023">
        <ele>50.4</ele>
        <time>2024-04-14T09:26:00Z</time>
      </trkpt>
      <trkpt lat="47.23974" lon="0.25043">
        <ele>50.8</ele>
        <time>2024-04-14T09:26:04Z</time>
      </trkpt>
      <trkpt lat="47.23976" lon="0.25048">
        <ele>50.8</ele>
        <time>2024-04-14T09:26:05Z</time>
      </trkpt>
      <trkpt lat="47.23996" lon="0.25085">
        <ele>51.3</ele>
        <time>2024-04-14T09:26:11Z</time>
      </trkpt>
      <trkpt lat="47.24" lon="0.25091">
        <ele>51.4</ele>
        <time>2024-04-14T09:26:12Z</time>
      </trkpt>
      <trkpt lat="47.24039" lon="0.25153">
        <ele>52.4</ele>
        <time>2024-04-14T09:26:22Z</time>
      </trkpt>
      <trkpt lat="47.24042" lon="0.25159">
        <ele>52.5</ele>
        <time>2024-04-14T09:26:23Z</time>
      </trkpt>
      <trkpt lat="47.24058" lon="0.25183">
        <ele>52.9</ele>
        <time>2024-04-14T09:26:27Z</time>
      </trkpt>
      <trkpt lat="47.24076" lon="0.25214">
        <ele>53.3</ele>
        <time>2024-04-14T09:26:32Z</time>
      </trkpt>
      <trkpt lat="47.241" lon="0.25257">
        <ele>53.2</ele>
        <time>2024-04-14T09:26:39Z</time>
      </trkpt>
      <trkpt lat="47.24109" lon="0.25272">
        <ele>52.9</ele>
        <time>2024-04-14T09:26:42Z</time>
      </trkpt>
      <trkpt lat="47.24124" lon="0.25301">
        <ele>52.1</ele>
        <time>2024-04-14T09:26:47Z</time>
      </trkpt>
      <trkpt lat="47.24144" lon="0.2534">
        <ele>51.1</ele>
        <time>2024-04-14T09:26:53Z</time>
      </trkpt>
      <trkpt lat="47.2415" lon="0.2535">
        <ele>50.9</ele>
        <time>2024-04-14T09:26:55Z</time>
      </trkpt>
      <trkpt lat="47.24151" lon="0.25353">
        <ele>50.8</ele>
        <time>2024-04-14T09:26:56Z</time>
      </trkpt>
      <trkpt lat="47.24153" lon="0.25358">
        <ele>50.7</ele>
        <time>2024-04-14T09:26:59Z</time>
      </trkpt>
      <trkpt lat="47.24155" lon="0.25359">
        <ele>50.6</ele>
        <time>2024-04-14T09:27:22Z</time>
      </trkpt>
      <trkpt lat="47.24157" lon="0.25362">
        <ele>50.5</ele>
        <time>2024-04-14T09:27:23Z</time>
      </trkpt>
      <trkpt lat="47.24158" lon="0.25364">
        <ele>50.4</ele>
        <time>2024-04-14T09:27:24Z</time>
      </trkpt>
      <trkpt lat="47.24168" lon="0.25387">
        <ele>49.8</ele>
        <time>2024-04-14T09:27:29Z</time>
      </trkpt>
      <trkpt lat="47.24175" lon="0.25399">
        <ele>49.4</ele>
        <time>2024-04-14T09:27:31Z</time>
      </trkpt>
      <trkpt lat="47.24187" lon="0.25422">
        <ele>48.8</ele>
        <time>2024-04-14T09:27:34Z</time>
      </trkpt>
      <trkpt lat="47.24192" lon="0.25431">
        <ele>48.5</ele>
        <time>2024-04-14T09:27:35Z</time>
      </trkpt>
      <trkpt lat="47.2421" lon="0.25471">
        <ele>47.4</ele>
        <time>2024-04-14T09:27:39Z</time>
      </trkpt>
      <trkpt lat="47.24217" lon="0.25495">
        <ele>46.8</ele>
        <time>2024-04-14T09:27:41Z</time>
      </trkpt>
      <trkpt lat="47.24223" lon="0.2552">
        <ele>46.2</ele>
        <time>2024-04-14T09:27:43Z</time>
      </trkpt>
      <trkpt lat="47.24229" lon="0.25546">
        <ele>45.7</ele>
        <time>2024-04-14T09:27:45Z</time>
      </trkpt>
      <trkpt lat="47.24236" lon="0.25585">
        <ele>45</ele>
        <time>2024-04-14T09:27:48Z</time>
      </trkpt>
      <trkpt lat="47.24241" lon="0.25611">
        <ele>44.5</ele>
        <time>2024-04-14T09:27:50Z</time>
      </trkpt>
      <trkpt lat="47.24244" lon="0.25624">
        <ele>44.3</ele>
        <time>2024-04-14T09:27:51Z</time>
      </trkpt>
      <trkpt lat="47.24258" lon="0.25703">
        <ele>43.2</ele>
        <time>2024-04-14T09:27:57Z</time>
      </trkpt>
      <trkpt lat="47.24263" lon="0.25728">
        <ele>43</ele>
        <time>2024-04-14T09:27:59Z</time>
      </trkpt>
      <trkpt lat="47.24273" lon="0.25778">
        <ele>43</ele>
        <time>2024-04-14T09:28:03Z</time>
      </trkpt>
      <trkpt lat="47.24283" lon="0.25812">
        <ele>43.2</ele>
        <time>2024-04-14T09:28:06Z</time>
      </trkpt>
      <trkpt lat="47.24307" lon="0.25864">
        <ele>44.1</ele>
        <time>2024-04-14T09:28:11Z</time>
      </trkpt>
      <trkpt lat="47.2431" lon="0.25874">
        <ele>44.5</ele>
        <time>2024-04-14T09:28:12Z</time>
      </trkpt>
      <trkpt lat="47.24316" lon="0.25896">
        <ele>45.3</ele>
        <time>2024-04-14T09:28:14Z</time>
      </trkpt>
      <trkpt lat="47.24321" lon="0.25925">
        <ele>46.6</ele>
        <time>2024-04-14T09:28:17Z</time>
      </trkpt>
      <trkpt lat="47.24323" lon="0.25944">
        <ele>47.5</ele>
        <time>2024-04-14T09:28:19Z</time>
      </trkpt>
      <trkpt lat="47.24326" lon="0.25962">
        <ele>48.4</ele>
        <time>2024-04-14T09:28:21Z</time>
      </trkpt>
      <trkpt lat="47.24327" lon="0.25971">
        <ele>48.8</ele>
        <time>2024-04-14T09:28:22Z</time>
      </trkpt>
      <trkpt lat="47.24328" lon="0.25979">
        <ele>49.2</ele>
        <time>2024-04-14T09:28:23Z</time>
      </trkpt>
      <trkpt lat="47.2433" lon="0.25995">
        <ele>49.8</ele>
        <time>2024-04-14T09:28:25Z</time>
      </trkpt>
      <trkpt lat="47.24332" lon="0.26003">
        <ele>50</ele>
        <time>2024-04-14T09:28:26Z</time>
      </trkpt>
      <trkpt lat="47.24335" lon="0.26019">
        <ele>50.4</ele>
        <time>2024-04-14T09:28:28Z</time>
      </trkpt>
      <trkpt lat="47.24341" lon="0.26044">
        <ele>50.5</ele>
        <time>2024-04-14T09:28:31Z</time>
      </trkpt>
      <trkpt lat="47.24348" lon="0.26071">
        <ele>50.2</ele>
        <time>2024-04-14T09:28:34Z</time>
      </trkpt>
      <trkpt lat="47.2437" lon="0.26142">
        <ele>47.7</ele>
        <time>2024-04-14T09:28:41Z</time>
      </trkpt>
      <trkpt lat="47.24382" lon="0.26176">
        <ele>46.5</ele>
        <time>2024-04-14T09:28:44Z</time>
      </trkpt>
      <trkpt lat="47.24393" lon="0.2621">
        <ele>45.8</ele>
        <time>2024-04-14T09:28:47Z</time>
      </trkpt>
      <trkpt lat="47.24397" lon="0.26222">
        <ele>45.7</ele>
        <time>2024-04-14T09:28:48Z</time>
      </trkpt>
      <trkpt lat="47.24413" lon="0.26267">
        <ele>45.6</ele>
        <time>2024-04-14T09:28:52Z</time>
      </trkpt>
      <trkpt lat="47.24427" lon="0.2631">
        <ele>46.2</ele>
        <time>2024-04-14T09:28:56Z</time>
      </trkpt>
      <trkpt lat="47.24446" lon="0.26383">
        <ele>47.6</ele>
        <time>2024-04-14T09:29:03Z</time>
      </trkpt>
      <trkpt lat="47.2445" lon="0.26413">
        <ele>47.9</ele>
        <time>2024-04-14T09:29:06Z</time>
      </trkpt>
      <trkpt lat="47.24455" lon="0.26451">
        <ele>47.8</ele>
        <time>2024-04-14T09:29:10Z</time>
      </trkpt>
      <trkpt lat="47.24457" lon="0.2646">
        <ele>47.6</ele>
        <time>2024-04-14T09:29:11Z</time>
      </trkpt>
      <trkpt lat="47.24463" lon="0.2648">
        <ele>47.1</ele>
        <time>2024-04-14T09:29:13Z</time>
      </trkpt>
      <trkpt lat="47.24471" lon="0.26498">
        <ele>46.7</ele>
        <time>2024-04-14T09:29:15Z</time>
      </trkpt>
      <trkpt lat="47.24489" lon="0.26519">
        <ele>46</ele>
        <time>2024-04-14T09:29:18Z</time>
      </trkpt>
      <trkpt lat="47.24504" lon="0.2653">
        <ele>45.2</ele>
        <time>2024-04-14T09:29:20Z</time>
      </trkpt>
      <trkpt lat="47.24527" lon="0.26551">
        <ele>43.8</ele>
        <time>2024-04-14T09:29:23Z</time>
      </trkpt>
      <trkpt lat="47.24534" lon="0.26561">
        <ele>43.4</ele>
        <time>2024-04-14T09:29:24Z</time>
      </trkpt>
      <trkpt lat="47.24549" lon="0.26596">
        <ele>42.1</ele>
        <time>2024-04-14T09:29:27Z</time>
      </trkpt>
      <trkpt lat="47.24556" lon="0.26622">
        <ele>41.2</ele>
        <time>2024-04-14T09:29:29Z</time>
      </trkpt>
      <trkpt lat="47.24559" lon="0.26635">
        <ele>40.9</ele>
        <time>2024-04-14T09:29:30Z</time>
      </trkpt>
      <trkpt lat="47.24562" lon="0.26649">
        <ele>40.5</ele>
        <time>2024-04-14T09:29:31Z</time>
      </trkpt>
      <trkpt lat="47.24566" lon="0.26662">
        <ele>40.2</ele>
        <time>2024-04-14T09:29:32Z</time>
      </trkpt>
      <trkpt lat="47.24572" lon="0.26689">
        <ele>39.9</ele>
        <time>2024-04-14T09:29:34Z</time>
      </trkpt>
      <trkpt lat="47.24586" lon="0.26744">
        <ele>38.9</ele>
        <time>2024-04-14T09:29:38Z</time>
      </trkpt>
      <trkpt lat="47.2459" lon="0.26758">
        <ele>38.8</ele>
        <time>2024-04-14T09:29:39Z</time>
      </trkpt>
      <trkpt lat="47.24599" lon="0.268">
        <ele>38.6</ele>
        <time>2024-04-14T09:29:42Z</time>
      </trkpt>
      <trkpt lat="47.24604" lon="0.2684">
        <ele>38.6</ele>
        <time>2024-04-14T09:29:45Z</time>
      </trkpt>
      <trkpt lat="47.24605" lon="0.26853">
        <ele>38.6</ele>
        <time>2024-04-14T09:29:46Z</time>
      </trkpt>
      <trkpt lat="47.2461" lon="0.26915">
        <ele>39.5</ele>
        <time>2024-04-14T09:29:51Z</time>
      </trkpt>
      <trkpt lat="47.24622" lon="0.26971">
        <ele>40.7</ele>
        <time>2024-04-14T09:29:56Z</time>
      </trkpt>
      <trkpt lat="47.24624" lon="0.26982">
        <ele>40.9</ele>
        <time>2024-04-14T09:29:57Z</time>
      </trkpt>
      <trkpt lat="47.2463" lon="0.27043">
        <ele>42.5</ele>
        <time>2024-04-14T09:30:03Z</time>
      </trkpt>
      <trkpt lat="47.2463" lon="0.27052">
        <ele>42.8</ele>
        <time>2024-04-14T09:30:04Z</time>
      </trkpt>
      <trkpt lat="47.24635" lon="0.27098">
        <ele>44</ele>
        <time>2024-04-14T09:30:09Z</time>
      </trkpt>
      <trkpt lat="47.24636" lon="0.27108">
        <ele>44.2</ele>
        <time>2024-04-14T09:30:10Z</time>
      </trkpt>
      <trkpt lat="47.24645" lon="0.27144">
        <ele>45.1</ele>
        <time>2024-04-14T09:30:14Z</time>
      </trkpt>
      <trkpt lat="47.24652" lon="0.27172">
        <ele>45.5</ele>
        <time>2024-04-14T09:30:17Z</time>
      </trkpt>
      <trkpt lat="47.24669" lon="0.27238">
        <ele>46.3</ele>
        <time>2024-04-14T09:30:24Z</time>
      </trkpt>
      <trkpt lat="47.24684" lon="0.27317">
        <ele>47.3</ele>
        <time>2024-04-14T09:30:32Z</time>
      </trkpt>
      <trkpt lat="47.2469" lon="0.27371">
        <ele>48.7</ele>
        <time>2024-04-14T09:30:38Z</time>
      </trkpt>
      <trkpt lat="47.24692" lon="0.27379">
        <ele>49</ele>
        <time>2024-04-14T09:30:39Z</time>
      </trkpt>
      <trkpt lat="47.24701" lon="0.27422">
        <ele>49.7</ele>
        <time>2024-04-14T09:30:44Z</time>
      </trkpt>
      <trkpt lat="47.24709" lon="0.27449">
        <ele>49.7</ele>
        <time>2024-04-14T09:30:47Z</time>
      </trkpt>
      <trkpt lat="47.24718" lon="0.27477">
        <ele>49.4</ele>
        <time>2024-04-14T09:30:50Z</time>
      </trkpt>
      <trkpt lat="47.24728" lon="0.27515">
        <ele>48.8</ele>
        <time>2024-04-14T09:30:54Z</time>
      </trkpt>
      <trkpt lat="47.24749" lon="0.27567">
        <ele>47.1</ele>
        <time>2024-04-14T09:30:59Z</time>
      </trkpt>
      <trkpt lat="47.24756" lon="0.2759">
        <ele>46.3</ele>
        <time>2024-04-14T09:31:01Z</time>
      </trkpt>
      <trkpt lat="47.24775" lon="0.27652">
        <ele>44.2</ele>
        <time>2024-04-14T09:31:06Z</time>
      </trkpt>
      <trkpt lat="47.24782" lon="0.27677">
        <ele>43.4</ele>
        <time>2024-04-14T09:31:08Z</time>
      </trkpt>
      <trkpt lat="47.24789" lon="0.27702">
        <ele>42.8</ele>
        <time>2024-04-14T09:31:10Z</time>
      </trkpt>
      <trkpt lat="47.248" lon="0.27739">
        <ele>42.2</ele>
        <time>2024-04-14T09:31:13Z</time>
      </trkpt>
      <trkpt lat="47.24803" lon="0.27752">
        <ele>42.1</ele>
        <time>2024-04-14T09:31:14Z</time>
      </trkpt>
      <trkpt lat="47.24805" lon="0.27766">
        <ele>42.1</ele>
        <time>2024-04-14T09:31:15Z</time>
      </trkpt>
      <trkpt lat="47.24807" lon="0.27779">
        <ele>42</ele>
        <time>2024-04-14T09:31:16Z</time>
      </trkpt>
      <trkpt lat="47.24808" lon="0.27806">
        <ele>41.9</ele>
        <time>2024-04-14T09:31:18Z</time>
      </trkpt>
      <trkpt lat="47.24808" lon="0.2786">
        <ele>41.5</ele>
        <time>2024-04-14T09:31:22Z</time>
      </trkpt>
      <trkpt lat="47.24813" lon="0.27899">
        <ele>40.4</ele>
        <time>2024-04-14T09:31:25Z</time>
      </trkpt>
      <trkpt lat="47.24827" lon="0.27948">
        <ele>39</ele>
        <time>2024-04-14T09:31:29Z</time>
      </trkpt>
      <trkpt lat="47.24839" lon="0.27987">
        <ele>38.2</ele>
        <time>2024-04-14T09:31:32Z</time>
      </trkpt>
      <trkpt lat="47.24846" lon="0.28011">
        <ele>37.9</ele>
        <time>2024-04-14T09:31:34Z</time>
      </trkpt>
      <trkpt lat="47.24853" lon="0.28037">
        <ele>37.7</ele>
        <time>2024-04-14T09:31:36Z</time>
      </trkpt>
      <trkpt lat="47.24872" lon="0.28113">
        <ele>37.2</ele>
        <time>2024-04-14T09:31:42Z</time>
      </trkpt>
      <trkpt lat="47.2488" lon="0.28137">
        <ele>37.4</ele>
        <time>2024-04-14T09:31:44Z</time>
      </trkpt>
      <trkpt lat="47.24899" lon="0.28214">
        <ele>38.4</ele>
        <time>2024-04-14T09:31:51Z</time>
      </trkpt>
      <trkpt lat="47.249" lon="0.28268">
        <ele>38.8</ele>
        <time>2024-04-14T09:31:56Z</time>
      </trkpt>
      <trkpt lat="47.24898" lon="0.28312">
        <ele>38.9</ele>
        <time>2024-04-14T09:32:00Z</time>
      </trkpt>
      <trkpt lat="47.24897" lon="0.28346">
        <ele>38.9</ele>
        <time>2024-04-14T09:32:03Z</time>
      </trkpt>
      <trkpt lat="47.24901" lon="0.28411">
        <ele>39.1</ele>
        <time>2024-04-14T09:32:09Z</time>
      </trkpt>
      <trkpt lat="47.24901" lon="0.28434">
        <ele>39.2</ele>
        <time>2024-04-14T09:32:11Z</time>
      </trkpt>
      <trkpt lat="47.24903" lon="0.28465">
        <ele>39.3</ele>
        <time>2024-04-14T09:32:14Z</time>
      </trkpt>
      <trkpt lat="47.24912" lon="0.28515">
        <ele>39.3</ele>
        <time>2024-04-14T09:32:19Z</time>
      </trkpt>
      <trkpt lat="47.24916" lon="0.28535">
        <ele>39.1</ele>
        <time>2024-04-14T09:32:21Z</time>
      </trkpt>
      <trkpt lat="47.24925" lon="0.28566">
        <ele>38.8</ele>
        <time>2024-04-14T09:32:24Z</time>
      </trkpt>
      <trkpt lat="47.24946" lon="0.28632">
        <ele>38</ele>
        <time>2024-04-14T09:32:30Z</time>
      </trkpt>
      <trkpt lat="47.24955" lon="0.28666">
        <ele>37.7</ele>
        <time>2024-04-14T09:32:33Z</time>
      </trkpt>
      <trkpt lat="47.24966" lon="0.28711">
        <ele>37.4</ele>
        <time>2024-04-14T09:32:37Z</time>
      </trkpt>
      <trkpt lat="47.24984" lon="0.28793">
        <ele>37.1</ele>
        <time>2024-04-14T09:32:44Z</time>
      </trkpt>
      <trkpt lat="47.25004" lon="0.28875">
        <ele>36.9</ele>
        <time>2024-04-14T09:32:51Z</time>
      </trkpt>
      <trkpt lat="47.25006" lon="0.28886">
        <ele>36.9</ele>
        <time>2024-04-14T09:32:52Z</time>
      </trkpt>
      <trkpt lat="47.25014" lon="0.28957">
        <ele>37.3</ele>
        <time>2024-04-14T09:32:58Z</time>
      </trkpt>
      <trkpt lat="47.2502" lon="0.28979">
        <ele>37.3</ele>
        <time>2024-04-14T09:33:00Z</time>
      </trkpt>
      <trkpt lat="47.25025" lon="0.28989">
        <ele>37.2</ele>
        <time>2024-04-14T09:33:01Z</time>
      </trkpt>
      <trkpt lat="47.25042" lon="0.29031">
        <ele>37.2</ele>
        <time>2024-04-14T09:33:05Z</time>
      </trkpt>
      <trkpt lat="47.25044" lon="0.29042">
        <ele>37.3</ele>
        <time>2024-04-14T09:33:06Z</time>
      </trkpt>
      <trkpt lat="47.25046" lon="0.29053">
        <ele>37.4</ele>
        <time>2024-04-14T09:33:07Z</time>
      </trkpt>
      <trkpt lat="47.25052" lon="0.29086">
        <ele>37.5</ele>
        <time>2024-04-14T09:33:10Z</time>
      </trkpt>
      <trkpt lat="47.25068" lon="0.29162">
        <ele>37.3</ele>
        <time>2024-04-14T09:33:17Z</time>
      </trkpt>
      <trkpt lat="47.25071" lon="0.29173">
        <ele>37.3</ele>
        <time>2024-04-14T09:33:18Z</time>
      </trkpt>
      <trkpt lat="47.25089" lon="0.29247">
        <ele>37.9</ele>
        <time>2024-04-14T09:33:25Z</time>
      </trkpt>
      <trkpt lat="47.25089" lon="0.29258">
        <ele>38</ele>
        <time>2024-04-14T09:33:26Z</time>
      </trkpt>
      <trkpt lat="47.25085" lon="0.29291">
        <ele>38.6</ele>
        <time>2024-04-14T09:33:29Z</time>
      </trkpt>
      <trkpt lat="47.25083" lon="0.29302">
        <ele>38.8</ele>
        <time>2024-04-14T09:33:30Z</time>
      </trkpt>
      <trkpt lat="47.25079" lon="0.29352">
        <ele>39.3</ele>
        <time>2024-04-14T09:33:35Z</time>
      </trkpt>
      <trkpt lat="47.25082" lon="0.29381">
        <ele>39.4</ele>
        <time>2024-04-14T09:33:38Z</time>
      </trkpt>
      <trkpt lat="47.2509" lon="0.29402">
        <ele>39.5</ele>
        <time>2024-04-14T09:33:40Z</time>
      </trkpt>
      <trkpt lat="47.25105" lon="0.29454">
        <ele>40</ele>
        <time>2024-04-14T09:33:45Z</time>
      </trkpt>
      <trkpt lat="47.2511" lon="0.29475">
        <ele>40.1</ele>
        <time>2024-04-14T09:33:47Z</time>
      </trkpt>
      <trkpt lat="47.25118" lon="0.29518">
        <ele>39.9</ele>
        <time>2024-04-14T09:33:51Z</time>
      </trkpt>
      <trkpt lat="47.25127" lon="0.29551">
        <ele>39.9</ele>
        <time>2024-04-14T09:33:54Z</time>
      </trkpt>
      <trkpt lat="47.25142" lon="0.29608">
        <ele>39.8</ele>
        <time>2024-04-14T09:33:59Z</time>
      </trkpt>
      <trkpt lat="47.25147" lon="0.2963">
        <ele>39.9</ele>
        <time>2024-04-14T09:34:01Z</time>
      </trkpt>
      <trkpt lat="47.25166" lon="0.29705">
        <ele>39.8</ele>
        <time>2024-04-14T09:34:08Z</time>
      </trkpt>
      <trkpt lat="47.25172" lon="0.29727">
        <ele>39.5</ele>
        <time>2024-04-14T09:34:10Z</time>
      </trkpt>
      <trkpt lat="47.25196" lon="0.29794">
        <ele>38.9</ele>
        <time>2024-04-14T09:34:16Z</time>
      </trkpt>
      <trkpt lat="47.25222" lon="0.29871">
        <ele>38.9</ele>
        <time>2024-04-14T09:34:23Z</time>
      </trkpt>
      <trkpt lat="47.25232" lon="0.29903">
        <ele>39</ele>
        <time>2024-04-14T09:34:26Z</time>
      </trkpt>
      <trkpt lat="47.25255" lon="0.29977">
        <ele>39.1</ele>
        <time>2024-04-14T09:34:33Z</time>
      </trkpt>
      <trkpt lat="47.25258" lon="0.29988">
        <ele>39.1</ele>
        <time>2024-04-14T09:34:34Z</time>
      </trkpt>
      <trkpt lat="47.25279" lon="0.30067">
        <ele>39.1</ele>
        <time>2024-04-14T09:34:41Z</time>
      </trkpt>
      <trkpt lat="47.25299" lon="0.30143">
        <ele>39.1</ele>
        <time>2024-04-14T09:34:48Z</time>
      </trkpt>
      <trkpt lat="47.25321" lon="0.30216">
        <ele>39.2</ele>
        <time>2024-04-14T09:34:55Z</time>
      </trkpt>
      <trkpt lat="47.25327" lon="0.30237">
        <ele>39.3</ele>
        <time>2024-04-14T09:34:57Z</time>
      </trkpt>
      <trkpt lat="47.25349" lon="0.30316">
        <ele>39.8</ele>
        <time>2024-04-14T09:35:05Z</time>
      </trkpt>
      <trkpt lat="47.25352" lon="0.30326">
        <ele>39.9</ele>
        <time>2024-04-14T09:35:06Z</time>
      </trkpt>
      <trkpt lat="47.25358" lon="0.30346">
        <ele>40</ele>
        <time>2024-04-14T09:35:08Z</time>
      </trkpt>
      <trkpt lat="47.25374" lon="0.30408">
        <ele>41</ele>
        <time>2024-04-14T09:35:14Z</time>
      </trkpt>
      <trkpt lat="47.25386" lon="0.30458">
        <ele>42.1</ele>
        <time>2024-04-14T09:35:19Z</time>
      </trkpt>
      <trkpt lat="47.25388" lon="0.30467">
        <ele>42.3</ele>
        <time>2024-04-14T09:35:20Z</time>
      </trkpt>
      <trkpt lat="47.25396" lon="0.30504">
        <ele>43.3</ele>
        <time>2024-04-14T09:35:24Z</time>
      </trkpt>
      <trkpt lat="47.25399" lon="0.30513">
        <ele>43.6</ele>
        <time>2024-04-14T09:35:25Z</time>
      </trkpt>
      <trkpt lat="47.25406" lon="0.3055">
        <ele>44.7</ele>
        <time>2024-04-14T09:35:29Z</time>
      </trkpt>
      <trkpt lat="47.25408" lon="0.30569">
        <ele>45.3</ele>
        <time>2024-04-14T09:35:31Z</time>
      </trkpt>
      <trkpt lat="47.25409" lon="0.30587">
        <ele>45.9</ele>
        <time>2024-04-14T09:35:33Z</time>
      </trkpt>
      <trkpt lat="47.2541" lon="0.30624">
        <ele>47.1</ele>
        <time>2024-04-14T09:35:37Z</time>
      </trkpt>
      <trkpt lat="47.2541" lon="0.30633">
        <ele>47.3</ele>
        <time>2024-04-14T09:35:38Z</time>
      </trkpt>
      <trkpt lat="47.25411" lon="0.30642">
        <ele>47.6</ele>
        <time>2024-04-14T09:35:39Z</time>
      </trkpt>
      <trkpt lat="47.25411" lon="0.30652">
        <ele>47.9</ele>
        <time>2024-04-14T09:35:40Z</time>
      </trkpt>
      <trkpt lat="47.25412" lon="0.3068">
        <ele>48.5</ele>
        <time>2024-04-14T09:35:43Z</time>
      </trkpt>
      <trkpt lat="47.25412" lon="0.30689">
        <ele>48.6</ele>
        <time>2024-04-14T09:35:44Z</time>
      </trkpt>
      <trkpt lat="47.25416" lon="0.30726">
        <ele>48.9</ele>
        <time>2024-04-14T09:35:48Z</time>
      </trkpt>
      <trkpt lat="47.25416" lon="0.30735">
        <ele>48.8</ele>
        <time>2024-04-14T09:35:49Z</time>
      </trkpt>
      <trkpt lat="47.25417" lon="0.30765">
        <ele>48.3</ele>
        <time>2024-04-14T09:35:52Z</time>
      </trkpt>
      <trkpt lat="47.25421" lon="0.30807">
        <ele>47.2</ele>
        <time>2024-04-14T09:35:56Z</time>
      </trkpt>
      <trkpt lat="47.25429" lon="0.30853">
        <ele>45.6</ele>
        <time>2024-04-14T09:36:00Z</time>
      </trkpt>
      <trkpt lat="47.25434" lon="0.30864">
        <ele>45.1</ele>
        <time>2024-04-14T09:36:01Z</time>
      </trkpt>
      <trkpt lat="47.25451" lon="0.30896">
        <ele>43.7</ele>
        <time>2024-04-14T09:36:04Z</time>
      </trkpt>
      <trkpt lat="47.25458" lon="0.30906">
        <ele>43.3</ele>
        <time>2024-04-14T09:36:05Z</time>
      </trkpt>
      <trkpt lat="47.25466" lon="0.30915">
        <ele>42.7</ele>
        <time>2024-04-14T09:36:06Z</time>
      </trkpt>
      <trkpt lat="47.25475" lon="0.30923">
        <ele>42.2</ele>
        <time>2024-04-14T09:36:07Z</time>
      </trkpt>
      <trkpt lat="47.25484" lon="0.30931">
        <ele>41.7</ele>
        <time>2024-04-14T09:36:08Z</time>
      </trkpt>
      <trkpt lat="47.25493" lon="0.30938">
        <ele>41.3</ele>
        <time>2024-04-14T09:36:09Z</time>
      </trkpt>
      <trkpt lat="47.25502" lon="0.30946">
        <ele>40.9</ele>
        <time>2024-04-14T09:36:10Z</time>
      </trkpt>
      <trkpt lat="47.2552" lon="0.30957">
        <ele>40.2</ele>
        <time>2024-04-14T09:36:12Z</time>
      </trkpt>
      <trkpt lat="47.25537" lon="0.30968">
        <ele>39.7</ele>
        <time>2024-04-14T09:36:14Z</time>
      </trkpt>
      <trkpt lat="47.25563" lon="0.30983">
        <ele>39.2</ele>
        <time>2024-04-14T09:36:17Z</time>
      </trkpt>
      <trkpt lat="47.25605" lon="0.3101">
        <ele>38.4</ele>
        <time>2024-04-14T09:36:22Z</time>
      </trkpt>
      <trkpt lat="47.25613" lon="0.31015">
        <ele>38.4</ele>
        <time>2024-04-14T09:36:23Z</time>
      </trkpt>
      <trkpt lat="47.25669" lon="0.31053">
        <ele>38.1</ele>
        <time>2024-04-14T09:36:30Z</time>
      </trkpt>
      <trkpt lat="47.25686" lon="0.31082">
        <ele>37.9</ele>
        <time>2024-04-14T09:36:33Z</time>
      </trkpt>
      <trkpt lat="47.2569" lon="0.31093">
        <ele>37.8</ele>
        <time>2024-04-14T09:36:34Z</time>
      </trkpt>
      <trkpt lat="47.25698" lon="0.31115">
        <ele>37.8</ele>
        <time>2024-04-14T09:36:36Z</time>
      </trkpt>
      <trkpt lat="47.25702" lon="0.31126">
        <ele>37.8</ele>
        <time>2024-04-14T09:36:37Z</time>
      </trkpt>
      <trkpt lat="47.25731" lon="0.31187">
        <ele>38</ele>
        <time>2024-04-14T09:36:43Z</time>
      </trkpt>
      <trkpt lat="47.25757" lon="0.31246">
        <ele>37.9</ele>
        <time>2024-04-14T09:36:49Z</time>
      </trkpt>
      <trkpt lat="47.25782" lon="0.31324">
        <ele>37.9</ele>
        <time>2024-04-14T09:36:56Z</time>
      </trkpt>
      <trkpt lat="47.25803" lon="0.31404">
        <ele>38</ele>
        <time>2024-04-14T09:37:03Z</time>
      </trkpt>
      <trkpt lat="47.25805" lon="0.31415">
        <ele>38</ele>
        <time>2024-04-14T09:37:04Z</time>
      </trkpt>
      <trkpt lat="47.2581" lon="0.31438">
        <ele>38</ele>
        <time>2024-04-14T09:37:06Z</time>
      </trkpt>
      <trkpt lat="47.25824" lon="0.31508">
        <ele>37.9</ele>
        <time>2024-04-14T09:37:12Z</time>
      </trkpt>
      <trkpt lat="47.25842" lon="0.31589">
        <ele>37.9</ele>
        <time>2024-04-14T09:37:19Z</time>
      </trkpt>
      <trkpt lat="47.25862" lon="0.31671">
        <ele>38</ele>
        <time>2024-04-14T09:37:26Z</time>
      </trkpt>
      <trkpt lat="47.25864" lon="0.31683">
        <ele>38</ele>
        <time>2024-04-14T09:37:27Z</time>
      </trkpt>
      <trkpt lat="47.25881" lon="0.31752">
        <ele>38.3</ele>
        <time>2024-04-14T09:37:33Z</time>
      </trkpt>
      <trkpt lat="47.259" lon="0.31826">
        <ele>39</ele>
        <time>2024-04-14T09:37:40Z</time>
      </trkpt>
      <trkpt lat="47.25903" lon="0.31836">
        <ele>39.2</ele>
        <time>2024-04-14T09:37:41Z</time>
      </trkpt>
      <trkpt lat="47.25907" lon="0.31846">
        <ele>39.3</ele>
        <time>2024-04-14T09:37:42Z</time>
      </trkpt>
      <trkpt lat="47.25918" lon="0.3189">
        <ele>39.4</ele>
        <time>2024-04-14T09:37:46Z</time>
      </trkpt>
      <trkpt lat="47.2592" lon="0.31901">
        <ele>39.4</ele>
        <time>2024-04-14T09:37:47Z</time>
      </trkpt>
      <trkpt lat="47.25937" lon="0.3198">
        <ele>39.6</ele>
        <time>2024-04-14T09:37:54Z</time>
      </trkpt>
      <trkpt lat="47.25964" lon="0.32056">
        <ele>39</ele>
        <time>2024-04-14T09:38:01Z</time>
      </trkpt>
      <trkpt lat="47.25978" lon="0.32103">
        <ele>38.6</ele>
        <time>2024-04-14T09:38:05Z</time>
      </trkpt>
      <trkpt lat="47.25987" lon="0.32164">
        <ele>39</ele>
        <time>2024-04-14T09:38:10Z</time>
      </trkpt>
      <trkpt lat="47.25996" lon="0.32221">
        <ele>39.5</ele>
        <time>2024-04-14T09:38:15Z</time>
      </trkpt>
      <trkpt lat="47.26016" lon="0.32287">
        <ele>40</ele>
        <time>2024-04-14T09:38:21Z</time>
      </trkpt>
      <trkpt lat="47.26045" lon="0.3235">
        <ele>40.2</ele>
        <time>2024-04-14T09:38:27Z</time>
      </trkpt>
      <trkpt lat="47.26077" lon="0.32424">
        <ele>40.2</ele>
        <time>2024-04-14T09:38:34Z</time>
      </trkpt>
      <trkpt lat="47.26082" lon="0.32434">
        <ele>40.2</ele>
        <time>2024-04-14T09:38:35Z</time>
      </trkpt>
      <trkpt lat="47.26106" lon="0.325">
        <ele>40.1</ele>
        <time>2024-04-14T09:38:41Z</time>
      </trkpt>
      <trkpt lat="47.26126" lon="0.32581">
        <ele>39.7</ele>
        <time>2024-04-14T09:38:48Z</time>
      </trkpt>
      <trkpt lat="47.26148" lon="0.3264">
        <ele>38.9</ele>
        <time>2024-04-14T09:38:53Z</time>
      </trkpt>
      <trkpt lat="47.26168" lon="0.32685">
        <ele>38.5</ele>
        <time>2024-04-14T09:38:57Z</time>
      </trkpt>
      <trkpt lat="47.26183" lon="0.32718">
        <ele>38.3</ele>
        <time>2024-04-14T09:39:00Z</time>
      </trkpt>
      <trkpt lat="47.26204" lon="0.3279">
        <ele>38.4</ele>
        <time>2024-04-14T09:39:06Z</time>
      </trkpt>
      <trkpt lat="47.26216" lon="0.32862">
        <ele>38.8</ele>
        <time>2024-04-14T09:39:12Z</time>
      </trkpt>
      <trkpt lat="47.2623" lon="0.32945">
        <ele>38.9</ele>
        <time>2024-04-14T09:39:19Z</time>
      </trkpt>
      <trkpt lat="47.26242" lon="0.3303">
        <ele>38.8</ele>
        <time>2024-04-14T09:39:26Z</time>
      </trkpt>
      <trkpt lat="47.26255" lon="0.33107">
        <ele>38.5</ele>
        <time>2024-04-14T09:39:32Z</time>
      </trkpt>
      <trkpt lat="47.26258" lon="0.33121">
        <ele>38.4</ele>
        <time>2024-04-14T09:39:33Z</time>
      </trkpt>
      <trkpt lat="47.26275" lon="0.33209">
        <ele>38.6</ele>
        <time>2024-04-14T09:39:40Z</time>
      </trkpt>
      <trkpt lat="47.26278" lon="0.3322">
        <ele>38.7</ele>
        <time>2024-04-14T09:39:41Z</time>
      </trkpt>
      <trkpt lat="47.263" lon="0.333">
        <ele>39.1</ele>
        <time>2024-04-14T09:39:48Z</time>
      </trkpt>
      <trkpt lat="47.26312" lon="0.33371">
        <ele>38.9</ele>
        <time>2024-04-14T09:39:54Z</time>
      </trkpt>
      <trkpt lat="47.26328" lon="0.33459">
        <ele>38.7</ele>
        <time>2024-04-14T09:40:01Z</time>
      </trkpt>
      <trkpt lat="47.26342" lon="0.33543">
        <ele>38.9</ele>
        <time>2024-04-14T09:40:08Z</time>
      </trkpt>
      <trkpt lat="47.26342" lon="0.33555">
        <ele>38.9</ele>
        <time>2024-04-14T09:40:09Z</time>
      </trkpt>
      <trkpt lat="47.26344" lon="0.3364">
        <ele>39.2</ele>
        <time>2024-04-14T09:40:16Z</time>
      </trkpt>
      <trkpt lat="47.2635" lon="0.33699">
        <ele>39</ele>
        <time>2024-04-14T09:40:21Z</time>
      </trkpt>
      <trkpt lat="47.2637" lon="0.33756">
        <ele>38.8</ele>
        <time>2024-04-14T09:40:26Z</time>
      </trkpt>
      <trkpt lat="47.26399" lon="0.33808">
        <ele>38.7</ele>
        <time>2024-04-14T09:40:31Z</time>
      </trkpt>
      <trkpt lat="47.26438" lon="0.33873">
        <ele>38.9</ele>
        <time>2024-04-14T09:40:38Z</time>
      </trkpt>
      <trkpt lat="47.26444" lon="0.33883">
        <ele>38.9</ele>
        <time>2024-04-14T09:40:39Z</time>
      </trkpt>
      <trkpt lat="47.26453" lon="0.33902">
        <ele>39</ele>
        <time>2024-04-14T09:40:41Z</time>
      </trkpt>
      <trkpt lat="47.26468" lon="0.33944">
        <ele>39.1</ele>
        <time>2024-04-14T09:40:45Z</time>
      </trkpt>
      <trkpt lat="47.26482" lon="0.34014">
        <ele>39.3</ele>
        <time>2024-04-14T09:40:51Z</time>
      </trkpt>
      <trkpt lat="47.26485" lon="0.34038">
        <ele>39.4</ele>
        <time>2024-04-14T09:40:53Z</time>
      </trkpt>
      <trkpt lat="47.26495" lon="0.34095">
        <ele>39.7</ele>
        <time>2024-04-14T09:40:58Z</time>
      </trkpt>
      <trkpt lat="47.265" lon="0.3413">
        <ele>40</ele>
        <time>2024-04-14T09:41:01Z</time>
      </trkpt>
      <trkpt lat="47.26512" lon="0.34196">
        <ele>40.5</ele>
        <time>2024-04-14T09:41:07Z</time>
      </trkpt>
      <trkpt lat="47.26526" lon="0.3428">
        <ele>41.1</ele>
        <time>2024-04-14T09:41:15Z</time>
      </trkpt>
      <trkpt lat="47.26528" lon="0.3429">
        <ele>41.2</ele>
        <time>2024-04-14T09:41:16Z</time>
      </trkpt>
      <trkpt lat="47.2653" lon="0.34301">
        <ele>41.2</ele>
        <time>2024-04-14T09:41:17Z</time>
      </trkpt>
      <trkpt lat="47.26549" lon="0.34375">
        <ele>41.1</ele>
        <time>2024-04-14T09:41:24Z</time>
      </trkpt>
      <trkpt lat="47.26572" lon="0.34451">
        <ele>40.6</ele>
        <time>2024-04-14T09:41:31Z</time>
      </trkpt>
      <trkpt lat="47.26582" lon="0.34483">
        <ele>40.6</ele>
        <time>2024-04-14T09:41:34Z</time>
      </trkpt>
      <trkpt lat="47.26605" lon="0.34558">
        <ele>40.5</ele>
        <time>2024-04-14T09:41:41Z</time>
      </trkpt>
      <trkpt lat="47.26611" lon="0.34579">
        <ele>40.6</ele>
        <time>2024-04-14T09:41:43Z</time>
      </trkpt>
      <trkpt lat="47.26631" lon="0.34654">
        <ele>40.6</ele>
        <time>2024-04-14T09:41:50Z</time>
      </trkpt>
      <trkpt lat="47.26638" lon="0.34686">
        <ele>40.7</ele>
        <time>2024-04-14T09:41:53Z</time>
      </trkpt>
      <trkpt lat="47.26659" lon="0.3477">
        <ele>40.9</ele>
        <time>2024-04-14T09:42:01Z</time>
      </trkpt>
      <trkpt lat="47.2668" lon="0.34852">
        <ele>41.5</ele>
        <time>2024-04-14T09:42:09Z</time>
      </trkpt>
      <trkpt lat="47.26683" lon="0.34863">
        <ele>41.5</ele>
        <time>2024-04-14T09:42:10Z</time>
      </trkpt>
      <trkpt lat="47.26686" lon="0.34873">
        <ele>41.6</ele>
        <time>2024-04-14T09:42:11Z</time>
      </trkpt>
      <trkpt lat="47.26705" lon="0.3495">
        <ele>42.2</ele>
        <time>2024-04-14T09:42:19Z</time>
      </trkpt>
      <trkpt lat="47.26715" lon="0.34991">
        <ele>41.9</ele>
        <time>2024-04-14T09:42:23Z</time>
      </trkpt>
      <trkpt lat="47.26719" lon="0.35013">
        <ele>41.8</ele>
        <time>2024-04-14T09:42:25Z</time>
      </trkpt>
      <trkpt lat="47.26731" lon="0.35091">
        <ele>41.9</ele>
        <time>2024-04-14T09:42:32Z</time>
      </trkpt>
      <trkpt lat="47.26732" lon="0.35102">
        <ele>42</ele>
        <time>2024-04-14T09:42:33Z</time>
      </trkpt>
      <trkpt lat="47.26744" lon="0.35176">
        <ele>42.3</ele>
        <time>2024-04-14T09:42:40Z</time>
      </trkpt>
      <trkpt lat="47.26762" lon="0.35237">
        <ele>42.4</ele>
        <time>2024-04-14T09:42:46Z</time>
      </trkpt>
      <trkpt lat="47.26771" lon="0.35267">
        <ele>42.6</ele>
        <time>2024-04-14T09:42:49Z</time>
      </trkpt>
      <trkpt lat="47.26781" lon="0.35297">
        <ele>42.2</ele>
        <time>2024-04-14T09:42:52Z</time>
      </trkpt>
      <trkpt lat="47.26786" lon="0.35319">
        <ele>42</ele>
        <time>2024-04-14T09:42:54Z</time>
      </trkpt>
      <trkpt lat="47.26789" lon="0.35344">
        <ele>41.7</ele>
        <time>2024-04-14T09:42:56Z</time>
      </trkpt>
      <trkpt lat="47.2679" lon="0.35418">
        <ele>41.3</ele>
        <time>2024-04-14T09:43:02Z</time>
      </trkpt>
      <trkpt lat="47.2679" lon="0.35456">
        <ele>41</ele>
        <time>2024-04-14T09:43:05Z</time>
      </trkpt>
      <trkpt lat="47.26789" lon="0.35532">
        <ele>40.9</ele>
        <time>2024-04-14T09:43:11Z</time>
      </trkpt>
      <trkpt lat="47.26788" lon="0.35617">
        <ele>41.5</ele>
        <time>2024-04-14T09:43:18Z</time>
      </trkpt>
      <trkpt lat="47.26787" lon="0.35641">
        <ele>41.6</ele>
        <time>2024-04-14T09:43:20Z</time>
      </trkpt>
      <trkpt lat="47.26787" lon="0.35652">
        <ele>41.7</ele>
        <time>2024-04-14T09:43:21Z</time>
      </trkpt>
      <trkpt lat="47.26785" lon="0.35732">
        <ele>42.5</ele>
        <time>2024-04-14T09:43:28Z</time>
      </trkpt>
      <trkpt lat="47.26784" lon="0.35777">
        <ele>43</ele>
        <time>2024-04-14T09:43:32Z</time>
      </trkpt>
      <trkpt lat="47.26783" lon="0.35835">
        <ele>43.3</ele>
        <time>2024-04-14T09:43:37Z</time>
      </trkpt>
      <trkpt lat="47.26784" lon="0.35904">
        <ele>43.6</ele>
        <time>2024-04-14T09:43:43Z</time>
      </trkpt>
      <trkpt lat="47.26786" lon="0.35939">
        <ele>43.7</ele>
        <time>2024-04-14T09:43:46Z</time>
      </trkpt>
      <trkpt lat="47.26791" lon="0.35985">
        <ele>43.8</ele>
        <time>2024-04-14T09:43:50Z</time>
      </trkpt>
      <trkpt lat="47.26797" lon="0.36067">
        <ele>43.7</ele>
        <time>2024-04-14T09:43:57Z</time>
      </trkpt>
      <trkpt lat="47.268" lon="0.36089">
        <ele>43.7</ele>
        <time>2024-04-14T09:43:59Z</time>
      </trkpt>
      <trkpt lat="47.26806" lon="0.36109">
        <ele>43.6</ele>
        <time>2024-04-14T09:44:01Z</time>
      </trkpt>
      <trkpt lat="47.26829" lon="0.36185">
        <ele>43.2</ele>
        <time>2024-04-14T09:44:08Z</time>
      </trkpt>
      <trkpt lat="47.26852" lon="0.36263">
        <ele>42.9</ele>
        <time>2024-04-14T09:44:15Z</time>
      </trkpt>
      <trkpt lat="47.26861" lon="0.36295">
        <ele>42.6</ele>
        <time>2024-04-14T09:44:18Z</time>
      </trkpt>
      <trkpt lat="47.26883" lon="0.36373">
        <ele>42</ele>
        <time>2024-04-14T09:44:25Z</time>
      </trkpt>
      <trkpt lat="47.26886" lon="0.36385">
        <ele>41.9</ele>
        <time>2024-04-14T09:44:26Z</time>
      </trkpt>
      <trkpt lat="47.26892" lon="0.36409">
        <ele>41.6</ele>
        <time>2024-04-14T09:44:28Z</time>
      </trkpt>
      <trkpt lat="47.26908" lon="0.36479">
        <ele>40.8</ele>
        <time>2024-04-14T09:44:34Z</time>
      </trkpt>
      <trkpt lat="47.26923" lon="0.36547">
        <ele>39.9</ele>
        <time>2024-04-14T09:44:40Z</time>
      </trkpt>
      <trkpt lat="47.26929" lon="0.36568">
        <ele>39.6</ele>
        <time>2024-04-14T09:44:42Z</time>
      </trkpt>
      <trkpt lat="47.26936" lon="0.36599">
        <ele>39.3</ele>
        <time>2024-04-14T09:44:45Z</time>
      </trkpt>
      <trkpt lat="47.26938" lon="0.36608">
        <ele>39.2</ele>
        <time>2024-04-14T09:44:46Z</time>
      </trkpt>
      <trkpt lat="47.26944" lon="0.36636">
        <ele>39</ele>
        <time>2024-04-14T09:44:49Z</time>
      </trkpt>
      <trkpt lat="47.26954" lon="0.36676">
        <ele>38.9</ele>
        <time>2024-04-14T09:44:54Z</time>
      </trkpt>
      <trkpt lat="47.26959" lon="0.36704">
        <ele>39</ele>
        <time>2024-04-14T09:44:59Z</time>
      </trkpt>
      <trkpt lat="47.26961" lon="0.3671">
        <ele>39</ele>
        <time>2024-04-14T09:45:01Z</time>
      </trkpt>
      <trkpt lat="47.2696" lon="0.36717">
        <ele>39</ele>
        <time>2024-04-14T09:45:03Z</time>
      </trkpt>
      <trkpt lat="47.26957" lon="0.36721">
        <ele>39</ele>
        <time>2024-04-14T09:45:04Z</time>
      </trkpt>
      <trkpt lat="47.26939" lon="0.3674">
        <ele>39.1</ele>
        <time>2024-04-14T09:45:08Z</time>
      </trkpt>
      <trkpt lat="47.26927" lon="0.36753">
        <ele>39.2</ele>
        <time>2024-04-14T09:45:10Z</time>
      </trkpt>
      <trkpt lat="47.26926" lon="0.36764">
        <ele>39.2</ele>
        <time>2024-04-14T09:45:11Z</time>
      </trkpt>
      <trkpt lat="47.26932" lon="0.36782">
        <ele>39.2</ele>
        <time>2024-04-14T09:45:13Z</time>
      </trkpt>
      <trkpt lat="47.26946" lon="0.36807">
        <ele>39.3</ele>
        <time>2024-04-14T09:45:16Z</time>
      </trkpt>
      <trkpt lat="47.2695" lon="0.36817">
        <ele>39.4</ele>
        <time>2024-04-14T09:45:17Z</time>
      </trkpt>
      <trkpt lat="47.26968" lon="0.36864">
        <ele>39.8</ele>
        <time>2024-04-14T09:45:21Z</time>
      </trkpt>
      <trkpt lat="47.26988" lon="0.36925">
        <ele>40.4</ele>
        <time>2024-04-14T09:45:27Z</time>
      </trkpt>
      <trkpt lat="47.26991" lon="0.36938">
        <ele>40.5</ele>
        <time>2024-04-14T09:45:29Z</time>
      </trkpt>
      <trkpt lat="47.26994" lon="0.36957">
        <ele>40.6</ele>
        <time>2024-04-14T09:45:32Z</time>
      </trkpt>
      <trkpt lat="47.26998" lon="0.37001">
        <ele>40.9</ele>
        <time>2024-04-14T09:45:39Z</time>
      </trkpt>
      <trkpt lat="47.27" lon="0.37045">
        <ele>41.1</ele>
        <time>2024-04-14T09:45:45Z</time>
      </trkpt>
      <trkpt lat="47.27004" lon="0.3712">
        <ele>41.3</ele>
        <time>2024-04-14T09:45:53Z</time>
      </trkpt>
      <trkpt lat="47.27012" lon="0.3719">
        <ele>40</ele>
        <time>2024-04-14T09:45:59Z</time>
      </trkpt>
      <trkpt lat="47.2702" lon="0.37277">
        <ele>39.5</ele>
        <time>2024-04-14T09:46:06Z</time>
      </trkpt>
      <trkpt lat="47.27021" lon="0.37291">
        <ele>39.5</ele>
        <time>2024-04-14T09:46:07Z</time>
      </trkpt>
      <trkpt lat="47.27015" lon="0.37366">
        <ele>39.5</ele>
        <time>2024-04-14T09:46:13Z</time>
      </trkpt>
      <trkpt lat="47.26999" lon="0.37433">
        <ele>40.2</ele>
        <time>2024-04-14T09:46:19Z</time>
      </trkpt>
      <trkpt lat="47.26986" lon="0.37496">
        <ele>41.2</ele>
        <time>2024-04-14T09:46:25Z</time>
      </trkpt>
      <trkpt lat="47.26985" lon="0.37507">
        <ele>41.3</ele>
        <time>2024-04-14T09:46:26Z</time>
      </trkpt>
      <trkpt lat="47.2698" lon="0.37583">
        <ele>41.5</ele>
        <time>2024-04-14T09:46:33Z</time>
      </trkpt>
      <trkpt lat="47.2698" lon="0.37618">
        <ele>41.4</ele>
        <time>2024-04-14T09:46:36Z</time>
      </trkpt>
      <trkpt lat="47.26982" lon="0.37692">
        <ele>40.7</ele>
        <time>2024-04-14T09:46:42Z</time>
      </trkpt>
      <trkpt lat="47.26981" lon="0.37775">
        <ele>40.5</ele>
        <time>2024-04-14T09:46:49Z</time>
      </trkpt>
      <trkpt lat="47.26981" lon="0.37786">
        <ele>40.5</ele>
        <time>2024-04-14T09:46:50Z</time>
      </trkpt>
      <trkpt lat="47.26971" lon="0.37874">
        <ele>40.9</ele>
        <time>2024-04-14T09:46:58Z</time>
      </trkpt>
      <trkpt lat="47.26965" lon="0.37894">
        <ele>41</ele>
        <time>2024-04-14T09:47:00Z</time>
      </trkpt>
      <trkpt lat="47.26955" lon="0.37922">
        <ele>41.2</ele>
        <time>2024-04-14T09:47:03Z</time>
      </trkpt>
      <trkpt lat="47.26932" lon="0.37982">
        <ele>41.8</ele>
        <time>2024-04-14T09:47:09Z</time>
      </trkpt>
      <trkpt lat="47.26918" lon="0.38023">
        <ele>42</ele>
        <time>2024-04-14T09:47:13Z</time>
      </trkpt>
      <trkpt lat="47.26916" lon="0.38034">
        <ele>42</ele>
        <time>2024-04-14T09:47:14Z</time>
      </trkpt>
      <trkpt lat="47.26915" lon="0.38046">
        <ele>42</ele>
        <time>2024-04-14T09:47:15Z</time>
      </trkpt>
      <trkpt lat="47.26916" lon="0.38082">
        <ele>41.7</ele>
        <time>2024-04-14T09:47:18Z</time>
      </trkpt>
      <trkpt lat="47.26926" lon="0.38154">
        <ele>41.4</ele>
        <time>2024-04-14T09:47:24Z</time>
      </trkpt>
      <trkpt lat="47.26932" lon="0.38216">
        <ele>41.5</ele>
        <time>2024-04-14T09:47:29Z</time>
      </trkpt>
      <trkpt lat="47.26933" lon="0.38228">
        <ele>41.6</ele>
        <time>2024-04-14T09:47:30Z</time>
      </trkpt>
      <trkpt lat="47.26935" lon="0.38252">
        <ele>41.8</ele>
        <time>2024-04-14T09:47:32Z</time>
      </trkpt>
      <trkpt lat="47.2694" lon="0.38274">
        <ele>41.8</ele>
        <time>2024-04-14T09:47:34Z</time>
      </trkpt>
      <trkpt lat="47.26949" lon="0.38293">
        <ele>41.9</ele>
        <time>2024-04-14T09:47:36Z</time>
      </trkpt>
      <trkpt lat="47.26953" lon="0.38303">
        <ele>41.9</ele>
        <time>2024-04-14T09:47:37Z</time>
      </trkpt>
      <trkpt lat="47.26956" lon="0.38324">
        <ele>42.1</ele>
        <time>2024-04-14T09:47:39Z</time>
      </trkpt>
      <trkpt lat="47.26955" lon="0.38346">
        <ele>42.4</ele>
        <time>2024-04-14T09:47:41Z</time>
      </trkpt>
      <trkpt lat="47.26953" lon="0.38376">
        <ele>43.1</ele>
        <time>2024-04-14T09:47:44Z</time>
      </trkpt>
      <trkpt lat="47.26952" lon="0.38386">
        <ele>43.4</ele>
        <time>2024-04-14T09:47:45Z</time>
      </trkpt>
      <trkpt lat="47.2695" lon="0.38425">
        <ele>44.7</ele>
        <time>2024-04-14T09:47:49Z</time>
      </trkpt>
      <trkpt lat="47.2695" lon="0.38435">
        <ele>45</ele>
        <time>2024-04-14T09:47:50Z</time>
      </trkpt>
      <trkpt lat="47.26949" lon="0.38445">
        <ele>45.2</ele>
        <time>2024-04-14T09:47:51Z</time>
      </trkpt>
      <trkpt lat="47.26948" lon="0.38463">
        <ele>45.7</ele>
        <time>2024-04-14T09:47:53Z</time>
      </trkpt>
      <trkpt lat="47.26947" lon="0.38492">
        <ele>46.4</ele>
        <time>2024-04-14T09:47:56Z</time>
      </trkpt>
      <trkpt lat="47.26947" lon="0.38521">
        <ele>46.9</ele>
        <time>2024-04-14T09:47:59Z</time>
      </trkpt>
      <trkpt lat="47.26946" lon="0.38551">
        <ele>47.2</ele>
        <time>2024-04-14T09:48:02Z</time>
      </trkpt>
      <trkpt lat="47.26945" lon="0.38592">
        <ele>47.4</ele>
        <time>2024-04-14T09:48:06Z</time>
      </trkpt>
      <trkpt lat="47.26942" lon="0.38674">
        <ele>47.9</ele>
        <time>2024-04-14T09:48:14Z</time>
      </trkpt>
      <trkpt lat="47.26942" lon="0.38695">
        <ele>47.9</ele>
        <time>2024-04-14T09:48:16Z</time>
      </trkpt>
      <trkpt lat="47.26938" lon="0.38783">
        <ele>47.4</ele>
        <time>2024-04-14T09:48:24Z</time>
      </trkpt>
      <trkpt lat="47.26933" lon="0.38871">
        <ele>45.5</ele>
        <time>2024-04-14T09:48:31Z</time>
      </trkpt>
      <trkpt lat="47.26931" lon="0.3893">
        <ele>44</ele>
        <time>2024-04-14T09:48:35Z</time>
      </trkpt>
      <trkpt lat="47.2693" lon="0.3896">
        <ele>43.5</ele>
        <time>2024-04-14T09:48:37Z</time>
      </trkpt>
      <trkpt lat="47.2693" lon="0.38975">
        <ele>43.7</ele>
        <time>2024-04-14T09:48:38Z</time>
      </trkpt>
      <trkpt lat="47.26928" lon="0.39005">
        <ele>43.2</ele>
        <time>2024-04-14T09:48:40Z</time>
      </trkpt>
      <trkpt lat="47.26926" lon="0.3905">
        <ele>42.6</ele>
        <time>2024-04-14T09:48:43Z</time>
      </trkpt>
      <trkpt lat="47.26925" lon="0.39079">
        <ele>42.2</ele>
        <time>2024-04-14T09:48:45Z</time>
      </trkpt>
      <trkpt lat="47.26922" lon="0.39151">
        <ele>41.4</ele>
        <time>2024-04-14T09:48:50Z</time>
      </trkpt>
      <trkpt lat="47.26919" lon="0.39208">
        <ele>41</ele>
        <time>2024-04-14T09:48:54Z</time>
      </trkpt>
      <trkpt lat="47.26917" lon="0.39261">
        <ele>41</ele>
        <time>2024-04-14T09:48:58Z</time>
      </trkpt>
      <trkpt lat="47.26916" lon="0.39299">
        <ele>41.2</ele>
        <time>2024-04-14T09:49:01Z</time>
      </trkpt>
      <trkpt lat="47.26907" lon="0.39369">
        <ele>41.3</ele>
        <time>2024-04-14T09:49:07Z</time>
      </trkpt>
      <trkpt lat="47.26889" lon="0.39435">
        <ele>41.3</ele>
        <time>2024-04-14T09:49:13Z</time>
      </trkpt>
      <trkpt lat="47.26872" lon="0.39502">
        <ele>41.2</ele>
        <time>2024-04-14T09:49:19Z</time>
      </trkpt>
      <trkpt lat="47.26867" lon="0.39524">
        <ele>41.2</ele>
        <time>2024-04-14T09:49:21Z</time>
      </trkpt>
      <trkpt lat="47.26858" lon="0.39591">
        <ele>41.5</ele>
        <time>2024-04-14T09:49:27Z</time>
      </trkpt>
      <trkpt lat="47.26858" lon="0.39661">
        <ele>41.4</ele>
        <time>2024-04-14T09:49:33Z</time>
      </trkpt>
      <trkpt lat="47.26855" lon="0.39735">
        <ele>41.2</ele>
        <time>2024-04-14T09:49:39Z</time>
      </trkpt>
      <trkpt lat="47.26846" lon="0.39818">
        <ele>41</ele>
        <time>2024-04-14T09:49:46Z</time>
      </trkpt>
      <trkpt lat="47.26844" lon="0.39829">
        <ele>41</ele>
        <time>2024-04-14T09:49:47Z</time>
      </trkpt>
      <trkpt lat="47.26834" lon="0.39912">
        <ele>41.3</ele>
        <time>2024-04-14T09:49:54Z</time>
      </trkpt>
      <trkpt lat="47.26833" lon="0.39924">
        <ele>41.4</ele>
        <time>2024-04-14T09:49:55Z</time>
      </trkpt>
      <trkpt lat="47.26827" lon="0.39988">
        <ele>42.4</ele>
        <time>2024-04-14T09:50:01Z</time>
      </trkpt>
      <trkpt lat="47.26829" lon="0.40062">
        <ele>42.7</ele>
        <time>2024-04-14T09:50:08Z</time>
      </trkpt>
      <trkpt lat="47.26839" lon="0.40132">
        <ele>42.8</ele>
        <time>2024-04-14T09:50:14Z</time>
      </trkpt>
      <trkpt lat="47.26846" lon="0.40212">
        <ele>42.7</ele>
        <time>2024-04-14T09:50:21Z</time>
      </trkpt>
      <trkpt lat="47.26847" lon="0.40235">
        <ele>42.6</ele>
        <time>2024-04-14T09:50:23Z</time>
      </trkpt>
      <trkpt lat="47.26842" lon="0.40305">
        <ele>42.5</ele>
        <time>2024-04-14T09:50:29Z</time>
      </trkpt>
      <trkpt lat="47.26835" lon="0.40386">
        <ele>42.6</ele>
        <time>2024-04-14T09:50:36Z</time>
      </trkpt>
      <trkpt lat="47.26834" lon="0.40408">
        <ele>42.7</ele>
        <time>2024-04-14T09:50:38Z</time>
      </trkpt>
      <trkpt lat="47.26828" lon="0.40497">
        <ele>43.2</ele>
        <time>2024-04-14T09:50:46Z</time>
      </trkpt>
      <trkpt lat="47.26828" lon="0.40509">
        <ele>43.2</ele>
        <time>2024-04-14T09:50:47Z</time>
      </trkpt>
      <trkpt lat="47.26825" lon="0.40591">
        <ele>43.2</ele>
        <time>2024-04-14T09:50:54Z</time>
      </trkpt>
      <trkpt lat="47.26824" lon="0.40603">
        <ele>43.2</ele>
        <time>2024-04-14T09:50:55Z</time>
      </trkpt>
      <trkpt lat="47.26809" lon="0.4066">
        <ele>43.3</ele>
        <time>2024-04-14T09:51:00Z</time>
      </trkpt>
      <trkpt lat="47.26796" lon="0.40717">
        <ele>43.5</ele>
        <time>2024-04-14T09:51:05Z</time>
      </trkpt>
      <trkpt lat="47.26795" lon="0.40728">
        <ele>43.6</ele>
        <time>2024-04-14T09:51:06Z</time>
      </trkpt>
      <trkpt lat="47.26792" lon="0.40796">
        <ele>44.3</ele>
        <time>2024-04-14T09:51:12Z</time>
      </trkpt>
      <trkpt lat="47.26792" lon="0.40839">
        <ele>44.9</ele>
        <time>2024-04-14T09:51:16Z</time>
      </trkpt>
      <trkpt lat="47.26791" lon="0.40893">
        <ele>45.7</ele>
        <time>2024-04-14T09:51:21Z</time>
      </trkpt>
      <trkpt lat="47.26791" lon="0.40904">
        <ele>45.8</ele>
        <time>2024-04-14T09:51:22Z</time>
      </trkpt>
      <trkpt lat="47.2679" lon="0.40987">
        <ele>46.8</ele>
        <time>2024-04-14T09:51:30Z</time>
      </trkpt>
      <trkpt lat="47.26789" lon="0.41073">
        <ele>46.7</ele>
        <time>2024-04-14T09:51:38Z</time>
      </trkpt>
      <trkpt lat="47.26781" lon="0.41151">
        <ele>46.5</ele>
        <time>2024-04-14T09:51:45Z</time>
      </trkpt>
      <trkpt lat="47.26779" lon="0.41162">
        <ele>46.5</ele>
        <time>2024-04-14T09:51:46Z</time>
      </trkpt>
      <trkpt lat="47.26768" lon="0.41215">
        <ele>46.5</ele>
        <time>2024-04-14T09:51:51Z</time>
      </trkpt>
      <trkpt lat="47.26746" lon="0.41295">
        <ele>47.1</ele>
        <time>2024-04-14T09:51:59Z</time>
      </trkpt>
      <trkpt lat="47.26724" lon="0.41375">
        <ele>47.8</ele>
        <time>2024-04-14T09:52:07Z</time>
      </trkpt>
      <trkpt lat="47.26721" lon="0.41385">
        <ele>47.9</ele>
        <time>2024-04-14T09:52:08Z</time>
      </trkpt>
      <trkpt lat="47.26702" lon="0.41467">
        <ele>48.4</ele>
        <time>2024-04-14T09:52:16Z</time>
      </trkpt>
      <trkpt lat="47.2669" lon="0.41524">
        <ele>48.1</ele>
        <time>2024-04-14T09:52:21Z</time>
      </trkpt>
      <trkpt lat="47.26684" lon="0.41547">
        <ele>48</ele>
        <time>2024-04-14T09:52:23Z</time>
      </trkpt>
      <trkpt lat="47.2666" lon="0.41629">
        <ele>47.3</ele>
        <time>2024-04-14T09:52:30Z</time>
      </trkpt>
      <trkpt lat="47.26656" lon="0.4164">
        <ele>47.2</ele>
        <time>2024-04-14T09:52:31Z</time>
      </trkpt>
      <trkpt lat="47.26633" lon="0.41709">
        <ele>46.2</ele>
        <time>2024-04-14T09:52:37Z</time>
      </trkpt>
      <trkpt lat="47.2663" lon="0.41721">
        <ele>46</ele>
        <time>2024-04-14T09:52:38Z</time>
      </trkpt>
      <trkpt lat="47.26614" lon="0.41789">
        <ele>44.4</ele>
        <time>2024-04-14T09:52:43Z</time>
      </trkpt>
      <trkpt lat="47.26597" lon="0.41843">
        <ele>43.9</ele>
        <time>2024-04-14T09:52:47Z</time>
      </trkpt>
      <trkpt lat="47.26592" lon="0.41856">
        <ele>43.9</ele>
        <time>2024-04-14T09:52:48Z</time>
      </trkpt>
      <trkpt lat="47.26582" lon="0.41879">
        <ele>44</ele>
        <time>2024-04-14T09:52:50Z</time>
      </trkpt>
      <trkpt lat="47.26559" lon="0.41934">
        <ele>44.2</ele>
        <time>2024-04-14T09:52:55Z</time>
      </trkpt>
      <trkpt lat="47.26527" lon="0.42007">
        <ele>44.3</ele>
        <time>2024-04-14T09:53:02Z</time>
      </trkpt>
      <trkpt lat="47.26514" lon="0.42038">
        <ele>44.4</ele>
        <time>2024-04-14T09:53:05Z</time>
      </trkpt>
      <trkpt lat="47.26486" lon="0.42114">
        <ele>44.3</ele>
        <time>2024-04-14T09:53:12Z</time>
      </trkpt>
      <trkpt lat="47.26456" lon="0.42186">
        <ele>44.2</ele>
        <time>2024-04-14T09:53:19Z</time>
      </trkpt>
      <trkpt lat="47.26434" lon="0.42238">
        <ele>44</ele>
        <time>2024-04-14T09:53:24Z</time>
      </trkpt>
      <trkpt lat="47.26405" lon="0.4231">
        <ele>43.9</ele>
        <time>2024-04-14T09:53:31Z</time>
      </trkpt>
      <trkpt lat="47.26392" lon="0.42341">
        <ele>43.9</ele>
        <time>2024-04-14T09:53:34Z</time>
      </trkpt>
      <trkpt lat="47.26363" lon="0.42413">
        <ele>43.9</ele>
        <time>2024-04-14T09:53:41Z</time>
      </trkpt>
      <trkpt lat="47.26354" lon="0.42432">
        <ele>43.9</ele>
        <time>2024-04-14T09:53:43Z</time>
      </trkpt>
      <trkpt lat="47.2632" lon="0.42484">
        <ele>44.2</ele>
        <time>2024-04-14T09:53:49Z</time>
      </trkpt>
      <trkpt lat="47.26279" lon="0.42542">
        <ele>44.4</ele>
        <time>2024-04-14T09:53:56Z</time>
      </trkpt>
      <trkpt lat="47.26274" lon="0.42551">
        <ele>44.4</ele>
        <time>2024-04-14T09:53:57Z</time>
      </trkpt>
      <trkpt lat="47.26259" lon="0.42594">
        <ele>44.7</ele>
        <time>2024-04-14T09:54:01Z</time>
      </trkpt>
      <trkpt lat="47.26255" lon="0.42617">
        <ele>44.8</ele>
        <time>2024-04-14T09:54:03Z</time>
      </trkpt>
      <trkpt lat="47.2625" lon="0.42653">
        <ele>44.9</ele>
        <time>2024-04-14T09:54:06Z</time>
      </trkpt>
      <trkpt lat="47.26243" lon="0.42687">
        <ele>44.9</ele>
        <time>2024-04-14T09:54:09Z</time>
      </trkpt>
      <trkpt lat="47.26236" lon="0.42709">
        <ele>45</ele>
        <time>2024-04-14T09:54:11Z</time>
      </trkpt>
      <trkpt lat="47.26222" lon="0.42751">
        <ele>45.1</ele>
        <time>2024-04-14T09:54:15Z</time>
      </trkpt>
      <trkpt lat="47.26204" lon="0.42803">
        <ele>45.2</ele>
        <time>2024-04-14T09:54:20Z</time>
      </trkpt>
      <trkpt lat="47.26179" lon="0.42876">
        <ele>45.3</ele>
        <time>2024-04-14T09:54:27Z</time>
      </trkpt>
      <trkpt lat="47.26176" lon="0.42887">
        <ele>45.3</ele>
        <time>2024-04-14T09:54:28Z</time>
      </trkpt>
      <trkpt lat="47.26164" lon="0.42956">
        <ele>45.2</ele>
        <time>2024-04-14T09:54:34Z</time>
      </trkpt>
      <trkpt lat="47.26151" lon="0.43027">
        <ele>45.2</ele>
        <time>2024-04-14T09:54:40Z</time>
      </trkpt>
      <trkpt lat="47.26133" lon="0.43106">
        <ele>45.2</ele>
        <time>2024-04-14T09:54:47Z</time>
      </trkpt>
      <trkpt lat="47.26129" lon="0.43129">
        <ele>45.2</ele>
        <time>2024-04-14T09:54:49Z</time>
      </trkpt>
      <trkpt lat="47.26123" lon="0.43163">
        <ele>45.4</ele>
        <time>2024-04-14T09:54:52Z</time>
      </trkpt>
      <trkpt lat="47.26109" lon="0.43241">
        <ele>45.7</ele>
        <time>2024-04-14T09:54:59Z</time>
      </trkpt>
      <trkpt lat="47.26096" lon="0.43319">
        <ele>46</ele>
        <time>2024-04-14T09:55:06Z</time>
      </trkpt>
      <trkpt lat="47.2609" lon="0.43353">
        <ele>46.2</ele>
        <time>2024-04-14T09:55:09Z</time>
      </trkpt>
      <trkpt lat="47.26086" lon="0.43375">
        <ele>46.3</ele>
        <time>2024-04-14T09:55:11Z</time>
      </trkpt>
      <trkpt lat="47.26073" lon="0.43456">
        <ele>46.5</ele>
        <time>2024-04-14T09:55:18Z</time>
      </trkpt>
      <trkpt lat="47.26071" lon="0.43468">
        <ele>46.4</ele>
        <time>2024-04-14T09:55:19Z</time>
      </trkpt>
      <trkpt lat="47.26056" lon="0.43553">
        <ele>45.9</ele>
        <time>2024-04-14T09:55:26Z</time>
      </trkpt>
      <trkpt lat="47.26047" lon="0.43603">
        <ele>45.6</ele>
        <time>2024-04-14T09:55:30Z</time>
      </trkpt>
      <trkpt lat="47.26031" lon="0.43691">
        <ele>45.5</ele>
        <time>2024-04-14T09:55:37Z</time>
      </trkpt>
      <trkpt lat="47.26024" lon="0.43729">
        <ele>45.7</ele>
        <time>2024-04-14T09:55:40Z</time>
      </trkpt>
      <trkpt lat="47.26009" lon="0.4381">
        <ele>46.3</ele>
        <time>2024-04-14T09:55:47Z</time>
      </trkpt>
      <trkpt lat="47.26007" lon="0.43822">
        <ele>46.3</ele>
        <time>2024-04-14T09:55:48Z</time>
      </trkpt>
      <trkpt lat="47.25992" lon="0.43909">
        <ele>46.8</ele>
        <time>2024-04-14T09:55:56Z</time>
      </trkpt>
      <trkpt lat="47.25989" lon="0.43932">
        <ele>46.9</ele>
        <time>2024-04-14T09:55:58Z</time>
      </trkpt>
      <trkpt lat="47.2598" lon="0.44012">
        <ele>46.8</ele>
        <time>2024-04-14T09:56:05Z</time>
      </trkpt>
      <trkpt lat="47.25974" lon="0.44048">
        <ele>46.5</ele>
        <time>2024-04-14T09:56:08Z</time>
      </trkpt>
      <trkpt lat="47.25965" lon="0.44083">
        <ele>46.3</ele>
        <time>2024-04-14T09:56:11Z</time>
      </trkpt>
      <trkpt lat="47.25956" lon="0.44119">
        <ele>46.4</ele>
        <time>2024-04-14T09:56:14Z</time>
      </trkpt>
      <trkpt lat="47.25949" lon="0.4418">
        <ele>46.2</ele>
        <time>2024-04-14T09:56:19Z</time>
      </trkpt>
      <trkpt lat="47.25943" lon="0.44266">
        <ele>46</ele>
        <time>2024-04-14T09:56:26Z</time>
      </trkpt>
      <trkpt lat="47.25938" lon="0.44327">
        <ele>45.8</ele>
        <time>2024-04-14T09:56:31Z</time>
      </trkpt>
      <trkpt lat="47.25929" lon="0.44409">
        <ele>45.8</ele>
        <time>2024-04-14T09:56:38Z</time>
      </trkpt>
      <trkpt lat="47.25925" lon="0.44445">
        <ele>45.8</ele>
        <time>2024-04-14T09:56:41Z</time>
      </trkpt>
      <trkpt lat="47.25913" lon="0.44514">
        <ele>46.1</ele>
        <time>2024-04-14T09:56:47Z</time>
      </trkpt>
      <trkpt lat="47.259" lon="0.44566">
        <ele>47.1</ele>
        <time>2024-04-14T09:56:52Z</time>
      </trkpt>
      <trkpt lat="47.25895" lon="0.44586">
        <ele>47.5</ele>
        <time>2024-04-14T09:56:54Z</time>
      </trkpt>
      <trkpt lat="47.25881" lon="0.44645">
        <ele>48.5</ele>
        <time>2024-04-14T09:57:00Z</time>
      </trkpt>
      <trkpt lat="47.25876" lon="0.44664">
        <ele>48.8</ele>
        <time>2024-04-14T09:57:02Z</time>
      </trkpt>
      <trkpt lat="47.25869" lon="0.44682">
        <ele>49.1</ele>
        <time>2024-04-14T09:57:04Z</time>
      </trkpt>
      <trkpt lat="47.25857" lon="0.44707">
        <ele>49.6</ele>
        <time>2024-04-14T09:57:07Z</time>
      </trkpt>
      <trkpt lat="47.25827" lon="0.44754">
        <ele>50.7</ele>
        <time>2024-04-14T09:57:13Z</time>
      </trkpt>
      <trkpt lat="47.25817" lon="0.4477">
        <ele>50.9</ele>
        <time>2024-04-14T09:57:15Z</time>
      </trkpt>
      <trkpt lat="47.25808" lon="0.44785">
        <ele>51.1</ele>
        <time>2024-04-14T09:57:17Z</time>
      </trkpt>
      <trkpt lat="47.25785" lon="0.44828">
        <ele>51.1</ele>
        <time>2024-04-14T09:57:22Z</time>
      </trkpt>
      <trkpt lat="47.25751" lon="0.44895">
        <ele>49.4</ele>
        <time>2024-04-14T09:57:29Z</time>
      </trkpt>
      <trkpt lat="47.25745" lon="0.44906">
        <ele>49.1</ele>
        <time>2024-04-14T09:57:30Z</time>
      </trkpt>
      <trkpt lat="47.2573" lon="0.44939">
        <ele>47.9</ele>
        <time>2024-04-14T09:57:33Z</time>
      </trkpt>
      <trkpt lat="47.25716" lon="0.44974">
        <ele>46.8</ele>
        <time>2024-04-14T09:57:36Z</time>
      </trkpt>
      <trkpt lat="47.25712" lon="0.44986">
        <ele>46.7</ele>
        <time>2024-04-14T09:57:37Z</time>
      </trkpt>
      <trkpt lat="47.2571" lon="0.44998">
        <ele>46.6</ele>
        <time>2024-04-14T09:57:38Z</time>
      </trkpt>
      <trkpt lat="47.25705" lon="0.45037">
        <ele>46.6</ele>
        <time>2024-04-14T09:57:41Z</time>
      </trkpt>
      <trkpt lat="47.25705" lon="0.4505">
        <ele>46.6</ele>
        <time>2024-04-14T09:57:42Z</time>
      </trkpt>
      <trkpt lat="47.25702" lon="0.45125">
        <ele>47.3</ele>
        <time>2024-04-14T09:57:48Z</time>
      </trkpt>
      <trkpt lat="47.25697" lon="0.45193">
        <ele>48.2</ele>
        <time>2024-04-14T09:57:54Z</time>
      </trkpt>
      <trkpt lat="47.25695" lon="0.45204">
        <ele>48.3</ele>
        <time>2024-04-14T09:57:55Z</time>
      </trkpt>
      <trkpt lat="47.25688" lon="0.45234">
        <ele>48.9</ele>
        <time>2024-04-14T09:57:58Z</time>
      </trkpt>
      <trkpt lat="47.25683" lon="0.45253">
        <ele>49.3</ele>
        <time>2024-04-14T09:58:00Z</time>
      </trkpt>
      <trkpt lat="47.25671" lon="0.45299">
        <ele>50.2</ele>
        <time>2024-04-14T09:58:05Z</time>
      </trkpt>
      <trkpt lat="47.25662" lon="0.45323">
        <ele>50.7</ele>
        <time>2024-04-14T09:58:08Z</time>
      </trkpt>
      <trkpt lat="47.25657" lon="0.45342">
        <ele>51</ele>
        <time>2024-04-14T09:58:10Z</time>
      </trkpt>
      <trkpt lat="47.25655" lon="0.45352">
        <ele>51.1</ele>
        <time>2024-04-14T09:58:11Z</time>
      </trkpt>
      <trkpt lat="47.25635" lon="0.4542">
        <ele>52.1</ele>
        <time>2024-04-14T09:58:18Z</time>
      </trkpt>
      <trkpt lat="47.25617" lon="0.45484">
        <ele>54</ele>
        <time>2024-04-14T09:58:25Z</time>
      </trkpt>
      <trkpt lat="47.25612" lon="0.45502">
        <ele>54.5</ele>
        <time>2024-04-14T09:58:27Z</time>
      </trkpt>
      <trkpt lat="47.25607" lon="0.45519">
        <ele>55</ele>
        <time>2024-04-14T09:58:29Z</time>
      </trkpt>
      <trkpt lat="47.25605" lon="0.45528">
        <ele>55.3</ele>
        <time>2024-04-14T09:58:30Z</time>
      </trkpt>
      <trkpt lat="47.25602" lon="0.45538">
        <ele>55.6</ele>
        <time>2024-04-14T09:58:31Z</time>
      </trkpt>
      <trkpt lat="47.25592" lon="0.45575">
        <ele>56.3</ele>
        <time>2024-04-14T09:58:35Z</time>
      </trkpt>
      <trkpt lat="47.25589" lon="0.45583">
        <ele>56.5</ele>
        <time>2024-04-14T09:58:36Z</time>
      </trkpt>
      <trkpt lat="47.25577" lon="0.45623">
        <ele>57</ele>
        <time>2024-04-14T09:58:41Z</time>
      </trkpt>
      <trkpt lat="47.25571" lon="0.45646">
        <ele>57.1</ele>
        <time>2024-04-14T09:58:44Z</time>
      </trkpt>
      <trkpt lat="47.25555" lon="0.45701">
        <ele>57.4</ele>
        <time>2024-04-14T09:58:52Z</time>
      </trkpt>
      <trkpt lat="47.25551" lon="0.45715">
        <ele>57.5</ele>
        <time>2024-04-14T09:58:54Z</time>
      </trkpt>
      <trkpt lat="47.2553" lon="0.45769">
        <ele>57.4</ele>
        <time>2024-04-14T09:59:02Z</time>
      </trkpt>
      <trkpt lat="47.25507" lon="0.45827">
        <ele>56.6</ele>
        <time>2024-04-14T09:59:10Z</time>
      </trkpt>
      <trkpt lat="47.25487" lon="0.45869">
        <ele>55.5</ele>
        <time>2024-04-14T09:59:15Z</time>
      </trkpt>
      <trkpt lat="47.25475" lon="0.45897">
        <ele>55.1</ele>
        <time>2024-04-14T09:59:18Z</time>
      </trkpt>
      <trkpt lat="47.25468" lon="0.45917">
        <ele>54.9</ele>
        <time>2024-04-14T09:59:20Z</time>
      </trkpt>
      <trkpt lat="47.25466" lon="0.45928">
        <ele>54.7</ele>
        <time>2024-04-14T09:59:21Z</time>
      </trkpt>
      <trkpt lat="47.25464" lon="0.4596">
        <ele>54.6</ele>
        <time>2024-04-14T09:59:24Z</time>
      </trkpt>
      <trkpt lat="47.25463" lon="0.4598">
        <ele>54.6</ele>
        <time>2024-04-14T09:59:26Z</time>
      </trkpt>
      <trkpt lat="47.25461" lon="0.46045">
        <ele>54.9</ele>
        <time>2024-04-14T09:59:33Z</time>
      </trkpt>
      <trkpt lat="47.25454" lon="0.46111">
        <ele>54.7</ele>
        <time>2024-04-14T09:59:40Z</time>
      </trkpt>
      <trkpt lat="47.25443" lon="0.46149">
        <ele>54.6</ele>
        <time>2024-04-14T09:59:45Z</time>
      </trkpt>
      <trkpt lat="47.25437" lon="0.4616">
        <ele>54.7</ele>
        <time>2024-04-14T09:59:48Z</time>
      </trkpt>
      <trkpt lat="47.25434" lon="0.46165">
        <ele>54.7</ele>
        <time>2024-04-14T10:00:27Z</time>
      </trkpt>
      <trkpt lat="47.25434" lon="0.46168">
        <ele>54.7</ele>
        <time>2024-04-14T10:00:28Z</time>
      </trkpt>
      <trkpt lat="47.25435" lon="0.46171">
        <ele>54.6</ele>
        <time>2024-04-14T10:00:29Z</time>
      </trkpt>
      <trkpt lat="47.25441" lon="0.46186">
        <ele>54.2</ele>
        <time>2024-04-14T10:00:32Z</time>
      </trkpt>
      <trkpt lat="47.25444" lon="0.46192">
        <ele>53.9</ele>
        <time>2024-04-14T10:00:33Z</time>
      </trkpt>
      <trkpt lat="47.25451" lon="0.46203">
        <ele>53.4</ele>
        <time>2024-04-14T10:00:35Z</time>
      </trkpt>
      <trkpt lat="47.25458" lon="0.46216">
        <ele>52.7</ele>
        <time>2024-04-14T10:00:37Z</time>
      </trkpt>
      <trkpt lat="47.25463" lon="0.46222">
        <ele>52</ele>
        <time>2024-04-14T10:00:38Z</time>
      </trkpt>
      <trkpt lat="47.25473" lon="0.46237">
        <ele>50.3</ele>
        <time>2024-04-14T10:00:40Z</time>
      </trkpt>
      <trkpt lat="47.25479" lon="0.46245">
        <ele>49.4</ele>
        <time>2024-04-14T10:00:41Z</time>
      </trkpt>
      <trkpt lat="47.25485" lon="0.46254">
        <ele>48.5</ele>
        <time>2024-04-14T10:00:42Z</time>
      </trkpt>
      <trkpt lat="47.25499" lon="0.46272">
        <ele>46.8</ele>
        <time>2024-04-14T10:00:44Z</time>
      </trkpt>
      <trkpt lat="47.25513" lon="0.46291">
        <ele>46.2</ele>
        <time>2024-04-14T10:00:46Z</time>
      </trkpt>
      <trkpt lat="47.25527" lon="0.46311">
        <ele>45.6</ele>
        <time>2024-04-14T10:00:48Z</time>
      </trkpt>
      <trkpt lat="47.25539" lon="0.4633">
        <ele>45</ele>
        <time>2024-04-14T10:00:50Z</time>
      </trkpt>
      <trkpt lat="47.25551" lon="0.46347">
        <ele>44.7</ele>
        <time>2024-04-14T10:00:52Z</time>
      </trkpt>
      <trkpt lat="47.25557" lon="0.46355">
        <ele>44.7</ele>
        <time>2024-04-14T10:00:53Z</time>
      </trkpt>
      <trkpt lat="47.25564" lon="0.46361">
        <ele>44.6</ele>
        <time>2024-04-14T10:00:54Z</time>
      </trkpt>
      <trkpt lat="47.25579" lon="0.4637">
        <ele>44.5</ele>
        <time>2024-04-14T10:00:56Z</time>
      </trkpt>
      <trkpt lat="47.25594" lon="0.46378">
        <ele>44.5</ele>
        <time>2024-04-14T10:00:58Z</time>
      </trkpt>
      <trkpt lat="47.25617" lon="0.46388">
        <ele>44.6</ele>
        <time>2024-04-14T10:01:01Z</time>
      </trkpt>
      <trkpt lat="47.25633" lon="0.46393">
        <ele>44.6</ele>
        <time>2024-04-14T10:01:03Z</time>
      </trkpt>
      <trkpt lat="47.25683" lon="0.46409">
        <ele>45</ele>
        <time>2024-04-14T10:01:10Z</time>
      </trkpt>
      <trkpt lat="47.25726" lon="0.46423">
        <ele>45</ele>
        <time>2024-04-14T10:01:16Z</time>
      </trkpt>
      <trkpt lat="47.25733" lon="0.46424">
        <ele>45</ele>
        <time>2024-04-14T10:01:17Z</time>
      </trkpt>
      <trkpt lat="47.25786" lon="0.46438">
        <ele>44.9</ele>
        <time>2024-04-14T10:01:24Z</time>
      </trkpt>
      <trkpt lat="47.2583" lon="0.46449">
        <ele>44.9</ele>
        <time>2024-04-14T10:01:30Z</time>
      </trkpt>
      <trkpt lat="47.25838" lon="0.46451">
        <ele>44.9</ele>
        <time>2024-04-14T10:01:31Z</time>
      </trkpt>
      <trkpt lat="47.25869" lon="0.46454">
        <ele>44.9</ele>
        <time>2024-04-14T10:01:35Z</time>
      </trkpt>
      <trkpt lat="47.25907" lon="0.46449">
        <ele>45</ele>
        <time>2024-04-14T10:01:40Z</time>
      </trkpt>
      <trkpt lat="47.2593" lon="0.46445">
        <ele>45</ele>
        <time>2024-04-14T10:01:43Z</time>
      </trkpt>
      <trkpt lat="47.25967" lon="0.46438">
        <ele>45.2</ele>
        <time>2024-04-14T10:01:48Z</time>
      </trkpt>
      <trkpt lat="47.25992" lon="0.46446">
        <ele>45.4</ele>
        <time>2024-04-14T10:01:52Z</time>
      </trkpt>
      <trkpt lat="47.26007" lon="0.46455">
        <ele>45.5</ele>
        <time>2024-04-14T10:01:55Z</time>
      </trkpt>
      <trkpt lat="47.26009" lon="0.46456">
        <ele>45.5</ele>
        <time>2024-04-14T10:01:56Z</time>
      </trkpt>
      <trkpt lat="47.26014" lon="0.46458">
        <ele>45.5</ele>
        <time>2024-04-14T10:01:59Z</time>
      </trkpt>
      <trkpt lat="47.26022" lon="0.46462">
        <ele>45.6</ele>
        <time>2024-04-14T10:02:02Z</time>
      </trkpt>
      <trkpt lat="47.26039" lon="0.4647">
        <ele>45.6</ele>
        <time>2024-04-14T10:02:07Z</time>
      </trkpt>
      <trkpt lat="47.26061" lon="0.46482">
        <ele>45.6</ele>
        <time>2024-04-14T10:02:11Z</time>
      </trkpt>
      <trkpt lat="47.26087" lon="0.46495">
        <ele>45.9</ele>
        <time>2024-04-14T10:02:15Z</time>
      </trkpt>
      <trkpt lat="47.26098" lon="0.46501">
        <ele>46.1</ele>
        <time>2024-04-14T10:02:17Z</time>
      </trkpt>
      <trkpt lat="47.26107" lon="0.46507">
        <ele>46.3</ele>
        <time>2024-04-14T10:02:19Z</time>
      </trkpt>
      <trkpt lat="47.26115" lon="0.46512">
        <ele>46.6</ele>
        <time>2024-04-14T10:02:21Z</time>
      </trkpt>
      <trkpt lat="47.26126" lon="0.46529">
        <ele>47.1</ele>
        <time>2024-04-14T10:02:25Z</time>
      </trkpt>
      <trkpt lat="47.26143" lon="0.46551">
        <ele>48.2</ele>
        <time>2024-04-14T10:02:30Z</time>
      </trkpt>
      <trkpt lat="47.26147" lon="0.46554">
        <ele>48.5</ele>
        <time>2024-04-14T10:02:31Z</time>
      </trkpt>
      <trkpt lat="47.26155" lon="0.4656">
        <ele>48.9</ele>
        <time>2024-04-14T10:02:33Z</time>
      </trkpt>
      <trkpt lat="47.26166" lon="0.46567">
        <ele>49.6</ele>
        <time>2024-04-14T10:02:36Z</time>
      </trkpt>
      <trkpt lat="47.2617" lon="0.4657">
        <ele>49.9</ele>
        <time>2024-04-14T10:02:37Z</time>
      </trkpt>
      <trkpt lat="47.26183" lon="0.46579">
        <ele>50.7</ele>
        <time>2024-04-14T10:02:40Z</time>
      </trkpt>
      <trkpt lat="47.262" lon="0.46589">
        <ele>51.6</ele>
        <time>2024-04-14T10:02:44Z</time>
      </trkpt>
      <trkpt lat="47.26204" lon="0.46591">
        <ele>51.8</ele>
        <time>2024-04-14T10:02:45Z</time>
      </trkpt>
      <trkpt lat="47.26226" lon="0.46603">
        <ele>52.7</ele>
        <time>2024-04-14T10:02:50Z</time>
      </trkpt>
      <trkpt lat="47.26235" lon="0.46609">
        <ele>53.2</ele>
        <time>2024-04-14T10:02:52Z</time>
      </trkpt>
      <trkpt lat="47.26253" lon="0.4662">
        <ele>53.9</ele>
        <time>2024-04-14T10:02:56Z</time>
      </trkpt>
      <trkpt lat="47.26266" lon="0.46628">
        <ele>54.4</ele>
        <time>2024-04-14T10:02:59Z</time>
      </trkpt>
      <trkpt lat="47.26276" lon="0.46633">
        <ele>54.7</ele>
        <time>2024-04-14T10:03:01Z</time>
      </trkpt>
      <trkpt lat="47.26299" lon="0.46644">
        <ele>55.5</ele>
        <time>2024-04-14T10:03:06Z</time>
      </trkpt>
      <trkpt lat="47.26304" lon="0.46645">
        <ele>55.6</ele>
        <time>2024-04-14T10:03:07Z</time>
      </trkpt>
      <trkpt lat="47.26327" lon="0.46657">
        <ele>56.7</ele>
        <time>2024-04-14T10:03:12Z</time>
      </trkpt>
      <trkpt lat="47.2634" lon="0.46665">
        <ele>57.4</ele>
        <time>2024-04-14T10:03:15Z</time>
      </trkpt>
      <trkpt lat="47.26371" lon="0.46683">
        <ele>58.8</ele>
        <time>2024-04-14T10:03:22Z</time>
      </trkpt>
      <trkpt lat="47.26379" lon="0.46688">
        <ele>59.5</ele>
        <time>2024-04-14T10:03:24Z</time>
      </trkpt>
      <trkpt lat="47.2639" lon="0.46694">
        <ele>60.6</ele>
        <time>2024-04-14T10:03:27Z</time>
      </trkpt>
      <trkpt lat="47.26398" lon="0.46699">
        <ele>61.4</ele>
        <time>2024-04-14T10:03:29Z</time>
      </trkpt>
      <trkpt lat="47.26401" lon="0.46701">
        <ele>61.7</ele>
        <time>2024-04-14T10:03:30Z</time>
      </trkpt>
      <trkpt lat="47.26408" lon="0.46706">
        <ele>62.6</ele>
        <time>2024-04-14T10:03:32Z</time>
      </trkpt>
      <trkpt lat="47.26411" lon="0.46709">
        <ele>62.9</ele>
        <time>2024-04-14T10:03:33Z</time>
      </trkpt>
      <trkpt lat="47.26414" lon="0.46711">
        <ele>63.2</ele>
        <time>2024-04-14T10:03:34Z</time>
      </trkpt>
      <trkpt lat="47.26421" lon="0.46715">
        <ele>63.8</ele>
        <time>2024-04-14T10:03:36Z</time>
      </trkpt>
      <trkpt lat="47.26434" lon="0.46722">
        <ele>65</ele>
        <time>2024-04-14T10:03:40Z</time>
      </trkpt>
      <trkpt lat="47.2644" lon="0.46727">
        <ele>65.5</ele>
        <time>2024-04-14T10:03:42Z</time>
      </trkpt>
      <trkpt lat="47.26454" lon="0.46736">
        <ele>66.8</ele>
        <time>2024-04-14T10:03:46Z</time>
      </trkpt>
      <trkpt lat="47.26463" lon="0.46744">
        <ele>67.7</ele>
        <time>2024-04-14T10:03:49Z</time>
      </trkpt>
      <trkpt lat="47.26466" lon="0.46745">
        <ele>68</ele>
        <time>2024-04-14T10:03:50Z</time>
      </trkpt>
      <trkpt lat="47.26475" lon="0.46751">
        <ele>68.8</ele>
        <time>2024-04-14T10:03:53Z</time>
      </trkpt>
      <trkpt lat="47.26481" lon="0.46756">
        <ele>69.3</ele>
        <time>2024-04-14T10:03:55Z</time>
      </trkpt>
      <trkpt lat="47.26487" lon="0.46761">
        <ele>70</ele>
        <time>2024-04-14T10:03:57Z</time>
      </trkpt>
      <trkpt lat="47.26499" lon="0.46776">
        <ele>71.2</ele>
        <time>2024-04-14T10:04:01Z</time>
      </trkpt>
      <trkpt lat="47.26501" lon="0.4678">
        <ele>71.5</ele>
        <time>2024-04-14T10:04:02Z</time>
      </trkpt>
      <trkpt lat="47.26508" lon="0.46791">
        <ele>72.4</ele>
        <time>2024-04-14T10:04:05Z</time>
      </trkpt>
      <trkpt lat="47.26515" lon="0.46804">
        <ele>73.3</ele>
        <time>2024-04-14T10:04:08Z</time>
      </trkpt>
      <trkpt lat="47.26519" lon="0.46812">
        <ele>73.9</ele>
        <time>2024-04-14T10:04:10Z</time>
      </trkpt>
      <trkpt lat="47.26525" lon="0.46824">
        <ele>74.8</ele>
        <time>2024-04-14T10:04:13Z</time>
      </trkpt>
      <trkpt lat="47.26529" lon="0.46835">
        <ele>75.5</ele>
        <time>2024-04-14T10:04:16Z</time>
      </trkpt>
      <trkpt lat="47.26531" lon="0.46838">
        <ele>75.7</ele>
        <time>2024-04-14T10:04:17Z</time>
      </trkpt>
      <trkpt lat="47.26534" lon="0.46845">
        <ele>76.2</ele>
        <time>2024-04-14T10:04:19Z</time>
      </trkpt>
      <trkpt lat="47.26543" lon="0.46862">
        <ele>77.5</ele>
        <time>2024-04-14T10:04:24Z</time>
      </trkpt>
      <trkpt lat="47.26545" lon="0.46865">
        <ele>77.8</ele>
        <time>2024-04-14T10:04:25Z</time>
      </trkpt>
      <trkpt lat="47.26552" lon="0.46881">
        <ele>78.8</ele>
        <time>2024-04-14T10:04:29Z</time>
      </trkpt>
      <trkpt lat="47.26559" lon="0.46901">
        <ele>80.1</ele>
        <time>2024-04-14T10:04:34Z</time>
      </trkpt>
      <trkpt lat="47.26561" lon="0.46905">
        <ele>80.3</ele>
        <time>2024-04-14T10:04:35Z</time>
      </trkpt>
      <trkpt lat="47.26566" lon="0.46921">
        <ele>81.3</ele>
        <time>2024-04-14T10:04:39Z</time>
      </trkpt>
      <trkpt lat="47.2657" lon="0.46934">
        <ele>82</ele>
        <time>2024-04-14T10:04:42Z</time>
      </trkpt>
      <trkpt lat="47.26571" lon="0.46938">
        <ele>82.2</ele>
        <time>2024-04-14T10:04:43Z</time>
      </trkpt>
      <trkpt lat="47.26578" lon="0.4696">
        <ele>83.5</ele>
        <time>2024-04-14T10:04:48Z</time>
      </trkpt>
      <trkpt lat="47.26583" lon="0.46977">
        <ele>84.5</ele>
        <time>2024-04-14T10:04:52Z</time>
      </trkpt>
      <trkpt lat="47.26585" lon="0.46982">
        <ele>84.8</ele>
        <time>2024-04-14T10:04:53Z</time>
      </trkpt>
      <trkpt lat="47.26588" lon="0.46995">
        <ele>85.5</ele>
        <time>2024-04-14T10:04:56Z</time>
      </trkpt>
      <trkpt lat="47.26595" lon="0.47018">
        <ele>86.6</ele>
        <time>2024-04-14T10:05:01Z</time>
      </trkpt>
      <trkpt lat="47.26604" lon="0.47041">
        <ele>87.5</ele>
        <time>2024-04-14T10:05:06Z</time>
      </trkpt>
      <trkpt lat="47.26612" lon="0.47061">
        <ele>88.3</ele>
        <time>2024-04-14T10:05:10Z</time>
      </trkpt>
      <trkpt lat="47.26618" lon="0.47076">
        <ele>88.8</ele>
        <time>2024-04-14T10:05:13Z</time>
      </trkpt>
      <trkpt lat="47.2663" lon="0.47106">
        <ele>89.8</ele>
        <time>2024-04-14T10:05:19Z</time>
      </trkpt>
      <trkpt lat="47.26645" lon="0.47147">
        <ele>91.1</ele>
        <time>2024-04-14T10:05:27Z</time>
      </trkpt>
      <trkpt lat="47.26649" lon="0.47157">
        <ele>91.4</ele>
        <time>2024-04-14T10:05:29Z</time>
      </trkpt>
      <trkpt lat="47.26656" lon="0.4717">
        <ele>91.7</ele>
        <time>2024-04-14T10:05:32Z</time>
      </trkpt>
      <trkpt lat="47.26659" lon="0.47174">
        <ele>91.5</ele>
        <time>2024-04-14T10:05:33Z</time>
      </trkpt>
      <trkpt lat="47.26661" lon="0.47178">
        <ele>91.6</ele>
        <time>2024-04-14T10:05:34Z</time>
      </trkpt>
      <trkpt lat="47.26676" lon="0.47203">
        <ele>92.1</ele>
        <time>2024-04-14T10:05:39Z</time>
      </trkpt>
      <trkpt lat="47.26685" lon="0.47219">
        <ele>92.5</ele>
        <time>2024-04-14T10:05:42Z</time>
      </trkpt>
      <trkpt lat="47.26702" lon="0.47229">
        <ele>93.1</ele>
        <time>2024-04-14T10:05:46Z</time>
      </trkpt>
      <trkpt lat="47.26716" lon="0.47219">
        <ele>93</ele>
        <time>2024-04-14T10:05:49Z</time>
      </trkpt>
      <trkpt lat="47.26725" lon="0.47208">
        <ele>93</ele>
        <time>2024-04-14T10:05:51Z</time>
      </trkpt>
      <trkpt lat="47.2673" lon="0.47202">
        <ele>93</ele>
        <time>2024-04-14T10:05:52Z</time>
      </trkpt>
      <trkpt lat="47.26735" lon="0.47198">
        <ele>92.9</ele>
        <time>2024-04-14T10:05:53Z</time>
      </trkpt>
      <trkpt lat="47.26757" lon="0.47191">
        <ele>93.4</ele>
        <time>2024-04-14T10:05:57Z</time>
      </trkpt>
      <trkpt lat="47.26777" lon="0.47196">
        <ele>94.2</ele>
        <time>2024-04-14T10:06:01Z</time>
      </trkpt>
      <trkpt lat="47.26782" lon="0.47198">
        <ele>94.4</ele>
        <time>2024-04-14T10:06:02Z</time>
      </trkpt>
      <trkpt lat="47.26786" lon="0.47201">
        <ele>94.6</ele>
        <time>2024-04-14T10:06:03Z</time>
      </trkpt>
      <trkpt lat="47.26804" lon="0.47215">
        <ele>95.2</ele>
        <time>2024-04-14T10:06:07Z</time>
      </trkpt>
      <trkpt lat="47.26809" lon="0.47219">
        <ele>95.4</ele>
        <time>2024-04-14T10:06:08Z</time>
      </trkpt>
      <trkpt lat="47.26836" lon="0.47244">
        <ele>96</ele>
        <time>2024-04-14T10:06:14Z</time>
      </trkpt>
      <trkpt lat="47.2685" lon="0.47257">
        <ele>96.2</ele>
        <time>2024-04-14T10:06:17Z</time>
      </trkpt>
      <trkpt lat="47.26896" lon="0.47296">
        <ele>96.3</ele>
        <time>2024-04-14T10:06:26Z</time>
      </trkpt>
      <trkpt lat="47.26906" lon="0.47306">
        <ele>96.2</ele>
        <time>2024-04-14T10:06:28Z</time>
      </trkpt>
      <trkpt lat="47.26959" lon="0.47345">
        <ele>96</ele>
        <time>2024-04-14T10:06:37Z</time>
      </trkpt>
      <trkpt lat="47.27007" lon="0.47377">
        <ele>95.2</ele>
        <time>2024-04-14T10:06:45Z</time>
      </trkpt>
      <trkpt lat="47.2702" lon="0.47384">
        <ele>94.9</ele>
        <time>2024-04-14T10:06:47Z</time>
      </trkpt>
      <trkpt lat="47.27059" lon="0.4741">
        <ele>93.7</ele>
        <time>2024-04-14T10:06:53Z</time>
      </trkpt>
      <trkpt lat="47.27066" lon="0.47414">
        <ele>93.5</ele>
        <time>2024-04-14T10:06:54Z</time>
      </trkpt>
      <trkpt lat="47.27086" lon="0.47427">
        <ele>92.9</ele>
        <time>2024-04-14T10:06:57Z</time>
      </trkpt>
      <trkpt lat="47.27105" lon="0.47443">
        <ele>92.3</ele>
        <time>2024-04-14T10:07:00Z</time>
      </trkpt>
      <trkpt lat="47.27117" lon="0.47456">
        <ele>91.9</ele>
        <time>2024-04-14T10:07:02Z</time>
      </trkpt>
      <trkpt lat="47.27146" lon="0.47489">
        <ele>91.1</ele>
        <time>2024-04-14T10:07:07Z</time>
      </trkpt>
      <trkpt lat="47.27171" lon="0.4752">
        <ele>90.4</ele>
        <time>2024-04-14T10:07:11Z</time>
      </trkpt>
      <trkpt lat="47.27191" lon="0.47544">
        <ele>90.2</ele>
        <time>2024-04-14T10:07:14Z</time>
      </trkpt>
      <trkpt lat="47.27204" lon="0.4756">
        <ele>89.9</ele>
        <time>2024-04-14T10:07:16Z</time>
      </trkpt>
      <trkpt lat="47.27231" lon="0.47591">
        <ele>89.6</ele>
        <time>2024-04-14T10:07:20Z</time>
      </trkpt>
      <trkpt lat="47.27245" lon="0.47605">
        <ele>89.6</ele>
        <time>2024-04-14T10:07:23Z</time>
      </trkpt>
      <trkpt lat="47.27285" lon="0.47641">
        <ele>90.1</ele>
        <time>2024-04-14T10:07:29Z</time>
      </trkpt>
      <trkpt lat="47.2729" lon="0.47649">
        <ele>90.2</ele>
        <time>2024-04-14T10:07:30Z</time>
      </trkpt>
      <trkpt lat="47.2729" lon="0.4767">
        <ele>90.4</ele>
        <time>2024-04-14T10:07:32Z</time>
      </trkpt>
      <trkpt lat="47.27281" lon="0.47698">
        <ele>90.7</ele>
        <time>2024-04-14T10:07:35Z</time>
      </trkpt>
      <trkpt lat="47.27284" lon="0.47718">
        <ele>90.8</ele>
        <time>2024-04-14T10:07:37Z</time>
      </trkpt>
      <trkpt lat="47.273" lon="0.47736">
        <ele>90.9</ele>
        <time>2024-04-14T10:07:40Z</time>
      </trkpt>
      <trkpt lat="47.27307" lon="0.47741">
        <ele>90.9</ele>
        <time>2024-04-14T10:07:41Z</time>
      </trkpt>
      <trkpt lat="47.2736" lon="0.47777">
        <ele>90.7</ele>
        <time>2024-04-14T10:07:49Z</time>
      </trkpt>
      <trkpt lat="47.27366" lon="0.47796">
        <ele>90.6</ele>
        <time>2024-04-14T10:07:51Z</time>
      </trkpt>
      <trkpt lat="47.27363" lon="0.47827">
        <ele>90.5</ele>
        <time>2024-04-14T10:07:54Z</time>
      </trkpt>
      <trkpt lat="47.27355" lon="0.47907">
        <ele>90.2</ele>
        <time>2024-04-14T10:08:01Z</time>
      </trkpt>
      <trkpt lat="47.27343" lon="0.47964">
        <ele>90.2</ele>
        <time>2024-04-14T10:08:06Z</time>
      </trkpt>
      <trkpt lat="47.27318" lon="0.48027">
        <ele>90.5</ele>
        <time>2024-04-14T10:08:12Z</time>
      </trkpt>
      <trkpt lat="47.27286" lon="0.48096">
        <ele>91.5</ele>
        <time>2024-04-14T10:08:19Z</time>
      </trkpt>
      <trkpt lat="47.27282" lon="0.48106">
        <ele>91.6</ele>
        <time>2024-04-14T10:08:20Z</time>
      </trkpt>
      <trkpt lat="47.27255" lon="0.48162">
        <ele>92.5</ele>
        <time>2024-04-14T10:08:26Z</time>
      </trkpt>
      <trkpt lat="47.27246" lon="0.48179">
        <ele>92.8</ele>
        <time>2024-04-14T10:08:28Z</time>
      </trkpt>
      <trkpt lat="47.27234" lon="0.48202">
        <ele>93.3</ele>
        <time>2024-04-14T10:08:31Z</time>
      </trkpt>
      <trkpt lat="47.27219" lon="0.48221">
        <ele>93.7</ele>
        <time>2024-04-14T10:08:34Z</time>
      </trkpt>
      <trkpt lat="47.27211" lon="0.48233">
        <ele>94.1</ele>
        <time>2024-04-14T10:08:36Z</time>
      </trkpt>
      <trkpt lat="47.27209" lon="0.48248">
        <ele>94.1</ele>
        <time>2024-04-14T10:08:38Z</time>
      </trkpt>
      <trkpt lat="47.27213" lon="0.48263">
        <ele>93.7</ele>
        <time>2024-04-14T10:08:40Z</time>
      </trkpt>
      <trkpt lat="47.27217" lon="0.48269">
        <ele>93.5</ele>
        <time>2024-04-14T10:08:41Z</time>
      </trkpt>
      <trkpt lat="47.27239" lon="0.48289">
        <ele>93</ele>
        <time>2024-04-14T10:08:45Z</time>
      </trkpt>
      <trkpt lat="47.27245" lon="0.48293">
        <ele>93</ele>
        <time>2024-04-14T10:08:46Z</time>
      </trkpt>
      <trkpt lat="47.27262" lon="0.48306">
        <ele>92.8</ele>
        <time>2024-04-14T10:08:49Z</time>
      </trkpt>
      <trkpt lat="47.27286" lon="0.48323">
        <ele>92.5</ele>
        <time>2024-04-14T10:08:53Z</time>
      </trkpt>
      <trkpt lat="47.2733" lon="0.48357">
        <ele>92.1</ele>
        <time>2024-04-14T10:09:00Z</time>
      </trkpt>
      <trkpt lat="47.27349" lon="0.48372">
        <ele>92</ele>
        <time>2024-04-14T10:09:03Z</time>
      </trkpt>
      <trkpt lat="47.27401" lon="0.48405">
        <ele>91.4</ele>
        <time>2024-04-14T10:09:11Z</time>
      </trkpt>
      <trkpt lat="47.27452" lon="0.48431">
        <ele>90.4</ele>
        <time>2024-04-14T10:09:18Z</time>
      </trkpt>
      <trkpt lat="47.27466" lon="0.48439">
        <ele>90.2</ele>
        <time>2024-04-14T10:09:20Z</time>
      </trkpt>
      <trkpt lat="47.27507" lon="0.48465">
        <ele>90.4</ele>
        <time>2024-04-14T10:09:26Z</time>
      </trkpt>
      <trkpt lat="47.2755" lon="0.48498">
        <ele>92.1</ele>
        <time>2024-04-14T10:09:33Z</time>
      </trkpt>
      <trkpt lat="47.27571" lon="0.4852">
        <ele>92.9</ele>
        <time>2024-04-14T10:09:37Z</time>
      </trkpt>
      <trkpt lat="47.27586" lon="0.48539">
        <ele>93.2</ele>
        <time>2024-04-14T10:09:40Z</time>
      </trkpt>
      <trkpt lat="47.27601" lon="0.48558">
        <ele>93.5</ele>
        <time>2024-04-14T10:09:43Z</time>
      </trkpt>
      <trkpt lat="47.27628" lon="0.48583">
        <ele>93.8</ele>
        <time>2024-04-14T10:09:48Z</time>
      </trkpt>
      <trkpt lat="47.27662" lon="0.48603">
        <ele>93.9</ele>
        <time>2024-04-14T10:09:54Z</time>
      </trkpt>
      <trkpt lat="47.27668" lon="0.48606">
        <ele>93.9</ele>
        <time>2024-04-14T10:09:55Z</time>
      </trkpt>
      <trkpt lat="47.27711" lon="0.48628">
        <ele>93.2</ele>
        <time>2024-04-14T10:10:02Z</time>
      </trkpt>
      <trkpt lat="47.27747" lon="0.48647">
        <ele>92.2</ele>
        <time>2024-04-14T10:10:08Z</time>
      </trkpt>
      <trkpt lat="47.2779" lon="0.48671">
        <ele>91.3</ele>
        <time>2024-04-14T10:10:15Z</time>
      </trkpt>
      <trkpt lat="47.27797" lon="0.48675">
        <ele>91.2</ele>
        <time>2024-04-14T10:10:16Z</time>
      </trkpt>
      <trkpt lat="47.27855" lon="0.48706">
        <ele>90.8</ele>
        <time>2024-04-14T10:10:24Z</time>
      </trkpt>
      <trkpt lat="47.27875" lon="0.48715">
        <ele>90.9</ele>
        <time>2024-04-14T10:10:27Z</time>
      </trkpt>
      <trkpt lat="47.27881" lon="0.48713">
        <ele>90.9</ele>
        <time>2024-04-14T10:10:28Z</time>
      </trkpt>
      <trkpt lat="47.27894" lon="0.48692">
        <ele>90.7</ele>
        <time>2024-04-14T10:10:31Z</time>
      </trkpt>
      <trkpt lat="47.279" lon="0.48676">
        <ele>90.7</ele>
        <time>2024-04-14T10:10:33Z</time>
      </trkpt>
      <trkpt lat="47.27903" lon="0.48668">
        <ele>90.7</ele>
        <time>2024-04-14T10:10:34Z</time>
      </trkpt>
      <trkpt lat="47.27916" lon="0.48634">
        <ele>91.1</ele>
        <time>2024-04-14T10:10:38Z</time>
      </trkpt>
      <trkpt lat="47.27933" lon="0.48581">
        <ele>92</ele>
        <time>2024-04-14T10:10:44Z</time>
      </trkpt>
      <trkpt lat="47.27938" lon="0.48562">
        <ele>92.5</ele>
        <time>2024-04-14T10:10:46Z</time>
      </trkpt>
      <trkpt lat="47.27945" lon="0.48533">
        <ele>93.1</ele>
        <time>2024-04-14T10:10:49Z</time>
      </trkpt>
      <trkpt lat="47.2795" lon="0.48515">
        <ele>93.6</ele>
        <time>2024-04-14T10:10:51Z</time>
      </trkpt>
      <trkpt lat="47.27957" lon="0.4849">
        <ele>94.2</ele>
        <time>2024-04-14T10:10:54Z</time>
      </trkpt>
      <trkpt lat="47.27965" lon="0.48467">
        <ele>94.5</ele>
        <time>2024-04-14T10:10:57Z</time>
      </trkpt>
      <trkpt lat="47.2798" lon="0.48407">
        <ele>95.1</ele>
        <time>2024-04-14T10:11:04Z</time>
      </trkpt>
      <trkpt lat="47.27999" lon="0.48343">
        <ele>95.6</ele>
        <time>2024-04-14T10:11:12Z</time>
      </trkpt>
      <trkpt lat="47.28008" lon="0.48311">
        <ele>95.7</ele>
        <time>2024-04-14T10:11:16Z</time>
      </trkpt>
      <trkpt lat="47.2801" lon="0.48293">
        <ele>95.7</ele>
        <time>2024-04-14T10:11:18Z</time>
      </trkpt>
      <trkpt lat="47.2801" lon="0.48275">
        <ele>95.8</ele>
        <time>2024-04-14T10:11:20Z</time>
      </trkpt>
      <trkpt lat="47.28009" lon="0.48252">
        <ele>95.9</ele>
        <time>2024-04-14T10:11:23Z</time>
      </trkpt>
      <trkpt lat="47.28006" lon="0.48212">
        <ele>96.1</ele>
        <time>2024-04-14T10:11:28Z</time>
      </trkpt>
      <trkpt lat="47.28005" lon="0.48194">
        <ele>96.1</ele>
        <time>2024-04-14T10:11:30Z</time>
      </trkpt>
      <trkpt lat="47.28004" lon="0.48184">
        <ele>96.2</ele>
        <time>2024-04-14T10:11:31Z</time>
      </trkpt>
      <trkpt lat="47.28002" lon="0.48165">
        <ele>96.2</ele>
        <time>2024-04-14T10:11:33Z</time>
      </trkpt>
      <trkpt lat="47.27998" lon="0.48134">
        <ele>96.3</ele>
        <time>2024-04-14T10:11:36Z</time>
      </trkpt>
      <trkpt lat="47.27995" lon="0.48105">
        <ele>96.3</ele>
        <time>2024-04-14T10:11:39Z</time>
      </trkpt>
      <trkpt lat="47.27987" lon="0.48029">
        <ele>96.3</ele>
        <time>2024-04-14T10:11:46Z</time>
      </trkpt>
      <trkpt lat="47.27979" lon="0.47969">
        <ele>96.3</ele>
        <time>2024-04-14T10:11:52Z</time>
      </trkpt>
      <trkpt lat="47.27965" lon="0.47951">
        <ele>96.3</ele>
        <time>2024-04-14T10:11:55Z</time>
      </trkpt>
      <trkpt lat="47.27951" lon="0.47946">
        <ele>96.3</ele>
        <time>2024-04-14T10:11:57Z</time>
      </trkpt>
      <trkpt lat="47.27944" lon="0.47944">
        <ele>96.3</ele>
        <time>2024-04-14T10:11:58Z</time>
      </trkpt>
      <trkpt lat="47.27932" lon="0.47938">
        <ele>96.4</ele>
        <time>2024-04-14T10:12:00Z</time>
      </trkpt>
      <trkpt lat="47.27928" lon="0.47922">
        <ele>96.4</ele>
        <time>2024-04-14T10:12:02Z</time>
      </trkpt>
      <trkpt lat="47.27933" lon="0.47897">
        <ele>96.4</ele>
        <time>2024-04-14T10:12:05Z</time>
      </trkpt>
      <trkpt lat="47.27945" lon="0.47831">
        <ele>96.3</ele>
        <time>2024-04-14T10:12:12Z</time>
      </trkpt>
      <trkpt lat="47.27959" lon="0.4775">
        <ele>96.2</ele>
        <time>2024-04-14T10:12:20Z</time>
      </trkpt>
      <trkpt lat="47.27971" lon="0.47679">
        <ele>95.8</ele>
        <time>2024-04-14T10:12:27Z</time>
      </trkpt>
      <trkpt lat="47.27983" lon="0.47603">
        <ele>95.5</ele>
        <time>2024-04-14T10:12:34Z</time>
      </trkpt>
      <trkpt lat="47.27999" lon="0.47519">
        <ele>95.2</ele>
        <time>2024-04-14T10:12:42Z</time>
      </trkpt>
      <trkpt lat="47.28005" lon="0.47499">
        <ele>95.1</ele>
        <time>2024-04-14T10:12:44Z</time>
      </trkpt>
      <trkpt lat="47.28014" lon="0.4747">
        <ele>95</ele>
        <time>2024-04-14T10:12:47Z</time>
      </trkpt>
      <trkpt lat="47.28033" lon="0.47415">
        <ele>95</ele>
        <time>2024-04-14T10:12:53Z</time>
      </trkpt>
      <trkpt lat="47.28036" lon="0.47407">
        <ele>95</ele>
        <time>2024-04-14T10:12:54Z</time>
      </trkpt>
      <trkpt lat="47.28044" lon="0.47391">
        <ele>95</ele>
        <time>2024-04-14T10:12:56Z</time>
      </trkpt>
      <trkpt lat="47.28053" lon="0.47375">
        <ele>95</ele>
        <time>2024-04-14T10:12:58Z</time>
      </trkpt>
      <trkpt lat="47.28062" lon="0.47361">
        <ele>94.9</ele>
        <time>2024-04-14T10:13:00Z</time>
      </trkpt>
      <trkpt lat="47.28084" lon="0.47322">
        <ele>94.7</ele>
        <time>2024-04-14T10:13:05Z</time>
      </trkpt>
      <trkpt lat="47.28096" lon="0.47283">
        <ele>94.6</ele>
        <time>2024-04-14T10:13:09Z</time>
      </trkpt>
      <trkpt lat="47.28099" lon="0.47273">
        <ele>94.6</ele>
        <time>2024-04-14T10:13:10Z</time>
      </trkpt>
      <trkpt lat="47.28114" lon="0.47187">
        <ele>94.3</ele>
        <time>2024-04-14T10:13:18Z</time>
      </trkpt>
      <trkpt lat="47.28127" lon="0.47105">
        <ele>93.3</ele>
        <time>2024-04-14T10:13:26Z</time>
      </trkpt>
      <trkpt lat="47.2813" lon="0.47085">
        <ele>93</ele>
        <time>2024-04-14T10:13:28Z</time>
      </trkpt>
      <trkpt lat="47.28143" lon="0.47018">
        <ele>92</ele>
        <time>2024-04-14T10:13:35Z</time>
      </trkpt>
      <trkpt lat="47.28146" lon="0.46998">
        <ele>91.7</ele>
        <time>2024-04-14T10:13:37Z</time>
      </trkpt>
      <trkpt lat="47.28152" lon="0.46963">
        <ele>91.4</ele>
        <time>2024-04-14T10:13:41Z</time>
      </trkpt>
      <trkpt lat="47.28152" lon="0.46958">
        <ele>91.4</ele>
        <time>2024-04-14T10:13:42Z</time>
      </trkpt>
      <trkpt lat="47.28158" lon="0.46945">
        <ele>91.3</ele>
        <time>2024-04-14T10:13:45Z</time>
      </trkpt>
      <trkpt lat="47.28162" lon="0.46942">
        <ele>91.3</ele>
        <time>2024-04-14T10:13:46Z</time>
      </trkpt>
      <trkpt lat="47.28185" lon="0.46937">
        <ele>91.4</ele>
        <time>2024-04-14T10:13:50Z</time>
      </trkpt>
      <trkpt lat="47.28221" lon="0.46927">
        <ele>91.4</ele>
        <time>2024-04-14T10:13:56Z</time>
      </trkpt>
      <trkpt lat="47.28227" lon="0.46926">
        <ele>91.4</ele>
        <time>2024-04-14T10:13:57Z</time>
      </trkpt>
      <trkpt lat="47.28274" lon="0.46923">
        <ele>91.1</ele>
        <time>2024-04-14T10:14:04Z</time>
      </trkpt>
      <trkpt lat="47.28327" lon="0.46928">
        <ele>90.5</ele>
        <time>2024-04-14T10:14:11Z</time>
      </trkpt>
      <trkpt lat="47.2835" lon="0.4693">
        <ele>90.4</ele>
        <time>2024-04-14T10:14:14Z</time>
      </trkpt>
      <trkpt lat="47.28389" lon="0.46933">
        <ele>90.4</ele>
        <time>2024-04-14T10:14:19Z</time>
      </trkpt>
      <trkpt lat="47.28443" lon="0.46937">
        <ele>90.3</ele>
        <time>2024-04-14T10:14:26Z</time>
      </trkpt>
      <trkpt lat="47.2845" lon="0.46937">
        <ele>90.3</ele>
        <time>2024-04-14T10:14:27Z</time>
      </trkpt>
      <trkpt lat="47.28504" lon="0.4694">
        <ele>89.5</ele>
        <time>2024-04-14T10:14:34Z</time>
      </trkpt>
      <trkpt lat="47.28533" lon="0.46942">
        <ele>89.1</ele>
        <time>2024-04-14T10:14:38Z</time>
      </trkpt>
      <trkpt lat="47.28553" lon="0.46943">
        <ele>88.9</ele>
        <time>2024-04-14T10:14:41Z</time>
      </trkpt>
      <trkpt lat="47.2856" lon="0.46941">
        <ele>88.9</ele>
        <time>2024-04-14T10:14:42Z</time>
      </trkpt>
      <trkpt lat="47.28566" lon="0.46926">
        <ele>88.8</ele>
        <time>2024-04-14T10:14:44Z</time>
      </trkpt>
      <trkpt lat="47.28569" lon="0.469">
        <ele>88.7</ele>
        <time>2024-04-14T10:14:47Z</time>
      </trkpt>
      <trkpt lat="47.28576" lon="0.46834">
        <ele>88.1</ele>
        <time>2024-04-14T10:14:54Z</time>
      </trkpt>
      <trkpt lat="47.28584" lon="0.46757">
        <ele>86.7</ele>
        <time>2024-04-14T10:15:02Z</time>
      </trkpt>
      <trkpt lat="47.28591" lon="0.46716">
        <ele>85.4</ele>
        <time>2024-04-14T10:15:06Z</time>
      </trkpt>
      <trkpt lat="47.28597" lon="0.46694">
        <ele>84.6</ele>
        <time>2024-04-14T10:15:08Z</time>
      </trkpt>
      <trkpt lat="47.286" lon="0.46683">
        <ele>84.2</ele>
        <time>2024-04-14T10:15:09Z</time>
      </trkpt>
      <trkpt lat="47.28614" lon="0.46651">
        <ele>83</ele>
        <time>2024-04-14T10:15:12Z</time>
      </trkpt>
      <trkpt lat="47.28619" lon="0.46642">
        <ele>82.6</ele>
        <time>2024-04-14T10:15:13Z</time>
      </trkpt>
      <trkpt lat="47.28632" lon="0.46623">
        <ele>81.7</ele>
        <time>2024-04-14T10:15:15Z</time>
      </trkpt>
      <trkpt lat="47.28652" lon="0.46597">
        <ele>80.2</ele>
        <time>2024-04-14T10:15:18Z</time>
      </trkpt>
      <trkpt lat="47.28667" lon="0.46581">
        <ele>79.2</ele>
        <time>2024-04-14T10:15:20Z</time>
      </trkpt>
      <trkpt lat="47.28689" lon="0.46556">
        <ele>77.6</ele>
        <time>2024-04-14T10:15:23Z</time>
      </trkpt>
      <trkpt lat="47.28705" lon="0.46539">
        <ele>76.6</ele>
        <time>2024-04-14T10:15:25Z</time>
      </trkpt>
      <trkpt lat="47.2872" lon="0.46521">
        <ele>75.7</ele>
        <time>2024-04-14T10:15:27Z</time>
      </trkpt>
      <trkpt lat="47.28734" lon="0.46501">
        <ele>75.1</ele>
        <time>2024-04-14T10:15:29Z</time>
      </trkpt>
      <trkpt lat="47.28739" lon="0.46488">
        <ele>74.9</ele>
        <time>2024-04-14T10:15:30Z</time>
      </trkpt>
      <trkpt lat="47.28744" lon="0.46474">
        <ele>74.8</ele>
        <time>2024-04-14T10:15:31Z</time>
      </trkpt>
      <trkpt lat="47.28748" lon="0.46446">
        <ele>75.2</ele>
        <time>2024-04-14T10:15:33Z</time>
      </trkpt>
      <trkpt lat="47.2875" lon="0.46432">
        <ele>75.5</ele>
        <time>2024-04-14T10:15:34Z</time>
      </trkpt>
      <trkpt lat="47.28753" lon="0.46408">
        <ele>76.4</ele>
        <time>2024-04-14T10:15:36Z</time>
      </trkpt>
      <trkpt lat="47.28754" lon="0.46396">
        <ele>76.8</ele>
        <time>2024-04-14T10:15:37Z</time>
      </trkpt>
      <trkpt lat="47.28759" lon="0.46345">
        <ele>78.6</ele>
        <time>2024-04-14T10:15:42Z</time>
      </trkpt>
      <trkpt lat="47.2876" lon="0.46336">
        <ele>78.9</ele>
        <time>2024-04-14T10:15:43Z</time>
      </trkpt>
      <trkpt lat="47.2876" lon="0.46327">
        <ele>79.2</ele>
        <time>2024-04-14T10:15:44Z</time>
      </trkpt>
      <trkpt lat="47.2876" lon="0.463">
        <ele>80.1</ele>
        <time>2024-04-14T10:15:47Z</time>
      </trkpt>
      <trkpt lat="47.28758" lon="0.46275">
        <ele>80.8</ele>
        <time>2024-04-14T10:15:50Z</time>
      </trkpt>
      <trkpt lat="47.28751" lon="0.46241">
        <ele>81.7</ele>
        <time>2024-04-14T10:15:54Z</time>
      </trkpt>
      <trkpt lat="47.28747" lon="0.46224">
        <ele>82.1</ele>
        <time>2024-04-14T10:15:56Z</time>
      </trkpt>
      <trkpt lat="47.28739" lon="0.46201">
        <ele>82.7</ele>
        <time>2024-04-14T10:15:59Z</time>
      </trkpt>
      <trkpt lat="47.28732" lon="0.46175">
        <ele>83.2</ele>
        <time>2024-04-14T10:16:02Z</time>
      </trkpt>
      <trkpt lat="47.28729" lon="0.46158">
        <ele>83.6</ele>
        <time>2024-04-14T10:16:04Z</time>
      </trkpt>
      <trkpt lat="47.28724" lon="0.46127">
        <ele>84.3</ele>
        <time>2024-04-14T10:16:08Z</time>
      </trkpt>
      <trkpt lat="47.2872" lon="0.46104">
        <ele>84.8</ele>
        <time>2024-04-14T10:16:11Z</time>
      </trkpt>
      <trkpt lat="47.28709" lon="0.46048">
        <ele>85.8</ele>
        <time>2024-04-14T10:16:18Z</time>
      </trkpt>
      <trkpt lat="47.28699" lon="0.45999">
        <ele>86.5</ele>
        <time>2024-04-14T10:16:24Z</time>
      </trkpt>
      <trkpt lat="47.28692" lon="0.45965">
        <ele>86.7</ele>
        <time>2024-04-14T10:16:28Z</time>
      </trkpt>
      <trkpt lat="47.28684" lon="0.45923">
        <ele>86.9</ele>
        <time>2024-04-14T10:16:33Z</time>
      </trkpt>
      <trkpt lat="47.28676" lon="0.45898">
        <ele>87</ele>
        <time>2024-04-14T10:16:36Z</time>
      </trkpt>
      <trkpt lat="47.28654" lon="0.45839">
        <ele>87.2</ele>
        <time>2024-04-14T10:16:43Z</time>
      </trkpt>
      <trkpt lat="47.28641" lon="0.45783">
        <ele>87.5</ele>
        <time>2024-04-14T10:16:49Z</time>
      </trkpt>
      <trkpt lat="47.28622" lon="0.45721">
        <ele>88</ele>
        <time>2024-04-14T10:16:56Z</time>
      </trkpt>
      <trkpt lat="47.28594" lon="0.45647">
        <ele>89</ele>
        <time>2024-04-14T10:17:05Z</time>
      </trkpt>
      <trkpt lat="47.28587" lon="0.45621">
        <ele>89.3</ele>
        <time>2024-04-14T10:17:08Z</time>
      </trkpt>
      <trkpt lat="47.28581" lon="0.45585">
        <ele>89.9</ele>
        <time>2024-04-14T10:17:12Z</time>
      </trkpt>
      <trkpt lat="47.28576" lon="0.45557">
        <ele>90.3</ele>
        <time>2024-04-14T10:17:15Z</time>
      </trkpt>
      <trkpt lat="47.28564" lon="0.45515">
        <ele>91</ele>
        <time>2024-04-14T10:17:20Z</time>
      </trkpt>
      <trkpt lat="47.28552" lon="0.45482">
        <ele>91.5</ele>
        <time>2024-04-14T10:17:24Z</time>
      </trkpt>
      <trkpt lat="47.28543" lon="0.45457">
        <ele>91.9</ele>
        <time>2024-04-14T10:17:27Z</time>
      </trkpt>
      <trkpt lat="47.28531" lon="0.45425">
        <ele>92.2</ele>
        <time>2024-04-14T10:17:31Z</time>
      </trkpt>
      <trkpt lat="47.28518" lon="0.45385">
        <ele>92.6</ele>
        <time>2024-04-14T10:17:36Z</time>
      </trkpt>
      <trkpt lat="47.28504" lon="0.45327">
        <ele>92.9</ele>
        <time>2024-04-14T10:17:43Z</time>
      </trkpt>
      <trkpt lat="47.285" lon="0.4531">
        <ele>93</ele>
        <time>2024-04-14T10:17:45Z</time>
      </trkpt>
      <trkpt lat="47.28497" lon="0.45274">
        <ele>93.1</ele>
        <time>2024-04-14T10:17:49Z</time>
      </trkpt>
      <trkpt lat="47.28499" lon="0.45212">
        <ele>93.5</ele>
        <time>2024-04-14T10:17:56Z</time>
      </trkpt>
      <trkpt lat="47.285" lon="0.45176">
        <ele>93.9</ele>
        <time>2024-04-14T10:18:00Z</time>
      </trkpt>
      <trkpt lat="47.28502" lon="0.45136">
        <ele>94.4</ele>
        <time>2024-04-14T10:18:05Z</time>
      </trkpt>
      <trkpt lat="47.28502" lon="0.45095">
        <ele>95.2</ele>
        <time>2024-04-14T10:18:11Z</time>
      </trkpt>
      <trkpt lat="47.28499" lon="0.45088">
        <ele>95.3</ele>
        <time>2024-04-14T10:18:13Z</time>
      </trkpt>
      <trkpt lat="47.28497" lon="0.45088">
        <ele>95.3</ele>
        <time>2024-04-14T10:18:14Z</time>
      </trkpt>
      <trkpt lat="47.28489" lon="0.45088">
        <ele>95.3</ele>
        <time>2024-04-14T10:18:16Z</time>
      </trkpt>
      <trkpt lat="47.28481" lon="0.45086">
        <ele>95.3</ele>
        <time>2024-04-14T10:18:18Z</time>
      </trkpt>
      <trkpt lat="47.28449" lon="0.45075">
        <ele>95.3</ele>
        <time>2024-04-14T10:18:24Z</time>
      </trkpt>
      <trkpt lat="47.28405" lon="0.45061">
        <ele>94.9</ele>
        <time>2024-04-14T10:18:31Z</time>
      </trkpt>
      <trkpt lat="47.28362" lon="0.45059">
        <ele>94.2</ele>
        <time>2024-04-14T10:18:37Z</time>
      </trkpt>
      <trkpt lat="47.28347" lon="0.4506">
        <ele>93.9</ele>
        <time>2024-04-14T10:18:39Z</time>
      </trkpt>
      <trkpt lat="47.28307" lon="0.45065">
        <ele>92.9</ele>
        <time>2024-04-14T10:18:44Z</time>
      </trkpt>
      <trkpt lat="47.28291" lon="0.45066">
        <ele>92.4</ele>
        <time>2024-04-14T10:18:46Z</time>
      </trkpt>
      <trkpt lat="47.28259" lon="0.45065">
        <ele>91.6</ele>
        <time>2024-04-14T10:18:50Z</time>
      </trkpt>
      <trkpt lat="47.28251" lon="0.45064">
        <ele>91.4</ele>
        <time>2024-04-14T10:18:51Z</time>
      </trkpt>
      <trkpt lat="47.28226" lon="0.45059">
        <ele>90.7</ele>
        <time>2024-04-14T10:18:54Z</time>
      </trkpt>
      <trkpt lat="47.28192" lon="0.45048">
        <ele>89.9</ele>
        <time>2024-04-14T10:18:58Z</time>
      </trkpt>
      <trkpt lat="47.28183" lon="0.45044">
        <ele>89.7</ele>
        <time>2024-04-14T10:18:59Z</time>
      </trkpt>
      <trkpt lat="47.2815" lon="0.45027">
        <ele>89.4</ele>
        <time>2024-04-14T10:19:03Z</time>
      </trkpt>
      <trkpt lat="47.28135" lon="0.45018">
        <ele>89.5</ele>
        <time>2024-04-14T10:19:05Z</time>
      </trkpt>
      <trkpt lat="47.28084" lon="0.4498">
        <ele>89.9</ele>
        <time>2024-04-14T10:19:12Z</time>
      </trkpt>
      <trkpt lat="47.28077" lon="0.44975">
        <ele>90</ele>
        <time>2024-04-14T10:19:13Z</time>
      </trkpt>
      <trkpt lat="47.28043" lon="0.44949">
        <ele>90.4</ele>
        <time>2024-04-14T10:19:18Z</time>
      </trkpt>
      <trkpt lat="47.28022" lon="0.44938">
        <ele>90.6</ele>
        <time>2024-04-14T10:19:21Z</time>
      </trkpt>
      <trkpt lat="47.27978" lon="0.44926">
        <ele>90.8</ele>
        <time>2024-04-14T10:19:27Z</time>
      </trkpt>
      <trkpt lat="47.27936" lon="0.44906">
        <ele>91</ele>
        <time>2024-04-14T10:19:33Z</time>
      </trkpt>
      <trkpt lat="47.27916" lon="0.44893">
        <ele>91.2</ele>
        <time>2024-04-14T10:19:36Z</time>
      </trkpt>
      <trkpt lat="47.2789" lon="0.44874">
        <ele>91.4</ele>
        <time>2024-04-14T10:19:40Z</time>
      </trkpt>
      <trkpt lat="47.27878" lon="0.44864">
        <ele>91.5</ele>
        <time>2024-04-14T10:19:42Z</time>
      </trkpt>
      <trkpt lat="47.27857" lon="0.44843">
        <ele>91.8</ele>
        <time>2024-04-14T10:19:46Z</time>
      </trkpt>
      <trkpt lat="47.2782" lon="0.44819">
        <ele>91.8</ele>
        <time>2024-04-14T10:19:52Z</time>
      </trkpt>
      <trkpt lat="47.27778" lon="0.44801">
        <ele>91</ele>
        <time>2024-04-14T10:19:58Z</time>
      </trkpt>
      <trkpt lat="47.2772" lon="0.4478">
        <ele>89.7</ele>
        <time>2024-04-14T10:20:06Z</time>
      </trkpt>
      <trkpt lat="47.27713" lon="0.44777">
        <ele>89.6</ele>
        <time>2024-04-14T10:20:07Z</time>
      </trkpt>
      <trkpt lat="47.27699" lon="0.44771">
        <ele>89.2</ele>
        <time>2024-04-14T10:20:09Z</time>
      </trkpt>
      <trkpt lat="47.27661" lon="0.44758">
        <ele>88.2</ele>
        <time>2024-04-14T10:20:14Z</time>
      </trkpt>
      <trkpt lat="47.27654" lon="0.44755">
        <ele>88</ele>
        <time>2024-04-14T10:20:15Z</time>
      </trkpt>
      <trkpt lat="47.27623" lon="0.44746">
        <ele>87.4</ele>
        <time>2024-04-14T10:20:19Z</time>
      </trkpt>
      <trkpt lat="47.27592" lon="0.44738">
        <ele>86.5</ele>
        <time>2024-04-14T10:20:23Z</time>
      </trkpt>
      <trkpt lat="47.27568" lon="0.44733">
        <ele>85.8</ele>
        <time>2024-04-14T10:20:26Z</time>
      </trkpt>
      <trkpt lat="47.27559" lon="0.44731">
        <ele>85.6</ele>
        <time>2024-04-14T10:20:27Z</time>
      </trkpt>
      <trkpt lat="47.27535" lon="0.44726">
        <ele>85.1</ele>
        <time>2024-04-14T10:20:30Z</time>
      </trkpt>
      <trkpt lat="47.27528" lon="0.44725">
        <ele>85</ele>
        <time>2024-04-14T10:20:31Z</time>
      </trkpt>
      <trkpt lat="47.27522" lon="0.44722">
        <ele>84.9</ele>
        <time>2024-04-14T10:20:32Z</time>
      </trkpt>
      <trkpt lat="47.27519" lon="0.44711">
        <ele>84.8</ele>
        <time>2024-04-14T10:20:34Z</time>
      </trkpt>
      <trkpt lat="47.27524" lon="0.447">
        <ele>84.9</ele>
        <time>2024-04-14T10:20:36Z</time>
      </trkpt>
      <trkpt lat="47.27533" lon="0.44694">
        <ele>84.9</ele>
        <time>2024-04-14T10:20:38Z</time>
      </trkpt>
      <trkpt lat="47.27543" lon="0.44686">
        <ele>85.1</ele>
        <time>2024-04-14T10:20:40Z</time>
      </trkpt>
      <trkpt lat="47.27553" lon="0.44677">
        <ele>85.2</ele>
        <time>2024-04-14T10:20:42Z</time>
      </trkpt>
      <trkpt lat="47.27575" lon="0.44657">
        <ele>85.8</ele>
        <time>2024-04-14T10:20:46Z</time>
      </trkpt>
      <trkpt lat="47.27606" lon="0.44628">
        <ele>86.6</ele>
        <time>2024-04-14T10:20:52Z</time>
      </trkpt>
      <trkpt lat="47.27616" lon="0.44618">
        <ele>86.8</ele>
        <time>2024-04-14T10:20:54Z</time>
      </trkpt>
      <trkpt lat="47.27627" lon="0.44609">
        <ele>87</ele>
        <time>2024-04-14T10:20:56Z</time>
      </trkpt>
      <trkpt lat="47.2766" lon="0.44583">
        <ele>87.6</ele>
        <time>2024-04-14T10:21:02Z</time>
      </trkpt>
      <trkpt lat="47.27672" lon="0.44574">
        <ele>87.8</ele>
        <time>2024-04-14T10:21:04Z</time>
      </trkpt>
      <trkpt lat="47.27709" lon="0.44552">
        <ele>88.5</ele>
        <time>2024-04-14T10:21:10Z</time>
      </trkpt>
      <trkpt lat="47.27721" lon="0.44549">
        <ele>88.8</ele>
        <time>2024-04-14T10:21:12Z</time>
      </trkpt>
      <trkpt lat="47.27746" lon="0.44546">
        <ele>89.4</ele>
        <time>2024-04-14T10:21:16Z</time>
      </trkpt>
      <trkpt lat="47.27786" lon="0.44541">
        <ele>90.7</ele>
        <time>2024-04-14T10:21:23Z</time>
      </trkpt>
      <trkpt lat="47.27796" lon="0.44537">
        <ele>91</ele>
        <time>2024-04-14T10:21:25Z</time>
      </trkpt>
      <trkpt lat="47.27822" lon="0.44523">
        <ele>91.5</ele>
        <time>2024-04-14T10:21:30Z</time>
      </trkpt>
      <trkpt lat="47.27854" lon="0.44502">
        <ele>92</ele>
        <time>2024-04-14T10:21:36Z</time>
      </trkpt>
      <trkpt lat="47.27865" lon="0.44492">
        <ele>92.1</ele>
        <time>2024-04-14T10:21:38Z</time>
      </trkpt>
      <trkpt lat="47.279" lon="0.44453">
        <ele>92.6</ele>
        <time>2024-04-14T10:21:45Z</time>
      </trkpt>
      <trkpt lat="47.27931" lon="0.4442">
        <ele>92.9</ele>
        <time>2024-04-14T10:21:51Z</time>
      </trkpt>
      <trkpt lat="47.27946" lon="0.44403">
        <ele>93</ele>
        <time>2024-04-14T10:21:54Z</time>
      </trkpt>
      <trkpt lat="47.27979" lon="0.44362">
        <ele>93.4</ele>
        <time>2024-04-14T10:22:01Z</time>
      </trkpt>
      <trkpt lat="47.28011" lon="0.44313">
        <ele>93.6</ele>
        <time>2024-04-14T10:22:09Z</time>
      </trkpt>
      <trkpt lat="47.28019" lon="0.44302">
        <ele>93.6</ele>
        <time>2024-04-14T10:22:11Z</time>
      </trkpt>
      <trkpt lat="47.2804" lon="0.44272">
        <ele>93.5</ele>
        <time>2024-04-14T10:22:16Z</time>
      </trkpt>
      <trkpt lat="47.28075" lon="0.44224">
        <ele>92.9</ele>
        <time>2024-04-14T10:22:24Z</time>
      </trkpt>
      <trkpt lat="47.28101" lon="0.44188">
        <ele>92.3</ele>
        <time>2024-04-14T10:22:30Z</time>
      </trkpt>
      <trkpt lat="47.28112" lon="0.44179">
        <ele>92.1</ele>
        <time>2024-04-14T10:22:32Z</time>
      </trkpt>
      <trkpt lat="47.28122" lon="0.44168">
        <ele>91.9</ele>
        <time>2024-04-14T10:22:34Z</time>
      </trkpt>
      <trkpt lat="47.28123" lon="0.4416">
        <ele>91.8</ele>
        <time>2024-04-14T10:22:35Z</time>
      </trkpt>
      <trkpt lat="47.28123" lon="0.44151">
        <ele>91.8</ele>
        <time>2024-04-14T10:22:36Z</time>
      </trkpt>
      <trkpt lat="47.28118" lon="0.44134">
        <ele>91.6</ele>
        <time>2024-04-14T10:22:38Z</time>
      </trkpt>
      <trkpt lat="47.28116" lon="0.44125">
        <ele>91.6</ele>
        <time>2024-04-14T10:22:39Z</time>
      </trkpt>
      <trkpt lat="47.28095" lon="0.44074">
        <ele>91.7</ele>
        <time>2024-04-14T10:22:45Z</time>
      </trkpt>
      <trkpt lat="47.28066" lon="0.44005">
        <ele>92.1</ele>
        <time>2024-04-14T10:22:53Z</time>
      </trkpt>
      <trkpt lat="47.28037" lon="0.43937">
        <ele>92.3</ele>
        <time>2024-04-14T10:23:01Z</time>
      </trkpt>
      <trkpt lat="47.28003" lon="0.43871">
        <ele>91.8</ele>
        <time>2024-04-14T10:23:09Z</time>
      </trkpt>
      <trkpt lat="47.27985" lon="0.43818">
        <ele>91.3</ele>
        <time>2024-04-14T10:23:15Z</time>
      </trkpt>
      <trkpt lat="47.27984" lon="0.43809">
        <ele>91.2</ele>
        <time>2024-04-14T10:23:16Z</time>
      </trkpt>
      <trkpt lat="47.27983" lon="0.43778">
        <ele>91</ele>
        <time>2024-04-14T10:23:19Z</time>
      </trkpt>
      <trkpt lat="47.27979" lon="0.437">
        <ele>90.3</ele>
        <time>2024-04-14T10:23:27Z</time>
      </trkpt>
      <trkpt lat="47.27967" lon="0.43633">
        <ele>89.8</ele>
        <time>2024-04-14T10:23:34Z</time>
      </trkpt>
      <trkpt lat="47.27948" lon="0.4358">
        <ele>89.2</ele>
        <time>2024-04-14T10:23:40Z</time>
      </trkpt>
      <trkpt lat="47.27944" lon="0.43572">
        <ele>89.1</ele>
        <time>2024-04-14T10:23:41Z</time>
      </trkpt>
      <trkpt lat="47.27933" lon="0.43558">
        <ele>88.9</ele>
        <time>2024-04-14T10:23:43Z</time>
      </trkpt>
      <trkpt lat="47.27928" lon="0.43552">
        <ele>88.9</ele>
        <time>2024-04-14T10:23:44Z</time>
      </trkpt>
      <trkpt lat="47.27916" lon="0.43542">
        <ele>88.7</ele>
        <time>2024-04-14T10:23:46Z</time>
      </trkpt>
      <trkpt lat="47.27899" lon="0.43531">
        <ele>88.5</ele>
        <time>2024-04-14T10:23:49Z</time>
      </trkpt>
      <trkpt lat="47.27877" lon="0.43514">
        <ele>88.3</ele>
        <time>2024-04-14T10:23:53Z</time>
      </trkpt>
      <trkpt lat="47.27871" lon="0.43509">
        <ele>88.2</ele>
        <time>2024-04-14T10:23:54Z</time>
      </trkpt>
      <trkpt lat="47.27865" lon="0.43503">
        <ele>88.1</ele>
        <time>2024-04-14T10:23:55Z</time>
      </trkpt>
      <trkpt lat="47.2786" lon="0.43496">
        <ele>88.1</ele>
        <time>2024-04-14T10:23:56Z</time>
      </trkpt>
      <trkpt lat="47.27845" lon="0.43478">
        <ele>87.8</ele>
        <time>2024-04-14T10:23:59Z</time>
      </trkpt>
      <trkpt lat="47.27841" lon="0.4347">
        <ele>87.7</ele>
        <time>2024-04-14T10:24:00Z</time>
      </trkpt>
      <trkpt lat="47.27823" lon="0.4344">
        <ele>87.3</ele>
        <time>2024-04-14T10:24:04Z</time>
      </trkpt>
      <trkpt lat="47.278" lon="0.43407">
        <ele>86.7</ele>
        <time>2024-04-14T10:24:09Z</time>
      </trkpt>
      <trkpt lat="47.2779" lon="0.43395">
        <ele>86.5</ele>
        <time>2024-04-14T10:24:11Z</time>
      </trkpt>
      <trkpt lat="47.27784" lon="0.4339">
        <ele>86.4</ele>
        <time>2024-04-14T10:24:12Z</time>
      </trkpt>
      <trkpt lat="47.27757" lon="0.43367">
        <ele>85.9</ele>
        <time>2024-04-14T10:24:17Z</time>
      </trkpt>
      <trkpt lat="47.27741" lon="0.43351">
        <ele>85.5</ele>
        <time>2024-04-14T10:24:20Z</time>
      </trkpt>
      <trkpt lat="47.27723" lon="0.43336">
        <ele>85.3</ele>
        <time>2024-04-14T10:24:23Z</time>
      </trkpt>
      <trkpt lat="47.2769" lon="0.43317">
        <ele>84.7</ele>
        <time>2024-04-14T10:24:28Z</time>
      </trkpt>
      <trkpt lat="47.27684" lon="0.43314">
        <ele>84.5</ele>
        <time>2024-04-14T10:24:29Z</time>
      </trkpt>
      <trkpt lat="47.27645" lon="0.43302">
        <ele>83.7</ele>
        <time>2024-04-14T10:24:35Z</time>
      </trkpt>
      <trkpt lat="47.27638" lon="0.433">
        <ele>83.5</ele>
        <time>2024-04-14T10:24:36Z</time>
      </trkpt>
      <trkpt lat="47.27599" lon="0.43287">
        <ele>82.4</ele>
        <time>2024-04-14T10:24:42Z</time>
      </trkpt>
      <trkpt lat="47.27585" lon="0.43281">
        <ele>82</ele>
        <time>2024-04-14T10:24:44Z</time>
      </trkpt>
      <trkpt lat="47.27578" lon="0.43277">
        <ele>81.8</ele>
        <time>2024-04-14T10:24:45Z</time>
      </trkpt>
      <trkpt lat="47.27544" lon="0.43257">
        <ele>80.5</ele>
        <time>2024-04-14T10:24:50Z</time>
      </trkpt>
      <trkpt lat="47.2753" lon="0.43248">
        <ele>79.7</ele>
        <time>2024-04-14T10:24:52Z</time>
      </trkpt>
      <trkpt lat="47.2749" lon="0.43232">
        <ele>77.3</ele>
        <time>2024-04-14T10:24:57Z</time>
      </trkpt>
      <trkpt lat="47.27473" lon="0.43227">
        <ele>76.3</ele>
        <time>2024-04-14T10:24:59Z</time>
      </trkpt>
      <trkpt lat="47.27457" lon="0.43221">
        <ele>75.2</ele>
        <time>2024-04-14T10:25:01Z</time>
      </trkpt>
      <trkpt lat="47.27442" lon="0.43217">
        <ele>74.2</ele>
        <time>2024-04-14T10:25:03Z</time>
      </trkpt>
      <trkpt lat="47.2742" lon="0.43212">
        <ele>72.7</ele>
        <time>2024-04-14T10:25:06Z</time>
      </trkpt>
      <trkpt lat="47.27415" lon="0.43212">
        <ele>72.3</ele>
        <time>2024-04-14T10:25:07Z</time>
      </trkpt>
      <trkpt lat="47.27409" lon="0.4321">
        <ele>71.9</ele>
        <time>2024-04-14T10:25:09Z</time>
      </trkpt>
      <trkpt lat="47.27409" lon="0.43207">
        <ele>71.9</ele>
        <time>2024-04-14T10:25:10Z</time>
      </trkpt>
      <trkpt lat="47.2741" lon="0.43198">
        <ele>71.9</ele>
        <time>2024-04-14T10:25:14Z</time>
      </trkpt>
    </trkseg>
  </trk>
</gpx>